<?xml version="1.0" encoding="UTF-8" standalone="no" ?>
<gpx xmlns="http://www.topografix.com/GPX/1/1" xmlns:xsi="http://www.w3.org/2001/XMLSchema-instance" xsi:schemaLocation="http://www.topografix.com/GPX/1/1 http://www.topografix.com/GPX/1/1/gpx.xsd" version="1.1" creator="VisuGPX - https://www.visugpx.com">
  <metadata>
    <name>SO-E-Brain Port St Père St Pazanne St Meme le Tenu St Philbert Chevrolière St Aignan</name>
    <desc><![CDATA[SO-E-Brain Port St Père St Pazanne St Meme le Tenu St Philbert Chevrolière St Aignan]]></desc>
  </metadata>
  <trk>
    <name><![CDATA[2021-08-01 09:02 +02:00]]></name>
    <trkseg>
      <trkpt lat="47.16779" lon="-1.62662">
        <ele>78</ele>
        <time>2021-08-01T07:02:47.000Z</time>
      </trkpt>
      <trkpt lat="47.16775" lon="-1.62649">
        <ele>70</ele>
        <time>2021-08-01T07:04:22.000Z</time>
      </trkpt>
      <trkpt lat="47.16781" lon="-1.62661">
        <ele>71</ele>
        <time>2021-08-01T07:04:49.000Z</time>
      </trkpt>
      <trkpt lat="47.16776" lon="-1.62672">
        <ele>72</ele>
        <time>2021-08-01T07:04:51.000Z</time>
      </trkpt>
      <trkpt lat="47.16766" lon="-1.62677">
        <ele>71</ele>
        <time>2021-08-01T07:04:53.000Z</time>
      </trkpt>
      <trkpt lat="47.16755" lon="-1.62671">
        <ele>71</ele>
        <time>2021-08-01T07:04:55.000Z</time>
      </trkpt>
      <trkpt lat="47.16743" lon="-1.62674">
        <ele>72</ele>
        <time>2021-08-01T07:04:57.000Z</time>
      </trkpt>
      <trkpt lat="47.16733" lon="-1.62682">
        <ele>72</ele>
        <time>2021-08-01T07:04:59.000Z</time>
      </trkpt>
      <trkpt lat="47.16723" lon="-1.6269">
        <ele>71</ele>
        <time>2021-08-01T07:05:01.000Z</time>
      </trkpt>
      <trkpt lat="47.16718" lon="-1.62702">
        <ele>71</ele>
        <time>2021-08-01T07:05:03.000Z</time>
      </trkpt>
      <trkpt lat="47.16724" lon="-1.62717">
        <ele>72</ele>
        <time>2021-08-01T07:05:05.000Z</time>
      </trkpt>
      <trkpt lat="47.16732" lon="-1.62731">
        <ele>71</ele>
        <time>2021-08-01T07:05:07.000Z</time>
      </trkpt>
      <trkpt lat="47.1674" lon="-1.62745">
        <ele>71</ele>
        <time>2021-08-01T07:05:09.000Z</time>
      </trkpt>
      <trkpt lat="47.16749" lon="-1.62757">
        <ele>71</ele>
        <time>2021-08-01T07:05:11.000Z</time>
      </trkpt>
      <trkpt lat="47.1676" lon="-1.62769">
        <ele>70</ele>
        <time>2021-08-01T07:05:13.000Z</time>
      </trkpt>
      <trkpt lat="47.16771" lon="-1.62779">
        <ele>70</ele>
        <time>2021-08-01T07:05:15.000Z</time>
      </trkpt>
      <trkpt lat="47.16782" lon="-1.62789">
        <ele>70</ele>
        <time>2021-08-01T07:05:17.000Z</time>
      </trkpt>
      <trkpt lat="47.16794" lon="-1.62799">
        <ele>70</ele>
        <time>2021-08-01T07:05:19.000Z</time>
      </trkpt>
      <trkpt lat="47.16805" lon="-1.62809">
        <ele>70</ele>
        <time>2021-08-01T07:05:21.000Z</time>
      </trkpt>
      <trkpt lat="47.16816" lon="-1.62819">
        <ele>71</ele>
        <time>2021-08-01T07:05:23.000Z</time>
      </trkpt>
      <trkpt lat="47.16826" lon="-1.62829">
        <ele>71</ele>
        <time>2021-08-01T07:05:25.000Z</time>
      </trkpt>
      <trkpt lat="47.16836" lon="-1.62839">
        <ele>71</ele>
        <time>2021-08-01T07:05:27.000Z</time>
      </trkpt>
      <trkpt lat="47.16846" lon="-1.62848">
        <ele>72</ele>
        <time>2021-08-01T07:05:29.000Z</time>
      </trkpt>
      <trkpt lat="47.16856" lon="-1.62858">
        <ele>72</ele>
        <time>2021-08-01T07:05:31.000Z</time>
      </trkpt>
      <trkpt lat="47.16866" lon="-1.62868">
        <ele>73</ele>
        <time>2021-08-01T07:05:33.000Z</time>
      </trkpt>
      <trkpt lat="47.16874" lon="-1.6288">
        <ele>73</ele>
        <time>2021-08-01T07:05:35.000Z</time>
      </trkpt>
      <trkpt lat="47.16881" lon="-1.62894">
        <ele>74</ele>
        <time>2021-08-01T07:05:37.000Z</time>
      </trkpt>
      <trkpt lat="47.16885" lon="-1.6291">
        <ele>74</ele>
        <time>2021-08-01T07:05:39.000Z</time>
      </trkpt>
      <trkpt lat="47.16888" lon="-1.62928">
        <ele>75</ele>
        <time>2021-08-01T07:05:41.000Z</time>
      </trkpt>
      <trkpt lat="47.1689" lon="-1.62946">
        <ele>75</ele>
        <time>2021-08-01T07:05:43.000Z</time>
      </trkpt>
      <trkpt lat="47.16891" lon="-1.62963">
        <ele>76</ele>
        <time>2021-08-01T07:05:45.000Z</time>
      </trkpt>
      <trkpt lat="47.1689" lon="-1.62981">
        <ele>76</ele>
        <time>2021-08-01T07:05:47.000Z</time>
      </trkpt>
      <trkpt lat="47.16888" lon="-1.62999">
        <ele>76</ele>
        <time>2021-08-01T07:05:49.000Z</time>
      </trkpt>
      <trkpt lat="47.16887" lon="-1.63016">
        <ele>76</ele>
        <time>2021-08-01T07:05:51.000Z</time>
      </trkpt>
      <trkpt lat="47.16886" lon="-1.63034">
        <ele>76</ele>
        <time>2021-08-01T07:05:53.000Z</time>
      </trkpt>
      <trkpt lat="47.16886" lon="-1.63052">
        <ele>76</ele>
        <time>2021-08-01T07:05:55.000Z</time>
      </trkpt>
      <trkpt lat="47.16888" lon="-1.6307">
        <ele>77</ele>
        <time>2021-08-01T07:05:57.000Z</time>
      </trkpt>
      <trkpt lat="47.1689" lon="-1.63088">
        <ele>76</ele>
        <time>2021-08-01T07:05:59.000Z</time>
      </trkpt>
      <trkpt lat="47.16894" lon="-1.63105">
        <ele>76</ele>
        <time>2021-08-01T07:06:01.000Z</time>
      </trkpt>
      <trkpt lat="47.16898" lon="-1.63121">
        <ele>77</ele>
        <time>2021-08-01T07:06:03.000Z</time>
      </trkpt>
      <trkpt lat="47.16902" lon="-1.63137">
        <ele>77</ele>
        <time>2021-08-01T07:06:05.000Z</time>
      </trkpt>
      <trkpt lat="47.16908" lon="-1.63153">
        <ele>77</ele>
        <time>2021-08-01T07:06:07.000Z</time>
      </trkpt>
      <trkpt lat="47.16914" lon="-1.63167">
        <ele>77</ele>
        <time>2021-08-01T07:06:09.000Z</time>
      </trkpt>
      <trkpt lat="47.16921" lon="-1.63182">
        <ele>77</ele>
        <time>2021-08-01T07:06:11.000Z</time>
      </trkpt>
      <trkpt lat="47.16928" lon="-1.63195">
        <ele>77</ele>
        <time>2021-08-01T07:06:13.000Z</time>
      </trkpt>
      <trkpt lat="47.16936" lon="-1.63207">
        <ele>78</ele>
        <time>2021-08-01T07:06:15.000Z</time>
      </trkpt>
      <trkpt lat="47.16944" lon="-1.63218">
        <ele>78</ele>
        <time>2021-08-01T07:06:17.000Z</time>
      </trkpt>
      <trkpt lat="47.16951" lon="-1.63228">
        <ele>78</ele>
        <time>2021-08-01T07:06:19.000Z</time>
      </trkpt>
      <trkpt lat="47.16959" lon="-1.63237">
        <ele>78</ele>
        <time>2021-08-01T07:06:21.000Z</time>
      </trkpt>
      <trkpt lat="47.16967" lon="-1.6325">
        <ele>78</ele>
        <time>2021-08-01T07:06:24.000Z</time>
      </trkpt>
      <trkpt lat="47.16963" lon="-1.63263">
        <ele>78</ele>
        <time>2021-08-01T07:06:26.000Z</time>
      </trkpt>
      <trkpt lat="47.16955" lon="-1.63276">
        <ele>78</ele>
        <time>2021-08-01T07:06:28.000Z</time>
      </trkpt>
      <trkpt lat="47.16947" lon="-1.63289">
        <ele>78</ele>
        <time>2021-08-01T07:06:30.000Z</time>
      </trkpt>
      <trkpt lat="47.16939" lon="-1.63303">
        <ele>78</ele>
        <time>2021-08-01T07:06:32.000Z</time>
      </trkpt>
      <trkpt lat="47.1693" lon="-1.63317">
        <ele>78</ele>
        <time>2021-08-01T07:06:34.000Z</time>
      </trkpt>
      <trkpt lat="47.16921" lon="-1.6333">
        <ele>78</ele>
        <time>2021-08-01T07:06:36.000Z</time>
      </trkpt>
      <trkpt lat="47.16912" lon="-1.63344">
        <ele>78</ele>
        <time>2021-08-01T07:06:38.000Z</time>
      </trkpt>
      <trkpt lat="47.16904" lon="-1.63357">
        <ele>78</ele>
        <time>2021-08-01T07:06:40.000Z</time>
      </trkpt>
      <trkpt lat="47.16895" lon="-1.6337">
        <ele>78</ele>
        <time>2021-08-01T07:06:42.000Z</time>
      </trkpt>
      <trkpt lat="47.16886" lon="-1.63384">
        <ele>79</ele>
        <time>2021-08-01T07:06:44.000Z</time>
      </trkpt>
      <trkpt lat="47.16878" lon="-1.63398">
        <ele>79</ele>
        <time>2021-08-01T07:06:46.000Z</time>
      </trkpt>
      <trkpt lat="47.1687" lon="-1.63413">
        <ele>79</ele>
        <time>2021-08-01T07:06:48.000Z</time>
      </trkpt>
      <trkpt lat="47.16861" lon="-1.63428">
        <ele>79</ele>
        <time>2021-08-01T07:06:50.000Z</time>
      </trkpt>
      <trkpt lat="47.16852" lon="-1.63441">
        <ele>79</ele>
        <time>2021-08-01T07:06:52.000Z</time>
      </trkpt>
      <trkpt lat="47.16845" lon="-1.63455">
        <ele>80</ele>
        <time>2021-08-01T07:06:54.000Z</time>
      </trkpt>
      <trkpt lat="47.16836" lon="-1.63468">
        <ele>80</ele>
        <time>2021-08-01T07:06:56.000Z</time>
      </trkpt>
      <trkpt lat="47.16828" lon="-1.63482">
        <ele>80</ele>
        <time>2021-08-01T07:06:58.000Z</time>
      </trkpt>
      <trkpt lat="47.16819" lon="-1.63497">
        <ele>80</ele>
        <time>2021-08-01T07:07:00.000Z</time>
      </trkpt>
      <trkpt lat="47.16811" lon="-1.63511">
        <ele>79</ele>
        <time>2021-08-01T07:07:02.000Z</time>
      </trkpt>
      <trkpt lat="47.16803" lon="-1.63526">
        <ele>79</ele>
        <time>2021-08-01T07:07:04.000Z</time>
      </trkpt>
      <trkpt lat="47.16794" lon="-1.63541">
        <ele>79</ele>
        <time>2021-08-01T07:07:06.000Z</time>
      </trkpt>
      <trkpt lat="47.16784" lon="-1.63555">
        <ele>79</ele>
        <time>2021-08-01T07:07:08.000Z</time>
      </trkpt>
      <trkpt lat="47.16775" lon="-1.6357">
        <ele>79</ele>
        <time>2021-08-01T07:07:10.000Z</time>
      </trkpt>
      <trkpt lat="47.16767" lon="-1.63586">
        <ele>79</ele>
        <time>2021-08-01T07:07:12.000Z</time>
      </trkpt>
      <trkpt lat="47.16759" lon="-1.63602">
        <ele>79</ele>
        <time>2021-08-01T07:07:14.000Z</time>
      </trkpt>
      <trkpt lat="47.16749" lon="-1.63617">
        <ele>78</ele>
        <time>2021-08-01T07:07:16.000Z</time>
      </trkpt>
      <trkpt lat="47.16743" lon="-1.63632">
        <ele>78</ele>
        <time>2021-08-01T07:07:18.000Z</time>
      </trkpt>
      <trkpt lat="47.1675" lon="-1.63646">
        <ele>79</ele>
        <time>2021-08-01T07:07:20.000Z</time>
      </trkpt>
      <trkpt lat="47.16763" lon="-1.6365">
        <ele>78</ele>
        <time>2021-08-01T07:07:22.000Z</time>
      </trkpt>
      <trkpt lat="47.16776" lon="-1.63655">
        <ele>78</ele>
        <time>2021-08-01T07:07:24.000Z</time>
      </trkpt>
      <trkpt lat="47.1679" lon="-1.6366">
        <ele>78</ele>
        <time>2021-08-01T07:07:26.000Z</time>
      </trkpt>
      <trkpt lat="47.16803" lon="-1.63665">
        <ele>78</ele>
        <time>2021-08-01T07:07:28.000Z</time>
      </trkpt>
      <trkpt lat="47.16816" lon="-1.63668">
        <ele>79</ele>
        <time>2021-08-01T07:07:30.000Z</time>
      </trkpt>
      <trkpt lat="47.16829" lon="-1.63673">
        <ele>78</ele>
        <time>2021-08-01T07:07:32.000Z</time>
      </trkpt>
      <trkpt lat="47.16842" lon="-1.63678">
        <ele>79</ele>
        <time>2021-08-01T07:07:34.000Z</time>
      </trkpt>
      <trkpt lat="47.16856" lon="-1.63682">
        <ele>79</ele>
        <time>2021-08-01T07:07:36.000Z</time>
      </trkpt>
      <trkpt lat="47.16869" lon="-1.63688">
        <ele>79</ele>
        <time>2021-08-01T07:07:38.000Z</time>
      </trkpt>
      <trkpt lat="47.16882" lon="-1.63693">
        <ele>79</ele>
        <time>2021-08-01T07:07:40.000Z</time>
      </trkpt>
      <trkpt lat="47.16896" lon="-1.63698">
        <ele>80</ele>
        <time>2021-08-01T07:07:42.000Z</time>
      </trkpt>
      <trkpt lat="47.16909" lon="-1.63703">
        <ele>80</ele>
        <time>2021-08-01T07:07:44.000Z</time>
      </trkpt>
      <trkpt lat="47.16923" lon="-1.63708">
        <ele>79</ele>
        <time>2021-08-01T07:07:46.000Z</time>
      </trkpt>
      <trkpt lat="47.16937" lon="-1.63712">
        <ele>79</ele>
        <time>2021-08-01T07:07:48.000Z</time>
      </trkpt>
      <trkpt lat="47.1695" lon="-1.63718">
        <ele>79</ele>
        <time>2021-08-01T07:07:50.000Z</time>
      </trkpt>
      <trkpt lat="47.16964" lon="-1.63723">
        <ele>78</ele>
        <time>2021-08-01T07:07:52.000Z</time>
      </trkpt>
      <trkpt lat="47.16978" lon="-1.63727">
        <ele>78</ele>
        <time>2021-08-01T07:07:54.000Z</time>
      </trkpt>
      <trkpt lat="47.16992" lon="-1.63733">
        <ele>79</ele>
        <time>2021-08-01T07:07:56.000Z</time>
      </trkpt>
      <trkpt lat="47.17005" lon="-1.63737">
        <ele>79</ele>
        <time>2021-08-01T07:07:58.000Z</time>
      </trkpt>
      <trkpt lat="47.17018" lon="-1.63743">
        <ele>79</ele>
        <time>2021-08-01T07:08:00.000Z</time>
      </trkpt>
      <trkpt lat="47.17031" lon="-1.63748">
        <ele>79</ele>
        <time>2021-08-01T07:08:02.000Z</time>
      </trkpt>
      <trkpt lat="47.17044" lon="-1.63753">
        <ele>79</ele>
        <time>2021-08-01T07:08:04.000Z</time>
      </trkpt>
      <trkpt lat="47.17055" lon="-1.63762">
        <ele>79</ele>
        <time>2021-08-01T07:08:06.000Z</time>
      </trkpt>
      <trkpt lat="47.17064" lon="-1.63777">
        <ele>79</ele>
        <time>2021-08-01T07:08:08.000Z</time>
      </trkpt>
      <trkpt lat="47.1707" lon="-1.63796">
        <ele>79</ele>
        <time>2021-08-01T07:08:10.000Z</time>
      </trkpt>
      <trkpt lat="47.17075" lon="-1.63814">
        <ele>80</ele>
        <time>2021-08-01T07:08:12.000Z</time>
      </trkpt>
      <trkpt lat="47.17081" lon="-1.63831">
        <ele>80</ele>
        <time>2021-08-01T07:08:14.000Z</time>
      </trkpt>
      <trkpt lat="47.17087" lon="-1.63848">
        <ele>80</ele>
        <time>2021-08-01T07:08:16.000Z</time>
      </trkpt>
      <trkpt lat="47.17093" lon="-1.63865">
        <ele>79</ele>
        <time>2021-08-01T07:08:18.000Z</time>
      </trkpt>
      <trkpt lat="47.17099" lon="-1.63882">
        <ele>79</ele>
        <time>2021-08-01T07:08:20.000Z</time>
      </trkpt>
      <trkpt lat="47.17105" lon="-1.63899">
        <ele>79</ele>
        <time>2021-08-01T07:08:22.000Z</time>
      </trkpt>
      <trkpt lat="47.17111" lon="-1.63915">
        <ele>79</ele>
        <time>2021-08-01T07:08:24.000Z</time>
      </trkpt>
      <trkpt lat="47.17117" lon="-1.63929">
        <ele>79</ele>
        <time>2021-08-01T07:08:26.000Z</time>
      </trkpt>
      <trkpt lat="47.17125" lon="-1.63938">
        <ele>79</ele>
        <time>2021-08-01T07:08:28.000Z</time>
      </trkpt>
      <trkpt lat="47.17133" lon="-1.63946">
        <ele>79</ele>
        <time>2021-08-01T07:08:33.000Z</time>
      </trkpt>
      <trkpt lat="47.17137" lon="-1.63962">
        <ele>79</ele>
        <time>2021-08-01T07:08:36.000Z</time>
      </trkpt>
      <trkpt lat="47.17138" lon="-1.63977">
        <ele>80</ele>
        <time>2021-08-01T07:08:38.000Z</time>
      </trkpt>
      <trkpt lat="47.17137" lon="-1.63995">
        <ele>79</ele>
        <time>2021-08-01T07:08:40.000Z</time>
      </trkpt>
      <trkpt lat="47.17135" lon="-1.64013">
        <ele>79</ele>
        <time>2021-08-01T07:08:42.000Z</time>
      </trkpt>
      <trkpt lat="47.17133" lon="-1.64032">
        <ele>79</ele>
        <time>2021-08-01T07:08:44.000Z</time>
      </trkpt>
      <trkpt lat="47.17131" lon="-1.64051">
        <ele>79</ele>
        <time>2021-08-01T07:08:46.000Z</time>
      </trkpt>
      <trkpt lat="47.17129" lon="-1.6407">
        <ele>79</ele>
        <time>2021-08-01T07:08:48.000Z</time>
      </trkpt>
      <trkpt lat="47.17126" lon="-1.64089">
        <ele>79</ele>
        <time>2021-08-01T07:08:50.000Z</time>
      </trkpt>
      <trkpt lat="47.17124" lon="-1.64108">
        <ele>79</ele>
        <time>2021-08-01T07:08:52.000Z</time>
      </trkpt>
      <trkpt lat="47.17122" lon="-1.64128">
        <ele>79</ele>
        <time>2021-08-01T07:08:54.000Z</time>
      </trkpt>
      <trkpt lat="47.1712" lon="-1.64147">
        <ele>80</ele>
        <time>2021-08-01T07:08:56.000Z</time>
      </trkpt>
      <trkpt lat="47.17118" lon="-1.64166">
        <ele>80</ele>
        <time>2021-08-01T07:08:58.000Z</time>
      </trkpt>
      <trkpt lat="47.17116" lon="-1.64186">
        <ele>79</ele>
        <time>2021-08-01T07:09:00.000Z</time>
      </trkpt>
      <trkpt lat="47.17114" lon="-1.64205">
        <ele>79</ele>
        <time>2021-08-01T07:09:02.000Z</time>
      </trkpt>
      <trkpt lat="47.17112" lon="-1.64224">
        <ele>80</ele>
        <time>2021-08-01T07:09:04.000Z</time>
      </trkpt>
      <trkpt lat="47.17109" lon="-1.64243">
        <ele>80</ele>
        <time>2021-08-01T07:09:06.000Z</time>
      </trkpt>
      <trkpt lat="47.17107" lon="-1.64262">
        <ele>80</ele>
        <time>2021-08-01T07:09:08.000Z</time>
      </trkpt>
      <trkpt lat="47.17105" lon="-1.64282">
        <ele>81</ele>
        <time>2021-08-01T07:09:10.000Z</time>
      </trkpt>
      <trkpt lat="47.17103" lon="-1.64301">
        <ele>81</ele>
        <time>2021-08-01T07:09:12.000Z</time>
      </trkpt>
      <trkpt lat="47.17101" lon="-1.6432">
        <ele>80</ele>
        <time>2021-08-01T07:09:14.000Z</time>
      </trkpt>
      <trkpt lat="47.171" lon="-1.6434">
        <ele>80</ele>
        <time>2021-08-01T07:09:16.000Z</time>
      </trkpt>
      <trkpt lat="47.17098" lon="-1.64359">
        <ele>80</ele>
        <time>2021-08-01T07:09:18.000Z</time>
      </trkpt>
      <trkpt lat="47.17096" lon="-1.64378">
        <ele>81</ele>
        <time>2021-08-01T07:09:20.000Z</time>
      </trkpt>
      <trkpt lat="47.17094" lon="-1.64397">
        <ele>81</ele>
        <time>2021-08-01T07:09:22.000Z</time>
      </trkpt>
      <trkpt lat="47.17092" lon="-1.64417">
        <ele>80</ele>
        <time>2021-08-01T07:09:24.000Z</time>
      </trkpt>
      <trkpt lat="47.17091" lon="-1.64436">
        <ele>80</ele>
        <time>2021-08-01T07:09:26.000Z</time>
      </trkpt>
      <trkpt lat="47.1709" lon="-1.64456">
        <ele>80</ele>
        <time>2021-08-01T07:09:28.000Z</time>
      </trkpt>
      <trkpt lat="47.17088" lon="-1.64476">
        <ele>80</ele>
        <time>2021-08-01T07:09:30.000Z</time>
      </trkpt>
      <trkpt lat="47.17087" lon="-1.64496">
        <ele>81</ele>
        <time>2021-08-01T07:09:32.000Z</time>
      </trkpt>
      <trkpt lat="47.17087" lon="-1.64516">
        <ele>80</ele>
        <time>2021-08-01T07:09:34.000Z</time>
      </trkpt>
      <trkpt lat="47.17087" lon="-1.64536">
        <ele>80</ele>
        <time>2021-08-01T07:09:36.000Z</time>
      </trkpt>
      <trkpt lat="47.17087" lon="-1.64557">
        <ele>79</ele>
        <time>2021-08-01T07:09:38.000Z</time>
      </trkpt>
      <trkpt lat="47.17086" lon="-1.64587">
        <ele>79</ele>
        <time>2021-08-01T07:09:41.000Z</time>
      </trkpt>
      <trkpt lat="47.17086" lon="-1.64608">
        <ele>79</ele>
        <time>2021-08-01T07:09:43.000Z</time>
      </trkpt>
      <trkpt lat="47.17086" lon="-1.64628">
        <ele>78</ele>
        <time>2021-08-01T07:09:45.000Z</time>
      </trkpt>
      <trkpt lat="47.17086" lon="-1.64648">
        <ele>78</ele>
        <time>2021-08-01T07:09:47.000Z</time>
      </trkpt>
      <trkpt lat="47.17086" lon="-1.64667">
        <ele>79</ele>
        <time>2021-08-01T07:09:49.000Z</time>
      </trkpt>
      <trkpt lat="47.17086" lon="-1.64687">
        <ele>79</ele>
        <time>2021-08-01T07:09:51.000Z</time>
      </trkpt>
      <trkpt lat="47.17087" lon="-1.64708">
        <ele>78</ele>
        <time>2021-08-01T07:09:53.000Z</time>
      </trkpt>
      <trkpt lat="47.17088" lon="-1.64728">
        <ele>79</ele>
        <time>2021-08-01T07:09:55.000Z</time>
      </trkpt>
      <trkpt lat="47.17089" lon="-1.64748">
        <ele>80</ele>
        <time>2021-08-01T07:09:57.000Z</time>
      </trkpt>
      <trkpt lat="47.1709" lon="-1.64769">
        <ele>80</ele>
        <time>2021-08-01T07:09:59.000Z</time>
      </trkpt>
      <trkpt lat="47.17091" lon="-1.648">
        <ele>80</ele>
        <time>2021-08-01T07:10:02.000Z</time>
      </trkpt>
      <trkpt lat="47.17093" lon="-1.6482">
        <ele>79</ele>
        <time>2021-08-01T07:10:04.000Z</time>
      </trkpt>
      <trkpt lat="47.17094" lon="-1.6484">
        <ele>78</ele>
        <time>2021-08-01T07:10:06.000Z</time>
      </trkpt>
      <trkpt lat="47.17096" lon="-1.6486">
        <ele>78</ele>
        <time>2021-08-01T07:10:08.000Z</time>
      </trkpt>
      <trkpt lat="47.17098" lon="-1.6488">
        <ele>78</ele>
        <time>2021-08-01T07:10:10.000Z</time>
      </trkpt>
      <trkpt lat="47.17099" lon="-1.649">
        <ele>78</ele>
        <time>2021-08-01T07:10:12.000Z</time>
      </trkpt>
      <trkpt lat="47.171" lon="-1.6492">
        <ele>77</ele>
        <time>2021-08-01T07:10:14.000Z</time>
      </trkpt>
      <trkpt lat="47.17102" lon="-1.6494">
        <ele>77</ele>
        <time>2021-08-01T07:10:16.000Z</time>
      </trkpt>
      <trkpt lat="47.17103" lon="-1.64959">
        <ele>77</ele>
        <time>2021-08-01T07:10:18.000Z</time>
      </trkpt>
      <trkpt lat="47.17105" lon="-1.64978">
        <ele>77</ele>
        <time>2021-08-01T07:10:20.000Z</time>
      </trkpt>
      <trkpt lat="47.17106" lon="-1.64998">
        <ele>77</ele>
        <time>2021-08-01T07:10:22.000Z</time>
      </trkpt>
      <trkpt lat="47.17108" lon="-1.65017">
        <ele>77</ele>
        <time>2021-08-01T07:10:24.000Z</time>
      </trkpt>
      <trkpt lat="47.1711" lon="-1.65037">
        <ele>77</ele>
        <time>2021-08-01T07:10:26.000Z</time>
      </trkpt>
      <trkpt lat="47.17111" lon="-1.65057">
        <ele>77</ele>
        <time>2021-08-01T07:10:28.000Z</time>
      </trkpt>
      <trkpt lat="47.17112" lon="-1.65076">
        <ele>77</ele>
        <time>2021-08-01T07:10:30.000Z</time>
      </trkpt>
      <trkpt lat="47.17113" lon="-1.65095">
        <ele>77</ele>
        <time>2021-08-01T07:10:32.000Z</time>
      </trkpt>
      <trkpt lat="47.17115" lon="-1.65115">
        <ele>77</ele>
        <time>2021-08-01T07:10:34.000Z</time>
      </trkpt>
      <trkpt lat="47.17116" lon="-1.65134">
        <ele>77</ele>
        <time>2021-08-01T07:10:36.000Z</time>
      </trkpt>
      <trkpt lat="47.17117" lon="-1.65153">
        <ele>78</ele>
        <time>2021-08-01T07:10:38.000Z</time>
      </trkpt>
      <trkpt lat="47.17118" lon="-1.65172">
        <ele>78</ele>
        <time>2021-08-01T07:10:40.000Z</time>
      </trkpt>
      <trkpt lat="47.1712" lon="-1.65191">
        <ele>78</ele>
        <time>2021-08-01T07:10:42.000Z</time>
      </trkpt>
      <trkpt lat="47.17121" lon="-1.65209">
        <ele>78</ele>
        <time>2021-08-01T07:10:44.000Z</time>
      </trkpt>
      <trkpt lat="47.17123" lon="-1.65226">
        <ele>78</ele>
        <time>2021-08-01T07:10:46.000Z</time>
      </trkpt>
      <trkpt lat="47.17125" lon="-1.6524">
        <ele>79</ele>
        <time>2021-08-01T07:10:48.000Z</time>
      </trkpt>
      <trkpt lat="47.17127" lon="-1.65258">
        <ele>79</ele>
        <time>2021-08-01T07:10:51.000Z</time>
      </trkpt>
      <trkpt lat="47.17131" lon="-1.6527">
        <ele>79</ele>
        <time>2021-08-01T07:10:53.000Z</time>
      </trkpt>
      <trkpt lat="47.17138" lon="-1.65285">
        <ele>79</ele>
        <time>2021-08-01T07:10:55.000Z</time>
      </trkpt>
      <trkpt lat="47.17141" lon="-1.65304">
        <ele>80</ele>
        <time>2021-08-01T07:10:57.000Z</time>
      </trkpt>
      <trkpt lat="47.17137" lon="-1.65323">
        <ele>80</ele>
        <time>2021-08-01T07:10:59.000Z</time>
      </trkpt>
      <trkpt lat="47.17128" lon="-1.65337">
        <ele>80</ele>
        <time>2021-08-01T07:11:01.000Z</time>
      </trkpt>
      <trkpt lat="47.17118" lon="-1.65349">
        <ele>80</ele>
        <time>2021-08-01T07:11:03.000Z</time>
      </trkpt>
      <trkpt lat="47.17116" lon="-1.65367">
        <ele>80</ele>
        <time>2021-08-01T07:11:05.000Z</time>
      </trkpt>
      <trkpt lat="47.17117" lon="-1.65385">
        <ele>81</ele>
        <time>2021-08-01T07:11:07.000Z</time>
      </trkpt>
      <trkpt lat="47.17118" lon="-1.65402">
        <ele>82</ele>
        <time>2021-08-01T07:11:09.000Z</time>
      </trkpt>
      <trkpt lat="47.17118" lon="-1.65419">
        <ele>82</ele>
        <time>2021-08-01T07:11:11.000Z</time>
      </trkpt>
      <trkpt lat="47.17118" lon="-1.65437">
        <ele>82</ele>
        <time>2021-08-01T07:11:13.000Z</time>
      </trkpt>
      <trkpt lat="47.17118" lon="-1.65454">
        <ele>83</ele>
        <time>2021-08-01T07:11:15.000Z</time>
      </trkpt>
      <trkpt lat="47.17116" lon="-1.6547">
        <ele>84</ele>
        <time>2021-08-01T07:11:17.000Z</time>
      </trkpt>
      <trkpt lat="47.17114" lon="-1.65487">
        <ele>85</ele>
        <time>2021-08-01T07:11:19.000Z</time>
      </trkpt>
      <trkpt lat="47.1711" lon="-1.65503">
        <ele>86</ele>
        <time>2021-08-01T07:11:21.000Z</time>
      </trkpt>
      <trkpt lat="47.17105" lon="-1.65518">
        <ele>86</ele>
        <time>2021-08-01T07:11:23.000Z</time>
      </trkpt>
      <trkpt lat="47.171" lon="-1.65533">
        <ele>87</ele>
        <time>2021-08-01T07:11:25.000Z</time>
      </trkpt>
      <trkpt lat="47.17093" lon="-1.65546">
        <ele>87</ele>
        <time>2021-08-01T07:11:27.000Z</time>
      </trkpt>
      <trkpt lat="47.17086" lon="-1.65559">
        <ele>87</ele>
        <time>2021-08-01T07:11:29.000Z</time>
      </trkpt>
      <trkpt lat="47.17079" lon="-1.65572">
        <ele>87</ele>
        <time>2021-08-01T07:11:31.000Z</time>
      </trkpt>
      <trkpt lat="47.17072" lon="-1.65584">
        <ele>87</ele>
        <time>2021-08-01T07:11:33.000Z</time>
      </trkpt>
      <trkpt lat="47.17064" lon="-1.65597">
        <ele>87</ele>
        <time>2021-08-01T07:11:35.000Z</time>
      </trkpt>
      <trkpt lat="47.17057" lon="-1.6561">
        <ele>87</ele>
        <time>2021-08-01T07:11:37.000Z</time>
      </trkpt>
      <trkpt lat="47.17049" lon="-1.65623">
        <ele>86</ele>
        <time>2021-08-01T07:11:39.000Z</time>
      </trkpt>
      <trkpt lat="47.17041" lon="-1.65637">
        <ele>86</ele>
        <time>2021-08-01T07:11:41.000Z</time>
      </trkpt>
      <trkpt lat="47.17033" lon="-1.65653">
        <ele>86</ele>
        <time>2021-08-01T07:11:43.000Z</time>
      </trkpt>
      <trkpt lat="47.17025" lon="-1.6567">
        <ele>85</ele>
        <time>2021-08-01T07:11:45.000Z</time>
      </trkpt>
      <trkpt lat="47.17016" lon="-1.65687">
        <ele>85</ele>
        <time>2021-08-01T07:11:47.000Z</time>
      </trkpt>
      <trkpt lat="47.17009" lon="-1.65704">
        <ele>85</ele>
        <time>2021-08-01T07:11:49.000Z</time>
      </trkpt>
      <trkpt lat="47.17004" lon="-1.65723">
        <ele>85</ele>
        <time>2021-08-01T07:11:51.000Z</time>
      </trkpt>
      <trkpt lat="47.17001" lon="-1.65743">
        <ele>85</ele>
        <time>2021-08-01T07:11:53.000Z</time>
      </trkpt>
      <trkpt lat="47.16995" lon="-1.6576">
        <ele>85</ele>
        <time>2021-08-01T07:11:55.000Z</time>
      </trkpt>
      <trkpt lat="47.16983" lon="-1.6577">
        <ele>84</ele>
        <time>2021-08-01T07:11:57.000Z</time>
      </trkpt>
      <trkpt lat="47.16969" lon="-1.65778">
        <ele>84</ele>
        <time>2021-08-01T07:11:59.000Z</time>
      </trkpt>
      <trkpt lat="47.16958" lon="-1.6579">
        <ele>84</ele>
        <time>2021-08-01T07:12:01.000Z</time>
      </trkpt>
      <trkpt lat="47.16949" lon="-1.65807">
        <ele>84</ele>
        <time>2021-08-01T07:12:03.000Z</time>
      </trkpt>
      <trkpt lat="47.16941" lon="-1.65824">
        <ele>83</ele>
        <time>2021-08-01T07:12:05.000Z</time>
      </trkpt>
      <trkpt lat="47.16933" lon="-1.65842">
        <ele>83</ele>
        <time>2021-08-01T07:12:07.000Z</time>
      </trkpt>
      <trkpt lat="47.16924" lon="-1.6586">
        <ele>82</ele>
        <time>2021-08-01T07:12:09.000Z</time>
      </trkpt>
      <trkpt lat="47.16915" lon="-1.65878">
        <ele>82</ele>
        <time>2021-08-01T07:12:11.000Z</time>
      </trkpt>
      <trkpt lat="47.16907" lon="-1.65897">
        <ele>82</ele>
        <time>2021-08-01T07:12:13.000Z</time>
      </trkpt>
      <trkpt lat="47.16898" lon="-1.65915">
        <ele>81</ele>
        <time>2021-08-01T07:12:15.000Z</time>
      </trkpt>
      <trkpt lat="47.16889" lon="-1.65935">
        <ele>80</ele>
        <time>2021-08-01T07:12:17.000Z</time>
      </trkpt>
      <trkpt lat="47.1688" lon="-1.65954">
        <ele>80</ele>
        <time>2021-08-01T07:12:19.000Z</time>
      </trkpt>
      <trkpt lat="47.16873" lon="-1.65974">
        <ele>80</ele>
        <time>2021-08-01T07:12:21.000Z</time>
      </trkpt>
      <trkpt lat="47.16866" lon="-1.65994">
        <ele>80</ele>
        <time>2021-08-01T07:12:23.000Z</time>
      </trkpt>
      <trkpt lat="47.1686" lon="-1.66014">
        <ele>80</ele>
        <time>2021-08-01T07:12:25.000Z</time>
      </trkpt>
      <trkpt lat="47.16855" lon="-1.66034">
        <ele>80</ele>
        <time>2021-08-01T07:12:27.000Z</time>
      </trkpt>
      <trkpt lat="47.16851" lon="-1.66055">
        <ele>80</ele>
        <time>2021-08-01T07:12:29.000Z</time>
      </trkpt>
      <trkpt lat="47.16848" lon="-1.66076">
        <ele>80</ele>
        <time>2021-08-01T07:12:31.000Z</time>
      </trkpt>
      <trkpt lat="47.16846" lon="-1.66097">
        <ele>80</ele>
        <time>2021-08-01T07:12:33.000Z</time>
      </trkpt>
      <trkpt lat="47.16844" lon="-1.66118">
        <ele>80</ele>
        <time>2021-08-01T07:12:35.000Z</time>
      </trkpt>
      <trkpt lat="47.16844" lon="-1.66139">
        <ele>80</ele>
        <time>2021-08-01T07:12:37.000Z</time>
      </trkpt>
      <trkpt lat="47.16844" lon="-1.66161">
        <ele>80</ele>
        <time>2021-08-01T07:12:39.000Z</time>
      </trkpt>
      <trkpt lat="47.16845" lon="-1.66182">
        <ele>80</ele>
        <time>2021-08-01T07:12:41.000Z</time>
      </trkpt>
      <trkpt lat="47.16846" lon="-1.66204">
        <ele>80</ele>
        <time>2021-08-01T07:12:43.000Z</time>
      </trkpt>
      <trkpt lat="47.16847" lon="-1.66225">
        <ele>81</ele>
        <time>2021-08-01T07:12:45.000Z</time>
      </trkpt>
      <trkpt lat="47.16848" lon="-1.66246">
        <ele>80</ele>
        <time>2021-08-01T07:12:47.000Z</time>
      </trkpt>
      <trkpt lat="47.16851" lon="-1.66266">
        <ele>80</ele>
        <time>2021-08-01T07:12:49.000Z</time>
      </trkpt>
      <trkpt lat="47.16852" lon="-1.66287">
        <ele>80</ele>
        <time>2021-08-01T07:12:51.000Z</time>
      </trkpt>
      <trkpt lat="47.16852" lon="-1.66307">
        <ele>81</ele>
        <time>2021-08-01T07:12:53.000Z</time>
      </trkpt>
      <trkpt lat="47.16854" lon="-1.66327">
        <ele>81</ele>
        <time>2021-08-01T07:12:55.000Z</time>
      </trkpt>
      <trkpt lat="47.16857" lon="-1.66347">
        <ele>81</ele>
        <time>2021-08-01T07:12:57.000Z</time>
      </trkpt>
      <trkpt lat="47.16859" lon="-1.66367">
        <ele>81</ele>
        <time>2021-08-01T07:12:59.000Z</time>
      </trkpt>
      <trkpt lat="47.16861" lon="-1.66388">
        <ele>81</ele>
        <time>2021-08-01T07:13:01.000Z</time>
      </trkpt>
      <trkpt lat="47.16864" lon="-1.66409">
        <ele>80</ele>
        <time>2021-08-01T07:13:03.000Z</time>
      </trkpt>
      <trkpt lat="47.16866" lon="-1.6643">
        <ele>80</ele>
        <time>2021-08-01T07:13:05.000Z</time>
      </trkpt>
      <trkpt lat="47.16869" lon="-1.66451">
        <ele>80</ele>
        <time>2021-08-01T07:13:07.000Z</time>
      </trkpt>
      <trkpt lat="47.1687" lon="-1.66472">
        <ele>80</ele>
        <time>2021-08-01T07:13:09.000Z</time>
      </trkpt>
      <trkpt lat="47.16872" lon="-1.66491">
        <ele>80</ele>
        <time>2021-08-01T07:13:11.000Z</time>
      </trkpt>
      <trkpt lat="47.16874" lon="-1.6651">
        <ele>80</ele>
        <time>2021-08-01T07:13:13.000Z</time>
      </trkpt>
      <trkpt lat="47.16876" lon="-1.6653">
        <ele>80</ele>
        <time>2021-08-01T07:13:15.000Z</time>
      </trkpt>
      <trkpt lat="47.16879" lon="-1.66552">
        <ele>81</ele>
        <time>2021-08-01T07:13:17.000Z</time>
      </trkpt>
      <trkpt lat="47.16881" lon="-1.66572">
        <ele>81</ele>
        <time>2021-08-01T07:13:19.000Z</time>
      </trkpt>
      <trkpt lat="47.16884" lon="-1.66593">
        <ele>80</ele>
        <time>2021-08-01T07:13:21.000Z</time>
      </trkpt>
      <trkpt lat="47.16887" lon="-1.66613">
        <ele>80</ele>
        <time>2021-08-01T07:13:23.000Z</time>
      </trkpt>
      <trkpt lat="47.16888" lon="-1.66633">
        <ele>80</ele>
        <time>2021-08-01T07:13:25.000Z</time>
      </trkpt>
      <trkpt lat="47.1689" lon="-1.66653">
        <ele>80</ele>
        <time>2021-08-01T07:13:27.000Z</time>
      </trkpt>
      <trkpt lat="47.16889" lon="-1.66674">
        <ele>80</ele>
        <time>2021-08-01T07:13:29.000Z</time>
      </trkpt>
      <trkpt lat="47.16886" lon="-1.66694">
        <ele>80</ele>
        <time>2021-08-01T07:13:31.000Z</time>
      </trkpt>
      <trkpt lat="47.16882" lon="-1.66715">
        <ele>80</ele>
        <time>2021-08-01T07:13:33.000Z</time>
      </trkpt>
      <trkpt lat="47.16876" lon="-1.66734">
        <ele>80</ele>
        <time>2021-08-01T07:13:35.000Z</time>
      </trkpt>
      <trkpt lat="47.16868" lon="-1.66752">
        <ele>80</ele>
        <time>2021-08-01T07:13:37.000Z</time>
      </trkpt>
      <trkpt lat="47.16859" lon="-1.6677">
        <ele>80</ele>
        <time>2021-08-01T07:13:39.000Z</time>
      </trkpt>
      <trkpt lat="47.1685" lon="-1.66788">
        <ele>80</ele>
        <time>2021-08-01T07:13:41.000Z</time>
      </trkpt>
      <trkpt lat="47.16841" lon="-1.66805">
        <ele>80</ele>
        <time>2021-08-01T07:13:43.000Z</time>
      </trkpt>
      <trkpt lat="47.16832" lon="-1.66823">
        <ele>80</ele>
        <time>2021-08-01T07:13:45.000Z</time>
      </trkpt>
      <trkpt lat="47.16823" lon="-1.6684">
        <ele>80</ele>
        <time>2021-08-01T07:13:47.000Z</time>
      </trkpt>
      <trkpt lat="47.16814" lon="-1.66857">
        <ele>80</ele>
        <time>2021-08-01T07:13:49.000Z</time>
      </trkpt>
      <trkpt lat="47.16804" lon="-1.66873">
        <ele>80</ele>
        <time>2021-08-01T07:13:51.000Z</time>
      </trkpt>
      <trkpt lat="47.16794" lon="-1.66888">
        <ele>80</ele>
        <time>2021-08-01T07:13:53.000Z</time>
      </trkpt>
      <trkpt lat="47.16782" lon="-1.669">
        <ele>80</ele>
        <time>2021-08-01T07:13:55.000Z</time>
      </trkpt>
      <trkpt lat="47.16771" lon="-1.6691">
        <ele>81</ele>
        <time>2021-08-01T07:13:57.000Z</time>
      </trkpt>
      <trkpt lat="47.16757" lon="-1.66914">
        <ele>81</ele>
        <time>2021-08-01T07:13:59.000Z</time>
      </trkpt>
      <trkpt lat="47.16743" lon="-1.66918">
        <ele>81</ele>
        <time>2021-08-01T07:14:01.000Z</time>
      </trkpt>
      <trkpt lat="47.16728" lon="-1.66923">
        <ele>81</ele>
        <time>2021-08-01T07:14:03.000Z</time>
      </trkpt>
      <trkpt lat="47.16715" lon="-1.66927">
        <ele>81</ele>
        <time>2021-08-01T07:14:05.000Z</time>
      </trkpt>
      <trkpt lat="47.16702" lon="-1.66933">
        <ele>82</ele>
        <time>2021-08-01T07:14:07.000Z</time>
      </trkpt>
      <trkpt lat="47.16688" lon="-1.66942">
        <ele>83</ele>
        <time>2021-08-01T07:14:09.000Z</time>
      </trkpt>
      <trkpt lat="47.16674" lon="-1.66955">
        <ele>82</ele>
        <time>2021-08-01T07:14:11.000Z</time>
      </trkpt>
      <trkpt lat="47.16664" lon="-1.66973">
        <ele>82</ele>
        <time>2021-08-01T07:14:13.000Z</time>
      </trkpt>
      <trkpt lat="47.16658" lon="-1.66995">
        <ele>83</ele>
        <time>2021-08-01T07:14:15.000Z</time>
      </trkpt>
      <trkpt lat="47.16654" lon="-1.67017">
        <ele>82</ele>
        <time>2021-08-01T07:14:17.000Z</time>
      </trkpt>
      <trkpt lat="47.1665" lon="-1.67039">
        <ele>81</ele>
        <time>2021-08-01T07:14:19.000Z</time>
      </trkpt>
      <trkpt lat="47.16646" lon="-1.6706">
        <ele>81</ele>
        <time>2021-08-01T07:14:21.000Z</time>
      </trkpt>
      <trkpt lat="47.16642" lon="-1.6708">
        <ele>81</ele>
        <time>2021-08-01T07:14:23.000Z</time>
      </trkpt>
      <trkpt lat="47.16638" lon="-1.67101">
        <ele>81</ele>
        <time>2021-08-01T07:14:25.000Z</time>
      </trkpt>
      <trkpt lat="47.16634" lon="-1.67121">
        <ele>81</ele>
        <time>2021-08-01T07:14:27.000Z</time>
      </trkpt>
      <trkpt lat="47.1663" lon="-1.67141">
        <ele>81</ele>
        <time>2021-08-01T07:14:29.000Z</time>
      </trkpt>
      <trkpt lat="47.16626" lon="-1.67162">
        <ele>81</ele>
        <time>2021-08-01T07:14:31.000Z</time>
      </trkpt>
      <trkpt lat="47.16622" lon="-1.67182">
        <ele>81</ele>
        <time>2021-08-01T07:14:33.000Z</time>
      </trkpt>
      <trkpt lat="47.16618" lon="-1.67202">
        <ele>80</ele>
        <time>2021-08-01T07:14:35.000Z</time>
      </trkpt>
      <trkpt lat="47.16614" lon="-1.67221">
        <ele>80</ele>
        <time>2021-08-01T07:14:37.000Z</time>
      </trkpt>
      <trkpt lat="47.16611" lon="-1.67239">
        <ele>80</ele>
        <time>2021-08-01T07:14:39.000Z</time>
      </trkpt>
      <trkpt lat="47.16609" lon="-1.67255">
        <ele>80</ele>
        <time>2021-08-01T07:14:41.000Z</time>
      </trkpt>
      <trkpt lat="47.16618" lon="-1.67265">
        <ele>79</ele>
        <time>2021-08-01T07:14:43.000Z</time>
      </trkpt>
      <trkpt lat="47.16631" lon="-1.67268">
        <ele>79</ele>
        <time>2021-08-01T07:14:45.000Z</time>
      </trkpt>
      <trkpt lat="47.16642" lon="-1.67272">
        <ele>79</ele>
        <time>2021-08-01T07:14:47.000Z</time>
      </trkpt>
      <trkpt lat="47.16654" lon="-1.67277">
        <ele>80</ele>
        <time>2021-08-01T07:14:49.000Z</time>
      </trkpt>
      <trkpt lat="47.16667" lon="-1.67281">
        <ele>80</ele>
        <time>2021-08-01T07:14:51.000Z</time>
      </trkpt>
      <trkpt lat="47.16679" lon="-1.67285">
        <ele>80</ele>
        <time>2021-08-01T07:14:53.000Z</time>
      </trkpt>
      <trkpt lat="47.16692" lon="-1.67291">
        <ele>80</ele>
        <time>2021-08-01T07:14:55.000Z</time>
      </trkpt>
      <trkpt lat="47.16705" lon="-1.67298">
        <ele>80</ele>
        <time>2021-08-01T07:14:57.000Z</time>
      </trkpt>
      <trkpt lat="47.16717" lon="-1.67305">
        <ele>80</ele>
        <time>2021-08-01T07:14:59.000Z</time>
      </trkpt>
      <trkpt lat="47.16729" lon="-1.67312">
        <ele>81</ele>
        <time>2021-08-01T07:15:01.000Z</time>
      </trkpt>
      <trkpt lat="47.1674" lon="-1.67321">
        <ele>80</ele>
        <time>2021-08-01T07:15:03.000Z</time>
      </trkpt>
      <trkpt lat="47.16752" lon="-1.67331">
        <ele>80</ele>
        <time>2021-08-01T07:15:05.000Z</time>
      </trkpt>
      <trkpt lat="47.16763" lon="-1.67341">
        <ele>80</ele>
        <time>2021-08-01T07:15:07.000Z</time>
      </trkpt>
      <trkpt lat="47.16774" lon="-1.67351">
        <ele>80</ele>
        <time>2021-08-01T07:15:09.000Z</time>
      </trkpt>
      <trkpt lat="47.16785" lon="-1.67363">
        <ele>80</ele>
        <time>2021-08-01T07:15:11.000Z</time>
      </trkpt>
      <trkpt lat="47.16796" lon="-1.67375">
        <ele>80</ele>
        <time>2021-08-01T07:15:13.000Z</time>
      </trkpt>
      <trkpt lat="47.16806" lon="-1.67387">
        <ele>80</ele>
        <time>2021-08-01T07:15:15.000Z</time>
      </trkpt>
      <trkpt lat="47.16817" lon="-1.67399">
        <ele>80</ele>
        <time>2021-08-01T07:15:17.000Z</time>
      </trkpt>
      <trkpt lat="47.16827" lon="-1.67411">
        <ele>80</ele>
        <time>2021-08-01T07:15:19.000Z</time>
      </trkpt>
      <trkpt lat="47.16837" lon="-1.67423">
        <ele>80</ele>
        <time>2021-08-01T07:15:21.000Z</time>
      </trkpt>
      <trkpt lat="47.16849" lon="-1.67435">
        <ele>79</ele>
        <time>2021-08-01T07:15:23.000Z</time>
      </trkpt>
      <trkpt lat="47.16858" lon="-1.67447">
        <ele>80</ele>
        <time>2021-08-01T07:15:25.000Z</time>
      </trkpt>
      <trkpt lat="47.16869" lon="-1.6746">
        <ele>79</ele>
        <time>2021-08-01T07:15:27.000Z</time>
      </trkpt>
      <trkpt lat="47.1688" lon="-1.67472">
        <ele>80</ele>
        <time>2021-08-01T07:15:29.000Z</time>
      </trkpt>
      <trkpt lat="47.1689" lon="-1.67484">
        <ele>80</ele>
        <time>2021-08-01T07:15:31.000Z</time>
      </trkpt>
      <trkpt lat="47.169" lon="-1.67497">
        <ele>80</ele>
        <time>2021-08-01T07:15:33.000Z</time>
      </trkpt>
      <trkpt lat="47.1691" lon="-1.67509">
        <ele>80</ele>
        <time>2021-08-01T07:15:35.000Z</time>
      </trkpt>
      <trkpt lat="47.16921" lon="-1.67521">
        <ele>80</ele>
        <time>2021-08-01T07:15:37.000Z</time>
      </trkpt>
      <trkpt lat="47.16931" lon="-1.67533">
        <ele>80</ele>
        <time>2021-08-01T07:15:39.000Z</time>
      </trkpt>
      <trkpt lat="47.1694" lon="-1.67545">
        <ele>80</ele>
        <time>2021-08-01T07:15:41.000Z</time>
      </trkpt>
      <trkpt lat="47.16951" lon="-1.67558">
        <ele>80</ele>
        <time>2021-08-01T07:15:43.000Z</time>
      </trkpt>
      <trkpt lat="47.16962" lon="-1.6757">
        <ele>80</ele>
        <time>2021-08-01T07:15:45.000Z</time>
      </trkpt>
      <trkpt lat="47.16972" lon="-1.67582">
        <ele>80</ele>
        <time>2021-08-01T07:15:47.000Z</time>
      </trkpt>
      <trkpt lat="47.16982" lon="-1.67595">
        <ele>80</ele>
        <time>2021-08-01T07:15:49.000Z</time>
      </trkpt>
      <trkpt lat="47.16993" lon="-1.67608">
        <ele>80</ele>
        <time>2021-08-01T07:15:51.000Z</time>
      </trkpt>
      <trkpt lat="47.17004" lon="-1.67619">
        <ele>79</ele>
        <time>2021-08-01T07:15:53.000Z</time>
      </trkpt>
      <trkpt lat="47.17014" lon="-1.67632">
        <ele>79</ele>
        <time>2021-08-01T07:15:55.000Z</time>
      </trkpt>
      <trkpt lat="47.17026" lon="-1.67644">
        <ele>79</ele>
        <time>2021-08-01T07:15:57.000Z</time>
      </trkpt>
      <trkpt lat="47.17036" lon="-1.67655">
        <ele>79</ele>
        <time>2021-08-01T07:15:59.000Z</time>
      </trkpt>
      <trkpt lat="47.17047" lon="-1.67667">
        <ele>79</ele>
        <time>2021-08-01T07:16:01.000Z</time>
      </trkpt>
      <trkpt lat="47.17057" lon="-1.6768">
        <ele>80</ele>
        <time>2021-08-01T07:16:03.000Z</time>
      </trkpt>
      <trkpt lat="47.17067" lon="-1.67692">
        <ele>80</ele>
        <time>2021-08-01T07:16:05.000Z</time>
      </trkpt>
      <trkpt lat="47.17077" lon="-1.67704">
        <ele>80</ele>
        <time>2021-08-01T07:16:07.000Z</time>
      </trkpt>
      <trkpt lat="47.17088" lon="-1.67716">
        <ele>80</ele>
        <time>2021-08-01T07:16:09.000Z</time>
      </trkpt>
      <trkpt lat="47.17097" lon="-1.67727">
        <ele>80</ele>
        <time>2021-08-01T07:16:11.000Z</time>
      </trkpt>
      <trkpt lat="47.17108" lon="-1.67739">
        <ele>80</ele>
        <time>2021-08-01T07:16:13.000Z</time>
      </trkpt>
      <trkpt lat="47.17118" lon="-1.67751">
        <ele>80</ele>
        <time>2021-08-01T07:16:15.000Z</time>
      </trkpt>
      <trkpt lat="47.17128" lon="-1.67763">
        <ele>80</ele>
        <time>2021-08-01T07:16:17.000Z</time>
      </trkpt>
      <trkpt lat="47.17139" lon="-1.67775">
        <ele>80</ele>
        <time>2021-08-01T07:16:19.000Z</time>
      </trkpt>
      <trkpt lat="47.17149" lon="-1.67786">
        <ele>80</ele>
        <time>2021-08-01T07:16:21.000Z</time>
      </trkpt>
      <trkpt lat="47.17159" lon="-1.67798">
        <ele>80</ele>
        <time>2021-08-01T07:16:23.000Z</time>
      </trkpt>
      <trkpt lat="47.17169" lon="-1.6781">
        <ele>80</ele>
        <time>2021-08-01T07:16:25.000Z</time>
      </trkpt>
      <trkpt lat="47.17179" lon="-1.67822">
        <ele>80</ele>
        <time>2021-08-01T07:16:27.000Z</time>
      </trkpt>
      <trkpt lat="47.1719" lon="-1.67835">
        <ele>80</ele>
        <time>2021-08-01T07:16:29.000Z</time>
      </trkpt>
      <trkpt lat="47.17201" lon="-1.67848">
        <ele>81</ele>
        <time>2021-08-01T07:16:31.000Z</time>
      </trkpt>
      <trkpt lat="47.17211" lon="-1.6786">
        <ele>81</ele>
        <time>2021-08-01T07:16:33.000Z</time>
      </trkpt>
      <trkpt lat="47.17222" lon="-1.67872">
        <ele>81</ele>
        <time>2021-08-01T07:16:35.000Z</time>
      </trkpt>
      <trkpt lat="47.17232" lon="-1.67884">
        <ele>81</ele>
        <time>2021-08-01T07:16:37.000Z</time>
      </trkpt>
      <trkpt lat="47.17243" lon="-1.67897">
        <ele>81</ele>
        <time>2021-08-01T07:16:39.000Z</time>
      </trkpt>
      <trkpt lat="47.17253" lon="-1.67909">
        <ele>82</ele>
        <time>2021-08-01T07:16:41.000Z</time>
      </trkpt>
      <trkpt lat="47.17264" lon="-1.67921">
        <ele>82</ele>
        <time>2021-08-01T07:16:43.000Z</time>
      </trkpt>
      <trkpt lat="47.17274" lon="-1.67933">
        <ele>82</ele>
        <time>2021-08-01T07:16:45.000Z</time>
      </trkpt>
      <trkpt lat="47.17284" lon="-1.67945">
        <ele>82</ele>
        <time>2021-08-01T07:16:47.000Z</time>
      </trkpt>
      <trkpt lat="47.17294" lon="-1.67957">
        <ele>83</ele>
        <time>2021-08-01T07:16:49.000Z</time>
      </trkpt>
      <trkpt lat="47.17304" lon="-1.67969">
        <ele>83</ele>
        <time>2021-08-01T07:16:51.000Z</time>
      </trkpt>
      <trkpt lat="47.17313" lon="-1.67981">
        <ele>83</ele>
        <time>2021-08-01T07:16:53.000Z</time>
      </trkpt>
      <trkpt lat="47.17321" lon="-1.67996">
        <ele>83</ele>
        <time>2021-08-01T07:16:55.000Z</time>
      </trkpt>
      <trkpt lat="47.17329" lon="-1.68012">
        <ele>83</ele>
        <time>2021-08-01T07:16:57.000Z</time>
      </trkpt>
      <trkpt lat="47.17335" lon="-1.68029">
        <ele>83</ele>
        <time>2021-08-01T07:16:59.000Z</time>
      </trkpt>
      <trkpt lat="47.17339" lon="-1.68047">
        <ele>83</ele>
        <time>2021-08-01T07:17:01.000Z</time>
      </trkpt>
      <trkpt lat="47.17344" lon="-1.68065">
        <ele>82</ele>
        <time>2021-08-01T07:17:03.000Z</time>
      </trkpt>
      <trkpt lat="47.17347" lon="-1.68084">
        <ele>82</ele>
        <time>2021-08-01T07:17:05.000Z</time>
      </trkpt>
      <trkpt lat="47.17351" lon="-1.68103">
        <ele>82</ele>
        <time>2021-08-01T07:17:07.000Z</time>
      </trkpt>
      <trkpt lat="47.17354" lon="-1.68122">
        <ele>82</ele>
        <time>2021-08-01T07:17:09.000Z</time>
      </trkpt>
      <trkpt lat="47.17358" lon="-1.68141">
        <ele>81</ele>
        <time>2021-08-01T07:17:11.000Z</time>
      </trkpt>
      <trkpt lat="47.17358" lon="-1.6816">
        <ele>81</ele>
        <time>2021-08-01T07:17:13.000Z</time>
      </trkpt>
      <trkpt lat="47.17357" lon="-1.68179">
        <ele>81</ele>
        <time>2021-08-01T07:17:15.000Z</time>
      </trkpt>
      <trkpt lat="47.17355" lon="-1.68197">
        <ele>82</ele>
        <time>2021-08-01T07:17:17.000Z</time>
      </trkpt>
      <trkpt lat="47.17352" lon="-1.68216">
        <ele>82</ele>
        <time>2021-08-01T07:17:19.000Z</time>
      </trkpt>
      <trkpt lat="47.17349" lon="-1.68233">
        <ele>83</ele>
        <time>2021-08-01T07:17:21.000Z</time>
      </trkpt>
      <trkpt lat="47.17345" lon="-1.68251">
        <ele>83</ele>
        <time>2021-08-01T07:17:23.000Z</time>
      </trkpt>
      <trkpt lat="47.17342" lon="-1.68268">
        <ele>84</ele>
        <time>2021-08-01T07:17:25.000Z</time>
      </trkpt>
      <trkpt lat="47.17338" lon="-1.68285">
        <ele>84</ele>
        <time>2021-08-01T07:17:27.000Z</time>
      </trkpt>
      <trkpt lat="47.17335" lon="-1.68302">
        <ele>85</ele>
        <time>2021-08-01T07:17:29.000Z</time>
      </trkpt>
      <trkpt lat="47.17331" lon="-1.68319">
        <ele>85</ele>
        <time>2021-08-01T07:17:31.000Z</time>
      </trkpt>
      <trkpt lat="47.17327" lon="-1.68335">
        <ele>86</ele>
        <time>2021-08-01T07:17:33.000Z</time>
      </trkpt>
      <trkpt lat="47.17326" lon="-1.68352">
        <ele>86</ele>
        <time>2021-08-01T07:17:35.000Z</time>
      </trkpt>
      <trkpt lat="47.17332" lon="-1.68366">
        <ele>87</ele>
        <time>2021-08-01T07:17:37.000Z</time>
      </trkpt>
      <trkpt lat="47.17342" lon="-1.68374">
        <ele>88</ele>
        <time>2021-08-01T07:17:39.000Z</time>
      </trkpt>
      <trkpt lat="47.17354" lon="-1.68376">
        <ele>88</ele>
        <time>2021-08-01T07:17:41.000Z</time>
      </trkpt>
      <trkpt lat="47.17366" lon="-1.68377">
        <ele>88</ele>
        <time>2021-08-01T07:17:43.000Z</time>
      </trkpt>
      <trkpt lat="47.17375" lon="-1.68387">
        <ele>88</ele>
        <time>2021-08-01T07:17:45.000Z</time>
      </trkpt>
      <trkpt lat="47.17375" lon="-1.68404">
        <ele>88</ele>
        <time>2021-08-01T07:17:47.000Z</time>
      </trkpt>
      <trkpt lat="47.17368" lon="-1.68417">
        <ele>88</ele>
        <time>2021-08-01T07:17:49.000Z</time>
      </trkpt>
      <trkpt lat="47.17358" lon="-1.68428">
        <ele>88</ele>
        <time>2021-08-01T07:17:51.000Z</time>
      </trkpt>
      <trkpt lat="47.17356" lon="-1.68446">
        <ele>87</ele>
        <time>2021-08-01T07:17:53.000Z</time>
      </trkpt>
      <trkpt lat="47.17361" lon="-1.68463">
        <ele>87</ele>
        <time>2021-08-01T07:17:55.000Z</time>
      </trkpt>
      <trkpt lat="47.17372" lon="-1.68477">
        <ele>86</ele>
        <time>2021-08-01T07:17:57.000Z</time>
      </trkpt>
      <trkpt lat="47.17383" lon="-1.68492">
        <ele>85</ele>
        <time>2021-08-01T07:17:59.000Z</time>
      </trkpt>
      <trkpt lat="47.17393" lon="-1.68508">
        <ele>84</ele>
        <time>2021-08-01T07:18:01.000Z</time>
      </trkpt>
      <trkpt lat="47.17404" lon="-1.68524">
        <ele>83</ele>
        <time>2021-08-01T07:18:03.000Z</time>
      </trkpt>
      <trkpt lat="47.17414" lon="-1.68542">
        <ele>82</ele>
        <time>2021-08-01T07:18:05.000Z</time>
      </trkpt>
      <trkpt lat="47.17424" lon="-1.6856">
        <ele>82</ele>
        <time>2021-08-01T07:18:07.000Z</time>
      </trkpt>
      <trkpt lat="47.17434" lon="-1.68579">
        <ele>81</ele>
        <time>2021-08-01T07:18:09.000Z</time>
      </trkpt>
      <trkpt lat="47.17442" lon="-1.68599">
        <ele>81</ele>
        <time>2021-08-01T07:18:11.000Z</time>
      </trkpt>
      <trkpt lat="47.1745" lon="-1.68619">
        <ele>81</ele>
        <time>2021-08-01T07:18:13.000Z</time>
      </trkpt>
      <trkpt lat="47.17456" lon="-1.68638">
        <ele>81</ele>
        <time>2021-08-01T07:18:15.000Z</time>
      </trkpt>
      <trkpt lat="47.17462" lon="-1.68657">
        <ele>81</ele>
        <time>2021-08-01T07:18:17.000Z</time>
      </trkpt>
      <trkpt lat="47.17468" lon="-1.68677">
        <ele>81</ele>
        <time>2021-08-01T07:18:19.000Z</time>
      </trkpt>
      <trkpt lat="47.17474" lon="-1.68696">
        <ele>81</ele>
        <time>2021-08-01T07:18:21.000Z</time>
      </trkpt>
      <trkpt lat="47.17479" lon="-1.68716">
        <ele>81</ele>
        <time>2021-08-01T07:18:23.000Z</time>
      </trkpt>
      <trkpt lat="47.17483" lon="-1.68737">
        <ele>81</ele>
        <time>2021-08-01T07:18:25.000Z</time>
      </trkpt>
      <trkpt lat="47.17487" lon="-1.68756">
        <ele>81</ele>
        <time>2021-08-01T07:18:27.000Z</time>
      </trkpt>
      <trkpt lat="47.1749" lon="-1.68776">
        <ele>81</ele>
        <time>2021-08-01T07:18:29.000Z</time>
      </trkpt>
      <trkpt lat="47.17494" lon="-1.68795">
        <ele>82</ele>
        <time>2021-08-01T07:18:31.000Z</time>
      </trkpt>
      <trkpt lat="47.17498" lon="-1.68814">
        <ele>82</ele>
        <time>2021-08-01T07:18:33.000Z</time>
      </trkpt>
      <trkpt lat="47.17502" lon="-1.68833">
        <ele>82</ele>
        <time>2021-08-01T07:18:35.000Z</time>
      </trkpt>
      <trkpt lat="47.17506" lon="-1.68853">
        <ele>83</ele>
        <time>2021-08-01T07:18:37.000Z</time>
      </trkpt>
      <trkpt lat="47.17506" lon="-1.68874">
        <ele>82</ele>
        <time>2021-08-01T07:18:39.000Z</time>
      </trkpt>
      <trkpt lat="47.17505" lon="-1.68895">
        <ele>82</ele>
        <time>2021-08-01T07:18:41.000Z</time>
      </trkpt>
      <trkpt lat="47.17503" lon="-1.68916">
        <ele>81</ele>
        <time>2021-08-01T07:18:43.000Z</time>
      </trkpt>
      <trkpt lat="47.17501" lon="-1.68938">
        <ele>81</ele>
        <time>2021-08-01T07:18:45.000Z</time>
      </trkpt>
      <trkpt lat="47.17501" lon="-1.6896">
        <ele>81</ele>
        <time>2021-08-01T07:18:47.000Z</time>
      </trkpt>
      <trkpt lat="47.17503" lon="-1.68982">
        <ele>80</ele>
        <time>2021-08-01T07:18:49.000Z</time>
      </trkpt>
      <trkpt lat="47.17504" lon="-1.69004">
        <ele>80</ele>
        <time>2021-08-01T07:18:51.000Z</time>
      </trkpt>
      <trkpt lat="47.17505" lon="-1.69025">
        <ele>80</ele>
        <time>2021-08-01T07:18:53.000Z</time>
      </trkpt>
      <trkpt lat="47.17506" lon="-1.69046">
        <ele>79</ele>
        <time>2021-08-01T07:18:55.000Z</time>
      </trkpt>
      <trkpt lat="47.17506" lon="-1.69067">
        <ele>79</ele>
        <time>2021-08-01T07:18:57.000Z</time>
      </trkpt>
      <trkpt lat="47.17507" lon="-1.69087">
        <ele>79</ele>
        <time>2021-08-01T07:18:59.000Z</time>
      </trkpt>
      <trkpt lat="47.17506" lon="-1.69108">
        <ele>79</ele>
        <time>2021-08-01T07:19:01.000Z</time>
      </trkpt>
      <trkpt lat="47.17506" lon="-1.69129">
        <ele>78</ele>
        <time>2021-08-01T07:19:03.000Z</time>
      </trkpt>
      <trkpt lat="47.17505" lon="-1.69149">
        <ele>78</ele>
        <time>2021-08-01T07:19:05.000Z</time>
      </trkpt>
      <trkpt lat="47.17504" lon="-1.6917">
        <ele>78</ele>
        <time>2021-08-01T07:19:07.000Z</time>
      </trkpt>
      <trkpt lat="47.17503" lon="-1.6919">
        <ele>78</ele>
        <time>2021-08-01T07:19:09.000Z</time>
      </trkpt>
      <trkpt lat="47.17501" lon="-1.69209">
        <ele>78</ele>
        <time>2021-08-01T07:19:11.000Z</time>
      </trkpt>
      <trkpt lat="47.175" lon="-1.6923">
        <ele>78</ele>
        <time>2021-08-01T07:19:13.000Z</time>
      </trkpt>
      <trkpt lat="47.17499" lon="-1.6925">
        <ele>78</ele>
        <time>2021-08-01T07:19:15.000Z</time>
      </trkpt>
      <trkpt lat="47.17498" lon="-1.6927">
        <ele>78</ele>
        <time>2021-08-01T07:19:17.000Z</time>
      </trkpt>
      <trkpt lat="47.17497" lon="-1.69291">
        <ele>78</ele>
        <time>2021-08-01T07:19:19.000Z</time>
      </trkpt>
      <trkpt lat="47.17497" lon="-1.69311">
        <ele>78</ele>
        <time>2021-08-01T07:19:21.000Z</time>
      </trkpt>
      <trkpt lat="47.17497" lon="-1.69331">
        <ele>78</ele>
        <time>2021-08-01T07:19:23.000Z</time>
      </trkpt>
      <trkpt lat="47.17496" lon="-1.69352">
        <ele>78</ele>
        <time>2021-08-01T07:19:25.000Z</time>
      </trkpt>
      <trkpt lat="47.17496" lon="-1.69372">
        <ele>78</ele>
        <time>2021-08-01T07:19:27.000Z</time>
      </trkpt>
      <trkpt lat="47.17495" lon="-1.69393">
        <ele>78</ele>
        <time>2021-08-01T07:19:29.000Z</time>
      </trkpt>
      <trkpt lat="47.17495" lon="-1.69414">
        <ele>78</ele>
        <time>2021-08-01T07:19:31.000Z</time>
      </trkpt>
      <trkpt lat="47.17496" lon="-1.69434">
        <ele>78</ele>
        <time>2021-08-01T07:19:33.000Z</time>
      </trkpt>
      <trkpt lat="47.17496" lon="-1.69454">
        <ele>78</ele>
        <time>2021-08-01T07:19:35.000Z</time>
      </trkpt>
      <trkpt lat="47.17497" lon="-1.69475">
        <ele>78</ele>
        <time>2021-08-01T07:19:37.000Z</time>
      </trkpt>
      <trkpt lat="47.17497" lon="-1.69496">
        <ele>78</ele>
        <time>2021-08-01T07:19:39.000Z</time>
      </trkpt>
      <trkpt lat="47.17498" lon="-1.69516">
        <ele>78</ele>
        <time>2021-08-01T07:19:41.000Z</time>
      </trkpt>
      <trkpt lat="47.17499" lon="-1.69536">
        <ele>78</ele>
        <time>2021-08-01T07:19:43.000Z</time>
      </trkpt>
      <trkpt lat="47.175" lon="-1.69556">
        <ele>78</ele>
        <time>2021-08-01T07:19:45.000Z</time>
      </trkpt>
      <trkpt lat="47.17501" lon="-1.69576">
        <ele>79</ele>
        <time>2021-08-01T07:19:47.000Z</time>
      </trkpt>
      <trkpt lat="47.17503" lon="-1.69595">
        <ele>79</ele>
        <time>2021-08-01T07:19:49.000Z</time>
      </trkpt>
      <trkpt lat="47.17505" lon="-1.69615">
        <ele>78</ele>
        <time>2021-08-01T07:19:51.000Z</time>
      </trkpt>
      <trkpt lat="47.17506" lon="-1.69634">
        <ele>78</ele>
        <time>2021-08-01T07:19:53.000Z</time>
      </trkpt>
      <trkpt lat="47.17508" lon="-1.69654">
        <ele>78</ele>
        <time>2021-08-01T07:19:55.000Z</time>
      </trkpt>
      <trkpt lat="47.1751" lon="-1.69673">
        <ele>78</ele>
        <time>2021-08-01T07:19:57.000Z</time>
      </trkpt>
      <trkpt lat="47.17512" lon="-1.69693">
        <ele>78</ele>
        <time>2021-08-01T07:19:59.000Z</time>
      </trkpt>
      <trkpt lat="47.17513" lon="-1.69713">
        <ele>79</ele>
        <time>2021-08-01T07:20:01.000Z</time>
      </trkpt>
      <trkpt lat="47.17515" lon="-1.69733">
        <ele>79</ele>
        <time>2021-08-01T07:20:03.000Z</time>
      </trkpt>
      <trkpt lat="47.17517" lon="-1.69754">
        <ele>79</ele>
        <time>2021-08-01T07:20:05.000Z</time>
      </trkpt>
      <trkpt lat="47.17519" lon="-1.69774">
        <ele>79</ele>
        <time>2021-08-01T07:20:07.000Z</time>
      </trkpt>
      <trkpt lat="47.17521" lon="-1.69794">
        <ele>79</ele>
        <time>2021-08-01T07:20:09.000Z</time>
      </trkpt>
      <trkpt lat="47.17523" lon="-1.69813">
        <ele>79</ele>
        <time>2021-08-01T07:20:11.000Z</time>
      </trkpt>
      <trkpt lat="47.17525" lon="-1.69834">
        <ele>79</ele>
        <time>2021-08-01T07:20:13.000Z</time>
      </trkpt>
      <trkpt lat="47.17528" lon="-1.69854">
        <ele>79</ele>
        <time>2021-08-01T07:20:15.000Z</time>
      </trkpt>
      <trkpt lat="47.1753" lon="-1.69874">
        <ele>79</ele>
        <time>2021-08-01T07:20:17.000Z</time>
      </trkpt>
      <trkpt lat="47.17534" lon="-1.69894">
        <ele>79</ele>
        <time>2021-08-01T07:20:19.000Z</time>
      </trkpt>
      <trkpt lat="47.17537" lon="-1.69914">
        <ele>78</ele>
        <time>2021-08-01T07:20:21.000Z</time>
      </trkpt>
      <trkpt lat="47.1754" lon="-1.69934">
        <ele>78</ele>
        <time>2021-08-01T07:20:23.000Z</time>
      </trkpt>
      <trkpt lat="47.17544" lon="-1.69953">
        <ele>78</ele>
        <time>2021-08-01T07:20:25.000Z</time>
      </trkpt>
      <trkpt lat="47.17548" lon="-1.69972">
        <ele>78</ele>
        <time>2021-08-01T07:20:27.000Z</time>
      </trkpt>
      <trkpt lat="47.17552" lon="-1.69991">
        <ele>78</ele>
        <time>2021-08-01T07:20:29.000Z</time>
      </trkpt>
      <trkpt lat="47.17556" lon="-1.7001">
        <ele>78</ele>
        <time>2021-08-01T07:20:31.000Z</time>
      </trkpt>
      <trkpt lat="47.17561" lon="-1.7003">
        <ele>78</ele>
        <time>2021-08-01T07:20:33.000Z</time>
      </trkpt>
      <trkpt lat="47.17565" lon="-1.7005">
        <ele>79</ele>
        <time>2021-08-01T07:20:35.000Z</time>
      </trkpt>
      <trkpt lat="47.17569" lon="-1.70069">
        <ele>78</ele>
        <time>2021-08-01T07:20:37.000Z</time>
      </trkpt>
      <trkpt lat="47.17573" lon="-1.70088">
        <ele>78</ele>
        <time>2021-08-01T07:20:39.000Z</time>
      </trkpt>
      <trkpt lat="47.17577" lon="-1.70107">
        <ele>78</ele>
        <time>2021-08-01T07:20:41.000Z</time>
      </trkpt>
      <trkpt lat="47.17581" lon="-1.70127">
        <ele>78</ele>
        <time>2021-08-01T07:20:43.000Z</time>
      </trkpt>
      <trkpt lat="47.17584" lon="-1.70146">
        <ele>78</ele>
        <time>2021-08-01T07:20:45.000Z</time>
      </trkpt>
      <trkpt lat="47.17588" lon="-1.70165">
        <ele>78</ele>
        <time>2021-08-01T07:20:47.000Z</time>
      </trkpt>
      <trkpt lat="47.17592" lon="-1.70185">
        <ele>78</ele>
        <time>2021-08-01T07:20:49.000Z</time>
      </trkpt>
      <trkpt lat="47.17595" lon="-1.70204">
        <ele>78</ele>
        <time>2021-08-01T07:20:51.000Z</time>
      </trkpt>
      <trkpt lat="47.17597" lon="-1.70224">
        <ele>78</ele>
        <time>2021-08-01T07:20:53.000Z</time>
      </trkpt>
      <trkpt lat="47.17597" lon="-1.70244">
        <ele>78</ele>
        <time>2021-08-01T07:20:55.000Z</time>
      </trkpt>
      <trkpt lat="47.17596" lon="-1.70263">
        <ele>78</ele>
        <time>2021-08-01T07:20:57.000Z</time>
      </trkpt>
      <trkpt lat="47.17593" lon="-1.70282">
        <ele>78</ele>
        <time>2021-08-01T07:20:59.000Z</time>
      </trkpt>
      <trkpt lat="47.17588" lon="-1.703">
        <ele>78</ele>
        <time>2021-08-01T07:21:01.000Z</time>
      </trkpt>
      <trkpt lat="47.17582" lon="-1.70318">
        <ele>78</ele>
        <time>2021-08-01T07:21:03.000Z</time>
      </trkpt>
      <trkpt lat="47.17576" lon="-1.70334">
        <ele>79</ele>
        <time>2021-08-01T07:21:05.000Z</time>
      </trkpt>
      <trkpt lat="47.1757" lon="-1.7035">
        <ele>79</ele>
        <time>2021-08-01T07:21:07.000Z</time>
      </trkpt>
      <trkpt lat="47.1757" lon="-1.70367">
        <ele>80</ele>
        <time>2021-08-01T07:21:09.000Z</time>
      </trkpt>
      <trkpt lat="47.17576" lon="-1.70381">
        <ele>80</ele>
        <time>2021-08-01T07:21:11.000Z</time>
      </trkpt>
      <trkpt lat="47.17588" lon="-1.70384">
        <ele>80</ele>
        <time>2021-08-01T07:21:13.000Z</time>
      </trkpt>
      <trkpt lat="47.176" lon="-1.70384">
        <ele>81</ele>
        <time>2021-08-01T07:21:15.000Z</time>
      </trkpt>
      <trkpt lat="47.17611" lon="-1.70392">
        <ele>81</ele>
        <time>2021-08-01T07:21:17.000Z</time>
      </trkpt>
      <trkpt lat="47.17617" lon="-1.70407">
        <ele>82</ele>
        <time>2021-08-01T07:21:19.000Z</time>
      </trkpt>
      <trkpt lat="47.17616" lon="-1.70425">
        <ele>81</ele>
        <time>2021-08-01T07:21:21.000Z</time>
      </trkpt>
      <trkpt lat="47.17608" lon="-1.70439">
        <ele>81</ele>
        <time>2021-08-01T07:21:23.000Z</time>
      </trkpt>
      <trkpt lat="47.17596" lon="-1.70445">
        <ele>81</ele>
        <time>2021-08-01T07:21:25.000Z</time>
      </trkpt>
      <trkpt lat="47.17583" lon="-1.70447">
        <ele>81</ele>
        <time>2021-08-01T07:21:27.000Z</time>
      </trkpt>
      <trkpt lat="47.17571" lon="-1.70455">
        <ele>80</ele>
        <time>2021-08-01T07:21:29.000Z</time>
      </trkpt>
      <trkpt lat="47.1756" lon="-1.70469">
        <ele>80</ele>
        <time>2021-08-01T07:21:31.000Z</time>
      </trkpt>
      <trkpt lat="47.1755" lon="-1.70483">
        <ele>79</ele>
        <time>2021-08-01T07:21:33.000Z</time>
      </trkpt>
      <trkpt lat="47.17541" lon="-1.70499">
        <ele>79</ele>
        <time>2021-08-01T07:21:35.000Z</time>
      </trkpt>
      <trkpt lat="47.17532" lon="-1.70517">
        <ele>78</ele>
        <time>2021-08-01T07:21:37.000Z</time>
      </trkpt>
      <trkpt lat="47.17522" lon="-1.70534">
        <ele>78</ele>
        <time>2021-08-01T07:21:39.000Z</time>
      </trkpt>
      <trkpt lat="47.17513" lon="-1.70552">
        <ele>77</ele>
        <time>2021-08-01T07:21:41.000Z</time>
      </trkpt>
      <trkpt lat="47.17504" lon="-1.7057">
        <ele>77</ele>
        <time>2021-08-01T07:21:43.000Z</time>
      </trkpt>
      <trkpt lat="47.17496" lon="-1.70587">
        <ele>77</ele>
        <time>2021-08-01T07:21:45.000Z</time>
      </trkpt>
      <trkpt lat="47.17487" lon="-1.70604">
        <ele>76</ele>
        <time>2021-08-01T07:21:47.000Z</time>
      </trkpt>
      <trkpt lat="47.17479" lon="-1.70621">
        <ele>76</ele>
        <time>2021-08-01T07:21:49.000Z</time>
      </trkpt>
      <trkpt lat="47.1747" lon="-1.70638">
        <ele>76</ele>
        <time>2021-08-01T07:21:51.000Z</time>
      </trkpt>
      <trkpt lat="47.17461" lon="-1.70654">
        <ele>76</ele>
        <time>2021-08-01T07:21:53.000Z</time>
      </trkpt>
      <trkpt lat="47.17453" lon="-1.7067">
        <ele>76</ele>
        <time>2021-08-01T07:21:55.000Z</time>
      </trkpt>
      <trkpt lat="47.17444" lon="-1.70687">
        <ele>76</ele>
        <time>2021-08-01T07:21:57.000Z</time>
      </trkpt>
      <trkpt lat="47.17435" lon="-1.70704">
        <ele>76</ele>
        <time>2021-08-01T07:21:59.000Z</time>
      </trkpt>
      <trkpt lat="47.17427" lon="-1.70721">
        <ele>76</ele>
        <time>2021-08-01T07:22:01.000Z</time>
      </trkpt>
      <trkpt lat="47.17418" lon="-1.70737">
        <ele>76</ele>
        <time>2021-08-01T07:22:03.000Z</time>
      </trkpt>
      <trkpt lat="47.1741" lon="-1.70754">
        <ele>76</ele>
        <time>2021-08-01T07:22:05.000Z</time>
      </trkpt>
      <trkpt lat="47.17402" lon="-1.70771">
        <ele>76</ele>
        <time>2021-08-01T07:22:07.000Z</time>
      </trkpt>
      <trkpt lat="47.17394" lon="-1.70789">
        <ele>76</ele>
        <time>2021-08-01T07:22:09.000Z</time>
      </trkpt>
      <trkpt lat="47.17387" lon="-1.70806">
        <ele>76</ele>
        <time>2021-08-01T07:22:11.000Z</time>
      </trkpt>
      <trkpt lat="47.17379" lon="-1.70824">
        <ele>76</ele>
        <time>2021-08-01T07:22:13.000Z</time>
      </trkpt>
      <trkpt lat="47.17372" lon="-1.70842">
        <ele>76</ele>
        <time>2021-08-01T07:22:15.000Z</time>
      </trkpt>
      <trkpt lat="47.17364" lon="-1.70859">
        <ele>76</ele>
        <time>2021-08-01T07:22:17.000Z</time>
      </trkpt>
      <trkpt lat="47.17358" lon="-1.70877">
        <ele>76</ele>
        <time>2021-08-01T07:22:19.000Z</time>
      </trkpt>
      <trkpt lat="47.17351" lon="-1.70896">
        <ele>76</ele>
        <time>2021-08-01T07:22:21.000Z</time>
      </trkpt>
      <trkpt lat="47.17344" lon="-1.70914">
        <ele>76</ele>
        <time>2021-08-01T07:22:23.000Z</time>
      </trkpt>
      <trkpt lat="47.17337" lon="-1.70933">
        <ele>76</ele>
        <time>2021-08-01T07:22:25.000Z</time>
      </trkpt>
      <trkpt lat="47.17331" lon="-1.70951">
        <ele>76</ele>
        <time>2021-08-01T07:22:27.000Z</time>
      </trkpt>
      <trkpt lat="47.17324" lon="-1.70969">
        <ele>76</ele>
        <time>2021-08-01T07:22:29.000Z</time>
      </trkpt>
      <trkpt lat="47.17317" lon="-1.70986">
        <ele>76</ele>
        <time>2021-08-01T07:22:31.000Z</time>
      </trkpt>
      <trkpt lat="47.1731" lon="-1.71005">
        <ele>77</ele>
        <time>2021-08-01T07:22:33.000Z</time>
      </trkpt>
      <trkpt lat="47.17303" lon="-1.71023">
        <ele>76</ele>
        <time>2021-08-01T07:22:35.000Z</time>
      </trkpt>
      <trkpt lat="47.17297" lon="-1.71041">
        <ele>76</ele>
        <time>2021-08-01T07:22:37.000Z</time>
      </trkpt>
      <trkpt lat="47.17289" lon="-1.71059">
        <ele>76</ele>
        <time>2021-08-01T07:22:39.000Z</time>
      </trkpt>
      <trkpt lat="47.17282" lon="-1.71077">
        <ele>76</ele>
        <time>2021-08-01T07:22:41.000Z</time>
      </trkpt>
      <trkpt lat="47.17275" lon="-1.71094">
        <ele>75</ele>
        <time>2021-08-01T07:22:43.000Z</time>
      </trkpt>
      <trkpt lat="47.17269" lon="-1.71113">
        <ele>75</ele>
        <time>2021-08-01T07:22:45.000Z</time>
      </trkpt>
      <trkpt lat="47.17262" lon="-1.71131">
        <ele>75</ele>
        <time>2021-08-01T07:22:47.000Z</time>
      </trkpt>
      <trkpt lat="47.17255" lon="-1.71149">
        <ele>75</ele>
        <time>2021-08-01T07:22:49.000Z</time>
      </trkpt>
      <trkpt lat="47.17249" lon="-1.71168">
        <ele>75</ele>
        <time>2021-08-01T07:22:51.000Z</time>
      </trkpt>
      <trkpt lat="47.17242" lon="-1.71186">
        <ele>74</ele>
        <time>2021-08-01T07:22:53.000Z</time>
      </trkpt>
      <trkpt lat="47.17235" lon="-1.71205">
        <ele>74</ele>
        <time>2021-08-01T07:22:55.000Z</time>
      </trkpt>
      <trkpt lat="47.17228" lon="-1.71224">
        <ele>73</ele>
        <time>2021-08-01T07:22:57.000Z</time>
      </trkpt>
      <trkpt lat="47.17221" lon="-1.71244">
        <ele>72</ele>
        <time>2021-08-01T07:22:59.000Z</time>
      </trkpt>
      <trkpt lat="47.17214" lon="-1.71264">
        <ele>72</ele>
        <time>2021-08-01T07:23:01.000Z</time>
      </trkpt>
      <trkpt lat="47.17207" lon="-1.71284">
        <ele>72</ele>
        <time>2021-08-01T07:23:03.000Z</time>
      </trkpt>
      <trkpt lat="47.172" lon="-1.71305">
        <ele>71</ele>
        <time>2021-08-01T07:23:05.000Z</time>
      </trkpt>
      <trkpt lat="47.17193" lon="-1.71326">
        <ele>70</ele>
        <time>2021-08-01T07:23:07.000Z</time>
      </trkpt>
      <trkpt lat="47.17183" lon="-1.71359">
        <ele>70</ele>
        <time>2021-08-01T07:23:10.000Z</time>
      </trkpt>
      <trkpt lat="47.17175" lon="-1.71382">
        <ele>69</ele>
        <time>2021-08-01T07:23:12.000Z</time>
      </trkpt>
      <trkpt lat="47.17164" lon="-1.71415">
        <ele>68</ele>
        <time>2021-08-01T07:23:15.000Z</time>
      </trkpt>
      <trkpt lat="47.17157" lon="-1.71438">
        <ele>68</ele>
        <time>2021-08-01T07:23:17.000Z</time>
      </trkpt>
      <trkpt lat="47.17149" lon="-1.71461">
        <ele>68</ele>
        <time>2021-08-01T07:23:19.000Z</time>
      </trkpt>
      <trkpt lat="47.17142" lon="-1.71484">
        <ele>67</ele>
        <time>2021-08-01T07:23:21.000Z</time>
      </trkpt>
      <trkpt lat="47.17134" lon="-1.71506">
        <ele>67</ele>
        <time>2021-08-01T07:23:23.000Z</time>
      </trkpt>
      <trkpt lat="47.17127" lon="-1.71527">
        <ele>67</ele>
        <time>2021-08-01T07:23:25.000Z</time>
      </trkpt>
      <trkpt lat="47.1712" lon="-1.71549">
        <ele>68</ele>
        <time>2021-08-01T07:23:27.000Z</time>
      </trkpt>
      <trkpt lat="47.17114" lon="-1.7157">
        <ele>68</ele>
        <time>2021-08-01T07:23:29.000Z</time>
      </trkpt>
      <trkpt lat="47.1711" lon="-1.71592">
        <ele>68</ele>
        <time>2021-08-01T07:23:31.000Z</time>
      </trkpt>
      <trkpt lat="47.17107" lon="-1.71613">
        <ele>67</ele>
        <time>2021-08-01T07:23:33.000Z</time>
      </trkpt>
      <trkpt lat="47.17106" lon="-1.71635">
        <ele>67</ele>
        <time>2021-08-01T07:23:35.000Z</time>
      </trkpt>
      <trkpt lat="47.17105" lon="-1.71656">
        <ele>67</ele>
        <time>2021-08-01T07:23:37.000Z</time>
      </trkpt>
      <trkpt lat="47.17103" lon="-1.71685">
        <ele>68</ele>
        <time>2021-08-01T07:23:40.000Z</time>
      </trkpt>
      <trkpt lat="47.17102" lon="-1.71704">
        <ele>68</ele>
        <time>2021-08-01T07:23:42.000Z</time>
      </trkpt>
      <trkpt lat="47.17101" lon="-1.71724">
        <ele>69</ele>
        <time>2021-08-01T07:23:44.000Z</time>
      </trkpt>
      <trkpt lat="47.17101" lon="-1.71742">
        <ele>69</ele>
        <time>2021-08-01T07:23:46.000Z</time>
      </trkpt>
      <trkpt lat="47.17102" lon="-1.7176">
        <ele>69</ele>
        <time>2021-08-01T07:23:48.000Z</time>
      </trkpt>
      <trkpt lat="47.17103" lon="-1.71779">
        <ele>70</ele>
        <time>2021-08-01T07:23:50.000Z</time>
      </trkpt>
      <trkpt lat="47.17107" lon="-1.71797">
        <ele>70</ele>
        <time>2021-08-01T07:23:52.000Z</time>
      </trkpt>
      <trkpt lat="47.1711" lon="-1.71814">
        <ele>71</ele>
        <time>2021-08-01T07:23:54.000Z</time>
      </trkpt>
      <trkpt lat="47.17105" lon="-1.71832">
        <ele>70</ele>
        <time>2021-08-01T07:23:56.000Z</time>
      </trkpt>
      <trkpt lat="47.17097" lon="-1.71846">
        <ele>71</ele>
        <time>2021-08-01T07:23:58.000Z</time>
      </trkpt>
      <trkpt lat="47.1709" lon="-1.71861">
        <ele>71</ele>
        <time>2021-08-01T07:24:00.000Z</time>
      </trkpt>
      <trkpt lat="47.17083" lon="-1.71878">
        <ele>71</ele>
        <time>2021-08-01T07:24:02.000Z</time>
      </trkpt>
      <trkpt lat="47.17077" lon="-1.71895">
        <ele>72</ele>
        <time>2021-08-01T07:24:04.000Z</time>
      </trkpt>
      <trkpt lat="47.17069" lon="-1.7191">
        <ele>72</ele>
        <time>2021-08-01T07:24:06.000Z</time>
      </trkpt>
      <trkpt lat="47.17059" lon="-1.71922">
        <ele>72</ele>
        <time>2021-08-01T07:24:08.000Z</time>
      </trkpt>
      <trkpt lat="47.17048" lon="-1.71933">
        <ele>72</ele>
        <time>2021-08-01T07:24:10.000Z</time>
      </trkpt>
      <trkpt lat="47.17037" lon="-1.71944">
        <ele>72</ele>
        <time>2021-08-01T07:24:12.000Z</time>
      </trkpt>
      <trkpt lat="47.17025" lon="-1.71954">
        <ele>72</ele>
        <time>2021-08-01T07:24:14.000Z</time>
      </trkpt>
      <trkpt lat="47.17013" lon="-1.71963">
        <ele>72</ele>
        <time>2021-08-01T07:24:16.000Z</time>
      </trkpt>
      <trkpt lat="47.17001" lon="-1.71972">
        <ele>73</ele>
        <time>2021-08-01T07:24:18.000Z</time>
      </trkpt>
      <trkpt lat="47.16988" lon="-1.71981">
        <ele>73</ele>
        <time>2021-08-01T07:24:20.000Z</time>
      </trkpt>
      <trkpt lat="47.16977" lon="-1.71989">
        <ele>74</ele>
        <time>2021-08-01T07:24:22.000Z</time>
      </trkpt>
      <trkpt lat="47.16966" lon="-1.71998">
        <ele>74</ele>
        <time>2021-08-01T07:24:24.000Z</time>
      </trkpt>
      <trkpt lat="47.16955" lon="-1.72006">
        <ele>74</ele>
        <time>2021-08-01T07:24:26.000Z</time>
      </trkpt>
      <trkpt lat="47.16944" lon="-1.72014">
        <ele>74</ele>
        <time>2021-08-01T07:24:28.000Z</time>
      </trkpt>
      <trkpt lat="47.16931" lon="-1.72018">
        <ele>74</ele>
        <time>2021-08-01T07:24:30.000Z</time>
      </trkpt>
      <trkpt lat="47.16918" lon="-1.7202">
        <ele>74</ele>
        <time>2021-08-01T07:24:32.000Z</time>
      </trkpt>
      <trkpt lat="47.16905" lon="-1.72023">
        <ele>73</ele>
        <time>2021-08-01T07:24:34.000Z</time>
      </trkpt>
      <trkpt lat="47.16891" lon="-1.72025">
        <ele>74</ele>
        <time>2021-08-01T07:24:36.000Z</time>
      </trkpt>
      <trkpt lat="47.16876" lon="-1.72026">
        <ele>75</ele>
        <time>2021-08-01T07:24:38.000Z</time>
      </trkpt>
      <trkpt lat="47.16861" lon="-1.72023">
        <ele>75</ele>
        <time>2021-08-01T07:24:40.000Z</time>
      </trkpt>
      <trkpt lat="47.16847" lon="-1.72017">
        <ele>73</ele>
        <time>2021-08-01T07:24:42.000Z</time>
      </trkpt>
      <trkpt lat="47.16831" lon="-1.72014">
        <ele>73</ele>
        <time>2021-08-01T07:24:44.000Z</time>
      </trkpt>
      <trkpt lat="47.16815" lon="-1.72013">
        <ele>73</ele>
        <time>2021-08-01T07:24:46.000Z</time>
      </trkpt>
      <trkpt lat="47.16799" lon="-1.72011">
        <ele>72</ele>
        <time>2021-08-01T07:24:48.000Z</time>
      </trkpt>
      <trkpt lat="47.16783" lon="-1.72011">
        <ele>72</ele>
        <time>2021-08-01T07:24:50.000Z</time>
      </trkpt>
      <trkpt lat="47.16767" lon="-1.72012">
        <ele>70</ele>
        <time>2021-08-01T07:24:52.000Z</time>
      </trkpt>
      <trkpt lat="47.16751" lon="-1.72013">
        <ele>69</ele>
        <time>2021-08-01T07:24:54.000Z</time>
      </trkpt>
      <trkpt lat="47.16735" lon="-1.72013">
        <ele>68</ele>
        <time>2021-08-01T07:24:56.000Z</time>
      </trkpt>
      <trkpt lat="47.16718" lon="-1.72013">
        <ele>67</ele>
        <time>2021-08-01T07:24:58.000Z</time>
      </trkpt>
      <trkpt lat="47.16702" lon="-1.72014">
        <ele>66</ele>
        <time>2021-08-01T07:25:00.000Z</time>
      </trkpt>
      <trkpt lat="47.16685" lon="-1.72014">
        <ele>66</ele>
        <time>2021-08-01T07:25:02.000Z</time>
      </trkpt>
      <trkpt lat="47.16669" lon="-1.72012">
        <ele>65</ele>
        <time>2021-08-01T07:25:04.000Z</time>
      </trkpt>
      <trkpt lat="47.16653" lon="-1.72012">
        <ele>64</ele>
        <time>2021-08-01T07:25:06.000Z</time>
      </trkpt>
      <trkpt lat="47.16637" lon="-1.72013">
        <ele>64</ele>
        <time>2021-08-01T07:25:08.000Z</time>
      </trkpt>
      <trkpt lat="47.1662" lon="-1.72014">
        <ele>63</ele>
        <time>2021-08-01T07:25:10.000Z</time>
      </trkpt>
      <trkpt lat="47.16604" lon="-1.72015">
        <ele>62</ele>
        <time>2021-08-01T07:25:12.000Z</time>
      </trkpt>
      <trkpt lat="47.16587" lon="-1.72016">
        <ele>61</ele>
        <time>2021-08-01T07:25:14.000Z</time>
      </trkpt>
      <trkpt lat="47.16571" lon="-1.72016">
        <ele>60</ele>
        <time>2021-08-01T07:25:16.000Z</time>
      </trkpt>
      <trkpt lat="47.16554" lon="-1.72017">
        <ele>60</ele>
        <time>2021-08-01T07:25:18.000Z</time>
      </trkpt>
      <trkpt lat="47.16538" lon="-1.72016">
        <ele>61</ele>
        <time>2021-08-01T07:25:20.000Z</time>
      </trkpt>
      <trkpt lat="47.16522" lon="-1.72018">
        <ele>61</ele>
        <time>2021-08-01T07:25:22.000Z</time>
      </trkpt>
      <trkpt lat="47.16507" lon="-1.72018">
        <ele>62</ele>
        <time>2021-08-01T07:25:24.000Z</time>
      </trkpt>
      <trkpt lat="47.16493" lon="-1.72017">
        <ele>63</ele>
        <time>2021-08-01T07:25:26.000Z</time>
      </trkpt>
      <trkpt lat="47.1648" lon="-1.72013">
        <ele>63</ele>
        <time>2021-08-01T07:25:28.000Z</time>
      </trkpt>
      <trkpt lat="47.16467" lon="-1.72008">
        <ele>63</ele>
        <time>2021-08-01T07:25:30.000Z</time>
      </trkpt>
      <trkpt lat="47.16456" lon="-1.72002">
        <ele>63</ele>
        <time>2021-08-01T07:25:32.000Z</time>
      </trkpt>
      <trkpt lat="47.16444" lon="-1.71993">
        <ele>63</ele>
        <time>2021-08-01T07:25:34.000Z</time>
      </trkpt>
      <trkpt lat="47.16433" lon="-1.71984">
        <ele>63</ele>
        <time>2021-08-01T07:25:36.000Z</time>
      </trkpt>
      <trkpt lat="47.16422" lon="-1.71976">
        <ele>63</ele>
        <time>2021-08-01T07:25:38.000Z</time>
      </trkpt>
      <trkpt lat="47.16412" lon="-1.71966">
        <ele>63</ele>
        <time>2021-08-01T07:25:40.000Z</time>
      </trkpt>
      <trkpt lat="47.164" lon="-1.71956">
        <ele>63</ele>
        <time>2021-08-01T07:25:42.000Z</time>
      </trkpt>
      <trkpt lat="47.1639" lon="-1.71946">
        <ele>64</ele>
        <time>2021-08-01T07:25:44.000Z</time>
      </trkpt>
      <trkpt lat="47.1638" lon="-1.71936">
        <ele>64</ele>
        <time>2021-08-01T07:25:46.000Z</time>
      </trkpt>
      <trkpt lat="47.16369" lon="-1.71925">
        <ele>65</ele>
        <time>2021-08-01T07:25:48.000Z</time>
      </trkpt>
      <trkpt lat="47.16359" lon="-1.71916">
        <ele>66</ele>
        <time>2021-08-01T07:25:50.000Z</time>
      </trkpt>
      <trkpt lat="47.16349" lon="-1.71906">
        <ele>66</ele>
        <time>2021-08-01T07:25:52.000Z</time>
      </trkpt>
      <trkpt lat="47.16339" lon="-1.71894">
        <ele>66</ele>
        <time>2021-08-01T07:25:54.000Z</time>
      </trkpt>
      <trkpt lat="47.16328" lon="-1.71884">
        <ele>66</ele>
        <time>2021-08-01T07:25:56.000Z</time>
      </trkpt>
      <trkpt lat="47.16317" lon="-1.71876">
        <ele>66</ele>
        <time>2021-08-01T07:25:58.000Z</time>
      </trkpt>
      <trkpt lat="47.16307" lon="-1.71868">
        <ele>67</ele>
        <time>2021-08-01T07:26:00.000Z</time>
      </trkpt>
      <trkpt lat="47.16295" lon="-1.71859">
        <ele>67</ele>
        <time>2021-08-01T07:26:02.000Z</time>
      </trkpt>
      <trkpt lat="47.16284" lon="-1.71851">
        <ele>67</ele>
        <time>2021-08-01T07:26:04.000Z</time>
      </trkpt>
      <trkpt lat="47.16273" lon="-1.71843">
        <ele>68</ele>
        <time>2021-08-01T07:26:06.000Z</time>
      </trkpt>
      <trkpt lat="47.16263" lon="-1.71835">
        <ele>68</ele>
        <time>2021-08-01T07:26:08.000Z</time>
      </trkpt>
      <trkpt lat="47.16252" lon="-1.71826">
        <ele>69</ele>
        <time>2021-08-01T07:26:10.000Z</time>
      </trkpt>
      <trkpt lat="47.16241" lon="-1.71821">
        <ele>68</ele>
        <time>2021-08-01T07:26:12.000Z</time>
      </trkpt>
      <trkpt lat="47.1623" lon="-1.71825">
        <ele>69</ele>
        <time>2021-08-01T07:26:14.000Z</time>
      </trkpt>
      <trkpt lat="47.1622" lon="-1.71837">
        <ele>70</ele>
        <time>2021-08-01T07:26:16.000Z</time>
      </trkpt>
      <trkpt lat="47.16211" lon="-1.7185">
        <ele>69</ele>
        <time>2021-08-01T07:26:18.000Z</time>
      </trkpt>
      <trkpt lat="47.16202" lon="-1.71863">
        <ele>69</ele>
        <time>2021-08-01T07:26:20.000Z</time>
      </trkpt>
      <trkpt lat="47.16193" lon="-1.71876">
        <ele>69</ele>
        <time>2021-08-01T07:26:22.000Z</time>
      </trkpt>
      <trkpt lat="47.16184" lon="-1.71887">
        <ele>69</ele>
        <time>2021-08-01T07:26:24.000Z</time>
      </trkpt>
      <trkpt lat="47.16175" lon="-1.71899">
        <ele>70</ele>
        <time>2021-08-01T07:26:26.000Z</time>
      </trkpt>
      <trkpt lat="47.16165" lon="-1.71911">
        <ele>70</ele>
        <time>2021-08-01T07:26:28.000Z</time>
      </trkpt>
      <trkpt lat="47.16156" lon="-1.71923">
        <ele>70</ele>
        <time>2021-08-01T07:26:30.000Z</time>
      </trkpt>
      <trkpt lat="47.16147" lon="-1.71935">
        <ele>70</ele>
        <time>2021-08-01T07:26:32.000Z</time>
      </trkpt>
      <trkpt lat="47.16138" lon="-1.71947">
        <ele>71</ele>
        <time>2021-08-01T07:26:34.000Z</time>
      </trkpt>
      <trkpt lat="47.16128" lon="-1.7196">
        <ele>71</ele>
        <time>2021-08-01T07:26:36.000Z</time>
      </trkpt>
      <trkpt lat="47.16119" lon="-1.71972">
        <ele>71</ele>
        <time>2021-08-01T07:26:38.000Z</time>
      </trkpt>
      <trkpt lat="47.1611" lon="-1.71985">
        <ele>71</ele>
        <time>2021-08-01T07:26:40.000Z</time>
      </trkpt>
      <trkpt lat="47.16101" lon="-1.71999">
        <ele>70</ele>
        <time>2021-08-01T07:26:42.000Z</time>
      </trkpt>
      <trkpt lat="47.16093" lon="-1.72012">
        <ele>70</ele>
        <time>2021-08-01T07:26:44.000Z</time>
      </trkpt>
      <trkpt lat="47.16086" lon="-1.72027">
        <ele>71</ele>
        <time>2021-08-01T07:26:46.000Z</time>
      </trkpt>
      <trkpt lat="47.16079" lon="-1.72042">
        <ele>71</ele>
        <time>2021-08-01T07:26:48.000Z</time>
      </trkpt>
      <trkpt lat="47.16071" lon="-1.72057">
        <ele>71</ele>
        <time>2021-08-01T07:26:50.000Z</time>
      </trkpt>
      <trkpt lat="47.16064" lon="-1.72071">
        <ele>71</ele>
        <time>2021-08-01T07:26:52.000Z</time>
      </trkpt>
      <trkpt lat="47.16057" lon="-1.72086">
        <ele>72</ele>
        <time>2021-08-01T07:26:54.000Z</time>
      </trkpt>
      <trkpt lat="47.1605" lon="-1.721">
        <ele>72</ele>
        <time>2021-08-01T07:26:56.000Z</time>
      </trkpt>
      <trkpt lat="47.16043" lon="-1.72115">
        <ele>72</ele>
        <time>2021-08-01T07:26:58.000Z</time>
      </trkpt>
      <trkpt lat="47.16036" lon="-1.72131">
        <ele>72</ele>
        <time>2021-08-01T07:27:00.000Z</time>
      </trkpt>
      <trkpt lat="47.16029" lon="-1.72146">
        <ele>72</ele>
        <time>2021-08-01T07:27:02.000Z</time>
      </trkpt>
      <trkpt lat="47.16021" lon="-1.72161">
        <ele>71</ele>
        <time>2021-08-01T07:27:04.000Z</time>
      </trkpt>
      <trkpt lat="47.16014" lon="-1.72176">
        <ele>71</ele>
        <time>2021-08-01T07:27:06.000Z</time>
      </trkpt>
      <trkpt lat="47.16007" lon="-1.72191">
        <ele>71</ele>
        <time>2021-08-01T07:27:08.000Z</time>
      </trkpt>
      <trkpt lat="47.15999" lon="-1.72207">
        <ele>71</ele>
        <time>2021-08-01T07:27:10.000Z</time>
      </trkpt>
      <trkpt lat="47.15992" lon="-1.72222">
        <ele>72</ele>
        <time>2021-08-01T07:27:12.000Z</time>
      </trkpt>
      <trkpt lat="47.15984" lon="-1.72238">
        <ele>71</ele>
        <time>2021-08-01T07:27:14.000Z</time>
      </trkpt>
      <trkpt lat="47.15977" lon="-1.72253">
        <ele>71</ele>
        <time>2021-08-01T07:27:16.000Z</time>
      </trkpt>
      <trkpt lat="47.15969" lon="-1.72269">
        <ele>71</ele>
        <time>2021-08-01T07:27:18.000Z</time>
      </trkpt>
      <trkpt lat="47.15961" lon="-1.72285">
        <ele>71</ele>
        <time>2021-08-01T07:27:20.000Z</time>
      </trkpt>
      <trkpt lat="47.15954" lon="-1.72301">
        <ele>71</ele>
        <time>2021-08-01T07:27:22.000Z</time>
      </trkpt>
      <trkpt lat="47.15947" lon="-1.72317">
        <ele>71</ele>
        <time>2021-08-01T07:27:24.000Z</time>
      </trkpt>
      <trkpt lat="47.1594" lon="-1.72333">
        <ele>71</ele>
        <time>2021-08-01T07:27:26.000Z</time>
      </trkpt>
      <trkpt lat="47.15933" lon="-1.72349">
        <ele>71</ele>
        <time>2021-08-01T07:27:28.000Z</time>
      </trkpt>
      <trkpt lat="47.15924" lon="-1.72364">
        <ele>71</ele>
        <time>2021-08-01T07:27:30.000Z</time>
      </trkpt>
      <trkpt lat="47.15917" lon="-1.7238">
        <ele>71</ele>
        <time>2021-08-01T07:27:32.000Z</time>
      </trkpt>
      <trkpt lat="47.15909" lon="-1.72395">
        <ele>71</ele>
        <time>2021-08-01T07:27:34.000Z</time>
      </trkpt>
      <trkpt lat="47.15902" lon="-1.72411">
        <ele>71</ele>
        <time>2021-08-01T07:27:36.000Z</time>
      </trkpt>
      <trkpt lat="47.15894" lon="-1.72427">
        <ele>71</ele>
        <time>2021-08-01T07:27:38.000Z</time>
      </trkpt>
      <trkpt lat="47.15887" lon="-1.72444">
        <ele>71</ele>
        <time>2021-08-01T07:27:40.000Z</time>
      </trkpt>
      <trkpt lat="47.1588" lon="-1.7246">
        <ele>71</ele>
        <time>2021-08-01T07:27:42.000Z</time>
      </trkpt>
      <trkpt lat="47.15873" lon="-1.72475">
        <ele>72</ele>
        <time>2021-08-01T07:27:44.000Z</time>
      </trkpt>
      <trkpt lat="47.15866" lon="-1.72491">
        <ele>72</ele>
        <time>2021-08-01T07:27:46.000Z</time>
      </trkpt>
      <trkpt lat="47.1586" lon="-1.72507">
        <ele>72</ele>
        <time>2021-08-01T07:27:48.000Z</time>
      </trkpt>
      <trkpt lat="47.15854" lon="-1.72523">
        <ele>72</ele>
        <time>2021-08-01T07:27:50.000Z</time>
      </trkpt>
      <trkpt lat="47.15847" lon="-1.72538">
        <ele>73</ele>
        <time>2021-08-01T07:27:52.000Z</time>
      </trkpt>
      <trkpt lat="47.15841" lon="-1.72554">
        <ele>73</ele>
        <time>2021-08-01T07:27:54.000Z</time>
      </trkpt>
      <trkpt lat="47.15837" lon="-1.72571">
        <ele>73</ele>
        <time>2021-08-01T07:27:56.000Z</time>
      </trkpt>
      <trkpt lat="47.15833" lon="-1.72588">
        <ele>74</ele>
        <time>2021-08-01T07:27:58.000Z</time>
      </trkpt>
      <trkpt lat="47.15829" lon="-1.72602">
        <ele>73</ele>
        <time>2021-08-01T07:28:00.000Z</time>
      </trkpt>
      <trkpt lat="47.15821" lon="-1.72596">
        <ele>73</ele>
        <time>2021-08-01T07:28:03.000Z</time>
      </trkpt>
      <trkpt lat="47.15813" lon="-1.72585">
        <ele>72</ele>
        <time>2021-08-01T07:28:05.000Z</time>
      </trkpt>
      <trkpt lat="47.15801" lon="-1.72581">
        <ele>73</ele>
        <time>2021-08-01T07:28:07.000Z</time>
      </trkpt>
      <trkpt lat="47.15788" lon="-1.72581">
        <ele>73</ele>
        <time>2021-08-01T07:28:09.000Z</time>
      </trkpt>
      <trkpt lat="47.15775" lon="-1.72582">
        <ele>73</ele>
        <time>2021-08-01T07:28:11.000Z</time>
      </trkpt>
      <trkpt lat="47.15763" lon="-1.72582">
        <ele>73</ele>
        <time>2021-08-01T07:28:13.000Z</time>
      </trkpt>
      <trkpt lat="47.1575" lon="-1.72583">
        <ele>73</ele>
        <time>2021-08-01T07:28:15.000Z</time>
      </trkpt>
      <trkpt lat="47.15737" lon="-1.72584">
        <ele>73</ele>
        <time>2021-08-01T07:28:17.000Z</time>
      </trkpt>
      <trkpt lat="47.15725" lon="-1.72585">
        <ele>73</ele>
        <time>2021-08-01T07:28:19.000Z</time>
      </trkpt>
      <trkpt lat="47.15713" lon="-1.72586">
        <ele>73</ele>
        <time>2021-08-01T07:28:21.000Z</time>
      </trkpt>
      <trkpt lat="47.157" lon="-1.72586">
        <ele>73</ele>
        <time>2021-08-01T07:28:23.000Z</time>
      </trkpt>
      <trkpt lat="47.15686" lon="-1.72587">
        <ele>74</ele>
        <time>2021-08-01T07:28:25.000Z</time>
      </trkpt>
      <trkpt lat="47.15673" lon="-1.72587">
        <ele>73</ele>
        <time>2021-08-01T07:28:27.000Z</time>
      </trkpt>
      <trkpt lat="47.1566" lon="-1.72588">
        <ele>73</ele>
        <time>2021-08-01T07:28:29.000Z</time>
      </trkpt>
      <trkpt lat="47.15645" lon="-1.72589">
        <ele>72</ele>
        <time>2021-08-01T07:28:31.000Z</time>
      </trkpt>
      <trkpt lat="47.15629" lon="-1.72591">
        <ele>72</ele>
        <time>2021-08-01T07:28:33.000Z</time>
      </trkpt>
      <trkpt lat="47.15613" lon="-1.72593">
        <ele>71</ele>
        <time>2021-08-01T07:28:35.000Z</time>
      </trkpt>
      <trkpt lat="47.15597" lon="-1.72596">
        <ele>70</ele>
        <time>2021-08-01T07:28:37.000Z</time>
      </trkpt>
      <trkpt lat="47.15581" lon="-1.72602">
        <ele>69</ele>
        <time>2021-08-01T07:28:39.000Z</time>
      </trkpt>
      <trkpt lat="47.15565" lon="-1.72612">
        <ele>68</ele>
        <time>2021-08-01T07:28:41.000Z</time>
      </trkpt>
      <trkpt lat="47.15549" lon="-1.72623">
        <ele>67</ele>
        <time>2021-08-01T07:28:43.000Z</time>
      </trkpt>
      <trkpt lat="47.15541" lon="-1.7263">
        <ele>67</ele>
        <time>2021-08-01T07:28:44.000Z</time>
      </trkpt>
      <trkpt lat="47.15525" lon="-1.72642">
        <ele>67</ele>
        <time>2021-08-01T07:28:46.000Z</time>
      </trkpt>
      <trkpt lat="47.15517" lon="-1.72648">
        <ele>67</ele>
        <time>2021-08-01T07:28:47.000Z</time>
      </trkpt>
      <trkpt lat="47.15508" lon="-1.72654">
        <ele>66</ele>
        <time>2021-08-01T07:28:48.000Z</time>
      </trkpt>
      <trkpt lat="47.155" lon="-1.7266">
        <ele>66</ele>
        <time>2021-08-01T07:28:49.000Z</time>
      </trkpt>
      <trkpt lat="47.15492" lon="-1.72666">
        <ele>66</ele>
        <time>2021-08-01T07:28:50.000Z</time>
      </trkpt>
      <trkpt lat="47.15483" lon="-1.72673">
        <ele>66</ele>
        <time>2021-08-01T07:28:51.000Z</time>
      </trkpt>
      <trkpt lat="47.15475" lon="-1.7268">
        <ele>65</ele>
        <time>2021-08-01T07:28:52.000Z</time>
      </trkpt>
      <trkpt lat="47.15466" lon="-1.72687">
        <ele>65</ele>
        <time>2021-08-01T07:28:53.000Z</time>
      </trkpt>
      <trkpt lat="47.15458" lon="-1.72694">
        <ele>65</ele>
        <time>2021-08-01T07:28:54.000Z</time>
      </trkpt>
      <trkpt lat="47.15449" lon="-1.72701">
        <ele>65</ele>
        <time>2021-08-01T07:28:55.000Z</time>
      </trkpt>
      <trkpt lat="47.15441" lon="-1.72709">
        <ele>65</ele>
        <time>2021-08-01T07:28:56.000Z</time>
      </trkpt>
      <trkpt lat="47.15432" lon="-1.72715">
        <ele>64</ele>
        <time>2021-08-01T07:28:57.000Z</time>
      </trkpt>
      <trkpt lat="47.15424" lon="-1.72722">
        <ele>64</ele>
        <time>2021-08-01T07:28:58.000Z</time>
      </trkpt>
      <trkpt lat="47.15415" lon="-1.72729">
        <ele>64</ele>
        <time>2021-08-01T07:28:59.000Z</time>
      </trkpt>
      <trkpt lat="47.15406" lon="-1.72735">
        <ele>64</ele>
        <time>2021-08-01T07:29:00.000Z</time>
      </trkpt>
      <trkpt lat="47.15398" lon="-1.72741">
        <ele>64</ele>
        <time>2021-08-01T07:29:01.000Z</time>
      </trkpt>
      <trkpt lat="47.15389" lon="-1.72746">
        <ele>64</ele>
        <time>2021-08-01T07:29:02.000Z</time>
      </trkpt>
      <trkpt lat="47.15381" lon="-1.72752">
        <ele>63</ele>
        <time>2021-08-01T07:29:03.000Z</time>
      </trkpt>
      <trkpt lat="47.15367" lon="-1.72764">
        <ele>62</ele>
        <time>2021-08-01T07:29:05.000Z</time>
      </trkpt>
      <trkpt lat="47.15352" lon="-1.72774">
        <ele>62</ele>
        <time>2021-08-01T07:29:07.000Z</time>
      </trkpt>
      <trkpt lat="47.15338" lon="-1.72784">
        <ele>62</ele>
        <time>2021-08-01T07:29:09.000Z</time>
      </trkpt>
      <trkpt lat="47.15324" lon="-1.72792">
        <ele>62</ele>
        <time>2021-08-01T07:29:11.000Z</time>
      </trkpt>
      <trkpt lat="47.15311" lon="-1.72799">
        <ele>63</ele>
        <time>2021-08-01T07:29:13.000Z</time>
      </trkpt>
      <trkpt lat="47.15298" lon="-1.72806">
        <ele>62</ele>
        <time>2021-08-01T07:29:15.000Z</time>
      </trkpt>
      <trkpt lat="47.15287" lon="-1.72812">
        <ele>62</ele>
        <time>2021-08-01T07:29:17.000Z</time>
      </trkpt>
      <trkpt lat="47.15276" lon="-1.72816">
        <ele>63</ele>
        <time>2021-08-01T07:29:19.000Z</time>
      </trkpt>
      <trkpt lat="47.15265" lon="-1.72821">
        <ele>63</ele>
        <time>2021-08-01T07:29:21.000Z</time>
      </trkpt>
      <trkpt lat="47.15255" lon="-1.72828">
        <ele>63</ele>
        <time>2021-08-01T07:29:23.000Z</time>
      </trkpt>
      <trkpt lat="47.15245" lon="-1.72834">
        <ele>64</ele>
        <time>2021-08-01T07:29:25.000Z</time>
      </trkpt>
      <trkpt lat="47.15234" lon="-1.7284">
        <ele>64</ele>
        <time>2021-08-01T07:29:27.000Z</time>
      </trkpt>
      <trkpt lat="47.15224" lon="-1.72846">
        <ele>65</ele>
        <time>2021-08-01T07:29:29.000Z</time>
      </trkpt>
      <trkpt lat="47.15214" lon="-1.72853">
        <ele>65</ele>
        <time>2021-08-01T07:29:31.000Z</time>
      </trkpt>
      <trkpt lat="47.15205" lon="-1.72861">
        <ele>66</ele>
        <time>2021-08-01T07:29:33.000Z</time>
      </trkpt>
      <trkpt lat="47.15193" lon="-1.72867">
        <ele>67</ele>
        <time>2021-08-01T07:29:35.000Z</time>
      </trkpt>
      <trkpt lat="47.15181" lon="-1.72873">
        <ele>66</ele>
        <time>2021-08-01T07:29:37.000Z</time>
      </trkpt>
      <trkpt lat="47.15169" lon="-1.72881">
        <ele>67</ele>
        <time>2021-08-01T07:29:39.000Z</time>
      </trkpt>
      <trkpt lat="47.15157" lon="-1.72888">
        <ele>67</ele>
        <time>2021-08-01T07:29:41.000Z</time>
      </trkpt>
      <trkpt lat="47.15146" lon="-1.72894">
        <ele>67</ele>
        <time>2021-08-01T07:29:43.000Z</time>
      </trkpt>
      <trkpt lat="47.15136" lon="-1.72899">
        <ele>68</ele>
        <time>2021-08-01T07:29:45.000Z</time>
      </trkpt>
      <trkpt lat="47.15124" lon="-1.72903">
        <ele>69</ele>
        <time>2021-08-01T07:29:47.000Z</time>
      </trkpt>
      <trkpt lat="47.15113" lon="-1.72909">
        <ele>70</ele>
        <time>2021-08-01T07:29:49.000Z</time>
      </trkpt>
      <trkpt lat="47.15103" lon="-1.72914">
        <ele>71</ele>
        <time>2021-08-01T07:29:51.000Z</time>
      </trkpt>
      <trkpt lat="47.15094" lon="-1.72921">
        <ele>71</ele>
        <time>2021-08-01T07:29:53.000Z</time>
      </trkpt>
      <trkpt lat="47.15083" lon="-1.72927">
        <ele>71</ele>
        <time>2021-08-01T07:29:55.000Z</time>
      </trkpt>
      <trkpt lat="47.15073" lon="-1.72933">
        <ele>71</ele>
        <time>2021-08-01T07:29:57.000Z</time>
      </trkpt>
      <trkpt lat="47.15064" lon="-1.72939">
        <ele>72</ele>
        <time>2021-08-01T07:29:59.000Z</time>
      </trkpt>
      <trkpt lat="47.15054" lon="-1.72945">
        <ele>72</ele>
        <time>2021-08-01T07:30:01.000Z</time>
      </trkpt>
      <trkpt lat="47.15044" lon="-1.72951">
        <ele>72</ele>
        <time>2021-08-01T07:30:03.000Z</time>
      </trkpt>
      <trkpt lat="47.15034" lon="-1.72956">
        <ele>73</ele>
        <time>2021-08-01T07:30:05.000Z</time>
      </trkpt>
      <trkpt lat="47.15024" lon="-1.72961">
        <ele>74</ele>
        <time>2021-08-01T07:30:07.000Z</time>
      </trkpt>
      <trkpt lat="47.15014" lon="-1.72966">
        <ele>74</ele>
        <time>2021-08-01T07:30:09.000Z</time>
      </trkpt>
      <trkpt lat="47.15005" lon="-1.72973">
        <ele>75</ele>
        <time>2021-08-01T07:30:11.000Z</time>
      </trkpt>
      <trkpt lat="47.14994" lon="-1.72979">
        <ele>75</ele>
        <time>2021-08-01T07:30:13.000Z</time>
      </trkpt>
      <trkpt lat="47.14985" lon="-1.72987">
        <ele>75</ele>
        <time>2021-08-01T07:30:15.000Z</time>
      </trkpt>
      <trkpt lat="47.14975" lon="-1.72995">
        <ele>75</ele>
        <time>2021-08-01T07:30:17.000Z</time>
      </trkpt>
      <trkpt lat="47.14965" lon="-1.73003">
        <ele>75</ele>
        <time>2021-08-01T07:30:19.000Z</time>
      </trkpt>
      <trkpt lat="47.14956" lon="-1.7301">
        <ele>76</ele>
        <time>2021-08-01T07:30:21.000Z</time>
      </trkpt>
      <trkpt lat="47.14946" lon="-1.73018">
        <ele>76</ele>
        <time>2021-08-01T07:30:23.000Z</time>
      </trkpt>
      <trkpt lat="47.14936" lon="-1.73025">
        <ele>76</ele>
        <time>2021-08-01T07:30:25.000Z</time>
      </trkpt>
      <trkpt lat="47.14926" lon="-1.73032">
        <ele>76</ele>
        <time>2021-08-01T07:30:27.000Z</time>
      </trkpt>
      <trkpt lat="47.14917" lon="-1.7304">
        <ele>76</ele>
        <time>2021-08-01T07:30:29.000Z</time>
      </trkpt>
      <trkpt lat="47.14907" lon="-1.73049">
        <ele>76</ele>
        <time>2021-08-01T07:30:31.000Z</time>
      </trkpt>
      <trkpt lat="47.14897" lon="-1.73057">
        <ele>76</ele>
        <time>2021-08-01T07:30:33.000Z</time>
      </trkpt>
      <trkpt lat="47.14888" lon="-1.73065">
        <ele>76</ele>
        <time>2021-08-01T07:30:35.000Z</time>
      </trkpt>
      <trkpt lat="47.14878" lon="-1.73073">
        <ele>77</ele>
        <time>2021-08-01T07:30:37.000Z</time>
      </trkpt>
      <trkpt lat="47.14868" lon="-1.73082">
        <ele>77</ele>
        <time>2021-08-01T07:30:39.000Z</time>
      </trkpt>
      <trkpt lat="47.14858" lon="-1.7309">
        <ele>77</ele>
        <time>2021-08-01T07:30:41.000Z</time>
      </trkpt>
      <trkpt lat="47.14848" lon="-1.73099">
        <ele>77</ele>
        <time>2021-08-01T07:30:43.000Z</time>
      </trkpt>
      <trkpt lat="47.14838" lon="-1.73107">
        <ele>78</ele>
        <time>2021-08-01T07:30:45.000Z</time>
      </trkpt>
      <trkpt lat="47.14828" lon="-1.73116">
        <ele>78</ele>
        <time>2021-08-01T07:30:47.000Z</time>
      </trkpt>
      <trkpt lat="47.14818" lon="-1.73125">
        <ele>78</ele>
        <time>2021-08-01T07:30:49.000Z</time>
      </trkpt>
      <trkpt lat="47.14808" lon="-1.73134">
        <ele>77</ele>
        <time>2021-08-01T07:30:51.000Z</time>
      </trkpt>
      <trkpt lat="47.14797" lon="-1.73144">
        <ele>77</ele>
        <time>2021-08-01T07:30:53.000Z</time>
      </trkpt>
      <trkpt lat="47.14788" lon="-1.73153">
        <ele>77</ele>
        <time>2021-08-01T07:30:55.000Z</time>
      </trkpt>
      <trkpt lat="47.14777" lon="-1.73162">
        <ele>78</ele>
        <time>2021-08-01T07:30:57.000Z</time>
      </trkpt>
      <trkpt lat="47.14766" lon="-1.73171">
        <ele>78</ele>
        <time>2021-08-01T07:30:59.000Z</time>
      </trkpt>
      <trkpt lat="47.14756" lon="-1.73179">
        <ele>77</ele>
        <time>2021-08-01T07:31:01.000Z</time>
      </trkpt>
      <trkpt lat="47.14745" lon="-1.73188">
        <ele>78</ele>
        <time>2021-08-01T07:31:03.000Z</time>
      </trkpt>
      <trkpt lat="47.14733" lon="-1.73198">
        <ele>77</ele>
        <time>2021-08-01T07:31:05.000Z</time>
      </trkpt>
      <trkpt lat="47.14722" lon="-1.73207">
        <ele>77</ele>
        <time>2021-08-01T07:31:07.000Z</time>
      </trkpt>
      <trkpt lat="47.1471" lon="-1.73217">
        <ele>77</ele>
        <time>2021-08-01T07:31:09.000Z</time>
      </trkpt>
      <trkpt lat="47.14699" lon="-1.73229">
        <ele>77</ele>
        <time>2021-08-01T07:31:11.000Z</time>
      </trkpt>
      <trkpt lat="47.14688" lon="-1.73242">
        <ele>77</ele>
        <time>2021-08-01T07:31:13.000Z</time>
      </trkpt>
      <trkpt lat="47.14679" lon="-1.73256">
        <ele>77</ele>
        <time>2021-08-01T07:31:15.000Z</time>
      </trkpt>
      <trkpt lat="47.14669" lon="-1.73269">
        <ele>76</ele>
        <time>2021-08-01T07:31:17.000Z</time>
      </trkpt>
      <trkpt lat="47.14659" lon="-1.73283">
        <ele>76</ele>
        <time>2021-08-01T07:31:19.000Z</time>
      </trkpt>
      <trkpt lat="47.14649" lon="-1.73295">
        <ele>76</ele>
        <time>2021-08-01T07:31:21.000Z</time>
      </trkpt>
      <trkpt lat="47.14638" lon="-1.73306">
        <ele>76</ele>
        <time>2021-08-01T07:31:23.000Z</time>
      </trkpt>
      <trkpt lat="47.14626" lon="-1.73316">
        <ele>76</ele>
        <time>2021-08-01T07:31:25.000Z</time>
      </trkpt>
      <trkpt lat="47.14614" lon="-1.73326">
        <ele>76</ele>
        <time>2021-08-01T07:31:27.000Z</time>
      </trkpt>
      <trkpt lat="47.14602" lon="-1.73336">
        <ele>76</ele>
        <time>2021-08-01T07:31:29.000Z</time>
      </trkpt>
      <trkpt lat="47.1459" lon="-1.73345">
        <ele>76</ele>
        <time>2021-08-01T07:31:31.000Z</time>
      </trkpt>
      <trkpt lat="47.14577" lon="-1.73354">
        <ele>76</ele>
        <time>2021-08-01T07:31:33.000Z</time>
      </trkpt>
      <trkpt lat="47.14565" lon="-1.73364">
        <ele>75</ele>
        <time>2021-08-01T07:31:35.000Z</time>
      </trkpt>
      <trkpt lat="47.14553" lon="-1.73376">
        <ele>75</ele>
        <time>2021-08-01T07:31:37.000Z</time>
      </trkpt>
      <trkpt lat="47.14542" lon="-1.73387">
        <ele>75</ele>
        <time>2021-08-01T07:31:39.000Z</time>
      </trkpt>
      <trkpt lat="47.14531" lon="-1.73398">
        <ele>75</ele>
        <time>2021-08-01T07:31:41.000Z</time>
      </trkpt>
      <trkpt lat="47.1452" lon="-1.7341">
        <ele>75</ele>
        <time>2021-08-01T07:31:43.000Z</time>
      </trkpt>
      <trkpt lat="47.1451" lon="-1.73424">
        <ele>75</ele>
        <time>2021-08-01T07:31:45.000Z</time>
      </trkpt>
      <trkpt lat="47.145" lon="-1.73437">
        <ele>75</ele>
        <time>2021-08-01T07:31:47.000Z</time>
      </trkpt>
      <trkpt lat="47.1449" lon="-1.73451">
        <ele>75</ele>
        <time>2021-08-01T07:31:49.000Z</time>
      </trkpt>
      <trkpt lat="47.1448" lon="-1.73464">
        <ele>75</ele>
        <time>2021-08-01T07:31:51.000Z</time>
      </trkpt>
      <trkpt lat="47.14471" lon="-1.73479">
        <ele>75</ele>
        <time>2021-08-01T07:31:53.000Z</time>
      </trkpt>
      <trkpt lat="47.14462" lon="-1.73494">
        <ele>76</ele>
        <time>2021-08-01T07:31:55.000Z</time>
      </trkpt>
      <trkpt lat="47.14453" lon="-1.7351">
        <ele>75</ele>
        <time>2021-08-01T07:31:57.000Z</time>
      </trkpt>
      <trkpt lat="47.14445" lon="-1.73525">
        <ele>76</ele>
        <time>2021-08-01T07:31:59.000Z</time>
      </trkpt>
      <trkpt lat="47.14436" lon="-1.7354">
        <ele>75</ele>
        <time>2021-08-01T07:32:01.000Z</time>
      </trkpt>
      <trkpt lat="47.14428" lon="-1.73555">
        <ele>75</ele>
        <time>2021-08-01T07:32:03.000Z</time>
      </trkpt>
      <trkpt lat="47.1442" lon="-1.7357">
        <ele>75</ele>
        <time>2021-08-01T07:32:05.000Z</time>
      </trkpt>
      <trkpt lat="47.14412" lon="-1.73586">
        <ele>75</ele>
        <time>2021-08-01T07:32:07.000Z</time>
      </trkpt>
      <trkpt lat="47.14403" lon="-1.73601">
        <ele>75</ele>
        <time>2021-08-01T07:32:09.000Z</time>
      </trkpt>
      <trkpt lat="47.14395" lon="-1.73616">
        <ele>75</ele>
        <time>2021-08-01T07:32:11.000Z</time>
      </trkpt>
      <trkpt lat="47.14387" lon="-1.7363">
        <ele>75</ele>
        <time>2021-08-01T07:32:13.000Z</time>
      </trkpt>
      <trkpt lat="47.14378" lon="-1.73644">
        <ele>76</ele>
        <time>2021-08-01T07:32:15.000Z</time>
      </trkpt>
      <trkpt lat="47.14369" lon="-1.73656">
        <ele>75</ele>
        <time>2021-08-01T07:32:17.000Z</time>
      </trkpt>
      <trkpt lat="47.14359" lon="-1.73669">
        <ele>75</ele>
        <time>2021-08-01T07:32:19.000Z</time>
      </trkpt>
      <trkpt lat="47.14348" lon="-1.7368">
        <ele>75</ele>
        <time>2021-08-01T07:32:21.000Z</time>
      </trkpt>
      <trkpt lat="47.14335" lon="-1.73691">
        <ele>74</ele>
        <time>2021-08-01T07:32:23.000Z</time>
      </trkpt>
      <trkpt lat="47.14323" lon="-1.73701">
        <ele>74</ele>
        <time>2021-08-01T07:32:25.000Z</time>
      </trkpt>
      <trkpt lat="47.14309" lon="-1.73711">
        <ele>73</ele>
        <time>2021-08-01T07:32:27.000Z</time>
      </trkpt>
      <trkpt lat="47.14296" lon="-1.73722">
        <ele>73</ele>
        <time>2021-08-01T07:32:29.000Z</time>
      </trkpt>
      <trkpt lat="47.14283" lon="-1.73732">
        <ele>73</ele>
        <time>2021-08-01T07:32:31.000Z</time>
      </trkpt>
      <trkpt lat="47.14269" lon="-1.73743">
        <ele>73</ele>
        <time>2021-08-01T07:32:33.000Z</time>
      </trkpt>
      <trkpt lat="47.14255" lon="-1.73754">
        <ele>72</ele>
        <time>2021-08-01T07:32:35.000Z</time>
      </trkpt>
      <trkpt lat="47.14242" lon="-1.73765">
        <ele>72</ele>
        <time>2021-08-01T07:32:37.000Z</time>
      </trkpt>
      <trkpt lat="47.14229" lon="-1.73776">
        <ele>72</ele>
        <time>2021-08-01T07:32:39.000Z</time>
      </trkpt>
      <trkpt lat="47.14215" lon="-1.73789">
        <ele>72</ele>
        <time>2021-08-01T07:32:41.000Z</time>
      </trkpt>
      <trkpt lat="47.14202" lon="-1.73801">
        <ele>72</ele>
        <time>2021-08-01T07:32:43.000Z</time>
      </trkpt>
      <trkpt lat="47.14189" lon="-1.73814">
        <ele>72</ele>
        <time>2021-08-01T07:32:45.000Z</time>
      </trkpt>
      <trkpt lat="47.14177" lon="-1.73826">
        <ele>73</ele>
        <time>2021-08-01T07:32:47.000Z</time>
      </trkpt>
      <trkpt lat="47.14164" lon="-1.73839">
        <ele>72</ele>
        <time>2021-08-01T07:32:49.000Z</time>
      </trkpt>
      <trkpt lat="47.14152" lon="-1.73851">
        <ele>72</ele>
        <time>2021-08-01T07:32:51.000Z</time>
      </trkpt>
      <trkpt lat="47.14139" lon="-1.73864">
        <ele>72</ele>
        <time>2021-08-01T07:32:53.000Z</time>
      </trkpt>
      <trkpt lat="47.14127" lon="-1.73876">
        <ele>72</ele>
        <time>2021-08-01T07:32:55.000Z</time>
      </trkpt>
      <trkpt lat="47.14115" lon="-1.73888">
        <ele>72</ele>
        <time>2021-08-01T07:32:57.000Z</time>
      </trkpt>
      <trkpt lat="47.14102" lon="-1.739">
        <ele>72</ele>
        <time>2021-08-01T07:32:59.000Z</time>
      </trkpt>
      <trkpt lat="47.1409" lon="-1.73911">
        <ele>72</ele>
        <time>2021-08-01T07:33:01.000Z</time>
      </trkpt>
      <trkpt lat="47.14077" lon="-1.73923">
        <ele>72</ele>
        <time>2021-08-01T07:33:03.000Z</time>
      </trkpt>
      <trkpt lat="47.14065" lon="-1.73935">
        <ele>72</ele>
        <time>2021-08-01T07:33:05.000Z</time>
      </trkpt>
      <trkpt lat="47.14054" lon="-1.73946">
        <ele>72</ele>
        <time>2021-08-01T07:33:07.000Z</time>
      </trkpt>
      <trkpt lat="47.14041" lon="-1.73956">
        <ele>72</ele>
        <time>2021-08-01T07:33:09.000Z</time>
      </trkpt>
      <trkpt lat="47.14029" lon="-1.73967">
        <ele>72</ele>
        <time>2021-08-01T07:33:11.000Z</time>
      </trkpt>
      <trkpt lat="47.14016" lon="-1.73978">
        <ele>72</ele>
        <time>2021-08-01T07:33:13.000Z</time>
      </trkpt>
      <trkpt lat="47.14003" lon="-1.73989">
        <ele>72</ele>
        <time>2021-08-01T07:33:15.000Z</time>
      </trkpt>
      <trkpt lat="47.13991" lon="-1.74">
        <ele>72</ele>
        <time>2021-08-01T07:33:17.000Z</time>
      </trkpt>
      <trkpt lat="47.13979" lon="-1.74012">
        <ele>72</ele>
        <time>2021-08-01T07:33:19.000Z</time>
      </trkpt>
      <trkpt lat="47.13967" lon="-1.74022">
        <ele>71</ele>
        <time>2021-08-01T07:33:21.000Z</time>
      </trkpt>
      <trkpt lat="47.13957" lon="-1.74037">
        <ele>71</ele>
        <time>2021-08-01T07:33:23.000Z</time>
      </trkpt>
      <trkpt lat="47.13947" lon="-1.74053">
        <ele>71</ele>
        <time>2021-08-01T07:33:25.000Z</time>
      </trkpt>
      <trkpt lat="47.13937" lon="-1.7407">
        <ele>71</ele>
        <time>2021-08-01T07:33:27.000Z</time>
      </trkpt>
      <trkpt lat="47.13928" lon="-1.74087">
        <ele>70</ele>
        <time>2021-08-01T07:33:29.000Z</time>
      </trkpt>
      <trkpt lat="47.13918" lon="-1.74103">
        <ele>70</ele>
        <time>2021-08-01T07:33:31.000Z</time>
      </trkpt>
      <trkpt lat="47.13907" lon="-1.74117">
        <ele>69</ele>
        <time>2021-08-01T07:33:33.000Z</time>
      </trkpt>
      <trkpt lat="47.13895" lon="-1.74131">
        <ele>69</ele>
        <time>2021-08-01T07:33:35.000Z</time>
      </trkpt>
      <trkpt lat="47.13883" lon="-1.74145">
        <ele>69</ele>
        <time>2021-08-01T07:33:37.000Z</time>
      </trkpt>
      <trkpt lat="47.1387" lon="-1.74158">
        <ele>68</ele>
        <time>2021-08-01T07:33:39.000Z</time>
      </trkpt>
      <trkpt lat="47.13858" lon="-1.74173">
        <ele>67</ele>
        <time>2021-08-01T07:33:41.000Z</time>
      </trkpt>
      <trkpt lat="47.13845" lon="-1.74188">
        <ele>67</ele>
        <time>2021-08-01T07:33:43.000Z</time>
      </trkpt>
      <trkpt lat="47.13833" lon="-1.74204">
        <ele>67</ele>
        <time>2021-08-01T07:33:45.000Z</time>
      </trkpt>
      <trkpt lat="47.13822" lon="-1.7422">
        <ele>66</ele>
        <time>2021-08-01T07:33:47.000Z</time>
      </trkpt>
      <trkpt lat="47.1381" lon="-1.74237">
        <ele>65</ele>
        <time>2021-08-01T07:33:49.000Z</time>
      </trkpt>
      <trkpt lat="47.13798" lon="-1.74254">
        <ele>64</ele>
        <time>2021-08-01T07:33:51.000Z</time>
      </trkpt>
      <trkpt lat="47.13787" lon="-1.74273">
        <ele>64</ele>
        <time>2021-08-01T07:33:53.000Z</time>
      </trkpt>
      <trkpt lat="47.13776" lon="-1.74293">
        <ele>63</ele>
        <time>2021-08-01T07:33:55.000Z</time>
      </trkpt>
      <trkpt lat="47.13765" lon="-1.74312">
        <ele>63</ele>
        <time>2021-08-01T07:33:57.000Z</time>
      </trkpt>
      <trkpt lat="47.13755" lon="-1.74332">
        <ele>61</ele>
        <time>2021-08-01T07:33:59.000Z</time>
      </trkpt>
      <trkpt lat="47.13744" lon="-1.74353">
        <ele>60</ele>
        <time>2021-08-01T07:34:01.000Z</time>
      </trkpt>
      <trkpt lat="47.13735" lon="-1.74374">
        <ele>59</ele>
        <time>2021-08-01T07:34:03.000Z</time>
      </trkpt>
      <trkpt lat="47.13725" lon="-1.74395">
        <ele>58</ele>
        <time>2021-08-01T07:34:05.000Z</time>
      </trkpt>
      <trkpt lat="47.13716" lon="-1.74416">
        <ele>58</ele>
        <time>2021-08-01T07:34:07.000Z</time>
      </trkpt>
      <trkpt lat="47.13706" lon="-1.74436">
        <ele>57</ele>
        <time>2021-08-01T07:34:09.000Z</time>
      </trkpt>
      <trkpt lat="47.13695" lon="-1.74452">
        <ele>56</ele>
        <time>2021-08-01T07:34:11.000Z</time>
      </trkpt>
      <trkpt lat="47.13682" lon="-1.74468">
        <ele>56</ele>
        <time>2021-08-01T07:34:13.000Z</time>
      </trkpt>
      <trkpt lat="47.1367" lon="-1.74483">
        <ele>55</ele>
        <time>2021-08-01T07:34:15.000Z</time>
      </trkpt>
      <trkpt lat="47.13657" lon="-1.74497">
        <ele>55</ele>
        <time>2021-08-01T07:34:17.000Z</time>
      </trkpt>
      <trkpt lat="47.13644" lon="-1.74509">
        <ele>56</ele>
        <time>2021-08-01T07:34:19.000Z</time>
      </trkpt>
      <trkpt lat="47.13632" lon="-1.74521">
        <ele>56</ele>
        <time>2021-08-01T07:34:21.000Z</time>
      </trkpt>
      <trkpt lat="47.13621" lon="-1.74533">
        <ele>56</ele>
        <time>2021-08-01T07:34:23.000Z</time>
      </trkpt>
      <trkpt lat="47.13609" lon="-1.74546">
        <ele>55</ele>
        <time>2021-08-01T07:34:25.000Z</time>
      </trkpt>
      <trkpt lat="47.13597" lon="-1.74559">
        <ele>54</ele>
        <time>2021-08-01T07:34:27.000Z</time>
      </trkpt>
      <trkpt lat="47.13583" lon="-1.74573">
        <ele>54</ele>
        <time>2021-08-01T07:34:29.000Z</time>
      </trkpt>
      <trkpt lat="47.13569" lon="-1.74586">
        <ele>54</ele>
        <time>2021-08-01T07:34:31.000Z</time>
      </trkpt>
      <trkpt lat="47.13554" lon="-1.74598">
        <ele>53</ele>
        <time>2021-08-01T07:34:33.000Z</time>
      </trkpt>
      <trkpt lat="47.13541" lon="-1.74611">
        <ele>54</ele>
        <time>2021-08-01T07:34:35.000Z</time>
      </trkpt>
      <trkpt lat="47.13529" lon="-1.74625">
        <ele>54</ele>
        <time>2021-08-01T07:34:37.000Z</time>
      </trkpt>
      <trkpt lat="47.13516" lon="-1.74637">
        <ele>54</ele>
        <time>2021-08-01T07:34:39.000Z</time>
      </trkpt>
      <trkpt lat="47.13505" lon="-1.7465">
        <ele>55</ele>
        <time>2021-08-01T07:34:41.000Z</time>
      </trkpt>
      <trkpt lat="47.13497" lon="-1.74666">
        <ele>56</ele>
        <time>2021-08-01T07:34:43.000Z</time>
      </trkpt>
      <trkpt lat="47.1349" lon="-1.74683">
        <ele>56</ele>
        <time>2021-08-01T07:34:45.000Z</time>
      </trkpt>
      <trkpt lat="47.13485" lon="-1.74701">
        <ele>57</ele>
        <time>2021-08-01T07:34:47.000Z</time>
      </trkpt>
      <trkpt lat="47.13479" lon="-1.74717">
        <ele>57</ele>
        <time>2021-08-01T07:34:49.000Z</time>
      </trkpt>
      <trkpt lat="47.1347" lon="-1.7473">
        <ele>58</ele>
        <time>2021-08-01T07:34:51.000Z</time>
      </trkpt>
      <trkpt lat="47.1346" lon="-1.74741">
        <ele>59</ele>
        <time>2021-08-01T07:34:53.000Z</time>
      </trkpt>
      <trkpt lat="47.13449" lon="-1.74751">
        <ele>59</ele>
        <time>2021-08-01T07:34:55.000Z</time>
      </trkpt>
      <trkpt lat="47.13436" lon="-1.74758">
        <ele>59</ele>
        <time>2021-08-01T07:34:57.000Z</time>
      </trkpt>
      <trkpt lat="47.13425" lon="-1.74765">
        <ele>60</ele>
        <time>2021-08-01T07:34:59.000Z</time>
      </trkpt>
      <trkpt lat="47.13414" lon="-1.74775">
        <ele>60</ele>
        <time>2021-08-01T07:35:01.000Z</time>
      </trkpt>
      <trkpt lat="47.13404" lon="-1.74786">
        <ele>61</ele>
        <time>2021-08-01T07:35:03.000Z</time>
      </trkpt>
      <trkpt lat="47.13395" lon="-1.74799">
        <ele>61</ele>
        <time>2021-08-01T07:35:05.000Z</time>
      </trkpt>
      <trkpt lat="47.13388" lon="-1.74813">
        <ele>61</ele>
        <time>2021-08-01T07:35:07.000Z</time>
      </trkpt>
      <trkpt lat="47.13382" lon="-1.74829">
        <ele>61</ele>
        <time>2021-08-01T07:35:09.000Z</time>
      </trkpt>
      <trkpt lat="47.13377" lon="-1.74846">
        <ele>62</ele>
        <time>2021-08-01T07:35:11.000Z</time>
      </trkpt>
      <trkpt lat="47.13373" lon="-1.74863">
        <ele>62</ele>
        <time>2021-08-01T07:35:13.000Z</time>
      </trkpt>
      <trkpt lat="47.13369" lon="-1.7488">
        <ele>63</ele>
        <time>2021-08-01T07:35:15.000Z</time>
      </trkpt>
      <trkpt lat="47.13364" lon="-1.74898">
        <ele>63</ele>
        <time>2021-08-01T07:35:17.000Z</time>
      </trkpt>
      <trkpt lat="47.13358" lon="-1.74915">
        <ele>64</ele>
        <time>2021-08-01T07:35:19.000Z</time>
      </trkpt>
      <trkpt lat="47.13352" lon="-1.74931">
        <ele>63</ele>
        <time>2021-08-01T07:35:21.000Z</time>
      </trkpt>
      <trkpt lat="47.13345" lon="-1.74946">
        <ele>63</ele>
        <time>2021-08-01T07:35:23.000Z</time>
      </trkpt>
      <trkpt lat="47.13338" lon="-1.7496">
        <ele>63</ele>
        <time>2021-08-01T07:35:25.000Z</time>
      </trkpt>
      <trkpt lat="47.1333" lon="-1.74973">
        <ele>63</ele>
        <time>2021-08-01T07:35:27.000Z</time>
      </trkpt>
      <trkpt lat="47.13322" lon="-1.74986">
        <ele>64</ele>
        <time>2021-08-01T07:35:29.000Z</time>
      </trkpt>
      <trkpt lat="47.13314" lon="-1.74997">
        <ele>64</ele>
        <time>2021-08-01T07:35:31.000Z</time>
      </trkpt>
      <trkpt lat="47.13304" lon="-1.75006">
        <ele>64</ele>
        <time>2021-08-01T07:35:33.000Z</time>
      </trkpt>
      <trkpt lat="47.13294" lon="-1.75015">
        <ele>64</ele>
        <time>2021-08-01T07:35:35.000Z</time>
      </trkpt>
      <trkpt lat="47.13284" lon="-1.75024">
        <ele>65</ele>
        <time>2021-08-01T07:35:37.000Z</time>
      </trkpt>
      <trkpt lat="47.13274" lon="-1.75032">
        <ele>65</ele>
        <time>2021-08-01T07:35:39.000Z</time>
      </trkpt>
      <trkpt lat="47.13264" lon="-1.7504">
        <ele>66</ele>
        <time>2021-08-01T07:35:41.000Z</time>
      </trkpt>
      <trkpt lat="47.13253" lon="-1.75048">
        <ele>66</ele>
        <time>2021-08-01T07:35:43.000Z</time>
      </trkpt>
      <trkpt lat="47.13243" lon="-1.75058">
        <ele>67</ele>
        <time>2021-08-01T07:35:45.000Z</time>
      </trkpt>
      <trkpt lat="47.13233" lon="-1.75067">
        <ele>68</ele>
        <time>2021-08-01T07:35:47.000Z</time>
      </trkpt>
      <trkpt lat="47.13224" lon="-1.75077">
        <ele>68</ele>
        <time>2021-08-01T07:35:49.000Z</time>
      </trkpt>
      <trkpt lat="47.13215" lon="-1.75089">
        <ele>69</ele>
        <time>2021-08-01T07:35:51.000Z</time>
      </trkpt>
      <trkpt lat="47.13207" lon="-1.75102">
        <ele>69</ele>
        <time>2021-08-01T07:35:53.000Z</time>
      </trkpt>
      <trkpt lat="47.132" lon="-1.75114">
        <ele>69</ele>
        <time>2021-08-01T07:35:55.000Z</time>
      </trkpt>
      <trkpt lat="47.13192" lon="-1.75126">
        <ele>70</ele>
        <time>2021-08-01T07:35:57.000Z</time>
      </trkpt>
      <trkpt lat="47.13185" lon="-1.75139">
        <ele>70</ele>
        <time>2021-08-01T07:35:59.000Z</time>
      </trkpt>
      <trkpt lat="47.13179" lon="-1.75153">
        <ele>70</ele>
        <time>2021-08-01T07:36:01.000Z</time>
      </trkpt>
      <trkpt lat="47.13172" lon="-1.75169">
        <ele>71</ele>
        <time>2021-08-01T07:36:03.000Z</time>
      </trkpt>
      <trkpt lat="47.13167" lon="-1.75183">
        <ele>71</ele>
        <time>2021-08-01T07:36:05.000Z</time>
      </trkpt>
      <trkpt lat="47.13161" lon="-1.75198">
        <ele>71</ele>
        <time>2021-08-01T07:36:07.000Z</time>
      </trkpt>
      <trkpt lat="47.13158" lon="-1.75216">
        <ele>71</ele>
        <time>2021-08-01T07:36:09.000Z</time>
      </trkpt>
      <trkpt lat="47.13154" lon="-1.75233">
        <ele>71</ele>
        <time>2021-08-01T07:36:11.000Z</time>
      </trkpt>
      <trkpt lat="47.13152" lon="-1.7525">
        <ele>72</ele>
        <time>2021-08-01T07:36:13.000Z</time>
      </trkpt>
      <trkpt lat="47.13149" lon="-1.75267">
        <ele>72</ele>
        <time>2021-08-01T07:36:15.000Z</time>
      </trkpt>
      <trkpt lat="47.13148" lon="-1.75285">
        <ele>72</ele>
        <time>2021-08-01T07:36:17.000Z</time>
      </trkpt>
      <trkpt lat="47.13145" lon="-1.75302">
        <ele>72</ele>
        <time>2021-08-01T07:36:19.000Z</time>
      </trkpt>
      <trkpt lat="47.1314" lon="-1.75318">
        <ele>72</ele>
        <time>2021-08-01T07:36:21.000Z</time>
      </trkpt>
      <trkpt lat="47.13136" lon="-1.75334">
        <ele>72</ele>
        <time>2021-08-01T07:36:23.000Z</time>
      </trkpt>
      <trkpt lat="47.13132" lon="-1.7535">
        <ele>72</ele>
        <time>2021-08-01T07:36:25.000Z</time>
      </trkpt>
      <trkpt lat="47.13129" lon="-1.75366">
        <ele>73</ele>
        <time>2021-08-01T07:36:27.000Z</time>
      </trkpt>
      <trkpt lat="47.13126" lon="-1.75382">
        <ele>73</ele>
        <time>2021-08-01T07:36:29.000Z</time>
      </trkpt>
      <trkpt lat="47.13122" lon="-1.75396">
        <ele>73</ele>
        <time>2021-08-01T07:36:31.000Z</time>
      </trkpt>
      <trkpt lat="47.13118" lon="-1.75409">
        <ele>74</ele>
        <time>2021-08-01T07:36:33.000Z</time>
      </trkpt>
      <trkpt lat="47.13114" lon="-1.75423">
        <ele>75</ele>
        <time>2021-08-01T07:36:35.000Z</time>
      </trkpt>
      <trkpt lat="47.13114" lon="-1.75439">
        <ele>75</ele>
        <time>2021-08-01T07:36:37.000Z</time>
      </trkpt>
      <trkpt lat="47.1311" lon="-1.75454">
        <ele>75</ele>
        <time>2021-08-01T07:36:39.000Z</time>
      </trkpt>
      <trkpt lat="47.13107" lon="-1.75469">
        <ele>76</ele>
        <time>2021-08-01T07:36:41.000Z</time>
      </trkpt>
      <trkpt lat="47.13106" lon="-1.75485">
        <ele>77</ele>
        <time>2021-08-01T07:36:43.000Z</time>
      </trkpt>
      <trkpt lat="47.13105" lon="-1.755">
        <ele>76</ele>
        <time>2021-08-01T07:36:45.000Z</time>
      </trkpt>
      <trkpt lat="47.13103" lon="-1.75516">
        <ele>77</ele>
        <time>2021-08-01T07:36:47.000Z</time>
      </trkpt>
      <trkpt lat="47.131" lon="-1.75531">
        <ele>77</ele>
        <time>2021-08-01T07:36:49.000Z</time>
      </trkpt>
      <trkpt lat="47.13098" lon="-1.75546">
        <ele>77</ele>
        <time>2021-08-01T07:36:51.000Z</time>
      </trkpt>
      <trkpt lat="47.13095" lon="-1.75561">
        <ele>77</ele>
        <time>2021-08-01T07:36:53.000Z</time>
      </trkpt>
      <trkpt lat="47.13093" lon="-1.75575">
        <ele>77</ele>
        <time>2021-08-01T07:36:55.000Z</time>
      </trkpt>
      <trkpt lat="47.1309" lon="-1.7559">
        <ele>78</ele>
        <time>2021-08-01T07:36:57.000Z</time>
      </trkpt>
      <trkpt lat="47.13087" lon="-1.75606">
        <ele>77</ele>
        <time>2021-08-01T07:36:59.000Z</time>
      </trkpt>
      <trkpt lat="47.13085" lon="-1.75622">
        <ele>77</ele>
        <time>2021-08-01T07:37:01.000Z</time>
      </trkpt>
      <trkpt lat="47.13082" lon="-1.75639">
        <ele>77</ele>
        <time>2021-08-01T07:37:03.000Z</time>
      </trkpt>
      <trkpt lat="47.13079" lon="-1.75657">
        <ele>76</ele>
        <time>2021-08-01T07:37:05.000Z</time>
      </trkpt>
      <trkpt lat="47.13076" lon="-1.75674">
        <ele>76</ele>
        <time>2021-08-01T07:37:07.000Z</time>
      </trkpt>
      <trkpt lat="47.13073" lon="-1.75691">
        <ele>76</ele>
        <time>2021-08-01T07:37:09.000Z</time>
      </trkpt>
      <trkpt lat="47.13069" lon="-1.75707">
        <ele>76</ele>
        <time>2021-08-01T07:37:11.000Z</time>
      </trkpt>
      <trkpt lat="47.13064" lon="-1.75722">
        <ele>77</ele>
        <time>2021-08-01T07:37:13.000Z</time>
      </trkpt>
      <trkpt lat="47.13055" lon="-1.75745">
        <ele>77</ele>
        <time>2021-08-01T07:37:16.000Z</time>
      </trkpt>
      <trkpt lat="47.13043" lon="-1.75765">
        <ele>77</ele>
        <time>2021-08-01T07:37:19.000Z</time>
      </trkpt>
      <trkpt lat="47.1303" lon="-1.75785">
        <ele>78</ele>
        <time>2021-08-01T07:37:22.000Z</time>
      </trkpt>
      <trkpt lat="47.13022" lon="-1.75798">
        <ele>77</ele>
        <time>2021-08-01T07:37:24.000Z</time>
      </trkpt>
      <trkpt lat="47.13014" lon="-1.75811">
        <ele>77</ele>
        <time>2021-08-01T07:37:26.000Z</time>
      </trkpt>
      <trkpt lat="47.13007" lon="-1.75835">
        <ele>77</ele>
        <time>2021-08-01T07:37:29.000Z</time>
      </trkpt>
      <trkpt lat="47.13008" lon="-1.75852">
        <ele>77</ele>
        <time>2021-08-01T07:37:31.000Z</time>
      </trkpt>
      <trkpt lat="47.13009" lon="-1.75878">
        <ele>78</ele>
        <time>2021-08-01T07:37:34.000Z</time>
      </trkpt>
      <trkpt lat="47.13007" lon="-1.75895">
        <ele>79</ele>
        <time>2021-08-01T07:37:36.000Z</time>
      </trkpt>
      <trkpt lat="47.13003" lon="-1.75911">
        <ele>79</ele>
        <time>2021-08-01T07:37:38.000Z</time>
      </trkpt>
      <trkpt lat="47.12999" lon="-1.75928">
        <ele>80</ele>
        <time>2021-08-01T07:37:40.000Z</time>
      </trkpt>
      <trkpt lat="47.12996" lon="-1.75945">
        <ele>80</ele>
        <time>2021-08-01T07:37:42.000Z</time>
      </trkpt>
      <trkpt lat="47.12992" lon="-1.75962">
        <ele>80</ele>
        <time>2021-08-01T07:37:44.000Z</time>
      </trkpt>
      <trkpt lat="47.1299" lon="-1.75979">
        <ele>80</ele>
        <time>2021-08-01T07:37:46.000Z</time>
      </trkpt>
      <trkpt lat="47.12988" lon="-1.75997">
        <ele>81</ele>
        <time>2021-08-01T07:37:48.000Z</time>
      </trkpt>
      <trkpt lat="47.12986" lon="-1.76015">
        <ele>81</ele>
        <time>2021-08-01T07:37:50.000Z</time>
      </trkpt>
      <trkpt lat="47.12985" lon="-1.76033">
        <ele>81</ele>
        <time>2021-08-01T07:37:52.000Z</time>
      </trkpt>
      <trkpt lat="47.12984" lon="-1.7605">
        <ele>81</ele>
        <time>2021-08-01T07:37:54.000Z</time>
      </trkpt>
      <trkpt lat="47.12984" lon="-1.76068">
        <ele>81</ele>
        <time>2021-08-01T07:37:56.000Z</time>
      </trkpt>
      <trkpt lat="47.12985" lon="-1.76085">
        <ele>82</ele>
        <time>2021-08-01T07:37:58.000Z</time>
      </trkpt>
      <trkpt lat="47.12986" lon="-1.76103">
        <ele>81</ele>
        <time>2021-08-01T07:38:00.000Z</time>
      </trkpt>
      <trkpt lat="47.12989" lon="-1.7612">
        <ele>82</ele>
        <time>2021-08-01T07:38:02.000Z</time>
      </trkpt>
      <trkpt lat="47.12992" lon="-1.76136">
        <ele>82</ele>
        <time>2021-08-01T07:38:04.000Z</time>
      </trkpt>
      <trkpt lat="47.12996" lon="-1.76152">
        <ele>82</ele>
        <time>2021-08-01T07:38:06.000Z</time>
      </trkpt>
      <trkpt lat="47.13001" lon="-1.76169">
        <ele>82</ele>
        <time>2021-08-01T07:38:08.000Z</time>
      </trkpt>
      <trkpt lat="47.13006" lon="-1.76186">
        <ele>81</ele>
        <time>2021-08-01T07:38:10.000Z</time>
      </trkpt>
      <trkpt lat="47.1301" lon="-1.76203">
        <ele>81</ele>
        <time>2021-08-01T07:38:12.000Z</time>
      </trkpt>
      <trkpt lat="47.13015" lon="-1.7622">
        <ele>81</ele>
        <time>2021-08-01T07:38:14.000Z</time>
      </trkpt>
      <trkpt lat="47.13019" lon="-1.76237">
        <ele>81</ele>
        <time>2021-08-01T07:38:16.000Z</time>
      </trkpt>
      <trkpt lat="47.13023" lon="-1.76253">
        <ele>81</ele>
        <time>2021-08-01T07:38:18.000Z</time>
      </trkpt>
      <trkpt lat="47.13027" lon="-1.7627">
        <ele>81</ele>
        <time>2021-08-01T07:38:20.000Z</time>
      </trkpt>
      <trkpt lat="47.1303" lon="-1.76287">
        <ele>81</ele>
        <time>2021-08-01T07:38:22.000Z</time>
      </trkpt>
      <trkpt lat="47.13033" lon="-1.76304">
        <ele>80</ele>
        <time>2021-08-01T07:38:24.000Z</time>
      </trkpt>
      <trkpt lat="47.13036" lon="-1.76321">
        <ele>80</ele>
        <time>2021-08-01T07:38:26.000Z</time>
      </trkpt>
      <trkpt lat="47.1304" lon="-1.76339">
        <ele>80</ele>
        <time>2021-08-01T07:38:28.000Z</time>
      </trkpt>
      <trkpt lat="47.13043" lon="-1.76356">
        <ele>80</ele>
        <time>2021-08-01T07:38:30.000Z</time>
      </trkpt>
      <trkpt lat="47.13047" lon="-1.76374">
        <ele>80</ele>
        <time>2021-08-01T07:38:32.000Z</time>
      </trkpt>
      <trkpt lat="47.13049" lon="-1.76392">
        <ele>80</ele>
        <time>2021-08-01T07:38:34.000Z</time>
      </trkpt>
      <trkpt lat="47.13051" lon="-1.76409">
        <ele>80</ele>
        <time>2021-08-01T07:38:36.000Z</time>
      </trkpt>
      <trkpt lat="47.13052" lon="-1.76427">
        <ele>80</ele>
        <time>2021-08-01T07:38:38.000Z</time>
      </trkpt>
      <trkpt lat="47.13053" lon="-1.76445">
        <ele>80</ele>
        <time>2021-08-01T07:38:40.000Z</time>
      </trkpt>
      <trkpt lat="47.13054" lon="-1.76464">
        <ele>80</ele>
        <time>2021-08-01T07:38:42.000Z</time>
      </trkpt>
      <trkpt lat="47.13055" lon="-1.76481">
        <ele>80</ele>
        <time>2021-08-01T07:38:44.000Z</time>
      </trkpt>
      <trkpt lat="47.13056" lon="-1.765">
        <ele>80</ele>
        <time>2021-08-01T07:38:46.000Z</time>
      </trkpt>
      <trkpt lat="47.13057" lon="-1.76519">
        <ele>80</ele>
        <time>2021-08-01T07:38:48.000Z</time>
      </trkpt>
      <trkpt lat="47.13058" lon="-1.76539">
        <ele>79</ele>
        <time>2021-08-01T07:38:50.000Z</time>
      </trkpt>
      <trkpt lat="47.13059" lon="-1.76557">
        <ele>79</ele>
        <time>2021-08-01T07:38:52.000Z</time>
      </trkpt>
      <trkpt lat="47.13061" lon="-1.76576">
        <ele>79</ele>
        <time>2021-08-01T07:38:54.000Z</time>
      </trkpt>
      <trkpt lat="47.13062" lon="-1.76594">
        <ele>80</ele>
        <time>2021-08-01T07:38:56.000Z</time>
      </trkpt>
      <trkpt lat="47.13064" lon="-1.76612">
        <ele>79</ele>
        <time>2021-08-01T07:38:58.000Z</time>
      </trkpt>
      <trkpt lat="47.13066" lon="-1.76631">
        <ele>79</ele>
        <time>2021-08-01T07:39:00.000Z</time>
      </trkpt>
      <trkpt lat="47.13068" lon="-1.76649">
        <ele>80</ele>
        <time>2021-08-01T07:39:02.000Z</time>
      </trkpt>
      <trkpt lat="47.1307" lon="-1.76667">
        <ele>80</ele>
        <time>2021-08-01T07:39:04.000Z</time>
      </trkpt>
      <trkpt lat="47.13071" lon="-1.76685">
        <ele>80</ele>
        <time>2021-08-01T07:39:06.000Z</time>
      </trkpt>
      <trkpt lat="47.13069" lon="-1.76703">
        <ele>80</ele>
        <time>2021-08-01T07:39:08.000Z</time>
      </trkpt>
      <trkpt lat="47.13067" lon="-1.76721">
        <ele>80</ele>
        <time>2021-08-01T07:39:10.000Z</time>
      </trkpt>
      <trkpt lat="47.13064" lon="-1.7674">
        <ele>80</ele>
        <time>2021-08-01T07:39:12.000Z</time>
      </trkpt>
      <trkpt lat="47.13062" lon="-1.76759">
        <ele>81</ele>
        <time>2021-08-01T07:39:14.000Z</time>
      </trkpt>
      <trkpt lat="47.13059" lon="-1.76777">
        <ele>81</ele>
        <time>2021-08-01T07:39:16.000Z</time>
      </trkpt>
      <trkpt lat="47.13057" lon="-1.76796">
        <ele>81</ele>
        <time>2021-08-01T07:39:18.000Z</time>
      </trkpt>
      <trkpt lat="47.13055" lon="-1.76814">
        <ele>81</ele>
        <time>2021-08-01T07:39:20.000Z</time>
      </trkpt>
      <trkpt lat="47.13053" lon="-1.76832">
        <ele>81</ele>
        <time>2021-08-01T07:39:22.000Z</time>
      </trkpt>
      <trkpt lat="47.1305" lon="-1.7685">
        <ele>81</ele>
        <time>2021-08-01T07:39:24.000Z</time>
      </trkpt>
      <trkpt lat="47.13049" lon="-1.76869">
        <ele>80</ele>
        <time>2021-08-01T07:39:26.000Z</time>
      </trkpt>
      <trkpt lat="47.13047" lon="-1.76888">
        <ele>81</ele>
        <time>2021-08-01T07:39:28.000Z</time>
      </trkpt>
      <trkpt lat="47.13045" lon="-1.76906">
        <ele>81</ele>
        <time>2021-08-01T07:39:30.000Z</time>
      </trkpt>
      <trkpt lat="47.13043" lon="-1.76925">
        <ele>81</ele>
        <time>2021-08-01T07:39:32.000Z</time>
      </trkpt>
      <trkpt lat="47.13042" lon="-1.76943">
        <ele>81</ele>
        <time>2021-08-01T07:39:34.000Z</time>
      </trkpt>
      <trkpt lat="47.13041" lon="-1.76961">
        <ele>81</ele>
        <time>2021-08-01T07:39:36.000Z</time>
      </trkpt>
      <trkpt lat="47.1304" lon="-1.76979">
        <ele>82</ele>
        <time>2021-08-01T07:39:38.000Z</time>
      </trkpt>
      <trkpt lat="47.13039" lon="-1.76997">
        <ele>82</ele>
        <time>2021-08-01T07:39:40.000Z</time>
      </trkpt>
      <trkpt lat="47.13038" lon="-1.77016">
        <ele>82</ele>
        <time>2021-08-01T07:39:42.000Z</time>
      </trkpt>
      <trkpt lat="47.13037" lon="-1.77034">
        <ele>82</ele>
        <time>2021-08-01T07:39:44.000Z</time>
      </trkpt>
      <trkpt lat="47.13036" lon="-1.77052">
        <ele>82</ele>
        <time>2021-08-01T07:39:46.000Z</time>
      </trkpt>
      <trkpt lat="47.13034" lon="-1.77071">
        <ele>82</ele>
        <time>2021-08-01T07:39:48.000Z</time>
      </trkpt>
      <trkpt lat="47.13032" lon="-1.7709">
        <ele>82</ele>
        <time>2021-08-01T07:39:50.000Z</time>
      </trkpt>
      <trkpt lat="47.13029" lon="-1.77109">
        <ele>82</ele>
        <time>2021-08-01T07:39:52.000Z</time>
      </trkpt>
      <trkpt lat="47.13027" lon="-1.77127">
        <ele>82</ele>
        <time>2021-08-01T07:39:54.000Z</time>
      </trkpt>
      <trkpt lat="47.13024" lon="-1.77146">
        <ele>83</ele>
        <time>2021-08-01T07:39:56.000Z</time>
      </trkpt>
      <trkpt lat="47.13022" lon="-1.77164">
        <ele>83</ele>
        <time>2021-08-01T07:39:58.000Z</time>
      </trkpt>
      <trkpt lat="47.13018" lon="-1.77182">
        <ele>83</ele>
        <time>2021-08-01T07:40:00.000Z</time>
      </trkpt>
      <trkpt lat="47.13014" lon="-1.77199">
        <ele>83</ele>
        <time>2021-08-01T07:40:02.000Z</time>
      </trkpt>
      <trkpt lat="47.1301" lon="-1.77216">
        <ele>82</ele>
        <time>2021-08-01T07:40:04.000Z</time>
      </trkpt>
      <trkpt lat="47.13005" lon="-1.77234">
        <ele>82</ele>
        <time>2021-08-01T07:40:06.000Z</time>
      </trkpt>
      <trkpt lat="47.12999" lon="-1.77251">
        <ele>83</ele>
        <time>2021-08-01T07:40:08.000Z</time>
      </trkpt>
      <trkpt lat="47.12994" lon="-1.77268">
        <ele>83</ele>
        <time>2021-08-01T07:40:10.000Z</time>
      </trkpt>
      <trkpt lat="47.12989" lon="-1.77285">
        <ele>83</ele>
        <time>2021-08-01T07:40:12.000Z</time>
      </trkpt>
      <trkpt lat="47.12982" lon="-1.77302">
        <ele>83</ele>
        <time>2021-08-01T07:40:14.000Z</time>
      </trkpt>
      <trkpt lat="47.12976" lon="-1.77318">
        <ele>83</ele>
        <time>2021-08-01T07:40:16.000Z</time>
      </trkpt>
      <trkpt lat="47.12969" lon="-1.77335">
        <ele>83</ele>
        <time>2021-08-01T07:40:18.000Z</time>
      </trkpt>
      <trkpt lat="47.12963" lon="-1.77352">
        <ele>83</ele>
        <time>2021-08-01T07:40:20.000Z</time>
      </trkpt>
      <trkpt lat="47.12956" lon="-1.77369">
        <ele>83</ele>
        <time>2021-08-01T07:40:22.000Z</time>
      </trkpt>
      <trkpt lat="47.1295" lon="-1.77385">
        <ele>83</ele>
        <time>2021-08-01T07:40:24.000Z</time>
      </trkpt>
      <trkpt lat="47.12943" lon="-1.77401">
        <ele>83</ele>
        <time>2021-08-01T07:40:26.000Z</time>
      </trkpt>
      <trkpt lat="47.12937" lon="-1.77417">
        <ele>83</ele>
        <time>2021-08-01T07:40:28.000Z</time>
      </trkpt>
      <trkpt lat="47.1293" lon="-1.77434">
        <ele>84</ele>
        <time>2021-08-01T07:40:30.000Z</time>
      </trkpt>
      <trkpt lat="47.12924" lon="-1.77451">
        <ele>84</ele>
        <time>2021-08-01T07:40:32.000Z</time>
      </trkpt>
      <trkpt lat="47.12919" lon="-1.77469">
        <ele>84</ele>
        <time>2021-08-01T07:40:34.000Z</time>
      </trkpt>
      <trkpt lat="47.12914" lon="-1.77487">
        <ele>84</ele>
        <time>2021-08-01T07:40:36.000Z</time>
      </trkpt>
      <trkpt lat="47.1291" lon="-1.77505">
        <ele>84</ele>
        <time>2021-08-01T07:40:38.000Z</time>
      </trkpt>
      <trkpt lat="47.12905" lon="-1.77522">
        <ele>84</ele>
        <time>2021-08-01T07:40:40.000Z</time>
      </trkpt>
      <trkpt lat="47.12901" lon="-1.7754">
        <ele>84</ele>
        <time>2021-08-01T07:40:42.000Z</time>
      </trkpt>
      <trkpt lat="47.12897" lon="-1.77557">
        <ele>84</ele>
        <time>2021-08-01T07:40:44.000Z</time>
      </trkpt>
      <trkpt lat="47.12892" lon="-1.77574">
        <ele>84</ele>
        <time>2021-08-01T07:40:46.000Z</time>
      </trkpt>
      <trkpt lat="47.12888" lon="-1.77591">
        <ele>85</ele>
        <time>2021-08-01T07:40:48.000Z</time>
      </trkpt>
      <trkpt lat="47.12883" lon="-1.77609">
        <ele>85</ele>
        <time>2021-08-01T07:40:50.000Z</time>
      </trkpt>
      <trkpt lat="47.12879" lon="-1.77627">
        <ele>85</ele>
        <time>2021-08-01T07:40:52.000Z</time>
      </trkpt>
      <trkpt lat="47.12874" lon="-1.77644">
        <ele>85</ele>
        <time>2021-08-01T07:40:54.000Z</time>
      </trkpt>
      <trkpt lat="47.1287" lon="-1.77661">
        <ele>86</ele>
        <time>2021-08-01T07:40:56.000Z</time>
      </trkpt>
      <trkpt lat="47.12865" lon="-1.77677">
        <ele>86</ele>
        <time>2021-08-01T07:40:58.000Z</time>
      </trkpt>
      <trkpt lat="47.12861" lon="-1.77693">
        <ele>86</ele>
        <time>2021-08-01T07:41:00.000Z</time>
      </trkpt>
      <trkpt lat="47.12855" lon="-1.7771">
        <ele>86</ele>
        <time>2021-08-01T07:41:02.000Z</time>
      </trkpt>
      <trkpt lat="47.12851" lon="-1.77729">
        <ele>86</ele>
        <time>2021-08-01T07:41:04.000Z</time>
      </trkpt>
      <trkpt lat="47.12845" lon="-1.77747">
        <ele>86</ele>
        <time>2021-08-01T07:41:06.000Z</time>
      </trkpt>
      <trkpt lat="47.1284" lon="-1.77766">
        <ele>85</ele>
        <time>2021-08-01T07:41:08.000Z</time>
      </trkpt>
      <trkpt lat="47.12834" lon="-1.77785">
        <ele>85</ele>
        <time>2021-08-01T07:41:10.000Z</time>
      </trkpt>
      <trkpt lat="47.12828" lon="-1.77802">
        <ele>84</ele>
        <time>2021-08-01T07:41:12.000Z</time>
      </trkpt>
      <trkpt lat="47.12821" lon="-1.7782">
        <ele>84</ele>
        <time>2021-08-01T07:41:14.000Z</time>
      </trkpt>
      <trkpt lat="47.12815" lon="-1.77838">
        <ele>84</ele>
        <time>2021-08-01T07:41:16.000Z</time>
      </trkpt>
      <trkpt lat="47.12808" lon="-1.77854">
        <ele>85</ele>
        <time>2021-08-01T07:41:18.000Z</time>
      </trkpt>
      <trkpt lat="47.12802" lon="-1.77872">
        <ele>85</ele>
        <time>2021-08-01T07:41:20.000Z</time>
      </trkpt>
      <trkpt lat="47.12797" lon="-1.7789">
        <ele>85</ele>
        <time>2021-08-01T07:41:22.000Z</time>
      </trkpt>
      <trkpt lat="47.12791" lon="-1.77908">
        <ele>84</ele>
        <time>2021-08-01T07:41:24.000Z</time>
      </trkpt>
      <trkpt lat="47.12786" lon="-1.77926">
        <ele>84</ele>
        <time>2021-08-01T07:41:26.000Z</time>
      </trkpt>
      <trkpt lat="47.12781" lon="-1.77945">
        <ele>84</ele>
        <time>2021-08-01T07:41:28.000Z</time>
      </trkpt>
      <trkpt lat="47.12776" lon="-1.77963">
        <ele>84</ele>
        <time>2021-08-01T07:41:30.000Z</time>
      </trkpt>
      <trkpt lat="47.12771" lon="-1.77982">
        <ele>83</ele>
        <time>2021-08-01T07:41:32.000Z</time>
      </trkpt>
      <trkpt lat="47.12766" lon="-1.78">
        <ele>83</ele>
        <time>2021-08-01T07:41:34.000Z</time>
      </trkpt>
      <trkpt lat="47.1276" lon="-1.78019">
        <ele>83</ele>
        <time>2021-08-01T07:41:36.000Z</time>
      </trkpt>
      <trkpt lat="47.12754" lon="-1.78037">
        <ele>83</ele>
        <time>2021-08-01T07:41:38.000Z</time>
      </trkpt>
      <trkpt lat="47.12746" lon="-1.78054">
        <ele>83</ele>
        <time>2021-08-01T07:41:40.000Z</time>
      </trkpt>
      <trkpt lat="47.12737" lon="-1.78069">
        <ele>83</ele>
        <time>2021-08-01T07:41:42.000Z</time>
      </trkpt>
      <trkpt lat="47.12727" lon="-1.78083">
        <ele>83</ele>
        <time>2021-08-01T07:41:44.000Z</time>
      </trkpt>
      <trkpt lat="47.12717" lon="-1.78096">
        <ele>83</ele>
        <time>2021-08-01T07:41:46.000Z</time>
      </trkpt>
      <trkpt lat="47.12708" lon="-1.78109">
        <ele>83</ele>
        <time>2021-08-01T07:41:48.000Z</time>
      </trkpt>
      <trkpt lat="47.12698" lon="-1.78123">
        <ele>83</ele>
        <time>2021-08-01T07:41:50.000Z</time>
      </trkpt>
      <trkpt lat="47.12689" lon="-1.78137">
        <ele>83</ele>
        <time>2021-08-01T07:41:52.000Z</time>
      </trkpt>
      <trkpt lat="47.12679" lon="-1.7815">
        <ele>83</ele>
        <time>2021-08-01T07:41:54.000Z</time>
      </trkpt>
      <trkpt lat="47.12669" lon="-1.78163">
        <ele>83</ele>
        <time>2021-08-01T07:41:56.000Z</time>
      </trkpt>
      <trkpt lat="47.12659" lon="-1.78177">
        <ele>83</ele>
        <time>2021-08-01T07:41:58.000Z</time>
      </trkpt>
      <trkpt lat="47.12649" lon="-1.78192">
        <ele>83</ele>
        <time>2021-08-01T07:42:00.000Z</time>
      </trkpt>
      <trkpt lat="47.1264" lon="-1.78206">
        <ele>82</ele>
        <time>2021-08-01T07:42:02.000Z</time>
      </trkpt>
      <trkpt lat="47.12631" lon="-1.78222">
        <ele>82</ele>
        <time>2021-08-01T07:42:04.000Z</time>
      </trkpt>
      <trkpt lat="47.12623" lon="-1.78239">
        <ele>82</ele>
        <time>2021-08-01T07:42:06.000Z</time>
      </trkpt>
      <trkpt lat="47.12618" lon="-1.78258">
        <ele>82</ele>
        <time>2021-08-01T07:42:08.000Z</time>
      </trkpt>
      <trkpt lat="47.12614" lon="-1.78277">
        <ele>82</ele>
        <time>2021-08-01T07:42:10.000Z</time>
      </trkpt>
      <trkpt lat="47.1261" lon="-1.78296">
        <ele>82</ele>
        <time>2021-08-01T07:42:12.000Z</time>
      </trkpt>
      <trkpt lat="47.12606" lon="-1.78315">
        <ele>82</ele>
        <time>2021-08-01T07:42:14.000Z</time>
      </trkpt>
      <trkpt lat="47.12601" lon="-1.78334">
        <ele>82</ele>
        <time>2021-08-01T07:42:16.000Z</time>
      </trkpt>
      <trkpt lat="47.12597" lon="-1.78354">
        <ele>82</ele>
        <time>2021-08-01T07:42:18.000Z</time>
      </trkpt>
      <trkpt lat="47.12593" lon="-1.78373">
        <ele>81</ele>
        <time>2021-08-01T07:42:20.000Z</time>
      </trkpt>
      <trkpt lat="47.12588" lon="-1.78392">
        <ele>81</ele>
        <time>2021-08-01T07:42:22.000Z</time>
      </trkpt>
      <trkpt lat="47.12583" lon="-1.78412">
        <ele>81</ele>
        <time>2021-08-01T07:42:24.000Z</time>
      </trkpt>
      <trkpt lat="47.12579" lon="-1.78431">
        <ele>81</ele>
        <time>2021-08-01T07:42:26.000Z</time>
      </trkpt>
      <trkpt lat="47.12574" lon="-1.78452">
        <ele>80</ele>
        <time>2021-08-01T07:42:28.000Z</time>
      </trkpt>
      <trkpt lat="47.1257" lon="-1.78472">
        <ele>80</ele>
        <time>2021-08-01T07:42:30.000Z</time>
      </trkpt>
      <trkpt lat="47.12565" lon="-1.78491">
        <ele>80</ele>
        <time>2021-08-01T07:42:32.000Z</time>
      </trkpt>
      <trkpt lat="47.1256" lon="-1.78511">
        <ele>80</ele>
        <time>2021-08-01T07:42:34.000Z</time>
      </trkpt>
      <trkpt lat="47.12555" lon="-1.7853">
        <ele>79</ele>
        <time>2021-08-01T07:42:36.000Z</time>
      </trkpt>
      <trkpt lat="47.1255" lon="-1.7855">
        <ele>79</ele>
        <time>2021-08-01T07:42:38.000Z</time>
      </trkpt>
      <trkpt lat="47.12546" lon="-1.78571">
        <ele>79</ele>
        <time>2021-08-01T07:42:40.000Z</time>
      </trkpt>
      <trkpt lat="47.12541" lon="-1.7859">
        <ele>79</ele>
        <time>2021-08-01T07:42:42.000Z</time>
      </trkpt>
      <trkpt lat="47.12536" lon="-1.78609">
        <ele>79</ele>
        <time>2021-08-01T07:42:44.000Z</time>
      </trkpt>
      <trkpt lat="47.12531" lon="-1.78628">
        <ele>78</ele>
        <time>2021-08-01T07:42:46.000Z</time>
      </trkpt>
      <trkpt lat="47.12525" lon="-1.78647">
        <ele>78</ele>
        <time>2021-08-01T07:42:48.000Z</time>
      </trkpt>
      <trkpt lat="47.12518" lon="-1.78665">
        <ele>79</ele>
        <time>2021-08-01T07:42:50.000Z</time>
      </trkpt>
      <trkpt lat="47.12511" lon="-1.78683">
        <ele>78</ele>
        <time>2021-08-01T07:42:52.000Z</time>
      </trkpt>
      <trkpt lat="47.12505" lon="-1.78702">
        <ele>78</ele>
        <time>2021-08-01T07:42:54.000Z</time>
      </trkpt>
      <trkpt lat="47.12499" lon="-1.7872">
        <ele>78</ele>
        <time>2021-08-01T07:42:56.000Z</time>
      </trkpt>
      <trkpt lat="47.12494" lon="-1.78739">
        <ele>78</ele>
        <time>2021-08-01T07:42:58.000Z</time>
      </trkpt>
      <trkpt lat="47.12489" lon="-1.78759">
        <ele>78</ele>
        <time>2021-08-01T07:43:00.000Z</time>
      </trkpt>
      <trkpt lat="47.12485" lon="-1.78777">
        <ele>78</ele>
        <time>2021-08-01T07:43:02.000Z</time>
      </trkpt>
      <trkpt lat="47.12481" lon="-1.78797">
        <ele>77</ele>
        <time>2021-08-01T07:43:04.000Z</time>
      </trkpt>
      <trkpt lat="47.12477" lon="-1.78816">
        <ele>77</ele>
        <time>2021-08-01T07:43:06.000Z</time>
      </trkpt>
      <trkpt lat="47.12474" lon="-1.78836">
        <ele>78</ele>
        <time>2021-08-01T07:43:08.000Z</time>
      </trkpt>
      <trkpt lat="47.12471" lon="-1.78856">
        <ele>77</ele>
        <time>2021-08-01T07:43:10.000Z</time>
      </trkpt>
      <trkpt lat="47.1247" lon="-1.78876">
        <ele>77</ele>
        <time>2021-08-01T07:43:12.000Z</time>
      </trkpt>
      <trkpt lat="47.12468" lon="-1.78896">
        <ele>78</ele>
        <time>2021-08-01T07:43:14.000Z</time>
      </trkpt>
      <trkpt lat="47.12465" lon="-1.78915">
        <ele>78</ele>
        <time>2021-08-01T07:43:16.000Z</time>
      </trkpt>
      <trkpt lat="47.12461" lon="-1.78934">
        <ele>78</ele>
        <time>2021-08-01T07:43:18.000Z</time>
      </trkpt>
      <trkpt lat="47.12457" lon="-1.78954">
        <ele>78</ele>
        <time>2021-08-01T07:43:20.000Z</time>
      </trkpt>
      <trkpt lat="47.12452" lon="-1.78974">
        <ele>78</ele>
        <time>2021-08-01T07:43:22.000Z</time>
      </trkpt>
      <trkpt lat="47.12447" lon="-1.78991">
        <ele>78</ele>
        <time>2021-08-01T07:43:24.000Z</time>
      </trkpt>
      <trkpt lat="47.12442" lon="-1.7901">
        <ele>78</ele>
        <time>2021-08-01T07:43:26.000Z</time>
      </trkpt>
      <trkpt lat="47.12438" lon="-1.79027">
        <ele>78</ele>
        <time>2021-08-01T07:43:28.000Z</time>
      </trkpt>
      <trkpt lat="47.12434" lon="-1.79045">
        <ele>79</ele>
        <time>2021-08-01T07:43:30.000Z</time>
      </trkpt>
      <trkpt lat="47.1243" lon="-1.79062">
        <ele>79</ele>
        <time>2021-08-01T07:43:32.000Z</time>
      </trkpt>
      <trkpt lat="47.12426" lon="-1.79081">
        <ele>79</ele>
        <time>2021-08-01T07:43:34.000Z</time>
      </trkpt>
      <trkpt lat="47.12423" lon="-1.79098">
        <ele>79</ele>
        <time>2021-08-01T07:43:36.000Z</time>
      </trkpt>
      <trkpt lat="47.1242" lon="-1.79117">
        <ele>79</ele>
        <time>2021-08-01T07:43:38.000Z</time>
      </trkpt>
      <trkpt lat="47.12418" lon="-1.79135">
        <ele>79</ele>
        <time>2021-08-01T07:43:40.000Z</time>
      </trkpt>
      <trkpt lat="47.12417" lon="-1.79154">
        <ele>79</ele>
        <time>2021-08-01T07:43:42.000Z</time>
      </trkpt>
      <trkpt lat="47.12419" lon="-1.79174">
        <ele>79</ele>
        <time>2021-08-01T07:43:44.000Z</time>
      </trkpt>
      <trkpt lat="47.12421" lon="-1.79193">
        <ele>79</ele>
        <time>2021-08-01T07:43:46.000Z</time>
      </trkpt>
      <trkpt lat="47.12423" lon="-1.79213">
        <ele>79</ele>
        <time>2021-08-01T07:43:48.000Z</time>
      </trkpt>
      <trkpt lat="47.12424" lon="-1.79232">
        <ele>78</ele>
        <time>2021-08-01T07:43:50.000Z</time>
      </trkpt>
      <trkpt lat="47.12424" lon="-1.79251">
        <ele>78</ele>
        <time>2021-08-01T07:43:52.000Z</time>
      </trkpt>
      <trkpt lat="47.12421" lon="-1.79269">
        <ele>78</ele>
        <time>2021-08-01T07:43:54.000Z</time>
      </trkpt>
      <trkpt lat="47.12416" lon="-1.79287">
        <ele>78</ele>
        <time>2021-08-01T07:43:56.000Z</time>
      </trkpt>
      <trkpt lat="47.12408" lon="-1.79304">
        <ele>78</ele>
        <time>2021-08-01T07:43:58.000Z</time>
      </trkpt>
      <trkpt lat="47.12402" lon="-1.7932">
        <ele>78</ele>
        <time>2021-08-01T07:44:00.000Z</time>
      </trkpt>
      <trkpt lat="47.12394" lon="-1.79336">
        <ele>78</ele>
        <time>2021-08-01T07:44:02.000Z</time>
      </trkpt>
      <trkpt lat="47.12387" lon="-1.79352">
        <ele>78</ele>
        <time>2021-08-01T07:44:04.000Z</time>
      </trkpt>
      <trkpt lat="47.12379" lon="-1.79367">
        <ele>78</ele>
        <time>2021-08-01T07:44:06.000Z</time>
      </trkpt>
      <trkpt lat="47.12372" lon="-1.79383">
        <ele>78</ele>
        <time>2021-08-01T07:44:08.000Z</time>
      </trkpt>
      <trkpt lat="47.12366" lon="-1.79399">
        <ele>78</ele>
        <time>2021-08-01T07:44:10.000Z</time>
      </trkpt>
      <trkpt lat="47.12359" lon="-1.79415">
        <ele>79</ele>
        <time>2021-08-01T07:44:12.000Z</time>
      </trkpt>
      <trkpt lat="47.12354" lon="-1.79432">
        <ele>79</ele>
        <time>2021-08-01T07:44:14.000Z</time>
      </trkpt>
      <trkpt lat="47.1235" lon="-1.79451">
        <ele>79</ele>
        <time>2021-08-01T07:44:16.000Z</time>
      </trkpt>
      <trkpt lat="47.12347" lon="-1.7947">
        <ele>78</ele>
        <time>2021-08-01T07:44:18.000Z</time>
      </trkpt>
      <trkpt lat="47.12345" lon="-1.79489">
        <ele>78</ele>
        <time>2021-08-01T07:44:20.000Z</time>
      </trkpt>
      <trkpt lat="47.12342" lon="-1.79508">
        <ele>79</ele>
        <time>2021-08-01T07:44:22.000Z</time>
      </trkpt>
      <trkpt lat="47.1234" lon="-1.79526">
        <ele>79</ele>
        <time>2021-08-01T07:44:24.000Z</time>
      </trkpt>
      <trkpt lat="47.12337" lon="-1.79545">
        <ele>78</ele>
        <time>2021-08-01T07:44:26.000Z</time>
      </trkpt>
      <trkpt lat="47.12334" lon="-1.79563">
        <ele>78</ele>
        <time>2021-08-01T07:44:28.000Z</time>
      </trkpt>
      <trkpt lat="47.1233" lon="-1.79579">
        <ele>78</ele>
        <time>2021-08-01T07:44:30.000Z</time>
      </trkpt>
      <trkpt lat="47.12321" lon="-1.79592">
        <ele>78</ele>
        <time>2021-08-01T07:44:32.000Z</time>
      </trkpt>
      <trkpt lat="47.12309" lon="-1.79598">
        <ele>78</ele>
        <time>2021-08-01T07:44:34.000Z</time>
      </trkpt>
      <trkpt lat="47.12296" lon="-1.79599">
        <ele>78</ele>
        <time>2021-08-01T07:44:36.000Z</time>
      </trkpt>
      <trkpt lat="47.12283" lon="-1.79598">
        <ele>78</ele>
        <time>2021-08-01T07:44:38.000Z</time>
      </trkpt>
      <trkpt lat="47.1227" lon="-1.79597">
        <ele>78</ele>
        <time>2021-08-01T07:44:40.000Z</time>
      </trkpt>
      <trkpt lat="47.12258" lon="-1.79597">
        <ele>77</ele>
        <time>2021-08-01T07:44:42.000Z</time>
      </trkpt>
      <trkpt lat="47.12245" lon="-1.79596">
        <ele>77</ele>
        <time>2021-08-01T07:44:44.000Z</time>
      </trkpt>
      <trkpt lat="47.12233" lon="-1.79596">
        <ele>77</ele>
        <time>2021-08-01T07:44:46.000Z</time>
      </trkpt>
      <trkpt lat="47.12221" lon="-1.79597">
        <ele>77</ele>
        <time>2021-08-01T07:44:48.000Z</time>
      </trkpt>
      <trkpt lat="47.12208" lon="-1.79596">
        <ele>77</ele>
        <time>2021-08-01T07:44:50.000Z</time>
      </trkpt>
      <trkpt lat="47.12196" lon="-1.79596">
        <ele>77</ele>
        <time>2021-08-01T07:44:52.000Z</time>
      </trkpt>
      <trkpt lat="47.12183" lon="-1.79595">
        <ele>77</ele>
        <time>2021-08-01T07:44:54.000Z</time>
      </trkpt>
      <trkpt lat="47.12171" lon="-1.79596">
        <ele>76</ele>
        <time>2021-08-01T07:44:56.000Z</time>
      </trkpt>
      <trkpt lat="47.12158" lon="-1.79596">
        <ele>76</ele>
        <time>2021-08-01T07:44:58.000Z</time>
      </trkpt>
      <trkpt lat="47.12145" lon="-1.79597">
        <ele>76</ele>
        <time>2021-08-01T07:45:00.000Z</time>
      </trkpt>
      <trkpt lat="47.12133" lon="-1.79598">
        <ele>76</ele>
        <time>2021-08-01T07:45:02.000Z</time>
      </trkpt>
      <trkpt lat="47.1212" lon="-1.79599">
        <ele>76</ele>
        <time>2021-08-01T07:45:04.000Z</time>
      </trkpt>
      <trkpt lat="47.12106" lon="-1.79601">
        <ele>76</ele>
        <time>2021-08-01T07:45:06.000Z</time>
      </trkpt>
      <trkpt lat="47.12092" lon="-1.79605">
        <ele>75</ele>
        <time>2021-08-01T07:45:08.000Z</time>
      </trkpt>
      <trkpt lat="47.1208" lon="-1.79617">
        <ele>75</ele>
        <time>2021-08-01T07:45:10.000Z</time>
      </trkpt>
      <trkpt lat="47.12067" lon="-1.79628">
        <ele>74</ele>
        <time>2021-08-01T07:45:12.000Z</time>
      </trkpt>
      <trkpt lat="47.12055" lon="-1.79641">
        <ele>74</ele>
        <time>2021-08-01T07:45:14.000Z</time>
      </trkpt>
      <trkpt lat="47.12043" lon="-1.79654">
        <ele>74</ele>
        <time>2021-08-01T07:45:16.000Z</time>
      </trkpt>
      <trkpt lat="47.12031" lon="-1.79666">
        <ele>74</ele>
        <time>2021-08-01T07:45:18.000Z</time>
      </trkpt>
      <trkpt lat="47.12019" lon="-1.79679">
        <ele>73</ele>
        <time>2021-08-01T07:45:20.000Z</time>
      </trkpt>
      <trkpt lat="47.12006" lon="-1.79691">
        <ele>74</ele>
        <time>2021-08-01T07:45:22.000Z</time>
      </trkpt>
      <trkpt lat="47.11994" lon="-1.79703">
        <ele>74</ele>
        <time>2021-08-01T07:45:24.000Z</time>
      </trkpt>
      <trkpt lat="47.11982" lon="-1.79716">
        <ele>73</ele>
        <time>2021-08-01T07:45:26.000Z</time>
      </trkpt>
      <trkpt lat="47.1197" lon="-1.79728">
        <ele>73</ele>
        <time>2021-08-01T07:45:28.000Z</time>
      </trkpt>
      <trkpt lat="47.11958" lon="-1.79742">
        <ele>73</ele>
        <time>2021-08-01T07:45:30.000Z</time>
      </trkpt>
      <trkpt lat="47.11947" lon="-1.79756">
        <ele>73</ele>
        <time>2021-08-01T07:45:32.000Z</time>
      </trkpt>
      <trkpt lat="47.11936" lon="-1.7977">
        <ele>73</ele>
        <time>2021-08-01T07:45:34.000Z</time>
      </trkpt>
      <trkpt lat="47.11925" lon="-1.79785">
        <ele>73</ele>
        <time>2021-08-01T07:45:36.000Z</time>
      </trkpt>
      <trkpt lat="47.11914" lon="-1.79799">
        <ele>72</ele>
        <time>2021-08-01T07:45:38.000Z</time>
      </trkpt>
      <trkpt lat="47.11903" lon="-1.79812">
        <ele>72</ele>
        <time>2021-08-01T07:45:40.000Z</time>
      </trkpt>
      <trkpt lat="47.11892" lon="-1.79826">
        <ele>72</ele>
        <time>2021-08-01T07:45:42.000Z</time>
      </trkpt>
      <trkpt lat="47.1188" lon="-1.79839">
        <ele>72</ele>
        <time>2021-08-01T07:45:44.000Z</time>
      </trkpt>
      <trkpt lat="47.11869" lon="-1.79851">
        <ele>72</ele>
        <time>2021-08-01T07:45:46.000Z</time>
      </trkpt>
      <trkpt lat="47.11858" lon="-1.79863">
        <ele>72</ele>
        <time>2021-08-01T07:45:48.000Z</time>
      </trkpt>
      <trkpt lat="47.11847" lon="-1.79876">
        <ele>72</ele>
        <time>2021-08-01T07:45:50.000Z</time>
      </trkpt>
      <trkpt lat="47.11835" lon="-1.79888">
        <ele>72</ele>
        <time>2021-08-01T07:45:52.000Z</time>
      </trkpt>
      <trkpt lat="47.11824" lon="-1.799">
        <ele>72</ele>
        <time>2021-08-01T07:45:54.000Z</time>
      </trkpt>
      <trkpt lat="47.11813" lon="-1.79913">
        <ele>72</ele>
        <time>2021-08-01T07:45:56.000Z</time>
      </trkpt>
      <trkpt lat="47.11802" lon="-1.79925">
        <ele>71</ele>
        <time>2021-08-01T07:45:58.000Z</time>
      </trkpt>
      <trkpt lat="47.11792" lon="-1.79937">
        <ele>71</ele>
        <time>2021-08-01T07:46:00.000Z</time>
      </trkpt>
      <trkpt lat="47.11781" lon="-1.79949">
        <ele>71</ele>
        <time>2021-08-01T07:46:02.000Z</time>
      </trkpt>
      <trkpt lat="47.11772" lon="-1.79959">
        <ele>71</ele>
        <time>2021-08-01T07:46:04.000Z</time>
      </trkpt>
      <trkpt lat="47.11764" lon="-1.7997">
        <ele>71</ele>
        <time>2021-08-01T07:46:06.000Z</time>
      </trkpt>
      <trkpt lat="47.11756" lon="-1.79977">
        <ele>71</ele>
        <time>2021-08-01T07:46:08.000Z</time>
      </trkpt>
      <trkpt lat="47.11743" lon="-1.79978">
        <ele>71</ele>
        <time>2021-08-01T07:46:10.000Z</time>
      </trkpt>
      <trkpt lat="47.1173" lon="-1.79975">
        <ele>72</ele>
        <time>2021-08-01T07:46:12.000Z</time>
      </trkpt>
      <trkpt lat="47.11716" lon="-1.79973">
        <ele>72</ele>
        <time>2021-08-01T07:46:14.000Z</time>
      </trkpt>
      <trkpt lat="47.11702" lon="-1.79972">
        <ele>72</ele>
        <time>2021-08-01T07:46:16.000Z</time>
      </trkpt>
      <trkpt lat="47.11687" lon="-1.7997">
        <ele>72</ele>
        <time>2021-08-01T07:46:18.000Z</time>
      </trkpt>
      <trkpt lat="47.11674" lon="-1.79967">
        <ele>72</ele>
        <time>2021-08-01T07:46:20.000Z</time>
      </trkpt>
      <trkpt lat="47.1166" lon="-1.79966">
        <ele>72</ele>
        <time>2021-08-01T07:46:22.000Z</time>
      </trkpt>
      <trkpt lat="47.11647" lon="-1.79963">
        <ele>72</ele>
        <time>2021-08-01T07:46:24.000Z</time>
      </trkpt>
      <trkpt lat="47.11633" lon="-1.79961">
        <ele>72</ele>
        <time>2021-08-01T07:46:26.000Z</time>
      </trkpt>
      <trkpt lat="47.1162" lon="-1.79959">
        <ele>72</ele>
        <time>2021-08-01T07:46:28.000Z</time>
      </trkpt>
      <trkpt lat="47.11606" lon="-1.79957">
        <ele>72</ele>
        <time>2021-08-01T07:46:30.000Z</time>
      </trkpt>
      <trkpt lat="47.11593" lon="-1.79956">
        <ele>72</ele>
        <time>2021-08-01T07:46:32.000Z</time>
      </trkpt>
      <trkpt lat="47.11579" lon="-1.79955">
        <ele>72</ele>
        <time>2021-08-01T07:46:34.000Z</time>
      </trkpt>
      <trkpt lat="47.11566" lon="-1.79956">
        <ele>72</ele>
        <time>2021-08-01T07:46:36.000Z</time>
      </trkpt>
      <trkpt lat="47.11552" lon="-1.79961">
        <ele>71</ele>
        <time>2021-08-01T07:46:38.000Z</time>
      </trkpt>
      <trkpt lat="47.11539" lon="-1.79969">
        <ele>71</ele>
        <time>2021-08-01T07:46:40.000Z</time>
      </trkpt>
      <trkpt lat="47.11527" lon="-1.79979">
        <ele>71</ele>
        <time>2021-08-01T07:46:42.000Z</time>
      </trkpt>
      <trkpt lat="47.11517" lon="-1.79992">
        <ele>71</ele>
        <time>2021-08-01T07:46:44.000Z</time>
      </trkpt>
      <trkpt lat="47.11507" lon="-1.80005">
        <ele>71</ele>
        <time>2021-08-01T07:46:46.000Z</time>
      </trkpt>
      <trkpt lat="47.11496" lon="-1.80019">
        <ele>70</ele>
        <time>2021-08-01T07:46:48.000Z</time>
      </trkpt>
      <trkpt lat="47.11486" lon="-1.80032">
        <ele>70</ele>
        <time>2021-08-01T07:46:50.000Z</time>
      </trkpt>
      <trkpt lat="47.11476" lon="-1.80046">
        <ele>70</ele>
        <time>2021-08-01T07:46:52.000Z</time>
      </trkpt>
      <trkpt lat="47.11466" lon="-1.8006">
        <ele>70</ele>
        <time>2021-08-01T07:46:54.000Z</time>
      </trkpt>
      <trkpt lat="47.11455" lon="-1.80073">
        <ele>70</ele>
        <time>2021-08-01T07:46:56.000Z</time>
      </trkpt>
      <trkpt lat="47.11445" lon="-1.80086">
        <ele>70</ele>
        <time>2021-08-01T07:46:58.000Z</time>
      </trkpt>
      <trkpt lat="47.11435" lon="-1.80099">
        <ele>69</ele>
        <time>2021-08-01T07:47:00.000Z</time>
      </trkpt>
      <trkpt lat="47.11426" lon="-1.80113">
        <ele>69</ele>
        <time>2021-08-01T07:47:02.000Z</time>
      </trkpt>
      <trkpt lat="47.11417" lon="-1.80126">
        <ele>69</ele>
        <time>2021-08-01T07:47:04.000Z</time>
      </trkpt>
      <trkpt lat="47.11407" lon="-1.80139">
        <ele>69</ele>
        <time>2021-08-01T07:47:06.000Z</time>
      </trkpt>
      <trkpt lat="47.11397" lon="-1.80153">
        <ele>68</ele>
        <time>2021-08-01T07:47:08.000Z</time>
      </trkpt>
      <trkpt lat="47.11386" lon="-1.80166">
        <ele>68</ele>
        <time>2021-08-01T07:47:10.000Z</time>
      </trkpt>
      <trkpt lat="47.11376" lon="-1.80179">
        <ele>69</ele>
        <time>2021-08-01T07:47:12.000Z</time>
      </trkpt>
      <trkpt lat="47.11365" lon="-1.80192">
        <ele>68</ele>
        <time>2021-08-01T07:47:14.000Z</time>
      </trkpt>
      <trkpt lat="47.11354" lon="-1.80206">
        <ele>68</ele>
        <time>2021-08-01T07:47:16.000Z</time>
      </trkpt>
      <trkpt lat="47.11345" lon="-1.8022">
        <ele>67</ele>
        <time>2021-08-01T07:47:18.000Z</time>
      </trkpt>
      <trkpt lat="47.11335" lon="-1.80235">
        <ele>67</ele>
        <time>2021-08-01T07:47:20.000Z</time>
      </trkpt>
      <trkpt lat="47.11324" lon="-1.80249">
        <ele>67</ele>
        <time>2021-08-01T07:47:22.000Z</time>
      </trkpt>
      <trkpt lat="47.11314" lon="-1.80263">
        <ele>67</ele>
        <time>2021-08-01T07:47:24.000Z</time>
      </trkpt>
      <trkpt lat="47.11304" lon="-1.80276">
        <ele>67</ele>
        <time>2021-08-01T07:47:26.000Z</time>
      </trkpt>
      <trkpt lat="47.11295" lon="-1.80291">
        <ele>67</ele>
        <time>2021-08-01T07:47:28.000Z</time>
      </trkpt>
      <trkpt lat="47.11285" lon="-1.80306">
        <ele>67</ele>
        <time>2021-08-01T07:47:30.000Z</time>
      </trkpt>
      <trkpt lat="47.11275" lon="-1.80319">
        <ele>66</ele>
        <time>2021-08-01T07:47:32.000Z</time>
      </trkpt>
      <trkpt lat="47.11265" lon="-1.80333">
        <ele>66</ele>
        <time>2021-08-01T07:47:34.000Z</time>
      </trkpt>
      <trkpt lat="47.11254" lon="-1.80347">
        <ele>66</ele>
        <time>2021-08-01T07:47:36.000Z</time>
      </trkpt>
      <trkpt lat="47.11244" lon="-1.8036">
        <ele>66</ele>
        <time>2021-08-01T07:47:38.000Z</time>
      </trkpt>
      <trkpt lat="47.11234" lon="-1.80373">
        <ele>66</ele>
        <time>2021-08-01T07:47:40.000Z</time>
      </trkpt>
      <trkpt lat="47.11224" lon="-1.80386">
        <ele>66</ele>
        <time>2021-08-01T07:47:42.000Z</time>
      </trkpt>
      <trkpt lat="47.11213" lon="-1.80398">
        <ele>66</ele>
        <time>2021-08-01T07:47:44.000Z</time>
      </trkpt>
      <trkpt lat="47.11202" lon="-1.80409">
        <ele>66</ele>
        <time>2021-08-01T07:47:46.000Z</time>
      </trkpt>
      <trkpt lat="47.11191" lon="-1.8042">
        <ele>66</ele>
        <time>2021-08-01T07:47:48.000Z</time>
      </trkpt>
      <trkpt lat="47.11178" lon="-1.8043">
        <ele>66</ele>
        <time>2021-08-01T07:47:50.000Z</time>
      </trkpt>
      <trkpt lat="47.11166" lon="-1.80439">
        <ele>66</ele>
        <time>2021-08-01T07:47:52.000Z</time>
      </trkpt>
      <trkpt lat="47.11153" lon="-1.80448">
        <ele>66</ele>
        <time>2021-08-01T07:47:54.000Z</time>
      </trkpt>
      <trkpt lat="47.11141" lon="-1.80456">
        <ele>66</ele>
        <time>2021-08-01T07:47:56.000Z</time>
      </trkpt>
      <trkpt lat="47.11128" lon="-1.80465">
        <ele>66</ele>
        <time>2021-08-01T07:47:58.000Z</time>
      </trkpt>
      <trkpt lat="47.11116" lon="-1.80473">
        <ele>66</ele>
        <time>2021-08-01T07:48:00.000Z</time>
      </trkpt>
      <trkpt lat="47.11104" lon="-1.80482">
        <ele>66</ele>
        <time>2021-08-01T07:48:02.000Z</time>
      </trkpt>
      <trkpt lat="47.11091" lon="-1.8049">
        <ele>66</ele>
        <time>2021-08-01T07:48:04.000Z</time>
      </trkpt>
      <trkpt lat="47.11079" lon="-1.80498">
        <ele>67</ele>
        <time>2021-08-01T07:48:06.000Z</time>
      </trkpt>
      <trkpt lat="47.11067" lon="-1.80506">
        <ele>67</ele>
        <time>2021-08-01T07:48:08.000Z</time>
      </trkpt>
      <trkpt lat="47.11055" lon="-1.80514">
        <ele>67</ele>
        <time>2021-08-01T07:48:10.000Z</time>
      </trkpt>
      <trkpt lat="47.11043" lon="-1.80521">
        <ele>67</ele>
        <time>2021-08-01T07:48:12.000Z</time>
      </trkpt>
      <trkpt lat="47.11031" lon="-1.8053">
        <ele>67</ele>
        <time>2021-08-01T07:48:14.000Z</time>
      </trkpt>
      <trkpt lat="47.11019" lon="-1.80538">
        <ele>67</ele>
        <time>2021-08-01T07:48:16.000Z</time>
      </trkpt>
      <trkpt lat="47.11007" lon="-1.80545">
        <ele>67</ele>
        <time>2021-08-01T07:48:18.000Z</time>
      </trkpt>
      <trkpt lat="47.10995" lon="-1.80554">
        <ele>67</ele>
        <time>2021-08-01T07:48:20.000Z</time>
      </trkpt>
      <trkpt lat="47.10984" lon="-1.80562">
        <ele>67</ele>
        <time>2021-08-01T07:48:22.000Z</time>
      </trkpt>
      <trkpt lat="47.10972" lon="-1.8057">
        <ele>67</ele>
        <time>2021-08-01T07:48:24.000Z</time>
      </trkpt>
      <trkpt lat="47.10959" lon="-1.80577">
        <ele>66</ele>
        <time>2021-08-01T07:48:26.000Z</time>
      </trkpt>
      <trkpt lat="47.10947" lon="-1.80585">
        <ele>66</ele>
        <time>2021-08-01T07:48:28.000Z</time>
      </trkpt>
      <trkpt lat="47.10935" lon="-1.80592">
        <ele>66</ele>
        <time>2021-08-01T07:48:30.000Z</time>
      </trkpt>
      <trkpt lat="47.10923" lon="-1.806">
        <ele>66</ele>
        <time>2021-08-01T07:48:32.000Z</time>
      </trkpt>
      <trkpt lat="47.10912" lon="-1.80608">
        <ele>66</ele>
        <time>2021-08-01T07:48:34.000Z</time>
      </trkpt>
      <trkpt lat="47.109" lon="-1.80616">
        <ele>66</ele>
        <time>2021-08-01T07:48:36.000Z</time>
      </trkpt>
      <trkpt lat="47.10888" lon="-1.80624">
        <ele>66</ele>
        <time>2021-08-01T07:48:38.000Z</time>
      </trkpt>
      <trkpt lat="47.10876" lon="-1.8063">
        <ele>66</ele>
        <time>2021-08-01T07:48:40.000Z</time>
      </trkpt>
      <trkpt lat="47.10864" lon="-1.80637">
        <ele>66</ele>
        <time>2021-08-01T07:48:42.000Z</time>
      </trkpt>
      <trkpt lat="47.10852" lon="-1.80643">
        <ele>66</ele>
        <time>2021-08-01T07:48:44.000Z</time>
      </trkpt>
      <trkpt lat="47.1084" lon="-1.80648">
        <ele>66</ele>
        <time>2021-08-01T07:48:46.000Z</time>
      </trkpt>
      <trkpt lat="47.10827" lon="-1.80652">
        <ele>65</ele>
        <time>2021-08-01T07:48:48.000Z</time>
      </trkpt>
      <trkpt lat="47.10814" lon="-1.80657">
        <ele>65</ele>
        <time>2021-08-01T07:48:50.000Z</time>
      </trkpt>
      <trkpt lat="47.108" lon="-1.80662">
        <ele>65</ele>
        <time>2021-08-01T07:48:52.000Z</time>
      </trkpt>
      <trkpt lat="47.10786" lon="-1.80667">
        <ele>65</ele>
        <time>2021-08-01T07:48:54.000Z</time>
      </trkpt>
      <trkpt lat="47.10773" lon="-1.80672">
        <ele>65</ele>
        <time>2021-08-01T07:48:56.000Z</time>
      </trkpt>
      <trkpt lat="47.1076" lon="-1.80676">
        <ele>65</ele>
        <time>2021-08-01T07:48:58.000Z</time>
      </trkpt>
      <trkpt lat="47.10747" lon="-1.80679">
        <ele>65</ele>
        <time>2021-08-01T07:49:00.000Z</time>
      </trkpt>
      <trkpt lat="47.10733" lon="-1.80682">
        <ele>65</ele>
        <time>2021-08-01T07:49:02.000Z</time>
      </trkpt>
      <trkpt lat="47.10719" lon="-1.80684">
        <ele>65</ele>
        <time>2021-08-01T07:49:04.000Z</time>
      </trkpt>
      <trkpt lat="47.10706" lon="-1.80685">
        <ele>64</ele>
        <time>2021-08-01T07:49:06.000Z</time>
      </trkpt>
      <trkpt lat="47.10692" lon="-1.80686">
        <ele>64</ele>
        <time>2021-08-01T07:49:08.000Z</time>
      </trkpt>
      <trkpt lat="47.10678" lon="-1.80687">
        <ele>65</ele>
        <time>2021-08-01T07:49:10.000Z</time>
      </trkpt>
      <trkpt lat="47.10664" lon="-1.80689">
        <ele>65</ele>
        <time>2021-08-01T07:49:12.000Z</time>
      </trkpt>
      <trkpt lat="47.10651" lon="-1.80691">
        <ele>65</ele>
        <time>2021-08-01T07:49:14.000Z</time>
      </trkpt>
      <trkpt lat="47.10638" lon="-1.80693">
        <ele>65</ele>
        <time>2021-08-01T07:49:16.000Z</time>
      </trkpt>
      <trkpt lat="47.10625" lon="-1.80696">
        <ele>64</ele>
        <time>2021-08-01T07:49:18.000Z</time>
      </trkpt>
      <trkpt lat="47.10612" lon="-1.80701">
        <ele>64</ele>
        <time>2021-08-01T07:49:20.000Z</time>
      </trkpt>
      <trkpt lat="47.10599" lon="-1.80707">
        <ele>64</ele>
        <time>2021-08-01T07:49:22.000Z</time>
      </trkpt>
      <trkpt lat="47.10587" lon="-1.80715">
        <ele>64</ele>
        <time>2021-08-01T07:49:24.000Z</time>
      </trkpt>
      <trkpt lat="47.10576" lon="-1.80725">
        <ele>63</ele>
        <time>2021-08-01T07:49:26.000Z</time>
      </trkpt>
      <trkpt lat="47.10565" lon="-1.80737">
        <ele>63</ele>
        <time>2021-08-01T07:49:28.000Z</time>
      </trkpt>
      <trkpt lat="47.10554" lon="-1.8075">
        <ele>63</ele>
        <time>2021-08-01T07:49:30.000Z</time>
      </trkpt>
      <trkpt lat="47.10544" lon="-1.80762">
        <ele>63</ele>
        <time>2021-08-01T07:49:32.000Z</time>
      </trkpt>
      <trkpt lat="47.10534" lon="-1.80774">
        <ele>63</ele>
        <time>2021-08-01T07:49:34.000Z</time>
      </trkpt>
      <trkpt lat="47.10524" lon="-1.80786">
        <ele>63</ele>
        <time>2021-08-01T07:49:36.000Z</time>
      </trkpt>
      <trkpt lat="47.10515" lon="-1.808">
        <ele>63</ele>
        <time>2021-08-01T07:49:38.000Z</time>
      </trkpt>
      <trkpt lat="47.10504" lon="-1.80811">
        <ele>62</ele>
        <time>2021-08-01T07:49:40.000Z</time>
      </trkpt>
      <trkpt lat="47.10492" lon="-1.80819">
        <ele>62</ele>
        <time>2021-08-01T07:49:42.000Z</time>
      </trkpt>
      <trkpt lat="47.10481" lon="-1.80832">
        <ele>62</ele>
        <time>2021-08-01T07:49:44.000Z</time>
      </trkpt>
      <trkpt lat="47.10472" lon="-1.80846">
        <ele>62</ele>
        <time>2021-08-01T07:49:46.000Z</time>
      </trkpt>
      <trkpt lat="47.10462" lon="-1.80862">
        <ele>62</ele>
        <time>2021-08-01T07:49:48.000Z</time>
      </trkpt>
      <trkpt lat="47.10453" lon="-1.80876">
        <ele>62</ele>
        <time>2021-08-01T07:49:50.000Z</time>
      </trkpt>
      <trkpt lat="47.10445" lon="-1.8089">
        <ele>63</ele>
        <time>2021-08-01T07:49:52.000Z</time>
      </trkpt>
      <trkpt lat="47.10437" lon="-1.80905">
        <ele>63</ele>
        <time>2021-08-01T07:49:54.000Z</time>
      </trkpt>
      <trkpt lat="47.10428" lon="-1.80918">
        <ele>63</ele>
        <time>2021-08-01T07:49:56.000Z</time>
      </trkpt>
      <trkpt lat="47.10421" lon="-1.8093">
        <ele>64</ele>
        <time>2021-08-01T07:49:58.000Z</time>
      </trkpt>
      <trkpt lat="47.10413" lon="-1.80942">
        <ele>64</ele>
        <time>2021-08-01T07:50:00.000Z</time>
      </trkpt>
      <trkpt lat="47.10405" lon="-1.80954">
        <ele>64</ele>
        <time>2021-08-01T07:50:02.000Z</time>
      </trkpt>
      <trkpt lat="47.10397" lon="-1.80966">
        <ele>64</ele>
        <time>2021-08-01T07:50:04.000Z</time>
      </trkpt>
      <trkpt lat="47.10389" lon="-1.80978">
        <ele>64</ele>
        <time>2021-08-01T07:50:06.000Z</time>
      </trkpt>
      <trkpt lat="47.10382" lon="-1.80988">
        <ele>64</ele>
        <time>2021-08-01T07:50:08.000Z</time>
      </trkpt>
      <trkpt lat="47.10376" lon="-1.80999">
        <ele>65</ele>
        <time>2021-08-01T07:50:10.000Z</time>
      </trkpt>
      <trkpt lat="47.10371" lon="-1.81012">
        <ele>66</ele>
        <time>2021-08-01T07:50:12.000Z</time>
      </trkpt>
      <trkpt lat="47.10367" lon="-1.81027">
        <ele>66</ele>
        <time>2021-08-01T07:50:14.000Z</time>
      </trkpt>
      <trkpt lat="47.10362" lon="-1.8104">
        <ele>66</ele>
        <time>2021-08-01T07:50:16.000Z</time>
      </trkpt>
      <trkpt lat="47.10351" lon="-1.81042">
        <ele>66</ele>
        <time>2021-08-01T07:50:19.000Z</time>
      </trkpt>
      <trkpt lat="47.10345" lon="-1.81031">
        <ele>66</ele>
        <time>2021-08-01T07:50:21.000Z</time>
      </trkpt>
      <trkpt lat="47.10337" lon="-1.81018">
        <ele>67</ele>
        <time>2021-08-01T07:50:23.000Z</time>
      </trkpt>
      <trkpt lat="47.10326" lon="-1.81012">
        <ele>66</ele>
        <time>2021-08-01T07:50:25.000Z</time>
      </trkpt>
      <trkpt lat="47.10314" lon="-1.8101">
        <ele>65</ele>
        <time>2021-08-01T07:50:27.000Z</time>
      </trkpt>
      <trkpt lat="47.10298" lon="-1.81008">
        <ele>64</ele>
        <time>2021-08-01T07:50:29.000Z</time>
      </trkpt>
      <trkpt lat="47.10284" lon="-1.81007">
        <ele>64</ele>
        <time>2021-08-01T07:50:31.000Z</time>
      </trkpt>
      <trkpt lat="47.1027" lon="-1.81008">
        <ele>64</ele>
        <time>2021-08-01T07:50:33.000Z</time>
      </trkpt>
      <trkpt lat="47.10255" lon="-1.81008">
        <ele>64</ele>
        <time>2021-08-01T07:50:35.000Z</time>
      </trkpt>
      <trkpt lat="47.10239" lon="-1.81009">
        <ele>64</ele>
        <time>2021-08-01T07:50:37.000Z</time>
      </trkpt>
      <trkpt lat="47.10225" lon="-1.81008">
        <ele>64</ele>
        <time>2021-08-01T07:50:39.000Z</time>
      </trkpt>
      <trkpt lat="47.1021" lon="-1.81004">
        <ele>63</ele>
        <time>2021-08-01T07:50:41.000Z</time>
      </trkpt>
      <trkpt lat="47.10196" lon="-1.80997">
        <ele>64</ele>
        <time>2021-08-01T07:50:43.000Z</time>
      </trkpt>
      <trkpt lat="47.10182" lon="-1.80992">
        <ele>63</ele>
        <time>2021-08-01T07:50:45.000Z</time>
      </trkpt>
      <trkpt lat="47.10168" lon="-1.80985">
        <ele>63</ele>
        <time>2021-08-01T07:50:47.000Z</time>
      </trkpt>
      <trkpt lat="47.10155" lon="-1.80978">
        <ele>62</ele>
        <time>2021-08-01T07:50:49.000Z</time>
      </trkpt>
      <trkpt lat="47.10143" lon="-1.80973">
        <ele>62</ele>
        <time>2021-08-01T07:50:51.000Z</time>
      </trkpt>
      <trkpt lat="47.1013" lon="-1.80969">
        <ele>61</ele>
        <time>2021-08-01T07:50:53.000Z</time>
      </trkpt>
      <trkpt lat="47.10117" lon="-1.8097">
        <ele>60</ele>
        <time>2021-08-01T07:50:55.000Z</time>
      </trkpt>
      <trkpt lat="47.10104" lon="-1.80971">
        <ele>58</ele>
        <time>2021-08-01T07:50:57.000Z</time>
      </trkpt>
      <trkpt lat="47.1009" lon="-1.80972">
        <ele>58</ele>
        <time>2021-08-01T07:50:59.000Z</time>
      </trkpt>
      <trkpt lat="47.10077" lon="-1.80972">
        <ele>59</ele>
        <time>2021-08-01T07:51:01.000Z</time>
      </trkpt>
      <trkpt lat="47.10065" lon="-1.80972">
        <ele>59</ele>
        <time>2021-08-01T07:51:03.000Z</time>
      </trkpt>
      <trkpt lat="47.10052" lon="-1.80972">
        <ele>60</ele>
        <time>2021-08-01T07:51:05.000Z</time>
      </trkpt>
      <trkpt lat="47.10034" lon="-1.80974">
        <ele>61</ele>
        <time>2021-08-01T07:51:08.000Z</time>
      </trkpt>
      <trkpt lat="47.10022" lon="-1.80976">
        <ele>61</ele>
        <time>2021-08-01T07:51:10.000Z</time>
      </trkpt>
      <trkpt lat="47.1001" lon="-1.80976">
        <ele>61</ele>
        <time>2021-08-01T07:51:12.000Z</time>
      </trkpt>
      <trkpt lat="47.09998" lon="-1.80977">
        <ele>61</ele>
        <time>2021-08-01T07:51:14.000Z</time>
      </trkpt>
      <trkpt lat="47.09986" lon="-1.80978">
        <ele>61</ele>
        <time>2021-08-01T07:51:16.000Z</time>
      </trkpt>
      <trkpt lat="47.09975" lon="-1.80978">
        <ele>62</ele>
        <time>2021-08-01T07:51:18.000Z</time>
      </trkpt>
      <trkpt lat="47.09963" lon="-1.80979">
        <ele>62</ele>
        <time>2021-08-01T07:51:20.000Z</time>
      </trkpt>
      <trkpt lat="47.09951" lon="-1.80979">
        <ele>62</ele>
        <time>2021-08-01T07:51:22.000Z</time>
      </trkpt>
      <trkpt lat="47.09939" lon="-1.8098">
        <ele>63</ele>
        <time>2021-08-01T07:51:24.000Z</time>
      </trkpt>
      <trkpt lat="47.09927" lon="-1.80982">
        <ele>64</ele>
        <time>2021-08-01T07:51:26.000Z</time>
      </trkpt>
      <trkpt lat="47.09909" lon="-1.80984">
        <ele>64</ele>
        <time>2021-08-01T07:51:29.000Z</time>
      </trkpt>
      <trkpt lat="47.09897" lon="-1.80985">
        <ele>65</ele>
        <time>2021-08-01T07:51:31.000Z</time>
      </trkpt>
      <trkpt lat="47.09885" lon="-1.80986">
        <ele>65</ele>
        <time>2021-08-01T07:51:33.000Z</time>
      </trkpt>
      <trkpt lat="47.09873" lon="-1.80986">
        <ele>65</ele>
        <time>2021-08-01T07:51:35.000Z</time>
      </trkpt>
      <trkpt lat="47.09855" lon="-1.80987">
        <ele>65</ele>
        <time>2021-08-01T07:51:38.000Z</time>
      </trkpt>
      <trkpt lat="47.09843" lon="-1.80987">
        <ele>65</ele>
        <time>2021-08-01T07:51:40.000Z</time>
      </trkpt>
      <trkpt lat="47.09832" lon="-1.80988">
        <ele>65</ele>
        <time>2021-08-01T07:51:42.000Z</time>
      </trkpt>
      <trkpt lat="47.09821" lon="-1.80989">
        <ele>65</ele>
        <time>2021-08-01T07:51:44.000Z</time>
      </trkpt>
      <trkpt lat="47.09811" lon="-1.8099">
        <ele>65</ele>
        <time>2021-08-01T07:51:46.000Z</time>
      </trkpt>
      <trkpt lat="47.098" lon="-1.80989">
        <ele>65</ele>
        <time>2021-08-01T07:51:48.000Z</time>
      </trkpt>
      <trkpt lat="47.09789" lon="-1.80987">
        <ele>65</ele>
        <time>2021-08-01T07:51:50.000Z</time>
      </trkpt>
      <trkpt lat="47.09777" lon="-1.80986">
        <ele>65</ele>
        <time>2021-08-01T07:51:52.000Z</time>
      </trkpt>
      <trkpt lat="47.09764" lon="-1.80983">
        <ele>65</ele>
        <time>2021-08-01T07:51:54.000Z</time>
      </trkpt>
      <trkpt lat="47.09751" lon="-1.80979">
        <ele>64</ele>
        <time>2021-08-01T07:51:56.000Z</time>
      </trkpt>
      <trkpt lat="47.09738" lon="-1.80975">
        <ele>64</ele>
        <time>2021-08-01T07:51:58.000Z</time>
      </trkpt>
      <trkpt lat="47.09725" lon="-1.80972">
        <ele>63</ele>
        <time>2021-08-01T07:52:00.000Z</time>
      </trkpt>
      <trkpt lat="47.09712" lon="-1.80971">
        <ele>62</ele>
        <time>2021-08-01T07:52:02.000Z</time>
      </trkpt>
      <trkpt lat="47.09699" lon="-1.80971">
        <ele>62</ele>
        <time>2021-08-01T07:52:04.000Z</time>
      </trkpt>
      <trkpt lat="47.09685" lon="-1.80968">
        <ele>63</ele>
        <time>2021-08-01T07:52:06.000Z</time>
      </trkpt>
      <trkpt lat="47.09672" lon="-1.80965">
        <ele>63</ele>
        <time>2021-08-01T07:52:08.000Z</time>
      </trkpt>
      <trkpt lat="47.09658" lon="-1.80962">
        <ele>63</ele>
        <time>2021-08-01T07:52:10.000Z</time>
      </trkpt>
      <trkpt lat="47.09645" lon="-1.8096">
        <ele>63</ele>
        <time>2021-08-01T07:52:12.000Z</time>
      </trkpt>
      <trkpt lat="47.09631" lon="-1.80957">
        <ele>62</ele>
        <time>2021-08-01T07:52:14.000Z</time>
      </trkpt>
      <trkpt lat="47.09618" lon="-1.80952">
        <ele>62</ele>
        <time>2021-08-01T07:52:16.000Z</time>
      </trkpt>
      <trkpt lat="47.09603" lon="-1.8095">
        <ele>61</ele>
        <time>2021-08-01T07:52:18.000Z</time>
      </trkpt>
      <trkpt lat="47.0959" lon="-1.80945">
        <ele>61</ele>
        <time>2021-08-01T07:52:20.000Z</time>
      </trkpt>
      <trkpt lat="47.09576" lon="-1.80942">
        <ele>61</ele>
        <time>2021-08-01T07:52:22.000Z</time>
      </trkpt>
      <trkpt lat="47.09563" lon="-1.8094">
        <ele>61</ele>
        <time>2021-08-01T07:52:24.000Z</time>
      </trkpt>
      <trkpt lat="47.09549" lon="-1.80937">
        <ele>61</ele>
        <time>2021-08-01T07:52:26.000Z</time>
      </trkpt>
      <trkpt lat="47.09535" lon="-1.80933">
        <ele>61</ele>
        <time>2021-08-01T07:52:28.000Z</time>
      </trkpt>
      <trkpt lat="47.09521" lon="-1.80929">
        <ele>61</ele>
        <time>2021-08-01T07:52:30.000Z</time>
      </trkpt>
      <trkpt lat="47.09507" lon="-1.80927">
        <ele>61</ele>
        <time>2021-08-01T07:52:32.000Z</time>
      </trkpt>
      <trkpt lat="47.09493" lon="-1.80926">
        <ele>60</ele>
        <time>2021-08-01T07:52:34.000Z</time>
      </trkpt>
      <trkpt lat="47.0948" lon="-1.80929">
        <ele>60</ele>
        <time>2021-08-01T07:52:36.000Z</time>
      </trkpt>
      <trkpt lat="47.09467" lon="-1.80934">
        <ele>61</ele>
        <time>2021-08-01T07:52:38.000Z</time>
      </trkpt>
      <trkpt lat="47.09454" lon="-1.80941">
        <ele>61</ele>
        <time>2021-08-01T07:52:40.000Z</time>
      </trkpt>
      <trkpt lat="47.09441" lon="-1.80949">
        <ele>61</ele>
        <time>2021-08-01T07:52:42.000Z</time>
      </trkpt>
      <trkpt lat="47.09429" lon="-1.80957">
        <ele>61</ele>
        <time>2021-08-01T07:52:44.000Z</time>
      </trkpt>
      <trkpt lat="47.09416" lon="-1.80966">
        <ele>61</ele>
        <time>2021-08-01T07:52:46.000Z</time>
      </trkpt>
      <trkpt lat="47.09403" lon="-1.80974">
        <ele>61</ele>
        <time>2021-08-01T07:52:48.000Z</time>
      </trkpt>
      <trkpt lat="47.0939" lon="-1.80981">
        <ele>61</ele>
        <time>2021-08-01T07:52:50.000Z</time>
      </trkpt>
      <trkpt lat="47.09377" lon="-1.80988">
        <ele>60</ele>
        <time>2021-08-01T07:52:52.000Z</time>
      </trkpt>
      <trkpt lat="47.09365" lon="-1.80996">
        <ele>60</ele>
        <time>2021-08-01T07:52:54.000Z</time>
      </trkpt>
      <trkpt lat="47.09351" lon="-1.81004">
        <ele>59</ele>
        <time>2021-08-01T07:52:56.000Z</time>
      </trkpt>
      <trkpt lat="47.09338" lon="-1.81012">
        <ele>58</ele>
        <time>2021-08-01T07:52:58.000Z</time>
      </trkpt>
      <trkpt lat="47.09325" lon="-1.8102">
        <ele>58</ele>
        <time>2021-08-01T07:53:00.000Z</time>
      </trkpt>
      <trkpt lat="47.09311" lon="-1.81028">
        <ele>57</ele>
        <time>2021-08-01T07:53:02.000Z</time>
      </trkpt>
      <trkpt lat="47.09298" lon="-1.81035">
        <ele>57</ele>
        <time>2021-08-01T07:53:04.000Z</time>
      </trkpt>
      <trkpt lat="47.09284" lon="-1.81044">
        <ele>56</ele>
        <time>2021-08-01T07:53:06.000Z</time>
      </trkpt>
      <trkpt lat="47.09271" lon="-1.81053">
        <ele>55</ele>
        <time>2021-08-01T07:53:08.000Z</time>
      </trkpt>
      <trkpt lat="47.09258" lon="-1.8106">
        <ele>55</ele>
        <time>2021-08-01T07:53:10.000Z</time>
      </trkpt>
      <trkpt lat="47.09245" lon="-1.81068">
        <ele>55</ele>
        <time>2021-08-01T07:53:12.000Z</time>
      </trkpt>
      <trkpt lat="47.09234" lon="-1.81078">
        <ele>54</ele>
        <time>2021-08-01T07:53:14.000Z</time>
      </trkpt>
      <trkpt lat="47.09227" lon="-1.81087">
        <ele>54</ele>
        <time>2021-08-01T07:53:16.000Z</time>
      </trkpt>
      <trkpt lat="47.09217" lon="-1.81088">
        <ele>55</ele>
        <time>2021-08-01T07:53:18.000Z</time>
      </trkpt>
      <trkpt lat="47.09206" lon="-1.81081">
        <ele>54</ele>
        <time>2021-08-01T07:53:20.000Z</time>
      </trkpt>
      <trkpt lat="47.09195" lon="-1.81072">
        <ele>55</ele>
        <time>2021-08-01T07:53:22.000Z</time>
      </trkpt>
      <trkpt lat="47.09185" lon="-1.81063">
        <ele>55</ele>
        <time>2021-08-01T07:53:24.000Z</time>
      </trkpt>
      <trkpt lat="47.09175" lon="-1.81054">
        <ele>56</ele>
        <time>2021-08-01T07:53:26.000Z</time>
      </trkpt>
      <trkpt lat="47.09165" lon="-1.81058">
        <ele>55</ele>
        <time>2021-08-01T07:53:28.000Z</time>
      </trkpt>
      <trkpt lat="47.09158" lon="-1.81073">
        <ele>56</ele>
        <time>2021-08-01T07:53:30.000Z</time>
      </trkpt>
      <trkpt lat="47.0915" lon="-1.81089">
        <ele>57</ele>
        <time>2021-08-01T07:53:32.000Z</time>
      </trkpt>
      <trkpt lat="47.0914" lon="-1.81102">
        <ele>56</ele>
        <time>2021-08-01T07:53:34.000Z</time>
      </trkpt>
      <trkpt lat="47.09127" lon="-1.81112">
        <ele>56</ele>
        <time>2021-08-01T07:53:36.000Z</time>
      </trkpt>
      <trkpt lat="47.09114" lon="-1.81116">
        <ele>56</ele>
        <time>2021-08-01T07:53:38.000Z</time>
      </trkpt>
      <trkpt lat="47.09101" lon="-1.81117">
        <ele>56</ele>
        <time>2021-08-01T07:53:40.000Z</time>
      </trkpt>
      <trkpt lat="47.09088" lon="-1.81119">
        <ele>56</ele>
        <time>2021-08-01T07:53:42.000Z</time>
      </trkpt>
      <trkpt lat="47.09075" lon="-1.81123">
        <ele>56</ele>
        <time>2021-08-01T07:53:44.000Z</time>
      </trkpt>
      <trkpt lat="47.09064" lon="-1.81133">
        <ele>55</ele>
        <time>2021-08-01T07:53:46.000Z</time>
      </trkpt>
      <trkpt lat="47.09055" lon="-1.81147">
        <ele>54</ele>
        <time>2021-08-01T07:53:48.000Z</time>
      </trkpt>
      <trkpt lat="47.09048" lon="-1.81163">
        <ele>55</ele>
        <time>2021-08-01T07:53:50.000Z</time>
      </trkpt>
      <trkpt lat="47.09043" lon="-1.81179">
        <ele>55</ele>
        <time>2021-08-01T07:53:52.000Z</time>
      </trkpt>
      <trkpt lat="47.09038" lon="-1.81195">
        <ele>56</ele>
        <time>2021-08-01T07:53:54.000Z</time>
      </trkpt>
      <trkpt lat="47.09033" lon="-1.81212">
        <ele>57</ele>
        <time>2021-08-01T07:53:56.000Z</time>
      </trkpt>
      <trkpt lat="47.09028" lon="-1.81228">
        <ele>58</ele>
        <time>2021-08-01T07:53:58.000Z</time>
      </trkpt>
      <trkpt lat="47.09021" lon="-1.81244">
        <ele>58</ele>
        <time>2021-08-01T07:54:00.000Z</time>
      </trkpt>
      <trkpt lat="47.09013" lon="-1.81259">
        <ele>58</ele>
        <time>2021-08-01T07:54:02.000Z</time>
      </trkpt>
      <trkpt lat="47.09005" lon="-1.81271">
        <ele>58</ele>
        <time>2021-08-01T07:54:04.000Z</time>
      </trkpt>
      <trkpt lat="47.08996" lon="-1.81284">
        <ele>59</ele>
        <time>2021-08-01T07:54:06.000Z</time>
      </trkpt>
      <trkpt lat="47.08987" lon="-1.81297">
        <ele>59</ele>
        <time>2021-08-01T07:54:08.000Z</time>
      </trkpt>
      <trkpt lat="47.08978" lon="-1.81308">
        <ele>59</ele>
        <time>2021-08-01T07:54:10.000Z</time>
      </trkpt>
      <trkpt lat="47.08968" lon="-1.8132">
        <ele>60</ele>
        <time>2021-08-01T07:54:12.000Z</time>
      </trkpt>
      <trkpt lat="47.08959" lon="-1.81333">
        <ele>60</ele>
        <time>2021-08-01T07:54:14.000Z</time>
      </trkpt>
      <trkpt lat="47.0895" lon="-1.81345">
        <ele>60</ele>
        <time>2021-08-01T07:54:16.000Z</time>
      </trkpt>
      <trkpt lat="47.08939" lon="-1.81357">
        <ele>61</ele>
        <time>2021-08-01T07:54:18.000Z</time>
      </trkpt>
      <trkpt lat="47.08929" lon="-1.81368">
        <ele>60</ele>
        <time>2021-08-01T07:54:20.000Z</time>
      </trkpt>
      <trkpt lat="47.08919" lon="-1.81378">
        <ele>60</ele>
        <time>2021-08-01T07:54:22.000Z</time>
      </trkpt>
      <trkpt lat="47.08909" lon="-1.81389">
        <ele>60</ele>
        <time>2021-08-01T07:54:24.000Z</time>
      </trkpt>
      <trkpt lat="47.08899" lon="-1.814">
        <ele>61</ele>
        <time>2021-08-01T07:54:26.000Z</time>
      </trkpt>
      <trkpt lat="47.08889" lon="-1.81412">
        <ele>61</ele>
        <time>2021-08-01T07:54:28.000Z</time>
      </trkpt>
      <trkpt lat="47.0888" lon="-1.81425">
        <ele>61</ele>
        <time>2021-08-01T07:54:30.000Z</time>
      </trkpt>
      <trkpt lat="47.08871" lon="-1.81437">
        <ele>61</ele>
        <time>2021-08-01T07:54:32.000Z</time>
      </trkpt>
      <trkpt lat="47.08861" lon="-1.81448">
        <ele>61</ele>
        <time>2021-08-01T07:54:34.000Z</time>
      </trkpt>
      <trkpt lat="47.08851" lon="-1.81458">
        <ele>61</ele>
        <time>2021-08-01T07:54:36.000Z</time>
      </trkpt>
      <trkpt lat="47.08841" lon="-1.81468">
        <ele>61</ele>
        <time>2021-08-01T07:54:38.000Z</time>
      </trkpt>
      <trkpt lat="47.0883" lon="-1.81477">
        <ele>61</ele>
        <time>2021-08-01T07:54:40.000Z</time>
      </trkpt>
      <trkpt lat="47.0882" lon="-1.81486">
        <ele>61</ele>
        <time>2021-08-01T07:54:42.000Z</time>
      </trkpt>
      <trkpt lat="47.08809" lon="-1.81494">
        <ele>62</ele>
        <time>2021-08-01T07:54:44.000Z</time>
      </trkpt>
      <trkpt lat="47.08799" lon="-1.81503">
        <ele>63</ele>
        <time>2021-08-01T07:54:46.000Z</time>
      </trkpt>
      <trkpt lat="47.08788" lon="-1.81511">
        <ele>63</ele>
        <time>2021-08-01T07:54:48.000Z</time>
      </trkpt>
      <trkpt lat="47.08778" lon="-1.8152">
        <ele>64</ele>
        <time>2021-08-01T07:54:50.000Z</time>
      </trkpt>
      <trkpt lat="47.08768" lon="-1.81528">
        <ele>64</ele>
        <time>2021-08-01T07:54:52.000Z</time>
      </trkpt>
      <trkpt lat="47.08758" lon="-1.81537">
        <ele>65</ele>
        <time>2021-08-01T07:54:54.000Z</time>
      </trkpt>
      <trkpt lat="47.08748" lon="-1.81547">
        <ele>65</ele>
        <time>2021-08-01T07:54:56.000Z</time>
      </trkpt>
      <trkpt lat="47.0874" lon="-1.81558">
        <ele>65</ele>
        <time>2021-08-01T07:54:58.000Z</time>
      </trkpt>
      <trkpt lat="47.08731" lon="-1.81571">
        <ele>66</ele>
        <time>2021-08-01T07:55:00.000Z</time>
      </trkpt>
      <trkpt lat="47.08724" lon="-1.81585">
        <ele>67</ele>
        <time>2021-08-01T07:55:02.000Z</time>
      </trkpt>
      <trkpt lat="47.08719" lon="-1.81601">
        <ele>67</ele>
        <time>2021-08-01T07:55:04.000Z</time>
      </trkpt>
      <trkpt lat="47.08712" lon="-1.81616">
        <ele>67</ele>
        <time>2021-08-01T07:55:06.000Z</time>
      </trkpt>
      <trkpt lat="47.08708" lon="-1.81631">
        <ele>68</ele>
        <time>2021-08-01T07:55:08.000Z</time>
      </trkpt>
      <trkpt lat="47.08703" lon="-1.81645">
        <ele>68</ele>
        <time>2021-08-01T07:55:10.000Z</time>
      </trkpt>
      <trkpt lat="47.08698" lon="-1.8166">
        <ele>68</ele>
        <time>2021-08-01T07:55:12.000Z</time>
      </trkpt>
      <trkpt lat="47.08691" lon="-1.81673">
        <ele>68</ele>
        <time>2021-08-01T07:55:14.000Z</time>
      </trkpt>
      <trkpt lat="47.08682" lon="-1.81684">
        <ele>68</ele>
        <time>2021-08-01T07:55:16.000Z</time>
      </trkpt>
      <trkpt lat="47.08672" lon="-1.8169">
        <ele>68</ele>
        <time>2021-08-01T07:55:18.000Z</time>
      </trkpt>
      <trkpt lat="47.08661" lon="-1.81695">
        <ele>68</ele>
        <time>2021-08-01T07:55:20.000Z</time>
      </trkpt>
      <trkpt lat="47.08649" lon="-1.81697">
        <ele>68</ele>
        <time>2021-08-01T07:55:22.000Z</time>
      </trkpt>
      <trkpt lat="47.08638" lon="-1.81695">
        <ele>69</ele>
        <time>2021-08-01T07:55:24.000Z</time>
      </trkpt>
      <trkpt lat="47.08626" lon="-1.81692">
        <ele>69</ele>
        <time>2021-08-01T07:55:26.000Z</time>
      </trkpt>
      <trkpt lat="47.08614" lon="-1.81689">
        <ele>69</ele>
        <time>2021-08-01T07:55:28.000Z</time>
      </trkpt>
      <trkpt lat="47.08602" lon="-1.81685">
        <ele>69</ele>
        <time>2021-08-01T07:55:30.000Z</time>
      </trkpt>
      <trkpt lat="47.0859" lon="-1.81681">
        <ele>69</ele>
        <time>2021-08-01T07:55:32.000Z</time>
      </trkpt>
      <trkpt lat="47.08579" lon="-1.81678">
        <ele>69</ele>
        <time>2021-08-01T07:55:34.000Z</time>
      </trkpt>
      <trkpt lat="47.08567" lon="-1.81676">
        <ele>69</ele>
        <time>2021-08-01T07:55:36.000Z</time>
      </trkpt>
      <trkpt lat="47.08555" lon="-1.81673">
        <ele>69</ele>
        <time>2021-08-01T07:55:38.000Z</time>
      </trkpt>
      <trkpt lat="47.08544" lon="-1.8167">
        <ele>69</ele>
        <time>2021-08-01T07:55:40.000Z</time>
      </trkpt>
      <trkpt lat="47.08532" lon="-1.81668">
        <ele>68</ele>
        <time>2021-08-01T07:55:42.000Z</time>
      </trkpt>
      <trkpt lat="47.08521" lon="-1.81666">
        <ele>69</ele>
        <time>2021-08-01T07:55:44.000Z</time>
      </trkpt>
      <trkpt lat="47.08509" lon="-1.81664">
        <ele>69</ele>
        <time>2021-08-01T07:55:46.000Z</time>
      </trkpt>
      <trkpt lat="47.08498" lon="-1.81662">
        <ele>69</ele>
        <time>2021-08-01T07:55:48.000Z</time>
      </trkpt>
      <trkpt lat="47.08486" lon="-1.8166">
        <ele>69</ele>
        <time>2021-08-01T07:55:50.000Z</time>
      </trkpt>
      <trkpt lat="47.08474" lon="-1.81659">
        <ele>70</ele>
        <time>2021-08-01T07:55:52.000Z</time>
      </trkpt>
      <trkpt lat="47.08463" lon="-1.81657">
        <ele>70</ele>
        <time>2021-08-01T07:55:54.000Z</time>
      </trkpt>
      <trkpt lat="47.08451" lon="-1.81654">
        <ele>69</ele>
        <time>2021-08-01T07:55:56.000Z</time>
      </trkpt>
      <trkpt lat="47.08439" lon="-1.81653">
        <ele>69</ele>
        <time>2021-08-01T07:55:58.000Z</time>
      </trkpt>
      <trkpt lat="47.08426" lon="-1.81651">
        <ele>69</ele>
        <time>2021-08-01T07:56:00.000Z</time>
      </trkpt>
      <trkpt lat="47.08414" lon="-1.81649">
        <ele>68</ele>
        <time>2021-08-01T07:56:02.000Z</time>
      </trkpt>
      <trkpt lat="47.08402" lon="-1.81648">
        <ele>69</ele>
        <time>2021-08-01T07:56:04.000Z</time>
      </trkpt>
      <trkpt lat="47.0839" lon="-1.81645">
        <ele>69</ele>
        <time>2021-08-01T07:56:06.000Z</time>
      </trkpt>
      <trkpt lat="47.08378" lon="-1.81642">
        <ele>69</ele>
        <time>2021-08-01T07:56:08.000Z</time>
      </trkpt>
      <trkpt lat="47.08366" lon="-1.81641">
        <ele>69</ele>
        <time>2021-08-01T07:56:10.000Z</time>
      </trkpt>
      <trkpt lat="47.08354" lon="-1.8164">
        <ele>69</ele>
        <time>2021-08-01T07:56:12.000Z</time>
      </trkpt>
      <trkpt lat="47.08342" lon="-1.81639">
        <ele>69</ele>
        <time>2021-08-01T07:56:14.000Z</time>
      </trkpt>
      <trkpt lat="47.08331" lon="-1.81638">
        <ele>69</ele>
        <time>2021-08-01T07:56:16.000Z</time>
      </trkpt>
      <trkpt lat="47.08319" lon="-1.81636">
        <ele>69</ele>
        <time>2021-08-01T07:56:18.000Z</time>
      </trkpt>
      <trkpt lat="47.08307" lon="-1.81635">
        <ele>69</ele>
        <time>2021-08-01T07:56:20.000Z</time>
      </trkpt>
      <trkpt lat="47.08296" lon="-1.81635">
        <ele>69</ele>
        <time>2021-08-01T07:56:22.000Z</time>
      </trkpt>
      <trkpt lat="47.08284" lon="-1.81635">
        <ele>69</ele>
        <time>2021-08-01T07:56:24.000Z</time>
      </trkpt>
      <trkpt lat="47.08272" lon="-1.81635">
        <ele>69</ele>
        <time>2021-08-01T07:56:26.000Z</time>
      </trkpt>
      <trkpt lat="47.08259" lon="-1.81635">
        <ele>69</ele>
        <time>2021-08-01T07:56:28.000Z</time>
      </trkpt>
      <trkpt lat="47.08247" lon="-1.81634">
        <ele>69</ele>
        <time>2021-08-01T07:56:30.000Z</time>
      </trkpt>
      <trkpt lat="47.08235" lon="-1.81634">
        <ele>69</ele>
        <time>2021-08-01T07:56:32.000Z</time>
      </trkpt>
      <trkpt lat="47.08223" lon="-1.81633">
        <ele>69</ele>
        <time>2021-08-01T07:56:34.000Z</time>
      </trkpt>
      <trkpt lat="47.08211" lon="-1.81632">
        <ele>69</ele>
        <time>2021-08-01T07:56:36.000Z</time>
      </trkpt>
      <trkpt lat="47.08198" lon="-1.81631">
        <ele>69</ele>
        <time>2021-08-01T07:56:38.000Z</time>
      </trkpt>
      <trkpt lat="47.08186" lon="-1.81631">
        <ele>69</ele>
        <time>2021-08-01T07:56:40.000Z</time>
      </trkpt>
      <trkpt lat="47.08174" lon="-1.8163">
        <ele>69</ele>
        <time>2021-08-01T07:56:42.000Z</time>
      </trkpt>
      <trkpt lat="47.08161" lon="-1.81629">
        <ele>69</ele>
        <time>2021-08-01T07:56:44.000Z</time>
      </trkpt>
      <trkpt lat="47.08149" lon="-1.81628">
        <ele>69</ele>
        <time>2021-08-01T07:56:46.000Z</time>
      </trkpt>
      <trkpt lat="47.08136" lon="-1.81627">
        <ele>69</ele>
        <time>2021-08-01T07:56:48.000Z</time>
      </trkpt>
      <trkpt lat="47.08123" lon="-1.81625">
        <ele>69</ele>
        <time>2021-08-01T07:56:50.000Z</time>
      </trkpt>
      <trkpt lat="47.0811" lon="-1.81623">
        <ele>69</ele>
        <time>2021-08-01T07:56:52.000Z</time>
      </trkpt>
      <trkpt lat="47.08098" lon="-1.8162">
        <ele>69</ele>
        <time>2021-08-01T07:56:54.000Z</time>
      </trkpt>
      <trkpt lat="47.08086" lon="-1.81616">
        <ele>69</ele>
        <time>2021-08-01T07:56:56.000Z</time>
      </trkpt>
      <trkpt lat="47.08073" lon="-1.81611">
        <ele>69</ele>
        <time>2021-08-01T07:56:58.000Z</time>
      </trkpt>
      <trkpt lat="47.08061" lon="-1.81605">
        <ele>69</ele>
        <time>2021-08-01T07:57:00.000Z</time>
      </trkpt>
      <trkpt lat="47.08049" lon="-1.81599">
        <ele>69</ele>
        <time>2021-08-01T07:57:02.000Z</time>
      </trkpt>
      <trkpt lat="47.08037" lon="-1.81592">
        <ele>69</ele>
        <time>2021-08-01T07:57:04.000Z</time>
      </trkpt>
      <trkpt lat="47.08025" lon="-1.81584">
        <ele>69</ele>
        <time>2021-08-01T07:57:06.000Z</time>
      </trkpt>
      <trkpt lat="47.08012" lon="-1.81577">
        <ele>69</ele>
        <time>2021-08-01T07:57:08.000Z</time>
      </trkpt>
      <trkpt lat="47.08" lon="-1.81571">
        <ele>69</ele>
        <time>2021-08-01T07:57:10.000Z</time>
      </trkpt>
      <trkpt lat="47.07988" lon="-1.81565">
        <ele>70</ele>
        <time>2021-08-01T07:57:12.000Z</time>
      </trkpt>
      <trkpt lat="47.07976" lon="-1.81561">
        <ele>70</ele>
        <time>2021-08-01T07:57:14.000Z</time>
      </trkpt>
      <trkpt lat="47.07963" lon="-1.81558">
        <ele>70</ele>
        <time>2021-08-01T07:57:16.000Z</time>
      </trkpt>
      <trkpt lat="47.0795" lon="-1.81557">
        <ele>70</ele>
        <time>2021-08-01T07:57:18.000Z</time>
      </trkpt>
      <trkpt lat="47.07937" lon="-1.81559">
        <ele>69</ele>
        <time>2021-08-01T07:57:20.000Z</time>
      </trkpt>
      <trkpt lat="47.07924" lon="-1.8156">
        <ele>69</ele>
        <time>2021-08-01T07:57:22.000Z</time>
      </trkpt>
      <trkpt lat="47.07911" lon="-1.81561">
        <ele>68</ele>
        <time>2021-08-01T07:57:24.000Z</time>
      </trkpt>
      <trkpt lat="47.07898" lon="-1.81562">
        <ele>68</ele>
        <time>2021-08-01T07:57:26.000Z</time>
      </trkpt>
      <trkpt lat="47.07885" lon="-1.81563">
        <ele>68</ele>
        <time>2021-08-01T07:57:28.000Z</time>
      </trkpt>
      <trkpt lat="47.07873" lon="-1.81564">
        <ele>68</ele>
        <time>2021-08-01T07:57:30.000Z</time>
      </trkpt>
      <trkpt lat="47.0786" lon="-1.81564">
        <ele>68</ele>
        <time>2021-08-01T07:57:32.000Z</time>
      </trkpt>
      <trkpt lat="47.07847" lon="-1.81563">
        <ele>68</ele>
        <time>2021-08-01T07:57:34.000Z</time>
      </trkpt>
      <trkpt lat="47.07835" lon="-1.81562">
        <ele>68</ele>
        <time>2021-08-01T07:57:36.000Z</time>
      </trkpt>
      <trkpt lat="47.07822" lon="-1.81559">
        <ele>68</ele>
        <time>2021-08-01T07:57:38.000Z</time>
      </trkpt>
      <trkpt lat="47.0781" lon="-1.81556">
        <ele>68</ele>
        <time>2021-08-01T07:57:40.000Z</time>
      </trkpt>
      <trkpt lat="47.07797" lon="-1.81554">
        <ele>68</ele>
        <time>2021-08-01T07:57:42.000Z</time>
      </trkpt>
      <trkpt lat="47.07784" lon="-1.81552">
        <ele>68</ele>
        <time>2021-08-01T07:57:44.000Z</time>
      </trkpt>
      <trkpt lat="47.07771" lon="-1.81551">
        <ele>69</ele>
        <time>2021-08-01T07:57:46.000Z</time>
      </trkpt>
      <trkpt lat="47.07759" lon="-1.8155">
        <ele>69</ele>
        <time>2021-08-01T07:57:48.000Z</time>
      </trkpt>
      <trkpt lat="47.07746" lon="-1.8155">
        <ele>69</ele>
        <time>2021-08-01T07:57:50.000Z</time>
      </trkpt>
      <trkpt lat="47.07733" lon="-1.8155">
        <ele>69</ele>
        <time>2021-08-01T07:57:52.000Z</time>
      </trkpt>
      <trkpt lat="47.0772" lon="-1.81549">
        <ele>69</ele>
        <time>2021-08-01T07:57:54.000Z</time>
      </trkpt>
      <trkpt lat="47.07707" lon="-1.81548">
        <ele>69</ele>
        <time>2021-08-01T07:57:56.000Z</time>
      </trkpt>
      <trkpt lat="47.07694" lon="-1.81547">
        <ele>69</ele>
        <time>2021-08-01T07:57:58.000Z</time>
      </trkpt>
      <trkpt lat="47.07681" lon="-1.81546">
        <ele>69</ele>
        <time>2021-08-01T07:58:00.000Z</time>
      </trkpt>
      <trkpt lat="47.07668" lon="-1.81544">
        <ele>69</ele>
        <time>2021-08-01T07:58:02.000Z</time>
      </trkpt>
      <trkpt lat="47.07654" lon="-1.81542">
        <ele>68</ele>
        <time>2021-08-01T07:58:04.000Z</time>
      </trkpt>
      <trkpt lat="47.07641" lon="-1.81536">
        <ele>68</ele>
        <time>2021-08-01T07:58:06.000Z</time>
      </trkpt>
      <trkpt lat="47.07628" lon="-1.81528">
        <ele>68</ele>
        <time>2021-08-01T07:58:08.000Z</time>
      </trkpt>
      <trkpt lat="47.07615" lon="-1.81517">
        <ele>69</ele>
        <time>2021-08-01T07:58:10.000Z</time>
      </trkpt>
      <trkpt lat="47.07602" lon="-1.81505">
        <ele>69</ele>
        <time>2021-08-01T07:58:12.000Z</time>
      </trkpt>
      <trkpt lat="47.0759" lon="-1.81492">
        <ele>69</ele>
        <time>2021-08-01T07:58:14.000Z</time>
      </trkpt>
      <trkpt lat="47.07578" lon="-1.8148">
        <ele>69</ele>
        <time>2021-08-01T07:58:16.000Z</time>
      </trkpt>
      <trkpt lat="47.07566" lon="-1.81468">
        <ele>69</ele>
        <time>2021-08-01T07:58:18.000Z</time>
      </trkpt>
      <trkpt lat="47.07554" lon="-1.81456">
        <ele>69</ele>
        <time>2021-08-01T07:58:20.000Z</time>
      </trkpt>
      <trkpt lat="47.07541" lon="-1.81447">
        <ele>69</ele>
        <time>2021-08-01T07:58:22.000Z</time>
      </trkpt>
      <trkpt lat="47.07527" lon="-1.81444">
        <ele>69</ele>
        <time>2021-08-01T07:58:24.000Z</time>
      </trkpt>
      <trkpt lat="47.07513" lon="-1.81447">
        <ele>69</ele>
        <time>2021-08-01T07:58:26.000Z</time>
      </trkpt>
      <trkpt lat="47.07499" lon="-1.81455">
        <ele>69</ele>
        <time>2021-08-01T07:58:28.000Z</time>
      </trkpt>
      <trkpt lat="47.07486" lon="-1.81463">
        <ele>70</ele>
        <time>2021-08-01T07:58:30.000Z</time>
      </trkpt>
      <trkpt lat="47.07472" lon="-1.81471">
        <ele>70</ele>
        <time>2021-08-01T07:58:32.000Z</time>
      </trkpt>
      <trkpt lat="47.07459" lon="-1.81478">
        <ele>70</ele>
        <time>2021-08-01T07:58:34.000Z</time>
      </trkpt>
      <trkpt lat="47.07444" lon="-1.81482">
        <ele>71</ele>
        <time>2021-08-01T07:58:36.000Z</time>
      </trkpt>
      <trkpt lat="47.0743" lon="-1.81484">
        <ele>71</ele>
        <time>2021-08-01T07:58:38.000Z</time>
      </trkpt>
      <trkpt lat="47.07416" lon="-1.81486">
        <ele>70</ele>
        <time>2021-08-01T07:58:40.000Z</time>
      </trkpt>
      <trkpt lat="47.07402" lon="-1.81487">
        <ele>70</ele>
        <time>2021-08-01T07:58:42.000Z</time>
      </trkpt>
      <trkpt lat="47.07387" lon="-1.81486">
        <ele>71</ele>
        <time>2021-08-01T07:58:44.000Z</time>
      </trkpt>
      <trkpt lat="47.07373" lon="-1.81486">
        <ele>71</ele>
        <time>2021-08-01T07:58:46.000Z</time>
      </trkpt>
      <trkpt lat="47.07359" lon="-1.81482">
        <ele>71</ele>
        <time>2021-08-01T07:58:48.000Z</time>
      </trkpt>
      <trkpt lat="47.07344" lon="-1.81477">
        <ele>71</ele>
        <time>2021-08-01T07:58:50.000Z</time>
      </trkpt>
      <trkpt lat="47.07331" lon="-1.81471">
        <ele>71</ele>
        <time>2021-08-01T07:58:52.000Z</time>
      </trkpt>
      <trkpt lat="47.07318" lon="-1.81464">
        <ele>71</ele>
        <time>2021-08-01T07:58:54.000Z</time>
      </trkpt>
      <trkpt lat="47.07305" lon="-1.81456">
        <ele>71</ele>
        <time>2021-08-01T07:58:56.000Z</time>
      </trkpt>
      <trkpt lat="47.07292" lon="-1.81446">
        <ele>70</ele>
        <time>2021-08-01T07:58:58.000Z</time>
      </trkpt>
      <trkpt lat="47.0728" lon="-1.81436">
        <ele>70</ele>
        <time>2021-08-01T07:59:00.000Z</time>
      </trkpt>
      <trkpt lat="47.07268" lon="-1.81425">
        <ele>71</ele>
        <time>2021-08-01T07:59:02.000Z</time>
      </trkpt>
      <trkpt lat="47.07256" lon="-1.81413">
        <ele>71</ele>
        <time>2021-08-01T07:59:04.000Z</time>
      </trkpt>
      <trkpt lat="47.07244" lon="-1.81401">
        <ele>71</ele>
        <time>2021-08-01T07:59:06.000Z</time>
      </trkpt>
      <trkpt lat="47.07233" lon="-1.8139">
        <ele>70</ele>
        <time>2021-08-01T07:59:08.000Z</time>
      </trkpt>
      <trkpt lat="47.07221" lon="-1.8138">
        <ele>71</ele>
        <time>2021-08-01T07:59:10.000Z</time>
      </trkpt>
      <trkpt lat="47.07209" lon="-1.81369">
        <ele>71</ele>
        <time>2021-08-01T07:59:12.000Z</time>
      </trkpt>
      <trkpt lat="47.07197" lon="-1.81358">
        <ele>71</ele>
        <time>2021-08-01T07:59:14.000Z</time>
      </trkpt>
      <trkpt lat="47.07185" lon="-1.81349">
        <ele>71</ele>
        <time>2021-08-01T07:59:16.000Z</time>
      </trkpt>
      <trkpt lat="47.07172" lon="-1.81346">
        <ele>71</ele>
        <time>2021-08-01T07:59:18.000Z</time>
      </trkpt>
      <trkpt lat="47.0716" lon="-1.81355">
        <ele>72</ele>
        <time>2021-08-01T07:59:20.000Z</time>
      </trkpt>
      <trkpt lat="47.07149" lon="-1.81367">
        <ele>72</ele>
        <time>2021-08-01T07:59:22.000Z</time>
      </trkpt>
      <trkpt lat="47.07138" lon="-1.81379">
        <ele>73</ele>
        <time>2021-08-01T07:59:24.000Z</time>
      </trkpt>
      <trkpt lat="47.07128" lon="-1.81391">
        <ele>73</ele>
        <time>2021-08-01T07:59:26.000Z</time>
      </trkpt>
      <trkpt lat="47.07117" lon="-1.81404">
        <ele>73</ele>
        <time>2021-08-01T07:59:28.000Z</time>
      </trkpt>
      <trkpt lat="47.07108" lon="-1.81416">
        <ele>74</ele>
        <time>2021-08-01T07:59:30.000Z</time>
      </trkpt>
      <trkpt lat="47.07098" lon="-1.8143">
        <ele>75</ele>
        <time>2021-08-01T07:59:32.000Z</time>
      </trkpt>
      <trkpt lat="47.07089" lon="-1.81442">
        <ele>75</ele>
        <time>2021-08-01T07:59:34.000Z</time>
      </trkpt>
      <trkpt lat="47.0708" lon="-1.81455">
        <ele>75</ele>
        <time>2021-08-01T07:59:36.000Z</time>
      </trkpt>
      <trkpt lat="47.07072" lon="-1.8147">
        <ele>76</ele>
        <time>2021-08-01T07:59:38.000Z</time>
      </trkpt>
      <trkpt lat="47.07063" lon="-1.81484">
        <ele>76</ele>
        <time>2021-08-01T07:59:40.000Z</time>
      </trkpt>
      <trkpt lat="47.07056" lon="-1.815">
        <ele>76</ele>
        <time>2021-08-01T07:59:42.000Z</time>
      </trkpt>
      <trkpt lat="47.07048" lon="-1.81517">
        <ele>76</ele>
        <time>2021-08-01T07:59:44.000Z</time>
      </trkpt>
      <trkpt lat="47.07041" lon="-1.81533">
        <ele>76</ele>
        <time>2021-08-01T07:59:46.000Z</time>
      </trkpt>
      <trkpt lat="47.07033" lon="-1.81548">
        <ele>76</ele>
        <time>2021-08-01T07:59:48.000Z</time>
      </trkpt>
      <trkpt lat="47.07027" lon="-1.81565">
        <ele>76</ele>
        <time>2021-08-01T07:59:50.000Z</time>
      </trkpt>
      <trkpt lat="47.07022" lon="-1.81582">
        <ele>76</ele>
        <time>2021-08-01T07:59:52.000Z</time>
      </trkpt>
      <trkpt lat="47.07017" lon="-1.816">
        <ele>77</ele>
        <time>2021-08-01T07:59:54.000Z</time>
      </trkpt>
      <trkpt lat="47.07013" lon="-1.81617">
        <ele>77</ele>
        <time>2021-08-01T07:59:56.000Z</time>
      </trkpt>
      <trkpt lat="47.07008" lon="-1.81635">
        <ele>77</ele>
        <time>2021-08-01T07:59:58.000Z</time>
      </trkpt>
      <trkpt lat="47.07003" lon="-1.81653">
        <ele>78</ele>
        <time>2021-08-01T08:00:00.000Z</time>
      </trkpt>
      <trkpt lat="47.06997" lon="-1.81671">
        <ele>78</ele>
        <time>2021-08-01T08:00:02.000Z</time>
      </trkpt>
      <trkpt lat="47.06992" lon="-1.81688">
        <ele>78</ele>
        <time>2021-08-01T08:00:04.000Z</time>
      </trkpt>
      <trkpt lat="47.06986" lon="-1.81706">
        <ele>77</ele>
        <time>2021-08-01T08:00:06.000Z</time>
      </trkpt>
      <trkpt lat="47.0698" lon="-1.81723">
        <ele>77</ele>
        <time>2021-08-01T08:00:08.000Z</time>
      </trkpt>
      <trkpt lat="47.06974" lon="-1.81738">
        <ele>78</ele>
        <time>2021-08-01T08:00:10.000Z</time>
      </trkpt>
      <trkpt lat="47.06967" lon="-1.81754">
        <ele>78</ele>
        <time>2021-08-01T08:00:12.000Z</time>
      </trkpt>
      <trkpt lat="47.06961" lon="-1.8177">
        <ele>78</ele>
        <time>2021-08-01T08:00:14.000Z</time>
      </trkpt>
      <trkpt lat="47.06954" lon="-1.81786">
        <ele>78</ele>
        <time>2021-08-01T08:00:16.000Z</time>
      </trkpt>
      <trkpt lat="47.06948" lon="-1.81802">
        <ele>78</ele>
        <time>2021-08-01T08:00:18.000Z</time>
      </trkpt>
      <trkpt lat="47.06941" lon="-1.81818">
        <ele>79</ele>
        <time>2021-08-01T08:00:20.000Z</time>
      </trkpt>
      <trkpt lat="47.06934" lon="-1.81834">
        <ele>79</ele>
        <time>2021-08-01T08:00:22.000Z</time>
      </trkpt>
      <trkpt lat="47.06928" lon="-1.8185">
        <ele>79</ele>
        <time>2021-08-01T08:00:24.000Z</time>
      </trkpt>
      <trkpt lat="47.06921" lon="-1.81865">
        <ele>80</ele>
        <time>2021-08-01T08:00:26.000Z</time>
      </trkpt>
      <trkpt lat="47.06915" lon="-1.8188">
        <ele>80</ele>
        <time>2021-08-01T08:00:28.000Z</time>
      </trkpt>
      <trkpt lat="47.06908" lon="-1.81896">
        <ele>81</ele>
        <time>2021-08-01T08:00:30.000Z</time>
      </trkpt>
      <trkpt lat="47.06902" lon="-1.81912">
        <ele>81</ele>
        <time>2021-08-01T08:00:32.000Z</time>
      </trkpt>
      <trkpt lat="47.06896" lon="-1.81929">
        <ele>81</ele>
        <time>2021-08-01T08:00:34.000Z</time>
      </trkpt>
      <trkpt lat="47.06893" lon="-1.81946">
        <ele>81</ele>
        <time>2021-08-01T08:00:36.000Z</time>
      </trkpt>
      <trkpt lat="47.06892" lon="-1.81964">
        <ele>82</ele>
        <time>2021-08-01T08:00:38.000Z</time>
      </trkpt>
      <trkpt lat="47.06893" lon="-1.81983">
        <ele>82</ele>
        <time>2021-08-01T08:00:40.000Z</time>
      </trkpt>
      <trkpt lat="47.06895" lon="-1.82001">
        <ele>83</ele>
        <time>2021-08-01T08:00:42.000Z</time>
      </trkpt>
      <trkpt lat="47.06896" lon="-1.8202">
        <ele>83</ele>
        <time>2021-08-01T08:00:44.000Z</time>
      </trkpt>
      <trkpt lat="47.06898" lon="-1.82039">
        <ele>83</ele>
        <time>2021-08-01T08:00:46.000Z</time>
      </trkpt>
      <trkpt lat="47.06899" lon="-1.82058">
        <ele>84</ele>
        <time>2021-08-01T08:00:48.000Z</time>
      </trkpt>
      <trkpt lat="47.069" lon="-1.82077">
        <ele>84</ele>
        <time>2021-08-01T08:00:50.000Z</time>
      </trkpt>
      <trkpt lat="47.06901" lon="-1.82096">
        <ele>85</ele>
        <time>2021-08-01T08:00:52.000Z</time>
      </trkpt>
      <trkpt lat="47.06902" lon="-1.82114">
        <ele>85</ele>
        <time>2021-08-01T08:00:54.000Z</time>
      </trkpt>
      <trkpt lat="47.06903" lon="-1.82133">
        <ele>85</ele>
        <time>2021-08-01T08:00:56.000Z</time>
      </trkpt>
      <trkpt lat="47.06903" lon="-1.82152">
        <ele>86</ele>
        <time>2021-08-01T08:00:58.000Z</time>
      </trkpt>
      <trkpt lat="47.06903" lon="-1.82172">
        <ele>86</ele>
        <time>2021-08-01T08:01:00.000Z</time>
      </trkpt>
      <trkpt lat="47.06902" lon="-1.82191">
        <ele>86</ele>
        <time>2021-08-01T08:01:02.000Z</time>
      </trkpt>
      <trkpt lat="47.06902" lon="-1.82212">
        <ele>85</ele>
        <time>2021-08-01T08:01:04.000Z</time>
      </trkpt>
      <trkpt lat="47.06901" lon="-1.82231">
        <ele>85</ele>
        <time>2021-08-01T08:01:06.000Z</time>
      </trkpt>
      <trkpt lat="47.069" lon="-1.8225">
        <ele>86</ele>
        <time>2021-08-01T08:01:08.000Z</time>
      </trkpt>
      <trkpt lat="47.069" lon="-1.8227">
        <ele>87</ele>
        <time>2021-08-01T08:01:10.000Z</time>
      </trkpt>
      <trkpt lat="47.06899" lon="-1.82288">
        <ele>87</ele>
        <time>2021-08-01T08:01:12.000Z</time>
      </trkpt>
      <trkpt lat="47.06898" lon="-1.82308">
        <ele>87</ele>
        <time>2021-08-01T08:01:14.000Z</time>
      </trkpt>
      <trkpt lat="47.06896" lon="-1.82327">
        <ele>86</ele>
        <time>2021-08-01T08:01:16.000Z</time>
      </trkpt>
      <trkpt lat="47.06894" lon="-1.82346">
        <ele>86</ele>
        <time>2021-08-01T08:01:18.000Z</time>
      </trkpt>
      <trkpt lat="47.06891" lon="-1.82365">
        <ele>86</ele>
        <time>2021-08-01T08:01:20.000Z</time>
      </trkpt>
      <trkpt lat="47.06889" lon="-1.82384">
        <ele>87</ele>
        <time>2021-08-01T08:01:22.000Z</time>
      </trkpt>
      <trkpt lat="47.06886" lon="-1.82402">
        <ele>87</ele>
        <time>2021-08-01T08:01:24.000Z</time>
      </trkpt>
      <trkpt lat="47.06884" lon="-1.82419">
        <ele>87</ele>
        <time>2021-08-01T08:01:26.000Z</time>
      </trkpt>
      <trkpt lat="47.06881" lon="-1.82437">
        <ele>87</ele>
        <time>2021-08-01T08:01:28.000Z</time>
      </trkpt>
      <trkpt lat="47.06879" lon="-1.82455">
        <ele>88</ele>
        <time>2021-08-01T08:01:30.000Z</time>
      </trkpt>
      <trkpt lat="47.06878" lon="-1.82474">
        <ele>88</ele>
        <time>2021-08-01T08:01:32.000Z</time>
      </trkpt>
      <trkpt lat="47.06879" lon="-1.82495">
        <ele>88</ele>
        <time>2021-08-01T08:01:34.000Z</time>
      </trkpt>
      <trkpt lat="47.0688" lon="-1.82514">
        <ele>88</ele>
        <time>2021-08-01T08:01:36.000Z</time>
      </trkpt>
      <trkpt lat="47.06883" lon="-1.82533">
        <ele>88</ele>
        <time>2021-08-01T08:01:38.000Z</time>
      </trkpt>
      <trkpt lat="47.06885" lon="-1.82553">
        <ele>88</ele>
        <time>2021-08-01T08:01:40.000Z</time>
      </trkpt>
      <trkpt lat="47.06886" lon="-1.82572">
        <ele>88</ele>
        <time>2021-08-01T08:01:42.000Z</time>
      </trkpt>
      <trkpt lat="47.06888" lon="-1.82592">
        <ele>87</ele>
        <time>2021-08-01T08:01:44.000Z</time>
      </trkpt>
      <trkpt lat="47.0689" lon="-1.82611">
        <ele>87</ele>
        <time>2021-08-01T08:01:46.000Z</time>
      </trkpt>
      <trkpt lat="47.06891" lon="-1.82631">
        <ele>87</ele>
        <time>2021-08-01T08:01:48.000Z</time>
      </trkpt>
      <trkpt lat="47.06893" lon="-1.8265">
        <ele>87</ele>
        <time>2021-08-01T08:01:50.000Z</time>
      </trkpt>
      <trkpt lat="47.06893" lon="-1.82668">
        <ele>87</ele>
        <time>2021-08-01T08:01:52.000Z</time>
      </trkpt>
      <trkpt lat="47.06893" lon="-1.82687">
        <ele>87</ele>
        <time>2021-08-01T08:01:54.000Z</time>
      </trkpt>
      <trkpt lat="47.06893" lon="-1.82707">
        <ele>88</ele>
        <time>2021-08-01T08:01:56.000Z</time>
      </trkpt>
      <trkpt lat="47.06893" lon="-1.82728">
        <ele>88</ele>
        <time>2021-08-01T08:01:58.000Z</time>
      </trkpt>
      <trkpt lat="47.06893" lon="-1.82749">
        <ele>88</ele>
        <time>2021-08-01T08:02:00.000Z</time>
      </trkpt>
      <trkpt lat="47.06893" lon="-1.82769">
        <ele>88</ele>
        <time>2021-08-01T08:02:02.000Z</time>
      </trkpt>
      <trkpt lat="47.06894" lon="-1.82789">
        <ele>88</ele>
        <time>2021-08-01T08:02:04.000Z</time>
      </trkpt>
      <trkpt lat="47.06895" lon="-1.82809">
        <ele>88</ele>
        <time>2021-08-01T08:02:06.000Z</time>
      </trkpt>
      <trkpt lat="47.06896" lon="-1.82829">
        <ele>87</ele>
        <time>2021-08-01T08:02:08.000Z</time>
      </trkpt>
      <trkpt lat="47.06898" lon="-1.8285">
        <ele>87</ele>
        <time>2021-08-01T08:02:10.000Z</time>
      </trkpt>
      <trkpt lat="47.06899" lon="-1.82869">
        <ele>87</ele>
        <time>2021-08-01T08:02:12.000Z</time>
      </trkpt>
      <trkpt lat="47.069" lon="-1.82888">
        <ele>87</ele>
        <time>2021-08-01T08:02:14.000Z</time>
      </trkpt>
      <trkpt lat="47.06901" lon="-1.82908">
        <ele>87</ele>
        <time>2021-08-01T08:02:16.000Z</time>
      </trkpt>
      <trkpt lat="47.06903" lon="-1.82926">
        <ele>87</ele>
        <time>2021-08-01T08:02:18.000Z</time>
      </trkpt>
      <trkpt lat="47.06903" lon="-1.82946">
        <ele>87</ele>
        <time>2021-08-01T08:02:20.000Z</time>
      </trkpt>
      <trkpt lat="47.06904" lon="-1.82965">
        <ele>86</ele>
        <time>2021-08-01T08:02:22.000Z</time>
      </trkpt>
      <trkpt lat="47.06905" lon="-1.82984">
        <ele>86</ele>
        <time>2021-08-01T08:02:24.000Z</time>
      </trkpt>
      <trkpt lat="47.06907" lon="-1.83001">
        <ele>86</ele>
        <time>2021-08-01T08:02:26.000Z</time>
      </trkpt>
      <trkpt lat="47.06911" lon="-1.83017">
        <ele>86</ele>
        <time>2021-08-01T08:02:28.000Z</time>
      </trkpt>
      <trkpt lat="47.06913" lon="-1.83033">
        <ele>86</ele>
        <time>2021-08-01T08:02:30.000Z</time>
      </trkpt>
      <trkpt lat="47.06904" lon="-1.83043">
        <ele>85</ele>
        <time>2021-08-01T08:02:32.000Z</time>
      </trkpt>
      <trkpt lat="47.06891" lon="-1.83042">
        <ele>85</ele>
        <time>2021-08-01T08:02:34.000Z</time>
      </trkpt>
      <trkpt lat="47.06878" lon="-1.8304">
        <ele>84</ele>
        <time>2021-08-01T08:02:36.000Z</time>
      </trkpt>
      <trkpt lat="47.06864" lon="-1.83038">
        <ele>84</ele>
        <time>2021-08-01T08:02:38.000Z</time>
      </trkpt>
      <trkpt lat="47.06851" lon="-1.83037">
        <ele>83</ele>
        <time>2021-08-01T08:02:40.000Z</time>
      </trkpt>
      <trkpt lat="47.06837" lon="-1.83036">
        <ele>83</ele>
        <time>2021-08-01T08:02:42.000Z</time>
      </trkpt>
      <trkpt lat="47.06823" lon="-1.83035">
        <ele>83</ele>
        <time>2021-08-01T08:02:44.000Z</time>
      </trkpt>
      <trkpt lat="47.06809" lon="-1.83035">
        <ele>83</ele>
        <time>2021-08-01T08:02:46.000Z</time>
      </trkpt>
      <trkpt lat="47.06794" lon="-1.83037">
        <ele>83</ele>
        <time>2021-08-01T08:02:48.000Z</time>
      </trkpt>
      <trkpt lat="47.0678" lon="-1.8304">
        <ele>83</ele>
        <time>2021-08-01T08:02:50.000Z</time>
      </trkpt>
      <trkpt lat="47.06766" lon="-1.83042">
        <ele>83</ele>
        <time>2021-08-01T08:02:52.000Z</time>
      </trkpt>
      <trkpt lat="47.06751" lon="-1.83044">
        <ele>83</ele>
        <time>2021-08-01T08:02:54.000Z</time>
      </trkpt>
      <trkpt lat="47.06737" lon="-1.83046">
        <ele>83</ele>
        <time>2021-08-01T08:02:56.000Z</time>
      </trkpt>
      <trkpt lat="47.06723" lon="-1.83049">
        <ele>83</ele>
        <time>2021-08-01T08:02:58.000Z</time>
      </trkpt>
      <trkpt lat="47.06709" lon="-1.83052">
        <ele>82</ele>
        <time>2021-08-01T08:03:00.000Z</time>
      </trkpt>
      <trkpt lat="47.06695" lon="-1.83055">
        <ele>82</ele>
        <time>2021-08-01T08:03:02.000Z</time>
      </trkpt>
      <trkpt lat="47.0668" lon="-1.83058">
        <ele>82</ele>
        <time>2021-08-01T08:03:04.000Z</time>
      </trkpt>
      <trkpt lat="47.06666" lon="-1.83062">
        <ele>83</ele>
        <time>2021-08-01T08:03:06.000Z</time>
      </trkpt>
      <trkpt lat="47.06653" lon="-1.83066">
        <ele>83</ele>
        <time>2021-08-01T08:03:08.000Z</time>
      </trkpt>
      <trkpt lat="47.06639" lon="-1.83069">
        <ele>83</ele>
        <time>2021-08-01T08:03:10.000Z</time>
      </trkpt>
      <trkpt lat="47.06625" lon="-1.83073">
        <ele>83</ele>
        <time>2021-08-01T08:03:12.000Z</time>
      </trkpt>
      <trkpt lat="47.06611" lon="-1.83076">
        <ele>83</ele>
        <time>2021-08-01T08:03:14.000Z</time>
      </trkpt>
      <trkpt lat="47.06597" lon="-1.83079">
        <ele>84</ele>
        <time>2021-08-01T08:03:16.000Z</time>
      </trkpt>
      <trkpt lat="47.06583" lon="-1.83083">
        <ele>84</ele>
        <time>2021-08-01T08:03:18.000Z</time>
      </trkpt>
      <trkpt lat="47.0657" lon="-1.83085">
        <ele>84</ele>
        <time>2021-08-01T08:03:20.000Z</time>
      </trkpt>
      <trkpt lat="47.06557" lon="-1.83089">
        <ele>84</ele>
        <time>2021-08-01T08:03:22.000Z</time>
      </trkpt>
      <trkpt lat="47.06544" lon="-1.83095">
        <ele>83</ele>
        <time>2021-08-01T08:03:24.000Z</time>
      </trkpt>
      <trkpt lat="47.06531" lon="-1.831">
        <ele>84</ele>
        <time>2021-08-01T08:03:26.000Z</time>
      </trkpt>
      <trkpt lat="47.06518" lon="-1.83105">
        <ele>83</ele>
        <time>2021-08-01T08:03:28.000Z</time>
      </trkpt>
      <trkpt lat="47.06505" lon="-1.83111">
        <ele>83</ele>
        <time>2021-08-01T08:03:30.000Z</time>
      </trkpt>
      <trkpt lat="47.06491" lon="-1.83117">
        <ele>84</ele>
        <time>2021-08-01T08:03:32.000Z</time>
      </trkpt>
      <trkpt lat="47.06479" lon="-1.83122">
        <ele>84</ele>
        <time>2021-08-01T08:03:34.000Z</time>
      </trkpt>
      <trkpt lat="47.06466" lon="-1.83128">
        <ele>84</ele>
        <time>2021-08-01T08:03:36.000Z</time>
      </trkpt>
      <trkpt lat="47.06454" lon="-1.83133">
        <ele>84</ele>
        <time>2021-08-01T08:03:38.000Z</time>
      </trkpt>
      <trkpt lat="47.0644" lon="-1.83139">
        <ele>83</ele>
        <time>2021-08-01T08:03:40.000Z</time>
      </trkpt>
      <trkpt lat="47.06427" lon="-1.83145">
        <ele>84</ele>
        <time>2021-08-01T08:03:42.000Z</time>
      </trkpt>
      <trkpt lat="47.06415" lon="-1.8315">
        <ele>83</ele>
        <time>2021-08-01T08:03:44.000Z</time>
      </trkpt>
      <trkpt lat="47.06402" lon="-1.83155">
        <ele>83</ele>
        <time>2021-08-01T08:03:46.000Z</time>
      </trkpt>
      <trkpt lat="47.06389" lon="-1.8316">
        <ele>83</ele>
        <time>2021-08-01T08:03:48.000Z</time>
      </trkpt>
      <trkpt lat="47.06376" lon="-1.83166">
        <ele>83</ele>
        <time>2021-08-01T08:03:50.000Z</time>
      </trkpt>
      <trkpt lat="47.06363" lon="-1.83172">
        <ele>84</ele>
        <time>2021-08-01T08:03:52.000Z</time>
      </trkpt>
      <trkpt lat="47.0635" lon="-1.83178">
        <ele>84</ele>
        <time>2021-08-01T08:03:54.000Z</time>
      </trkpt>
      <trkpt lat="47.06337" lon="-1.83183">
        <ele>84</ele>
        <time>2021-08-01T08:03:56.000Z</time>
      </trkpt>
      <trkpt lat="47.06325" lon="-1.83188">
        <ele>84</ele>
        <time>2021-08-01T08:03:58.000Z</time>
      </trkpt>
      <trkpt lat="47.06312" lon="-1.83193">
        <ele>84</ele>
        <time>2021-08-01T08:04:00.000Z</time>
      </trkpt>
      <trkpt lat="47.063" lon="-1.83197">
        <ele>84</ele>
        <time>2021-08-01T08:04:02.000Z</time>
      </trkpt>
      <trkpt lat="47.06287" lon="-1.83199">
        <ele>83</ele>
        <time>2021-08-01T08:04:04.000Z</time>
      </trkpt>
      <trkpt lat="47.06274" lon="-1.83202">
        <ele>83</ele>
        <time>2021-08-01T08:04:06.000Z</time>
      </trkpt>
      <trkpt lat="47.0626" lon="-1.83204">
        <ele>83</ele>
        <time>2021-08-01T08:04:08.000Z</time>
      </trkpt>
      <trkpt lat="47.06247" lon="-1.83204">
        <ele>84</ele>
        <time>2021-08-01T08:04:10.000Z</time>
      </trkpt>
      <trkpt lat="47.06233" lon="-1.83205">
        <ele>84</ele>
        <time>2021-08-01T08:04:12.000Z</time>
      </trkpt>
      <trkpt lat="47.0622" lon="-1.83206">
        <ele>84</ele>
        <time>2021-08-01T08:04:14.000Z</time>
      </trkpt>
      <trkpt lat="47.06207" lon="-1.83206">
        <ele>84</ele>
        <time>2021-08-01T08:04:16.000Z</time>
      </trkpt>
      <trkpt lat="47.06194" lon="-1.83207">
        <ele>83</ele>
        <time>2021-08-01T08:04:18.000Z</time>
      </trkpt>
      <trkpt lat="47.06181" lon="-1.83208">
        <ele>84</ele>
        <time>2021-08-01T08:04:20.000Z</time>
      </trkpt>
      <trkpt lat="47.06168" lon="-1.83209">
        <ele>84</ele>
        <time>2021-08-01T08:04:22.000Z</time>
      </trkpt>
      <trkpt lat="47.06154" lon="-1.83209">
        <ele>84</ele>
        <time>2021-08-01T08:04:24.000Z</time>
      </trkpt>
      <trkpt lat="47.06141" lon="-1.8321">
        <ele>84</ele>
        <time>2021-08-01T08:04:26.000Z</time>
      </trkpt>
      <trkpt lat="47.06128" lon="-1.8321">
        <ele>84</ele>
        <time>2021-08-01T08:04:28.000Z</time>
      </trkpt>
      <trkpt lat="47.06114" lon="-1.83211">
        <ele>84</ele>
        <time>2021-08-01T08:04:30.000Z</time>
      </trkpt>
      <trkpt lat="47.06101" lon="-1.83211">
        <ele>85</ele>
        <time>2021-08-01T08:04:32.000Z</time>
      </trkpt>
      <trkpt lat="47.06087" lon="-1.83211">
        <ele>84</ele>
        <time>2021-08-01T08:04:34.000Z</time>
      </trkpt>
      <trkpt lat="47.06074" lon="-1.83212">
        <ele>84</ele>
        <time>2021-08-01T08:04:36.000Z</time>
      </trkpt>
      <trkpt lat="47.0606" lon="-1.83213">
        <ele>84</ele>
        <time>2021-08-01T08:04:38.000Z</time>
      </trkpt>
      <trkpt lat="47.06047" lon="-1.83214">
        <ele>85</ele>
        <time>2021-08-01T08:04:40.000Z</time>
      </trkpt>
      <trkpt lat="47.06034" lon="-1.83215">
        <ele>85</ele>
        <time>2021-08-01T08:04:42.000Z</time>
      </trkpt>
      <trkpt lat="47.0602" lon="-1.83215">
        <ele>85</ele>
        <time>2021-08-01T08:04:44.000Z</time>
      </trkpt>
      <trkpt lat="47.06007" lon="-1.83216">
        <ele>84</ele>
        <time>2021-08-01T08:04:46.000Z</time>
      </trkpt>
      <trkpt lat="47.05994" lon="-1.83218">
        <ele>84</ele>
        <time>2021-08-01T08:04:48.000Z</time>
      </trkpt>
      <trkpt lat="47.05981" lon="-1.83221">
        <ele>84</ele>
        <time>2021-08-01T08:04:50.000Z</time>
      </trkpt>
      <trkpt lat="47.05969" lon="-1.83229">
        <ele>83</ele>
        <time>2021-08-01T08:04:52.000Z</time>
      </trkpt>
      <trkpt lat="47.05959" lon="-1.83243">
        <ele>84</ele>
        <time>2021-08-01T08:04:54.000Z</time>
      </trkpt>
      <trkpt lat="47.0595" lon="-1.83257">
        <ele>84</ele>
        <time>2021-08-01T08:04:56.000Z</time>
      </trkpt>
      <trkpt lat="47.0594" lon="-1.83272">
        <ele>84</ele>
        <time>2021-08-01T08:04:58.000Z</time>
      </trkpt>
      <trkpt lat="47.05931" lon="-1.83286">
        <ele>84</ele>
        <time>2021-08-01T08:05:00.000Z</time>
      </trkpt>
      <trkpt lat="47.05921" lon="-1.833">
        <ele>84</ele>
        <time>2021-08-01T08:05:02.000Z</time>
      </trkpt>
      <trkpt lat="47.05912" lon="-1.83314">
        <ele>84</ele>
        <time>2021-08-01T08:05:04.000Z</time>
      </trkpt>
      <trkpt lat="47.05902" lon="-1.83328">
        <ele>84</ele>
        <time>2021-08-01T08:05:06.000Z</time>
      </trkpt>
      <trkpt lat="47.05893" lon="-1.83341">
        <ele>84</ele>
        <time>2021-08-01T08:05:08.000Z</time>
      </trkpt>
      <trkpt lat="47.05884" lon="-1.83355">
        <ele>84</ele>
        <time>2021-08-01T08:05:10.000Z</time>
      </trkpt>
      <trkpt lat="47.05876" lon="-1.83369">
        <ele>84</ele>
        <time>2021-08-01T08:05:12.000Z</time>
      </trkpt>
      <trkpt lat="47.05866" lon="-1.83383">
        <ele>85</ele>
        <time>2021-08-01T08:05:14.000Z</time>
      </trkpt>
      <trkpt lat="47.05857" lon="-1.83397">
        <ele>85</ele>
        <time>2021-08-01T08:05:16.000Z</time>
      </trkpt>
      <trkpt lat="47.05843" lon="-1.83419">
        <ele>85</ele>
        <time>2021-08-01T08:05:19.000Z</time>
      </trkpt>
      <trkpt lat="47.05828" lon="-1.83439">
        <ele>85</ele>
        <time>2021-08-01T08:05:22.000Z</time>
      </trkpt>
      <trkpt lat="47.05819" lon="-1.83453">
        <ele>85</ele>
        <time>2021-08-01T08:05:24.000Z</time>
      </trkpt>
      <trkpt lat="47.05809" lon="-1.83466">
        <ele>86</ele>
        <time>2021-08-01T08:05:26.000Z</time>
      </trkpt>
      <trkpt lat="47.05794" lon="-1.83485">
        <ele>86</ele>
        <time>2021-08-01T08:05:29.000Z</time>
      </trkpt>
      <trkpt lat="47.05779" lon="-1.83504">
        <ele>86</ele>
        <time>2021-08-01T08:05:32.000Z</time>
      </trkpt>
      <trkpt lat="47.05768" lon="-1.83516">
        <ele>86</ele>
        <time>2021-08-01T08:05:34.000Z</time>
      </trkpt>
      <trkpt lat="47.05758" lon="-1.83529">
        <ele>86</ele>
        <time>2021-08-01T08:05:36.000Z</time>
      </trkpt>
      <trkpt lat="47.05743" lon="-1.83547">
        <ele>86</ele>
        <time>2021-08-01T08:05:39.000Z</time>
      </trkpt>
      <trkpt lat="47.05733" lon="-1.83559">
        <ele>86</ele>
        <time>2021-08-01T08:05:41.000Z</time>
      </trkpt>
      <trkpt lat="47.05724" lon="-1.83574">
        <ele>86</ele>
        <time>2021-08-01T08:05:43.000Z</time>
      </trkpt>
      <trkpt lat="47.05716" lon="-1.83588">
        <ele>86</ele>
        <time>2021-08-01T08:05:45.000Z</time>
      </trkpt>
      <trkpt lat="47.05708" lon="-1.83603">
        <ele>86</ele>
        <time>2021-08-01T08:05:47.000Z</time>
      </trkpt>
      <trkpt lat="47.05699" lon="-1.83619">
        <ele>86</ele>
        <time>2021-08-01T08:05:49.000Z</time>
      </trkpt>
      <trkpt lat="47.05691" lon="-1.83633">
        <ele>86</ele>
        <time>2021-08-01T08:05:51.000Z</time>
      </trkpt>
      <trkpt lat="47.05682" lon="-1.83648">
        <ele>86</ele>
        <time>2021-08-01T08:05:53.000Z</time>
      </trkpt>
      <trkpt lat="47.05674" lon="-1.83663">
        <ele>87</ele>
        <time>2021-08-01T08:05:55.000Z</time>
      </trkpt>
      <trkpt lat="47.05666" lon="-1.83677">
        <ele>87</ele>
        <time>2021-08-01T08:05:57.000Z</time>
      </trkpt>
      <trkpt lat="47.05658" lon="-1.83691">
        <ele>87</ele>
        <time>2021-08-01T08:05:59.000Z</time>
      </trkpt>
      <trkpt lat="47.0565" lon="-1.83706">
        <ele>86</ele>
        <time>2021-08-01T08:06:01.000Z</time>
      </trkpt>
      <trkpt lat="47.05641" lon="-1.83721">
        <ele>87</ele>
        <time>2021-08-01T08:06:03.000Z</time>
      </trkpt>
      <trkpt lat="47.05633" lon="-1.83735">
        <ele>87</ele>
        <time>2021-08-01T08:06:05.000Z</time>
      </trkpt>
      <trkpt lat="47.05625" lon="-1.8375">
        <ele>87</ele>
        <time>2021-08-01T08:06:07.000Z</time>
      </trkpt>
      <trkpt lat="47.05617" lon="-1.83765">
        <ele>86</ele>
        <time>2021-08-01T08:06:09.000Z</time>
      </trkpt>
      <trkpt lat="47.05609" lon="-1.83779">
        <ele>86</ele>
        <time>2021-08-01T08:06:11.000Z</time>
      </trkpt>
      <trkpt lat="47.056" lon="-1.83794">
        <ele>87</ele>
        <time>2021-08-01T08:06:13.000Z</time>
      </trkpt>
      <trkpt lat="47.05592" lon="-1.83809">
        <ele>87</ele>
        <time>2021-08-01T08:06:15.000Z</time>
      </trkpt>
      <trkpt lat="47.05584" lon="-1.83823">
        <ele>86</ele>
        <time>2021-08-01T08:06:17.000Z</time>
      </trkpt>
      <trkpt lat="47.05576" lon="-1.83838">
        <ele>86</ele>
        <time>2021-08-01T08:06:19.000Z</time>
      </trkpt>
      <trkpt lat="47.05568" lon="-1.83853">
        <ele>86</ele>
        <time>2021-08-01T08:06:21.000Z</time>
      </trkpt>
      <trkpt lat="47.0556" lon="-1.83867">
        <ele>86</ele>
        <time>2021-08-01T08:06:23.000Z</time>
      </trkpt>
      <trkpt lat="47.05552" lon="-1.83882">
        <ele>86</ele>
        <time>2021-08-01T08:06:25.000Z</time>
      </trkpt>
      <trkpt lat="47.05543" lon="-1.83897">
        <ele>87</ele>
        <time>2021-08-01T08:06:27.000Z</time>
      </trkpt>
      <trkpt lat="47.05535" lon="-1.83912">
        <ele>87</ele>
        <time>2021-08-01T08:06:29.000Z</time>
      </trkpt>
      <trkpt lat="47.05527" lon="-1.83926">
        <ele>87</ele>
        <time>2021-08-01T08:06:31.000Z</time>
      </trkpt>
      <trkpt lat="47.05518" lon="-1.83941">
        <ele>87</ele>
        <time>2021-08-01T08:06:33.000Z</time>
      </trkpt>
      <trkpt lat="47.05511" lon="-1.83956">
        <ele>87</ele>
        <time>2021-08-01T08:06:35.000Z</time>
      </trkpt>
      <trkpt lat="47.05503" lon="-1.83971">
        <ele>86</ele>
        <time>2021-08-01T08:06:37.000Z</time>
      </trkpt>
      <trkpt lat="47.05495" lon="-1.83985">
        <ele>87</ele>
        <time>2021-08-01T08:06:39.000Z</time>
      </trkpt>
      <trkpt lat="47.05487" lon="-1.84">
        <ele>87</ele>
        <time>2021-08-01T08:06:41.000Z</time>
      </trkpt>
      <trkpt lat="47.05479" lon="-1.84015">
        <ele>87</ele>
        <time>2021-08-01T08:06:43.000Z</time>
      </trkpt>
      <trkpt lat="47.05472" lon="-1.84031">
        <ele>87</ele>
        <time>2021-08-01T08:06:45.000Z</time>
      </trkpt>
      <trkpt lat="47.05464" lon="-1.84046">
        <ele>87</ele>
        <time>2021-08-01T08:06:47.000Z</time>
      </trkpt>
      <trkpt lat="47.05457" lon="-1.84061">
        <ele>87</ele>
        <time>2021-08-01T08:06:49.000Z</time>
      </trkpt>
      <trkpt lat="47.05449" lon="-1.84077">
        <ele>87</ele>
        <time>2021-08-01T08:06:51.000Z</time>
      </trkpt>
      <trkpt lat="47.05441" lon="-1.84092">
        <ele>87</ele>
        <time>2021-08-01T08:06:53.000Z</time>
      </trkpt>
      <trkpt lat="47.05433" lon="-1.84108">
        <ele>87</ele>
        <time>2021-08-01T08:06:55.000Z</time>
      </trkpt>
      <trkpt lat="47.05425" lon="-1.84123">
        <ele>87</ele>
        <time>2021-08-01T08:06:57.000Z</time>
      </trkpt>
      <trkpt lat="47.05418" lon="-1.84139">
        <ele>87</ele>
        <time>2021-08-01T08:06:59.000Z</time>
      </trkpt>
      <trkpt lat="47.0541" lon="-1.84155">
        <ele>87</ele>
        <time>2021-08-01T08:07:01.000Z</time>
      </trkpt>
      <trkpt lat="47.05402" lon="-1.84171">
        <ele>87</ele>
        <time>2021-08-01T08:07:03.000Z</time>
      </trkpt>
      <trkpt lat="47.05394" lon="-1.84186">
        <ele>87</ele>
        <time>2021-08-01T08:07:05.000Z</time>
      </trkpt>
      <trkpt lat="47.05386" lon="-1.84202">
        <ele>87</ele>
        <time>2021-08-01T08:07:07.000Z</time>
      </trkpt>
      <trkpt lat="47.05378" lon="-1.84217">
        <ele>87</ele>
        <time>2021-08-01T08:07:09.000Z</time>
      </trkpt>
      <trkpt lat="47.0537" lon="-1.84233">
        <ele>87</ele>
        <time>2021-08-01T08:07:11.000Z</time>
      </trkpt>
      <trkpt lat="47.05361" lon="-1.84248">
        <ele>87</ele>
        <time>2021-08-01T08:07:13.000Z</time>
      </trkpt>
      <trkpt lat="47.05354" lon="-1.84263">
        <ele>87</ele>
        <time>2021-08-01T08:07:15.000Z</time>
      </trkpt>
      <trkpt lat="47.05346" lon="-1.84279">
        <ele>87</ele>
        <time>2021-08-01T08:07:17.000Z</time>
      </trkpt>
      <trkpt lat="47.05338" lon="-1.84295">
        <ele>87</ele>
        <time>2021-08-01T08:07:19.000Z</time>
      </trkpt>
      <trkpt lat="47.0533" lon="-1.84312">
        <ele>87</ele>
        <time>2021-08-01T08:07:21.000Z</time>
      </trkpt>
      <trkpt lat="47.05321" lon="-1.84328">
        <ele>87</ele>
        <time>2021-08-01T08:07:23.000Z</time>
      </trkpt>
      <trkpt lat="47.05313" lon="-1.84344">
        <ele>87</ele>
        <time>2021-08-01T08:07:25.000Z</time>
      </trkpt>
      <trkpt lat="47.05305" lon="-1.8436">
        <ele>87</ele>
        <time>2021-08-01T08:07:27.000Z</time>
      </trkpt>
      <trkpt lat="47.05297" lon="-1.84376">
        <ele>87</ele>
        <time>2021-08-01T08:07:29.000Z</time>
      </trkpt>
      <trkpt lat="47.05289" lon="-1.84392">
        <ele>87</ele>
        <time>2021-08-01T08:07:31.000Z</time>
      </trkpt>
      <trkpt lat="47.05281" lon="-1.84408">
        <ele>87</ele>
        <time>2021-08-01T08:07:33.000Z</time>
      </trkpt>
      <trkpt lat="47.05274" lon="-1.84424">
        <ele>87</ele>
        <time>2021-08-01T08:07:35.000Z</time>
      </trkpt>
      <trkpt lat="47.05266" lon="-1.8444">
        <ele>87</ele>
        <time>2021-08-01T08:07:37.000Z</time>
      </trkpt>
      <trkpt lat="47.05258" lon="-1.84456">
        <ele>87</ele>
        <time>2021-08-01T08:07:39.000Z</time>
      </trkpt>
      <trkpt lat="47.05251" lon="-1.84471">
        <ele>88</ele>
        <time>2021-08-01T08:07:41.000Z</time>
      </trkpt>
      <trkpt lat="47.05243" lon="-1.84486">
        <ele>88</ele>
        <time>2021-08-01T08:07:43.000Z</time>
      </trkpt>
      <trkpt lat="47.05235" lon="-1.84501">
        <ele>88</ele>
        <time>2021-08-01T08:07:45.000Z</time>
      </trkpt>
      <trkpt lat="47.05228" lon="-1.84515">
        <ele>88</ele>
        <time>2021-08-01T08:07:47.000Z</time>
      </trkpt>
      <trkpt lat="47.05222" lon="-1.84529">
        <ele>88</ele>
        <time>2021-08-01T08:07:49.000Z</time>
      </trkpt>
      <trkpt lat="47.05215" lon="-1.8454">
        <ele>88</ele>
        <time>2021-08-01T08:07:51.000Z</time>
      </trkpt>
      <trkpt lat="47.05206" lon="-1.84544">
        <ele>88</ele>
        <time>2021-08-01T08:07:53.000Z</time>
      </trkpt>
      <trkpt lat="47.05196" lon="-1.84536">
        <ele>88</ele>
        <time>2021-08-01T08:07:55.000Z</time>
      </trkpt>
      <trkpt lat="47.05186" lon="-1.84524">
        <ele>88</ele>
        <time>2021-08-01T08:07:57.000Z</time>
      </trkpt>
      <trkpt lat="47.05176" lon="-1.8451">
        <ele>88</ele>
        <time>2021-08-01T08:07:59.000Z</time>
      </trkpt>
      <trkpt lat="47.05166" lon="-1.84496">
        <ele>88</ele>
        <time>2021-08-01T08:08:01.000Z</time>
      </trkpt>
      <trkpt lat="47.05157" lon="-1.84482">
        <ele>88</ele>
        <time>2021-08-01T08:08:03.000Z</time>
      </trkpt>
      <trkpt lat="47.05147" lon="-1.84467">
        <ele>88</ele>
        <time>2021-08-01T08:08:05.000Z</time>
      </trkpt>
      <trkpt lat="47.05138" lon="-1.84453">
        <ele>88</ele>
        <time>2021-08-01T08:08:07.000Z</time>
      </trkpt>
      <trkpt lat="47.05128" lon="-1.84439">
        <ele>88</ele>
        <time>2021-08-01T08:08:09.000Z</time>
      </trkpt>
      <trkpt lat="47.05119" lon="-1.84425">
        <ele>88</ele>
        <time>2021-08-01T08:08:11.000Z</time>
      </trkpt>
      <trkpt lat="47.05108" lon="-1.84412">
        <ele>88</ele>
        <time>2021-08-01T08:08:13.000Z</time>
      </trkpt>
      <trkpt lat="47.05097" lon="-1.84399">
        <ele>88</ele>
        <time>2021-08-01T08:08:15.000Z</time>
      </trkpt>
      <trkpt lat="47.05086" lon="-1.84387">
        <ele>88</ele>
        <time>2021-08-01T08:08:17.000Z</time>
      </trkpt>
      <trkpt lat="47.05075" lon="-1.84374">
        <ele>88</ele>
        <time>2021-08-01T08:08:19.000Z</time>
      </trkpt>
      <trkpt lat="47.05063" lon="-1.84361">
        <ele>88</ele>
        <time>2021-08-01T08:08:21.000Z</time>
      </trkpt>
      <trkpt lat="47.05052" lon="-1.84348">
        <ele>88</ele>
        <time>2021-08-01T08:08:23.000Z</time>
      </trkpt>
      <trkpt lat="47.05042" lon="-1.84336">
        <ele>88</ele>
        <time>2021-08-01T08:08:25.000Z</time>
      </trkpt>
      <trkpt lat="47.05031" lon="-1.84325">
        <ele>88</ele>
        <time>2021-08-01T08:08:27.000Z</time>
      </trkpt>
      <trkpt lat="47.05019" lon="-1.84314">
        <ele>88</ele>
        <time>2021-08-01T08:08:29.000Z</time>
      </trkpt>
      <trkpt lat="47.05007" lon="-1.84305">
        <ele>88</ele>
        <time>2021-08-01T08:08:31.000Z</time>
      </trkpt>
      <trkpt lat="47.04995" lon="-1.84296">
        <ele>88</ele>
        <time>2021-08-01T08:08:33.000Z</time>
      </trkpt>
      <trkpt lat="47.04983" lon="-1.84287">
        <ele>88</ele>
        <time>2021-08-01T08:08:35.000Z</time>
      </trkpt>
      <trkpt lat="47.04972" lon="-1.84277">
        <ele>88</ele>
        <time>2021-08-01T08:08:37.000Z</time>
      </trkpt>
      <trkpt lat="47.0496" lon="-1.84267">
        <ele>88</ele>
        <time>2021-08-01T08:08:39.000Z</time>
      </trkpt>
      <trkpt lat="47.04948" lon="-1.84256">
        <ele>87</ele>
        <time>2021-08-01T08:08:41.000Z</time>
      </trkpt>
      <trkpt lat="47.04937" lon="-1.84244">
        <ele>87</ele>
        <time>2021-08-01T08:08:43.000Z</time>
      </trkpt>
      <trkpt lat="47.04925" lon="-1.84233">
        <ele>87</ele>
        <time>2021-08-01T08:08:45.000Z</time>
      </trkpt>
      <trkpt lat="47.04914" lon="-1.84222">
        <ele>87</ele>
        <time>2021-08-01T08:08:47.000Z</time>
      </trkpt>
      <trkpt lat="47.04903" lon="-1.8421">
        <ele>87</ele>
        <time>2021-08-01T08:08:49.000Z</time>
      </trkpt>
      <trkpt lat="47.04891" lon="-1.84199">
        <ele>87</ele>
        <time>2021-08-01T08:08:51.000Z</time>
      </trkpt>
      <trkpt lat="47.0488" lon="-1.84186">
        <ele>86</ele>
        <time>2021-08-01T08:08:53.000Z</time>
      </trkpt>
      <trkpt lat="47.04868" lon="-1.84174">
        <ele>86</ele>
        <time>2021-08-01T08:08:55.000Z</time>
      </trkpt>
      <trkpt lat="47.04856" lon="-1.84162">
        <ele>86</ele>
        <time>2021-08-01T08:08:57.000Z</time>
      </trkpt>
      <trkpt lat="47.04845" lon="-1.8415">
        <ele>86</ele>
        <time>2021-08-01T08:08:59.000Z</time>
      </trkpt>
      <trkpt lat="47.04834" lon="-1.84137">
        <ele>86</ele>
        <time>2021-08-01T08:09:01.000Z</time>
      </trkpt>
      <trkpt lat="47.04823" lon="-1.84124">
        <ele>86</ele>
        <time>2021-08-01T08:09:03.000Z</time>
      </trkpt>
      <trkpt lat="47.04812" lon="-1.8411">
        <ele>86</ele>
        <time>2021-08-01T08:09:05.000Z</time>
      </trkpt>
      <trkpt lat="47.04802" lon="-1.84096">
        <ele>86</ele>
        <time>2021-08-01T08:09:07.000Z</time>
      </trkpt>
      <trkpt lat="47.04791" lon="-1.84083">
        <ele>86</ele>
        <time>2021-08-01T08:09:09.000Z</time>
      </trkpt>
      <trkpt lat="47.0478" lon="-1.84068">
        <ele>85</ele>
        <time>2021-08-01T08:09:11.000Z</time>
      </trkpt>
      <trkpt lat="47.0477" lon="-1.84054">
        <ele>85</ele>
        <time>2021-08-01T08:09:13.000Z</time>
      </trkpt>
      <trkpt lat="47.04759" lon="-1.8404">
        <ele>85</ele>
        <time>2021-08-01T08:09:15.000Z</time>
      </trkpt>
      <trkpt lat="47.04748" lon="-1.84026">
        <ele>85</ele>
        <time>2021-08-01T08:09:17.000Z</time>
      </trkpt>
      <trkpt lat="47.04737" lon="-1.84013">
        <ele>85</ele>
        <time>2021-08-01T08:09:19.000Z</time>
      </trkpt>
      <trkpt lat="47.04726" lon="-1.83999">
        <ele>85</ele>
        <time>2021-08-01T08:09:21.000Z</time>
      </trkpt>
      <trkpt lat="47.04715" lon="-1.83986">
        <ele>84</ele>
        <time>2021-08-01T08:09:23.000Z</time>
      </trkpt>
      <trkpt lat="47.04703" lon="-1.83973">
        <ele>84</ele>
        <time>2021-08-01T08:09:25.000Z</time>
      </trkpt>
      <trkpt lat="47.04692" lon="-1.8396">
        <ele>84</ele>
        <time>2021-08-01T08:09:27.000Z</time>
      </trkpt>
      <trkpt lat="47.04681" lon="-1.83947">
        <ele>84</ele>
        <time>2021-08-01T08:09:29.000Z</time>
      </trkpt>
      <trkpt lat="47.0467" lon="-1.83933">
        <ele>84</ele>
        <time>2021-08-01T08:09:31.000Z</time>
      </trkpt>
      <trkpt lat="47.04659" lon="-1.83919">
        <ele>83</ele>
        <time>2021-08-01T08:09:33.000Z</time>
      </trkpt>
      <trkpt lat="47.04649" lon="-1.83904">
        <ele>83</ele>
        <time>2021-08-01T08:09:35.000Z</time>
      </trkpt>
      <trkpt lat="47.04638" lon="-1.83889">
        <ele>83</ele>
        <time>2021-08-01T08:09:37.000Z</time>
      </trkpt>
      <trkpt lat="47.04628" lon="-1.83874">
        <ele>83</ele>
        <time>2021-08-01T08:09:39.000Z</time>
      </trkpt>
      <trkpt lat="47.04618" lon="-1.8386">
        <ele>83</ele>
        <time>2021-08-01T08:09:41.000Z</time>
      </trkpt>
      <trkpt lat="47.04607" lon="-1.83847">
        <ele>83</ele>
        <time>2021-08-01T08:09:43.000Z</time>
      </trkpt>
      <trkpt lat="47.04596" lon="-1.83835">
        <ele>83</ele>
        <time>2021-08-01T08:09:45.000Z</time>
      </trkpt>
      <trkpt lat="47.04584" lon="-1.83825">
        <ele>83</ele>
        <time>2021-08-01T08:09:47.000Z</time>
      </trkpt>
      <trkpt lat="47.04572" lon="-1.83816">
        <ele>84</ele>
        <time>2021-08-01T08:09:49.000Z</time>
      </trkpt>
      <trkpt lat="47.04559" lon="-1.83807">
        <ele>84</ele>
        <time>2021-08-01T08:09:51.000Z</time>
      </trkpt>
      <trkpt lat="47.04546" lon="-1.83799">
        <ele>84</ele>
        <time>2021-08-01T08:09:53.000Z</time>
      </trkpt>
      <trkpt lat="47.04533" lon="-1.8379">
        <ele>84</ele>
        <time>2021-08-01T08:09:55.000Z</time>
      </trkpt>
      <trkpt lat="47.04521" lon="-1.83781">
        <ele>84</ele>
        <time>2021-08-01T08:09:57.000Z</time>
      </trkpt>
      <trkpt lat="47.04508" lon="-1.83773">
        <ele>84</ele>
        <time>2021-08-01T08:09:59.000Z</time>
      </trkpt>
      <trkpt lat="47.04495" lon="-1.83763">
        <ele>84</ele>
        <time>2021-08-01T08:10:01.000Z</time>
      </trkpt>
      <trkpt lat="47.04483" lon="-1.83753">
        <ele>84</ele>
        <time>2021-08-01T08:10:03.000Z</time>
      </trkpt>
      <trkpt lat="47.04471" lon="-1.83743">
        <ele>85</ele>
        <time>2021-08-01T08:10:05.000Z</time>
      </trkpt>
      <trkpt lat="47.04459" lon="-1.83733">
        <ele>84</ele>
        <time>2021-08-01T08:10:07.000Z</time>
      </trkpt>
      <trkpt lat="47.04447" lon="-1.83723">
        <ele>85</ele>
        <time>2021-08-01T08:10:09.000Z</time>
      </trkpt>
      <trkpt lat="47.04435" lon="-1.83713">
        <ele>85</ele>
        <time>2021-08-01T08:10:11.000Z</time>
      </trkpt>
      <trkpt lat="47.04423" lon="-1.83702">
        <ele>85</ele>
        <time>2021-08-01T08:10:13.000Z</time>
      </trkpt>
      <trkpt lat="47.0441" lon="-1.83693">
        <ele>85</ele>
        <time>2021-08-01T08:10:15.000Z</time>
      </trkpt>
      <trkpt lat="47.04397" lon="-1.83685">
        <ele>85</ele>
        <time>2021-08-01T08:10:17.000Z</time>
      </trkpt>
      <trkpt lat="47.04383" lon="-1.83677">
        <ele>84</ele>
        <time>2021-08-01T08:10:19.000Z</time>
      </trkpt>
      <trkpt lat="47.0437" lon="-1.8367">
        <ele>84</ele>
        <time>2021-08-01T08:10:21.000Z</time>
      </trkpt>
      <trkpt lat="47.04355" lon="-1.83667">
        <ele>84</ele>
        <time>2021-08-01T08:10:23.000Z</time>
      </trkpt>
      <trkpt lat="47.04341" lon="-1.83664">
        <ele>83</ele>
        <time>2021-08-01T08:10:25.000Z</time>
      </trkpt>
      <trkpt lat="47.04327" lon="-1.83661">
        <ele>83</ele>
        <time>2021-08-01T08:10:27.000Z</time>
      </trkpt>
      <trkpt lat="47.04313" lon="-1.83657">
        <ele>83</ele>
        <time>2021-08-01T08:10:29.000Z</time>
      </trkpt>
      <trkpt lat="47.04299" lon="-1.83654">
        <ele>83</ele>
        <time>2021-08-01T08:10:31.000Z</time>
      </trkpt>
      <trkpt lat="47.04284" lon="-1.8365">
        <ele>83</ele>
        <time>2021-08-01T08:10:33.000Z</time>
      </trkpt>
      <trkpt lat="47.04271" lon="-1.83647">
        <ele>82</ele>
        <time>2021-08-01T08:10:35.000Z</time>
      </trkpt>
      <trkpt lat="47.04257" lon="-1.83644">
        <ele>82</ele>
        <time>2021-08-01T08:10:37.000Z</time>
      </trkpt>
      <trkpt lat="47.04243" lon="-1.8364">
        <ele>82</ele>
        <time>2021-08-01T08:10:39.000Z</time>
      </trkpt>
      <trkpt lat="47.0423" lon="-1.83635">
        <ele>81</ele>
        <time>2021-08-01T08:10:41.000Z</time>
      </trkpt>
      <trkpt lat="47.04217" lon="-1.83625">
        <ele>81</ele>
        <time>2021-08-01T08:10:43.000Z</time>
      </trkpt>
      <trkpt lat="47.04205" lon="-1.83617">
        <ele>81</ele>
        <time>2021-08-01T08:10:45.000Z</time>
      </trkpt>
      <trkpt lat="47.04192" lon="-1.83616">
        <ele>81</ele>
        <time>2021-08-01T08:10:47.000Z</time>
      </trkpt>
      <trkpt lat="47.04179" lon="-1.83615">
        <ele>81</ele>
        <time>2021-08-01T08:10:49.000Z</time>
      </trkpt>
      <trkpt lat="47.04167" lon="-1.8361">
        <ele>81</ele>
        <time>2021-08-01T08:10:51.000Z</time>
      </trkpt>
      <trkpt lat="47.04154" lon="-1.83603">
        <ele>82</ele>
        <time>2021-08-01T08:10:53.000Z</time>
      </trkpt>
      <trkpt lat="47.04142" lon="-1.83597">
        <ele>82</ele>
        <time>2021-08-01T08:10:55.000Z</time>
      </trkpt>
      <trkpt lat="47.04129" lon="-1.83591">
        <ele>82</ele>
        <time>2021-08-01T08:10:57.000Z</time>
      </trkpt>
      <trkpt lat="47.04116" lon="-1.83585">
        <ele>82</ele>
        <time>2021-08-01T08:10:59.000Z</time>
      </trkpt>
      <trkpt lat="47.04103" lon="-1.8358">
        <ele>83</ele>
        <time>2021-08-01T08:11:01.000Z</time>
      </trkpt>
      <trkpt lat="47.0409" lon="-1.83576">
        <ele>83</ele>
        <time>2021-08-01T08:11:03.000Z</time>
      </trkpt>
      <trkpt lat="47.04076" lon="-1.83572">
        <ele>83</ele>
        <time>2021-08-01T08:11:05.000Z</time>
      </trkpt>
      <trkpt lat="47.04062" lon="-1.83569">
        <ele>83</ele>
        <time>2021-08-01T08:11:07.000Z</time>
      </trkpt>
      <trkpt lat="47.04048" lon="-1.83568">
        <ele>83</ele>
        <time>2021-08-01T08:11:09.000Z</time>
      </trkpt>
      <trkpt lat="47.04034" lon="-1.83566">
        <ele>84</ele>
        <time>2021-08-01T08:11:11.000Z</time>
      </trkpt>
      <trkpt lat="47.0402" lon="-1.83564">
        <ele>84</ele>
        <time>2021-08-01T08:11:13.000Z</time>
      </trkpt>
      <trkpt lat="47.04007" lon="-1.83562">
        <ele>84</ele>
        <time>2021-08-01T08:11:15.000Z</time>
      </trkpt>
      <trkpt lat="47.03993" lon="-1.8356">
        <ele>83</ele>
        <time>2021-08-01T08:11:17.000Z</time>
      </trkpt>
      <trkpt lat="47.0398" lon="-1.83558">
        <ele>83</ele>
        <time>2021-08-01T08:11:19.000Z</time>
      </trkpt>
      <trkpt lat="47.03966" lon="-1.83556">
        <ele>83</ele>
        <time>2021-08-01T08:11:21.000Z</time>
      </trkpt>
      <trkpt lat="47.03952" lon="-1.83555">
        <ele>83</ele>
        <time>2021-08-01T08:11:23.000Z</time>
      </trkpt>
      <trkpt lat="47.03939" lon="-1.83553">
        <ele>83</ele>
        <time>2021-08-01T08:11:25.000Z</time>
      </trkpt>
      <trkpt lat="47.03925" lon="-1.83552">
        <ele>83</ele>
        <time>2021-08-01T08:11:27.000Z</time>
      </trkpt>
      <trkpt lat="47.03912" lon="-1.8355">
        <ele>83</ele>
        <time>2021-08-01T08:11:29.000Z</time>
      </trkpt>
      <trkpt lat="47.03898" lon="-1.83548">
        <ele>83</ele>
        <time>2021-08-01T08:11:31.000Z</time>
      </trkpt>
      <trkpt lat="47.03885" lon="-1.83546">
        <ele>83</ele>
        <time>2021-08-01T08:11:33.000Z</time>
      </trkpt>
      <trkpt lat="47.03871" lon="-1.83544">
        <ele>83</ele>
        <time>2021-08-01T08:11:35.000Z</time>
      </trkpt>
      <trkpt lat="47.03857" lon="-1.83542">
        <ele>83</ele>
        <time>2021-08-01T08:11:37.000Z</time>
      </trkpt>
      <trkpt lat="47.03843" lon="-1.83541">
        <ele>82</ele>
        <time>2021-08-01T08:11:39.000Z</time>
      </trkpt>
      <trkpt lat="47.0383" lon="-1.83539">
        <ele>83</ele>
        <time>2021-08-01T08:11:41.000Z</time>
      </trkpt>
      <trkpt lat="47.03816" lon="-1.83538">
        <ele>83</ele>
        <time>2021-08-01T08:11:43.000Z</time>
      </trkpt>
      <trkpt lat="47.03802" lon="-1.83536">
        <ele>83</ele>
        <time>2021-08-01T08:11:45.000Z</time>
      </trkpt>
      <trkpt lat="47.03788" lon="-1.83535">
        <ele>82</ele>
        <time>2021-08-01T08:11:47.000Z</time>
      </trkpt>
      <trkpt lat="47.03774" lon="-1.83535">
        <ele>82</ele>
        <time>2021-08-01T08:11:49.000Z</time>
      </trkpt>
      <trkpt lat="47.03759" lon="-1.83536">
        <ele>83</ele>
        <time>2021-08-01T08:11:51.000Z</time>
      </trkpt>
      <trkpt lat="47.03746" lon="-1.83536">
        <ele>82</ele>
        <time>2021-08-01T08:11:53.000Z</time>
      </trkpt>
      <trkpt lat="47.03732" lon="-1.83536">
        <ele>82</ele>
        <time>2021-08-01T08:11:55.000Z</time>
      </trkpt>
      <trkpt lat="47.03717" lon="-1.83537">
        <ele>82</ele>
        <time>2021-08-01T08:11:57.000Z</time>
      </trkpt>
      <trkpt lat="47.03703" lon="-1.83537">
        <ele>82</ele>
        <time>2021-08-01T08:11:59.000Z</time>
      </trkpt>
      <trkpt lat="47.0369" lon="-1.83537">
        <ele>82</ele>
        <time>2021-08-01T08:12:01.000Z</time>
      </trkpt>
      <trkpt lat="47.03675" lon="-1.83538">
        <ele>82</ele>
        <time>2021-08-01T08:12:03.000Z</time>
      </trkpt>
      <trkpt lat="47.03661" lon="-1.83538">
        <ele>81</ele>
        <time>2021-08-01T08:12:05.000Z</time>
      </trkpt>
      <trkpt lat="47.03647" lon="-1.83538">
        <ele>81</ele>
        <time>2021-08-01T08:12:07.000Z</time>
      </trkpt>
      <trkpt lat="47.03633" lon="-1.83538">
        <ele>81</ele>
        <time>2021-08-01T08:12:09.000Z</time>
      </trkpt>
      <trkpt lat="47.03619" lon="-1.83538">
        <ele>81</ele>
        <time>2021-08-01T08:12:11.000Z</time>
      </trkpt>
      <trkpt lat="47.03605" lon="-1.83538">
        <ele>81</ele>
        <time>2021-08-01T08:12:13.000Z</time>
      </trkpt>
      <trkpt lat="47.03591" lon="-1.83539">
        <ele>81</ele>
        <time>2021-08-01T08:12:15.000Z</time>
      </trkpt>
      <trkpt lat="47.03577" lon="-1.83539">
        <ele>81</ele>
        <time>2021-08-01T08:12:17.000Z</time>
      </trkpt>
      <trkpt lat="47.03563" lon="-1.83539">
        <ele>81</ele>
        <time>2021-08-01T08:12:19.000Z</time>
      </trkpt>
      <trkpt lat="47.03549" lon="-1.8354">
        <ele>80</ele>
        <time>2021-08-01T08:12:21.000Z</time>
      </trkpt>
      <trkpt lat="47.03535" lon="-1.8354">
        <ele>81</ele>
        <time>2021-08-01T08:12:23.000Z</time>
      </trkpt>
      <trkpt lat="47.03521" lon="-1.83539">
        <ele>80</ele>
        <time>2021-08-01T08:12:25.000Z</time>
      </trkpt>
      <trkpt lat="47.03507" lon="-1.83537">
        <ele>80</ele>
        <time>2021-08-01T08:12:27.000Z</time>
      </trkpt>
      <trkpt lat="47.03492" lon="-1.83535">
        <ele>80</ele>
        <time>2021-08-01T08:12:29.000Z</time>
      </trkpt>
      <trkpt lat="47.03478" lon="-1.83532">
        <ele>80</ele>
        <time>2021-08-01T08:12:31.000Z</time>
      </trkpt>
      <trkpt lat="47.03463" lon="-1.8353">
        <ele>80</ele>
        <time>2021-08-01T08:12:33.000Z</time>
      </trkpt>
      <trkpt lat="47.03449" lon="-1.83525">
        <ele>80</ele>
        <time>2021-08-01T08:12:35.000Z</time>
      </trkpt>
      <trkpt lat="47.03434" lon="-1.83521">
        <ele>79</ele>
        <time>2021-08-01T08:12:37.000Z</time>
      </trkpt>
      <trkpt lat="47.0342" lon="-1.83517">
        <ele>79</ele>
        <time>2021-08-01T08:12:39.000Z</time>
      </trkpt>
      <trkpt lat="47.03405" lon="-1.83513">
        <ele>79</ele>
        <time>2021-08-01T08:12:41.000Z</time>
      </trkpt>
      <trkpt lat="47.03391" lon="-1.83509">
        <ele>79</ele>
        <time>2021-08-01T08:12:43.000Z</time>
      </trkpt>
      <trkpt lat="47.03377" lon="-1.83505">
        <ele>78</ele>
        <time>2021-08-01T08:12:45.000Z</time>
      </trkpt>
      <trkpt lat="47.03363" lon="-1.83501">
        <ele>78</ele>
        <time>2021-08-01T08:12:47.000Z</time>
      </trkpt>
      <trkpt lat="47.03349" lon="-1.83497">
        <ele>78</ele>
        <time>2021-08-01T08:12:49.000Z</time>
      </trkpt>
      <trkpt lat="47.03334" lon="-1.83493">
        <ele>78</ele>
        <time>2021-08-01T08:12:51.000Z</time>
      </trkpt>
      <trkpt lat="47.03321" lon="-1.83489">
        <ele>78</ele>
        <time>2021-08-01T08:12:53.000Z</time>
      </trkpt>
      <trkpt lat="47.03306" lon="-1.83485">
        <ele>78</ele>
        <time>2021-08-01T08:12:55.000Z</time>
      </trkpt>
      <trkpt lat="47.03293" lon="-1.83482">
        <ele>78</ele>
        <time>2021-08-01T08:12:57.000Z</time>
      </trkpt>
      <trkpt lat="47.03279" lon="-1.83478">
        <ele>78</ele>
        <time>2021-08-01T08:12:59.000Z</time>
      </trkpt>
      <trkpt lat="47.03265" lon="-1.83474">
        <ele>78</ele>
        <time>2021-08-01T08:13:01.000Z</time>
      </trkpt>
      <trkpt lat="47.03251" lon="-1.8347">
        <ele>78</ele>
        <time>2021-08-01T08:13:03.000Z</time>
      </trkpt>
      <trkpt lat="47.03237" lon="-1.83466">
        <ele>79</ele>
        <time>2021-08-01T08:13:05.000Z</time>
      </trkpt>
      <trkpt lat="47.03223" lon="-1.83461">
        <ele>79</ele>
        <time>2021-08-01T08:13:07.000Z</time>
      </trkpt>
      <trkpt lat="47.0321" lon="-1.83458">
        <ele>78</ele>
        <time>2021-08-01T08:13:09.000Z</time>
      </trkpt>
      <trkpt lat="47.03197" lon="-1.83454">
        <ele>78</ele>
        <time>2021-08-01T08:13:11.000Z</time>
      </trkpt>
      <trkpt lat="47.03186" lon="-1.83451">
        <ele>78</ele>
        <time>2021-08-01T08:13:13.000Z</time>
      </trkpt>
      <trkpt lat="47.03174" lon="-1.83449">
        <ele>78</ele>
        <time>2021-08-01T08:13:15.000Z</time>
      </trkpt>
      <trkpt lat="47.03166" lon="-1.83441">
        <ele>79</ele>
        <time>2021-08-01T08:13:17.000Z</time>
      </trkpt>
      <trkpt lat="47.03165" lon="-1.83425">
        <ele>78</ele>
        <time>2021-08-01T08:13:19.000Z</time>
      </trkpt>
      <trkpt lat="47.03165" lon="-1.83407">
        <ele>77</ele>
        <time>2021-08-01T08:13:21.000Z</time>
      </trkpt>
      <trkpt lat="47.03163" lon="-1.83387">
        <ele>77</ele>
        <time>2021-08-01T08:13:23.000Z</time>
      </trkpt>
      <trkpt lat="47.0316" lon="-1.83367">
        <ele>76</ele>
        <time>2021-08-01T08:13:25.000Z</time>
      </trkpt>
      <trkpt lat="47.03155" lon="-1.83347">
        <ele>76</ele>
        <time>2021-08-01T08:13:27.000Z</time>
      </trkpt>
      <trkpt lat="47.0315" lon="-1.83327">
        <ele>76</ele>
        <time>2021-08-01T08:13:29.000Z</time>
      </trkpt>
      <trkpt lat="47.03144" lon="-1.83308">
        <ele>75</ele>
        <time>2021-08-01T08:13:31.000Z</time>
      </trkpt>
      <trkpt lat="47.03138" lon="-1.83288">
        <ele>75</ele>
        <time>2021-08-01T08:13:33.000Z</time>
      </trkpt>
      <trkpt lat="47.03131" lon="-1.83268">
        <ele>75</ele>
        <time>2021-08-01T08:13:35.000Z</time>
      </trkpt>
      <trkpt lat="47.03125" lon="-1.83249">
        <ele>74</ele>
        <time>2021-08-01T08:13:37.000Z</time>
      </trkpt>
      <trkpt lat="47.03118" lon="-1.8323">
        <ele>74</ele>
        <time>2021-08-01T08:13:39.000Z</time>
      </trkpt>
      <trkpt lat="47.03112" lon="-1.83209">
        <ele>74</ele>
        <time>2021-08-01T08:13:41.000Z</time>
      </trkpt>
      <trkpt lat="47.03106" lon="-1.83189">
        <ele>74</ele>
        <time>2021-08-01T08:13:43.000Z</time>
      </trkpt>
      <trkpt lat="47.031" lon="-1.8317">
        <ele>74</ele>
        <time>2021-08-01T08:13:45.000Z</time>
      </trkpt>
      <trkpt lat="47.03094" lon="-1.8315">
        <ele>73</ele>
        <time>2021-08-01T08:13:47.000Z</time>
      </trkpt>
      <trkpt lat="47.03088" lon="-1.83131">
        <ele>73</ele>
        <time>2021-08-01T08:13:49.000Z</time>
      </trkpt>
      <trkpt lat="47.03081" lon="-1.83112">
        <ele>72</ele>
        <time>2021-08-01T08:13:51.000Z</time>
      </trkpt>
      <trkpt lat="47.03073" lon="-1.83093">
        <ele>72</ele>
        <time>2021-08-01T08:13:53.000Z</time>
      </trkpt>
      <trkpt lat="47.03065" lon="-1.83074">
        <ele>72</ele>
        <time>2021-08-01T08:13:55.000Z</time>
      </trkpt>
      <trkpt lat="47.03057" lon="-1.83056">
        <ele>72</ele>
        <time>2021-08-01T08:13:57.000Z</time>
      </trkpt>
      <trkpt lat="47.03048" lon="-1.83039">
        <ele>71</ele>
        <time>2021-08-01T08:13:59.000Z</time>
      </trkpt>
      <trkpt lat="47.03039" lon="-1.83021">
        <ele>71</ele>
        <time>2021-08-01T08:14:01.000Z</time>
      </trkpt>
      <trkpt lat="47.0303" lon="-1.83004">
        <ele>71</ele>
        <time>2021-08-01T08:14:03.000Z</time>
      </trkpt>
      <trkpt lat="47.0302" lon="-1.82987">
        <ele>71</ele>
        <time>2021-08-01T08:14:05.000Z</time>
      </trkpt>
      <trkpt lat="47.03011" lon="-1.8297">
        <ele>70</ele>
        <time>2021-08-01T08:14:07.000Z</time>
      </trkpt>
      <trkpt lat="47.03003" lon="-1.82953">
        <ele>70</ele>
        <time>2021-08-01T08:14:09.000Z</time>
      </trkpt>
      <trkpt lat="47.02994" lon="-1.82936">
        <ele>70</ele>
        <time>2021-08-01T08:14:11.000Z</time>
      </trkpt>
      <trkpt lat="47.02986" lon="-1.82919">
        <ele>70</ele>
        <time>2021-08-01T08:14:13.000Z</time>
      </trkpt>
      <trkpt lat="47.02979" lon="-1.82902">
        <ele>70</ele>
        <time>2021-08-01T08:14:15.000Z</time>
      </trkpt>
      <trkpt lat="47.02971" lon="-1.82884">
        <ele>70</ele>
        <time>2021-08-01T08:14:17.000Z</time>
      </trkpt>
      <trkpt lat="47.02963" lon="-1.82866">
        <ele>70</ele>
        <time>2021-08-01T08:14:19.000Z</time>
      </trkpt>
      <trkpt lat="47.02956" lon="-1.82848">
        <ele>70</ele>
        <time>2021-08-01T08:14:21.000Z</time>
      </trkpt>
      <trkpt lat="47.02948" lon="-1.8283">
        <ele>70</ele>
        <time>2021-08-01T08:14:23.000Z</time>
      </trkpt>
      <trkpt lat="47.0294" lon="-1.82812">
        <ele>70</ele>
        <time>2021-08-01T08:14:25.000Z</time>
      </trkpt>
      <trkpt lat="47.02933" lon="-1.82793">
        <ele>70</ele>
        <time>2021-08-01T08:14:27.000Z</time>
      </trkpt>
      <trkpt lat="47.02925" lon="-1.82775">
        <ele>70</ele>
        <time>2021-08-01T08:14:29.000Z</time>
      </trkpt>
      <trkpt lat="47.02918" lon="-1.82757">
        <ele>70</ele>
        <time>2021-08-01T08:14:31.000Z</time>
      </trkpt>
      <trkpt lat="47.02911" lon="-1.8274">
        <ele>70</ele>
        <time>2021-08-01T08:14:33.000Z</time>
      </trkpt>
      <trkpt lat="47.02904" lon="-1.82722">
        <ele>70</ele>
        <time>2021-08-01T08:14:35.000Z</time>
      </trkpt>
      <trkpt lat="47.02898" lon="-1.82705">
        <ele>70</ele>
        <time>2021-08-01T08:14:37.000Z</time>
      </trkpt>
      <trkpt lat="47.02891" lon="-1.82688">
        <ele>69</ele>
        <time>2021-08-01T08:14:39.000Z</time>
      </trkpt>
      <trkpt lat="47.02884" lon="-1.8267">
        <ele>69</ele>
        <time>2021-08-01T08:14:41.000Z</time>
      </trkpt>
      <trkpt lat="47.02876" lon="-1.82653">
        <ele>69</ele>
        <time>2021-08-01T08:14:43.000Z</time>
      </trkpt>
      <trkpt lat="47.02869" lon="-1.82636">
        <ele>69</ele>
        <time>2021-08-01T08:14:45.000Z</time>
      </trkpt>
      <trkpt lat="47.02862" lon="-1.8262">
        <ele>70</ele>
        <time>2021-08-01T08:14:47.000Z</time>
      </trkpt>
      <trkpt lat="47.02854" lon="-1.82604">
        <ele>70</ele>
        <time>2021-08-01T08:14:49.000Z</time>
      </trkpt>
      <trkpt lat="47.02846" lon="-1.82588">
        <ele>70</ele>
        <time>2021-08-01T08:14:51.000Z</time>
      </trkpt>
      <trkpt lat="47.02838" lon="-1.82574">
        <ele>70</ele>
        <time>2021-08-01T08:14:53.000Z</time>
      </trkpt>
      <trkpt lat="47.02831" lon="-1.8256">
        <ele>70</ele>
        <time>2021-08-01T08:14:55.000Z</time>
      </trkpt>
      <trkpt lat="47.02823" lon="-1.82545">
        <ele>70</ele>
        <time>2021-08-01T08:14:57.000Z</time>
      </trkpt>
      <trkpt lat="47.02814" lon="-1.82532">
        <ele>71</ele>
        <time>2021-08-01T08:14:59.000Z</time>
      </trkpt>
      <trkpt lat="47.02806" lon="-1.82519">
        <ele>71</ele>
        <time>2021-08-01T08:15:01.000Z</time>
      </trkpt>
      <trkpt lat="47.02798" lon="-1.82506">
        <ele>72</ele>
        <time>2021-08-01T08:15:03.000Z</time>
      </trkpt>
      <trkpt lat="47.0279" lon="-1.82494">
        <ele>72</ele>
        <time>2021-08-01T08:15:05.000Z</time>
      </trkpt>
      <trkpt lat="47.02783" lon="-1.82482">
        <ele>73</ele>
        <time>2021-08-01T08:15:07.000Z</time>
      </trkpt>
      <trkpt lat="47.02775" lon="-1.8247">
        <ele>73</ele>
        <time>2021-08-01T08:15:09.000Z</time>
      </trkpt>
      <trkpt lat="47.02766" lon="-1.82457">
        <ele>74</ele>
        <time>2021-08-01T08:15:11.000Z</time>
      </trkpt>
      <trkpt lat="47.02757" lon="-1.82443">
        <ele>74</ele>
        <time>2021-08-01T08:15:13.000Z</time>
      </trkpt>
      <trkpt lat="47.0275" lon="-1.82431">
        <ele>74</ele>
        <time>2021-08-01T08:15:15.000Z</time>
      </trkpt>
      <trkpt lat="47.02741" lon="-1.82428">
        <ele>74</ele>
        <time>2021-08-01T08:15:19.000Z</time>
      </trkpt>
      <trkpt lat="47.02739" lon="-1.82412">
        <ele>75</ele>
        <time>2021-08-01T08:17:44.000Z</time>
      </trkpt>
      <trkpt lat="47.02728" lon="-1.82399">
        <ele>76</ele>
        <time>2021-08-01T08:17:47.000Z</time>
      </trkpt>
      <trkpt lat="47.02722" lon="-1.82389">
        <ele>76</ele>
        <time>2021-08-01T08:17:49.000Z</time>
      </trkpt>
      <trkpt lat="47.02714" lon="-1.82377">
        <ele>77</ele>
        <time>2021-08-01T08:17:51.000Z</time>
      </trkpt>
      <trkpt lat="47.02706" lon="-1.82365">
        <ele>78</ele>
        <time>2021-08-01T08:17:53.000Z</time>
      </trkpt>
      <trkpt lat="47.02698" lon="-1.82353">
        <ele>78</ele>
        <time>2021-08-01T08:17:55.000Z</time>
      </trkpt>
      <trkpt lat="47.02691" lon="-1.82341">
        <ele>78</ele>
        <time>2021-08-01T08:17:57.000Z</time>
      </trkpt>
      <trkpt lat="47.02682" lon="-1.82328">
        <ele>78</ele>
        <time>2021-08-01T08:17:59.000Z</time>
      </trkpt>
      <trkpt lat="47.02674" lon="-1.82315">
        <ele>78</ele>
        <time>2021-08-01T08:18:01.000Z</time>
      </trkpt>
      <trkpt lat="47.02666" lon="-1.82303">
        <ele>77</ele>
        <time>2021-08-01T08:18:03.000Z</time>
      </trkpt>
      <trkpt lat="47.02658" lon="-1.8229">
        <ele>78</ele>
        <time>2021-08-01T08:18:05.000Z</time>
      </trkpt>
      <trkpt lat="47.02649" lon="-1.82277">
        <ele>78</ele>
        <time>2021-08-01T08:18:07.000Z</time>
      </trkpt>
      <trkpt lat="47.02642" lon="-1.82262">
        <ele>78</ele>
        <time>2021-08-01T08:18:09.000Z</time>
      </trkpt>
      <trkpt lat="47.02635" lon="-1.82246">
        <ele>78</ele>
        <time>2021-08-01T08:18:11.000Z</time>
      </trkpt>
      <trkpt lat="47.0263" lon="-1.82231">
        <ele>78</ele>
        <time>2021-08-01T08:18:13.000Z</time>
      </trkpt>
      <trkpt lat="47.02625" lon="-1.82215">
        <ele>78</ele>
        <time>2021-08-01T08:18:15.000Z</time>
      </trkpt>
      <trkpt lat="47.02619" lon="-1.822">
        <ele>78</ele>
        <time>2021-08-01T08:18:17.000Z</time>
      </trkpt>
      <trkpt lat="47.02613" lon="-1.82184">
        <ele>78</ele>
        <time>2021-08-01T08:18:19.000Z</time>
      </trkpt>
      <trkpt lat="47.02608" lon="-1.82167">
        <ele>78</ele>
        <time>2021-08-01T08:18:21.000Z</time>
      </trkpt>
      <trkpt lat="47.02603" lon="-1.82151">
        <ele>78</ele>
        <time>2021-08-01T08:18:23.000Z</time>
      </trkpt>
      <trkpt lat="47.02598" lon="-1.82135">
        <ele>77</ele>
        <time>2021-08-01T08:18:25.000Z</time>
      </trkpt>
      <trkpt lat="47.02593" lon="-1.8212">
        <ele>77</ele>
        <time>2021-08-01T08:18:27.000Z</time>
      </trkpt>
      <trkpt lat="47.02588" lon="-1.82105">
        <ele>77</ele>
        <time>2021-08-01T08:18:29.000Z</time>
      </trkpt>
      <trkpt lat="47.02583" lon="-1.82091">
        <ele>77</ele>
        <time>2021-08-01T08:18:31.000Z</time>
      </trkpt>
      <trkpt lat="47.02577" lon="-1.82073">
        <ele>77</ele>
        <time>2021-08-01T08:18:34.000Z</time>
      </trkpt>
      <trkpt lat="47.02572" lon="-1.82059">
        <ele>76</ele>
        <time>2021-08-01T08:18:36.000Z</time>
      </trkpt>
      <trkpt lat="47.02567" lon="-1.82043">
        <ele>76</ele>
        <time>2021-08-01T08:18:38.000Z</time>
      </trkpt>
      <trkpt lat="47.02561" lon="-1.82025">
        <ele>76</ele>
        <time>2021-08-01T08:18:40.000Z</time>
      </trkpt>
      <trkpt lat="47.02555" lon="-1.82007">
        <ele>75</ele>
        <time>2021-08-01T08:18:42.000Z</time>
      </trkpt>
      <trkpt lat="47.02549" lon="-1.8199">
        <ele>75</ele>
        <time>2021-08-01T08:18:44.000Z</time>
      </trkpt>
      <trkpt lat="47.02543" lon="-1.81972">
        <ele>75</ele>
        <time>2021-08-01T08:18:46.000Z</time>
      </trkpt>
      <trkpt lat="47.02536" lon="-1.81953">
        <ele>74</ele>
        <time>2021-08-01T08:18:48.000Z</time>
      </trkpt>
      <trkpt lat="47.02529" lon="-1.81935">
        <ele>74</ele>
        <time>2021-08-01T08:18:50.000Z</time>
      </trkpt>
      <trkpt lat="47.02523" lon="-1.81916">
        <ele>74</ele>
        <time>2021-08-01T08:18:52.000Z</time>
      </trkpt>
      <trkpt lat="47.02517" lon="-1.81897">
        <ele>73</ele>
        <time>2021-08-01T08:18:54.000Z</time>
      </trkpt>
      <trkpt lat="47.02511" lon="-1.81877">
        <ele>73</ele>
        <time>2021-08-01T08:18:56.000Z</time>
      </trkpt>
      <trkpt lat="47.02504" lon="-1.81858">
        <ele>73</ele>
        <time>2021-08-01T08:18:58.000Z</time>
      </trkpt>
      <trkpt lat="47.02497" lon="-1.81838">
        <ele>72</ele>
        <time>2021-08-01T08:19:00.000Z</time>
      </trkpt>
      <trkpt lat="47.02491" lon="-1.81819">
        <ele>72</ele>
        <time>2021-08-01T08:19:02.000Z</time>
      </trkpt>
      <trkpt lat="47.02484" lon="-1.81799">
        <ele>72</ele>
        <time>2021-08-01T08:19:04.000Z</time>
      </trkpt>
      <trkpt lat="47.02477" lon="-1.81779">
        <ele>73</ele>
        <time>2021-08-01T08:19:06.000Z</time>
      </trkpt>
      <trkpt lat="47.02471" lon="-1.81759">
        <ele>72</ele>
        <time>2021-08-01T08:19:08.000Z</time>
      </trkpt>
      <trkpt lat="47.02463" lon="-1.8174">
        <ele>73</ele>
        <time>2021-08-01T08:19:10.000Z</time>
      </trkpt>
      <trkpt lat="47.02457" lon="-1.81721">
        <ele>73</ele>
        <time>2021-08-01T08:19:12.000Z</time>
      </trkpt>
      <trkpt lat="47.0245" lon="-1.81701">
        <ele>73</ele>
        <time>2021-08-01T08:19:14.000Z</time>
      </trkpt>
      <trkpt lat="47.02444" lon="-1.81681">
        <ele>72</ele>
        <time>2021-08-01T08:19:16.000Z</time>
      </trkpt>
      <trkpt lat="47.02437" lon="-1.81662">
        <ele>73</ele>
        <time>2021-08-01T08:19:18.000Z</time>
      </trkpt>
      <trkpt lat="47.02431" lon="-1.81644">
        <ele>73</ele>
        <time>2021-08-01T08:19:20.000Z</time>
      </trkpt>
      <trkpt lat="47.02422" lon="-1.81617">
        <ele>73</ele>
        <time>2021-08-01T08:19:23.000Z</time>
      </trkpt>
      <trkpt lat="47.02416" lon="-1.81599">
        <ele>74</ele>
        <time>2021-08-01T08:19:25.000Z</time>
      </trkpt>
      <trkpt lat="47.02409" lon="-1.81582">
        <ele>74</ele>
        <time>2021-08-01T08:19:27.000Z</time>
      </trkpt>
      <trkpt lat="47.02403" lon="-1.81564">
        <ele>74</ele>
        <time>2021-08-01T08:19:29.000Z</time>
      </trkpt>
      <trkpt lat="47.02395" lon="-1.81536">
        <ele>74</ele>
        <time>2021-08-01T08:19:32.000Z</time>
      </trkpt>
      <trkpt lat="47.02388" lon="-1.81517">
        <ele>73</ele>
        <time>2021-08-01T08:19:34.000Z</time>
      </trkpt>
      <trkpt lat="47.02382" lon="-1.81496">
        <ele>73</ele>
        <time>2021-08-01T08:19:36.000Z</time>
      </trkpt>
      <trkpt lat="47.02374" lon="-1.81477">
        <ele>73</ele>
        <time>2021-08-01T08:19:38.000Z</time>
      </trkpt>
      <trkpt lat="47.02367" lon="-1.81456">
        <ele>72</ele>
        <time>2021-08-01T08:19:40.000Z</time>
      </trkpt>
      <trkpt lat="47.02361" lon="-1.81435">
        <ele>71</ele>
        <time>2021-08-01T08:19:42.000Z</time>
      </trkpt>
      <trkpt lat="47.02354" lon="-1.81415">
        <ele>71</ele>
        <time>2021-08-01T08:19:44.000Z</time>
      </trkpt>
      <trkpt lat="47.02346" lon="-1.81394">
        <ele>71</ele>
        <time>2021-08-01T08:19:46.000Z</time>
      </trkpt>
      <trkpt lat="47.02339" lon="-1.81374">
        <ele>71</ele>
        <time>2021-08-01T08:19:48.000Z</time>
      </trkpt>
      <trkpt lat="47.02333" lon="-1.81354">
        <ele>70</ele>
        <time>2021-08-01T08:19:50.000Z</time>
      </trkpt>
      <trkpt lat="47.02325" lon="-1.81333">
        <ele>70</ele>
        <time>2021-08-01T08:19:52.000Z</time>
      </trkpt>
      <trkpt lat="47.02318" lon="-1.81311">
        <ele>68</ele>
        <time>2021-08-01T08:19:54.000Z</time>
      </trkpt>
      <trkpt lat="47.02311" lon="-1.8129">
        <ele>68</ele>
        <time>2021-08-01T08:19:56.000Z</time>
      </trkpt>
      <trkpt lat="47.02303" lon="-1.81268">
        <ele>67</ele>
        <time>2021-08-01T08:19:58.000Z</time>
      </trkpt>
      <trkpt lat="47.02295" lon="-1.81247">
        <ele>67</ele>
        <time>2021-08-01T08:20:00.000Z</time>
      </trkpt>
      <trkpt lat="47.02288" lon="-1.81225">
        <ele>66</ele>
        <time>2021-08-01T08:20:02.000Z</time>
      </trkpt>
      <trkpt lat="47.02281" lon="-1.81205">
        <ele>65</ele>
        <time>2021-08-01T08:20:04.000Z</time>
      </trkpt>
      <trkpt lat="47.02274" lon="-1.81185">
        <ele>65</ele>
        <time>2021-08-01T08:20:06.000Z</time>
      </trkpt>
      <trkpt lat="47.02268" lon="-1.81165">
        <ele>65</ele>
        <time>2021-08-01T08:20:08.000Z</time>
      </trkpt>
      <trkpt lat="47.02261" lon="-1.81144">
        <ele>64</ele>
        <time>2021-08-01T08:20:10.000Z</time>
      </trkpt>
      <trkpt lat="47.02253" lon="-1.81125">
        <ele>65</ele>
        <time>2021-08-01T08:20:12.000Z</time>
      </trkpt>
      <trkpt lat="47.02246" lon="-1.81106">
        <ele>64</ele>
        <time>2021-08-01T08:20:14.000Z</time>
      </trkpt>
      <trkpt lat="47.0224" lon="-1.81088">
        <ele>65</ele>
        <time>2021-08-01T08:20:16.000Z</time>
      </trkpt>
      <trkpt lat="47.02234" lon="-1.81072">
        <ele>66</ele>
        <time>2021-08-01T08:20:18.000Z</time>
      </trkpt>
      <trkpt lat="47.02227" lon="-1.81056">
        <ele>66</ele>
        <time>2021-08-01T08:20:20.000Z</time>
      </trkpt>
      <trkpt lat="47.02219" lon="-1.81042">
        <ele>67</ele>
        <time>2021-08-01T08:20:22.000Z</time>
      </trkpt>
      <trkpt lat="47.02211" lon="-1.81027">
        <ele>67</ele>
        <time>2021-08-01T08:20:24.000Z</time>
      </trkpt>
      <trkpt lat="47.02203" lon="-1.81013">
        <ele>67</ele>
        <time>2021-08-01T08:20:26.000Z</time>
      </trkpt>
      <trkpt lat="47.02195" lon="-1.80999">
        <ele>67</ele>
        <time>2021-08-01T08:20:28.000Z</time>
      </trkpt>
      <trkpt lat="47.02187" lon="-1.80986">
        <ele>68</ele>
        <time>2021-08-01T08:20:30.000Z</time>
      </trkpt>
      <trkpt lat="47.02179" lon="-1.80971">
        <ele>69</ele>
        <time>2021-08-01T08:20:32.000Z</time>
      </trkpt>
      <trkpt lat="47.02171" lon="-1.80958">
        <ele>69</ele>
        <time>2021-08-01T08:20:34.000Z</time>
      </trkpt>
      <trkpt lat="47.02164" lon="-1.80943">
        <ele>69</ele>
        <time>2021-08-01T08:20:36.000Z</time>
      </trkpt>
      <trkpt lat="47.02156" lon="-1.80928">
        <ele>70</ele>
        <time>2021-08-01T08:20:38.000Z</time>
      </trkpt>
      <trkpt lat="47.02149" lon="-1.80914">
        <ele>70</ele>
        <time>2021-08-01T08:20:40.000Z</time>
      </trkpt>
      <trkpt lat="47.02141" lon="-1.809">
        <ele>71</ele>
        <time>2021-08-01T08:20:42.000Z</time>
      </trkpt>
      <trkpt lat="47.02134" lon="-1.80885">
        <ele>71</ele>
        <time>2021-08-01T08:20:44.000Z</time>
      </trkpt>
      <trkpt lat="47.02127" lon="-1.8087">
        <ele>71</ele>
        <time>2021-08-01T08:20:46.000Z</time>
      </trkpt>
      <trkpt lat="47.02122" lon="-1.80854">
        <ele>72</ele>
        <time>2021-08-01T08:20:48.000Z</time>
      </trkpt>
      <trkpt lat="47.02119" lon="-1.80837">
        <ele>72</ele>
        <time>2021-08-01T08:20:50.000Z</time>
      </trkpt>
      <trkpt lat="47.02116" lon="-1.8082">
        <ele>72</ele>
        <time>2021-08-01T08:20:52.000Z</time>
      </trkpt>
      <trkpt lat="47.02115" lon="-1.80803">
        <ele>72</ele>
        <time>2021-08-01T08:20:54.000Z</time>
      </trkpt>
      <trkpt lat="47.02115" lon="-1.80786">
        <ele>72</ele>
        <time>2021-08-01T08:20:56.000Z</time>
      </trkpt>
      <trkpt lat="47.02115" lon="-1.80769">
        <ele>72</ele>
        <time>2021-08-01T08:20:58.000Z</time>
      </trkpt>
      <trkpt lat="47.02115" lon="-1.80751">
        <ele>72</ele>
        <time>2021-08-01T08:21:00.000Z</time>
      </trkpt>
      <trkpt lat="47.02114" lon="-1.80733">
        <ele>72</ele>
        <time>2021-08-01T08:21:02.000Z</time>
      </trkpt>
      <trkpt lat="47.02114" lon="-1.80715">
        <ele>72</ele>
        <time>2021-08-01T08:21:04.000Z</time>
      </trkpt>
      <trkpt lat="47.02114" lon="-1.80697">
        <ele>72</ele>
        <time>2021-08-01T08:21:06.000Z</time>
      </trkpt>
      <trkpt lat="47.02114" lon="-1.80678">
        <ele>72</ele>
        <time>2021-08-01T08:21:08.000Z</time>
      </trkpt>
      <trkpt lat="47.02113" lon="-1.80658">
        <ele>72</ele>
        <time>2021-08-01T08:21:10.000Z</time>
      </trkpt>
      <trkpt lat="47.02113" lon="-1.80637">
        <ele>71</ele>
        <time>2021-08-01T08:21:12.000Z</time>
      </trkpt>
      <trkpt lat="47.02113" lon="-1.80616">
        <ele>70</ele>
        <time>2021-08-01T08:21:14.000Z</time>
      </trkpt>
      <trkpt lat="47.02112" lon="-1.80595">
        <ele>70</ele>
        <time>2021-08-01T08:21:16.000Z</time>
      </trkpt>
      <trkpt lat="47.02112" lon="-1.80574">
        <ele>69</ele>
        <time>2021-08-01T08:21:18.000Z</time>
      </trkpt>
      <trkpt lat="47.02112" lon="-1.80552">
        <ele>69</ele>
        <time>2021-08-01T08:21:20.000Z</time>
      </trkpt>
      <trkpt lat="47.02111" lon="-1.80531">
        <ele>69</ele>
        <time>2021-08-01T08:21:22.000Z</time>
      </trkpt>
      <trkpt lat="47.02111" lon="-1.80507">
        <ele>67</ele>
        <time>2021-08-01T08:21:24.000Z</time>
      </trkpt>
      <trkpt lat="47.02111" lon="-1.80484">
        <ele>67</ele>
        <time>2021-08-01T08:21:26.000Z</time>
      </trkpt>
      <trkpt lat="47.0211" lon="-1.80461">
        <ele>66</ele>
        <time>2021-08-01T08:21:28.000Z</time>
      </trkpt>
      <trkpt lat="47.02109" lon="-1.80436">
        <ele>65</ele>
        <time>2021-08-01T08:21:30.000Z</time>
      </trkpt>
      <trkpt lat="47.02109" lon="-1.80412">
        <ele>64</ele>
        <time>2021-08-01T08:21:32.000Z</time>
      </trkpt>
      <trkpt lat="47.02109" lon="-1.80388">
        <ele>64</ele>
        <time>2021-08-01T08:21:34.000Z</time>
      </trkpt>
      <trkpt lat="47.02108" lon="-1.80363">
        <ele>63</ele>
        <time>2021-08-01T08:21:36.000Z</time>
      </trkpt>
      <trkpt lat="47.02108" lon="-1.80337">
        <ele>62</ele>
        <time>2021-08-01T08:21:38.000Z</time>
      </trkpt>
      <trkpt lat="47.02107" lon="-1.80311">
        <ele>61</ele>
        <time>2021-08-01T08:21:40.000Z</time>
      </trkpt>
      <trkpt lat="47.02107" lon="-1.80287">
        <ele>61</ele>
        <time>2021-08-01T08:21:42.000Z</time>
      </trkpt>
      <trkpt lat="47.02106" lon="-1.80262">
        <ele>61</ele>
        <time>2021-08-01T08:21:44.000Z</time>
      </trkpt>
      <trkpt lat="47.02106" lon="-1.80237">
        <ele>60</ele>
        <time>2021-08-01T08:21:46.000Z</time>
      </trkpt>
      <trkpt lat="47.02106" lon="-1.80212">
        <ele>59</ele>
        <time>2021-08-01T08:21:48.000Z</time>
      </trkpt>
      <trkpt lat="47.02105" lon="-1.80188">
        <ele>59</ele>
        <time>2021-08-01T08:21:50.000Z</time>
      </trkpt>
      <trkpt lat="47.02105" lon="-1.80163">
        <ele>59</ele>
        <time>2021-08-01T08:21:52.000Z</time>
      </trkpt>
      <trkpt lat="47.02104" lon="-1.80138">
        <ele>58</ele>
        <time>2021-08-01T08:21:54.000Z</time>
      </trkpt>
      <trkpt lat="47.02104" lon="-1.80114">
        <ele>58</ele>
        <time>2021-08-01T08:21:56.000Z</time>
      </trkpt>
      <trkpt lat="47.02104" lon="-1.80089">
        <ele>58</ele>
        <time>2021-08-01T08:21:58.000Z</time>
      </trkpt>
      <trkpt lat="47.02103" lon="-1.80064">
        <ele>57</ele>
        <time>2021-08-01T08:22:00.000Z</time>
      </trkpt>
      <trkpt lat="47.02103" lon="-1.80039">
        <ele>57</ele>
        <time>2021-08-01T08:22:02.000Z</time>
      </trkpt>
      <trkpt lat="47.02103" lon="-1.80015">
        <ele>57</ele>
        <time>2021-08-01T08:22:04.000Z</time>
      </trkpt>
      <trkpt lat="47.02102" lon="-1.79991">
        <ele>57</ele>
        <time>2021-08-01T08:22:06.000Z</time>
      </trkpt>
      <trkpt lat="47.021" lon="-1.79968">
        <ele>56</ele>
        <time>2021-08-01T08:22:08.000Z</time>
      </trkpt>
      <trkpt lat="47.02098" lon="-1.79944">
        <ele>56</ele>
        <time>2021-08-01T08:22:10.000Z</time>
      </trkpt>
      <trkpt lat="47.02096" lon="-1.79921">
        <ele>56</ele>
        <time>2021-08-01T08:22:12.000Z</time>
      </trkpt>
      <trkpt lat="47.02094" lon="-1.79897">
        <ele>56</ele>
        <time>2021-08-01T08:22:14.000Z</time>
      </trkpt>
      <trkpt lat="47.02092" lon="-1.79875">
        <ele>56</ele>
        <time>2021-08-01T08:22:16.000Z</time>
      </trkpt>
      <trkpt lat="47.0209" lon="-1.79851">
        <ele>55</ele>
        <time>2021-08-01T08:22:18.000Z</time>
      </trkpt>
      <trkpt lat="47.02089" lon="-1.79827">
        <ele>55</ele>
        <time>2021-08-01T08:22:20.000Z</time>
      </trkpt>
      <trkpt lat="47.02088" lon="-1.79804">
        <ele>55</ele>
        <time>2021-08-01T08:22:22.000Z</time>
      </trkpt>
      <trkpt lat="47.02086" lon="-1.79782">
        <ele>56</ele>
        <time>2021-08-01T08:22:24.000Z</time>
      </trkpt>
      <trkpt lat="47.02085" lon="-1.79761">
        <ele>56</ele>
        <time>2021-08-01T08:22:26.000Z</time>
      </trkpt>
      <trkpt lat="47.02085" lon="-1.7974">
        <ele>56</ele>
        <time>2021-08-01T08:22:28.000Z</time>
      </trkpt>
      <trkpt lat="47.02085" lon="-1.7972">
        <ele>57</ele>
        <time>2021-08-01T08:22:30.000Z</time>
      </trkpt>
      <trkpt lat="47.02086" lon="-1.797">
        <ele>57</ele>
        <time>2021-08-01T08:22:32.000Z</time>
      </trkpt>
      <trkpt lat="47.02086" lon="-1.7968">
        <ele>57</ele>
        <time>2021-08-01T08:22:34.000Z</time>
      </trkpt>
      <trkpt lat="47.02085" lon="-1.7966">
        <ele>58</ele>
        <time>2021-08-01T08:22:36.000Z</time>
      </trkpt>
      <trkpt lat="47.02085" lon="-1.79638">
        <ele>58</ele>
        <time>2021-08-01T08:22:38.000Z</time>
      </trkpt>
      <trkpt lat="47.02085" lon="-1.79617">
        <ele>57</ele>
        <time>2021-08-01T08:22:40.000Z</time>
      </trkpt>
      <trkpt lat="47.02085" lon="-1.79597">
        <ele>57</ele>
        <time>2021-08-01T08:22:42.000Z</time>
      </trkpt>
      <trkpt lat="47.02084" lon="-1.79576">
        <ele>57</ele>
        <time>2021-08-01T08:22:44.000Z</time>
      </trkpt>
      <trkpt lat="47.02085" lon="-1.79555">
        <ele>56</ele>
        <time>2021-08-01T08:22:46.000Z</time>
      </trkpt>
      <trkpt lat="47.02086" lon="-1.79533">
        <ele>56</ele>
        <time>2021-08-01T08:22:48.000Z</time>
      </trkpt>
      <trkpt lat="47.02087" lon="-1.7951">
        <ele>55</ele>
        <time>2021-08-01T08:22:50.000Z</time>
      </trkpt>
      <trkpt lat="47.02086" lon="-1.79488">
        <ele>55</ele>
        <time>2021-08-01T08:22:52.000Z</time>
      </trkpt>
      <trkpt lat="47.02086" lon="-1.79466">
        <ele>54</ele>
        <time>2021-08-01T08:22:54.000Z</time>
      </trkpt>
      <trkpt lat="47.02087" lon="-1.79444">
        <ele>54</ele>
        <time>2021-08-01T08:22:56.000Z</time>
      </trkpt>
      <trkpt lat="47.02088" lon="-1.79424">
        <ele>54</ele>
        <time>2021-08-01T08:22:58.000Z</time>
      </trkpt>
      <trkpt lat="47.0209" lon="-1.79406">
        <ele>53</ele>
        <time>2021-08-01T08:23:00.000Z</time>
      </trkpt>
      <trkpt lat="47.02097" lon="-1.79389">
        <ele>53</ele>
        <time>2021-08-01T08:23:02.000Z</time>
      </trkpt>
      <trkpt lat="47.02102" lon="-1.79369">
        <ele>54</ele>
        <time>2021-08-01T08:23:04.000Z</time>
      </trkpt>
      <trkpt lat="47.02109" lon="-1.79347">
        <ele>54</ele>
        <time>2021-08-01T08:23:06.000Z</time>
      </trkpt>
      <trkpt lat="47.02115" lon="-1.79325">
        <ele>54</ele>
        <time>2021-08-01T08:23:08.000Z</time>
      </trkpt>
      <trkpt lat="47.0212" lon="-1.79303">
        <ele>54</ele>
        <time>2021-08-01T08:23:10.000Z</time>
      </trkpt>
      <trkpt lat="47.02125" lon="-1.79281">
        <ele>54</ele>
        <time>2021-08-01T08:23:12.000Z</time>
      </trkpt>
      <trkpt lat="47.0213" lon="-1.7926">
        <ele>54</ele>
        <time>2021-08-01T08:23:14.000Z</time>
      </trkpt>
      <trkpt lat="47.02135" lon="-1.79239">
        <ele>54</ele>
        <time>2021-08-01T08:23:16.000Z</time>
      </trkpt>
      <trkpt lat="47.02141" lon="-1.79218">
        <ele>54</ele>
        <time>2021-08-01T08:23:18.000Z</time>
      </trkpt>
      <trkpt lat="47.02146" lon="-1.79198">
        <ele>55</ele>
        <time>2021-08-01T08:23:20.000Z</time>
      </trkpt>
      <trkpt lat="47.02151" lon="-1.79178">
        <ele>55</ele>
        <time>2021-08-01T08:23:22.000Z</time>
      </trkpt>
      <trkpt lat="47.02156" lon="-1.79157">
        <ele>55</ele>
        <time>2021-08-01T08:23:24.000Z</time>
      </trkpt>
      <trkpt lat="47.02162" lon="-1.79135">
        <ele>55</ele>
        <time>2021-08-01T08:23:26.000Z</time>
      </trkpt>
      <trkpt lat="47.02168" lon="-1.79113">
        <ele>54</ele>
        <time>2021-08-01T08:23:28.000Z</time>
      </trkpt>
      <trkpt lat="47.02173" lon="-1.79094">
        <ele>54</ele>
        <time>2021-08-01T08:23:30.000Z</time>
      </trkpt>
      <trkpt lat="47.0218" lon="-1.79073">
        <ele>53</ele>
        <time>2021-08-01T08:23:32.000Z</time>
      </trkpt>
      <trkpt lat="47.02187" lon="-1.79053">
        <ele>54</ele>
        <time>2021-08-01T08:23:34.000Z</time>
      </trkpt>
      <trkpt lat="47.02189" lon="-1.79033">
        <ele>54</ele>
        <time>2021-08-01T08:23:36.000Z</time>
      </trkpt>
      <trkpt lat="47.02183" lon="-1.79013">
        <ele>53</ele>
        <time>2021-08-01T08:23:38.000Z</time>
      </trkpt>
      <trkpt lat="47.02178" lon="-1.78995">
        <ele>54</ele>
        <time>2021-08-01T08:23:40.000Z</time>
      </trkpt>
      <trkpt lat="47.02172" lon="-1.78978">
        <ele>54</ele>
        <time>2021-08-01T08:23:42.000Z</time>
      </trkpt>
      <trkpt lat="47.02167" lon="-1.7896">
        <ele>54</ele>
        <time>2021-08-01T08:23:44.000Z</time>
      </trkpt>
      <trkpt lat="47.02162" lon="-1.78942">
        <ele>55</ele>
        <time>2021-08-01T08:23:46.000Z</time>
      </trkpt>
      <trkpt lat="47.02157" lon="-1.78924">
        <ele>55</ele>
        <time>2021-08-01T08:23:48.000Z</time>
      </trkpt>
      <trkpt lat="47.02152" lon="-1.78907">
        <ele>56</ele>
        <time>2021-08-01T08:23:50.000Z</time>
      </trkpt>
      <trkpt lat="47.02146" lon="-1.7889">
        <ele>56</ele>
        <time>2021-08-01T08:23:52.000Z</time>
      </trkpt>
      <trkpt lat="47.02141" lon="-1.78872">
        <ele>57</ele>
        <time>2021-08-01T08:23:54.000Z</time>
      </trkpt>
      <trkpt lat="47.02136" lon="-1.78855">
        <ele>57</ele>
        <time>2021-08-01T08:23:56.000Z</time>
      </trkpt>
      <trkpt lat="47.02131" lon="-1.78838">
        <ele>58</ele>
        <time>2021-08-01T08:23:58.000Z</time>
      </trkpt>
      <trkpt lat="47.02126" lon="-1.7882">
        <ele>58</ele>
        <time>2021-08-01T08:24:00.000Z</time>
      </trkpt>
      <trkpt lat="47.02121" lon="-1.78802">
        <ele>59</ele>
        <time>2021-08-01T08:24:02.000Z</time>
      </trkpt>
      <trkpt lat="47.02116" lon="-1.78785">
        <ele>59</ele>
        <time>2021-08-01T08:24:04.000Z</time>
      </trkpt>
      <trkpt lat="47.02111" lon="-1.78769">
        <ele>59</ele>
        <time>2021-08-01T08:24:06.000Z</time>
      </trkpt>
      <trkpt lat="47.02106" lon="-1.78752">
        <ele>59</ele>
        <time>2021-08-01T08:24:08.000Z</time>
      </trkpt>
      <trkpt lat="47.021" lon="-1.78736">
        <ele>59</ele>
        <time>2021-08-01T08:24:10.000Z</time>
      </trkpt>
      <trkpt lat="47.02094" lon="-1.7872">
        <ele>59</ele>
        <time>2021-08-01T08:24:12.000Z</time>
      </trkpt>
      <trkpt lat="47.02087" lon="-1.78703">
        <ele>58</ele>
        <time>2021-08-01T08:24:14.000Z</time>
      </trkpt>
      <trkpt lat="47.02079" lon="-1.78686">
        <ele>57</ele>
        <time>2021-08-01T08:24:16.000Z</time>
      </trkpt>
      <trkpt lat="47.02069" lon="-1.78669">
        <ele>56</ele>
        <time>2021-08-01T08:24:18.000Z</time>
      </trkpt>
      <trkpt lat="47.02059" lon="-1.78653">
        <ele>56</ele>
        <time>2021-08-01T08:24:20.000Z</time>
      </trkpt>
      <trkpt lat="47.02048" lon="-1.78638">
        <ele>55</ele>
        <time>2021-08-01T08:24:22.000Z</time>
      </trkpt>
      <trkpt lat="47.02036" lon="-1.78624">
        <ele>55</ele>
        <time>2021-08-01T08:24:24.000Z</time>
      </trkpt>
      <trkpt lat="47.02024" lon="-1.78609">
        <ele>55</ele>
        <time>2021-08-01T08:24:26.000Z</time>
      </trkpt>
      <trkpt lat="47.02012" lon="-1.78594">
        <ele>54</ele>
        <time>2021-08-01T08:24:28.000Z</time>
      </trkpt>
      <trkpt lat="47.01999" lon="-1.7858">
        <ele>54</ele>
        <time>2021-08-01T08:24:30.000Z</time>
      </trkpt>
      <trkpt lat="47.01987" lon="-1.78566">
        <ele>54</ele>
        <time>2021-08-01T08:24:32.000Z</time>
      </trkpt>
      <trkpt lat="47.01975" lon="-1.78551">
        <ele>54</ele>
        <time>2021-08-01T08:24:34.000Z</time>
      </trkpt>
      <trkpt lat="47.01964" lon="-1.78537">
        <ele>54</ele>
        <time>2021-08-01T08:24:36.000Z</time>
      </trkpt>
      <trkpt lat="47.01953" lon="-1.78524">
        <ele>54</ele>
        <time>2021-08-01T08:24:38.000Z</time>
      </trkpt>
      <trkpt lat="47.01943" lon="-1.78511">
        <ele>55</ele>
        <time>2021-08-01T08:24:40.000Z</time>
      </trkpt>
      <trkpt lat="47.01932" lon="-1.78499">
        <ele>55</ele>
        <time>2021-08-01T08:24:42.000Z</time>
      </trkpt>
      <trkpt lat="47.01921" lon="-1.78486">
        <ele>55</ele>
        <time>2021-08-01T08:24:44.000Z</time>
      </trkpt>
      <trkpt lat="47.01911" lon="-1.78475">
        <ele>56</ele>
        <time>2021-08-01T08:24:46.000Z</time>
      </trkpt>
      <trkpt lat="47.01902" lon="-1.78462">
        <ele>57</ele>
        <time>2021-08-01T08:24:48.000Z</time>
      </trkpt>
      <trkpt lat="47.01892" lon="-1.78451">
        <ele>57</ele>
        <time>2021-08-01T08:24:50.000Z</time>
      </trkpt>
      <trkpt lat="47.01883" lon="-1.78439">
        <ele>57</ele>
        <time>2021-08-01T08:24:52.000Z</time>
      </trkpt>
      <trkpt lat="47.01873" lon="-1.78428">
        <ele>57</ele>
        <time>2021-08-01T08:24:54.000Z</time>
      </trkpt>
      <trkpt lat="47.01864" lon="-1.78416">
        <ele>57</ele>
        <time>2021-08-01T08:24:56.000Z</time>
      </trkpt>
      <trkpt lat="47.01854" lon="-1.78404">
        <ele>58</ele>
        <time>2021-08-01T08:24:58.000Z</time>
      </trkpt>
      <trkpt lat="47.01844" lon="-1.78392">
        <ele>58</ele>
        <time>2021-08-01T08:25:00.000Z</time>
      </trkpt>
      <trkpt lat="47.01834" lon="-1.7838">
        <ele>58</ele>
        <time>2021-08-01T08:25:02.000Z</time>
      </trkpt>
      <trkpt lat="47.01824" lon="-1.78369">
        <ele>58</ele>
        <time>2021-08-01T08:25:04.000Z</time>
      </trkpt>
      <trkpt lat="47.01815" lon="-1.78358">
        <ele>59</ele>
        <time>2021-08-01T08:25:06.000Z</time>
      </trkpt>
      <trkpt lat="47.01805" lon="-1.78345">
        <ele>59</ele>
        <time>2021-08-01T08:25:08.000Z</time>
      </trkpt>
      <trkpt lat="47.01795" lon="-1.78333">
        <ele>59</ele>
        <time>2021-08-01T08:25:10.000Z</time>
      </trkpt>
      <trkpt lat="47.01786" lon="-1.78322">
        <ele>59</ele>
        <time>2021-08-01T08:25:12.000Z</time>
      </trkpt>
      <trkpt lat="47.01776" lon="-1.78311">
        <ele>60</ele>
        <time>2021-08-01T08:25:14.000Z</time>
      </trkpt>
      <trkpt lat="47.01767" lon="-1.78299">
        <ele>60</ele>
        <time>2021-08-01T08:25:16.000Z</time>
      </trkpt>
      <trkpt lat="47.01757" lon="-1.78288">
        <ele>60</ele>
        <time>2021-08-01T08:25:18.000Z</time>
      </trkpt>
      <trkpt lat="47.01747" lon="-1.78276">
        <ele>60</ele>
        <time>2021-08-01T08:25:20.000Z</time>
      </trkpt>
      <trkpt lat="47.01737" lon="-1.78264">
        <ele>61</ele>
        <time>2021-08-01T08:25:22.000Z</time>
      </trkpt>
      <trkpt lat="47.01727" lon="-1.78253">
        <ele>61</ele>
        <time>2021-08-01T08:25:24.000Z</time>
      </trkpt>
      <trkpt lat="47.01717" lon="-1.7824">
        <ele>62</ele>
        <time>2021-08-01T08:25:26.000Z</time>
      </trkpt>
      <trkpt lat="47.01707" lon="-1.78228">
        <ele>62</ele>
        <time>2021-08-01T08:25:28.000Z</time>
      </trkpt>
      <trkpt lat="47.01698" lon="-1.78217">
        <ele>62</ele>
        <time>2021-08-01T08:25:30.000Z</time>
      </trkpt>
      <trkpt lat="47.01688" lon="-1.78205">
        <ele>62</ele>
        <time>2021-08-01T08:25:32.000Z</time>
      </trkpt>
      <trkpt lat="47.01679" lon="-1.78193">
        <ele>62</ele>
        <time>2021-08-01T08:25:34.000Z</time>
      </trkpt>
      <trkpt lat="47.01669" lon="-1.78181">
        <ele>62</ele>
        <time>2021-08-01T08:25:36.000Z</time>
      </trkpt>
      <trkpt lat="47.01659" lon="-1.78169">
        <ele>62</ele>
        <time>2021-08-01T08:25:38.000Z</time>
      </trkpt>
      <trkpt lat="47.01648" lon="-1.78156">
        <ele>61</ele>
        <time>2021-08-01T08:25:40.000Z</time>
      </trkpt>
      <trkpt lat="47.01639" lon="-1.78144">
        <ele>61</ele>
        <time>2021-08-01T08:25:42.000Z</time>
      </trkpt>
      <trkpt lat="47.01629" lon="-1.78133">
        <ele>62</ele>
        <time>2021-08-01T08:25:44.000Z</time>
      </trkpt>
      <trkpt lat="47.01619" lon="-1.78121">
        <ele>62</ele>
        <time>2021-08-01T08:25:46.000Z</time>
      </trkpt>
      <trkpt lat="47.01609" lon="-1.78109">
        <ele>62</ele>
        <time>2021-08-01T08:25:48.000Z</time>
      </trkpt>
      <trkpt lat="47.01599" lon="-1.78098">
        <ele>62</ele>
        <time>2021-08-01T08:25:50.000Z</time>
      </trkpt>
      <trkpt lat="47.0159" lon="-1.78086">
        <ele>62</ele>
        <time>2021-08-01T08:25:52.000Z</time>
      </trkpt>
      <trkpt lat="47.0158" lon="-1.78075">
        <ele>63</ele>
        <time>2021-08-01T08:25:54.000Z</time>
      </trkpt>
      <trkpt lat="47.01571" lon="-1.78064">
        <ele>63</ele>
        <time>2021-08-01T08:25:56.000Z</time>
      </trkpt>
      <trkpt lat="47.01561" lon="-1.78052">
        <ele>63</ele>
        <time>2021-08-01T08:25:58.000Z</time>
      </trkpt>
      <trkpt lat="47.01552" lon="-1.7804">
        <ele>64</ele>
        <time>2021-08-01T08:26:00.000Z</time>
      </trkpt>
      <trkpt lat="47.01542" lon="-1.78028">
        <ele>64</ele>
        <time>2021-08-01T08:26:02.000Z</time>
      </trkpt>
      <trkpt lat="47.01533" lon="-1.78017">
        <ele>64</ele>
        <time>2021-08-01T08:26:04.000Z</time>
      </trkpt>
      <trkpt lat="47.01523" lon="-1.78006">
        <ele>65</ele>
        <time>2021-08-01T08:26:06.000Z</time>
      </trkpt>
      <trkpt lat="47.01514" lon="-1.77995">
        <ele>65</ele>
        <time>2021-08-01T08:26:08.000Z</time>
      </trkpt>
      <trkpt lat="47.01504" lon="-1.77983">
        <ele>65</ele>
        <time>2021-08-01T08:26:10.000Z</time>
      </trkpt>
      <trkpt lat="47.01494" lon="-1.77971">
        <ele>65</ele>
        <time>2021-08-01T08:26:12.000Z</time>
      </trkpt>
      <trkpt lat="47.01485" lon="-1.7796">
        <ele>65</ele>
        <time>2021-08-01T08:26:14.000Z</time>
      </trkpt>
      <trkpt lat="47.01476" lon="-1.77949">
        <ele>66</ele>
        <time>2021-08-01T08:26:16.000Z</time>
      </trkpt>
      <trkpt lat="47.01468" lon="-1.77938">
        <ele>67</ele>
        <time>2021-08-01T08:26:18.000Z</time>
      </trkpt>
      <trkpt lat="47.0146" lon="-1.77926">
        <ele>67</ele>
        <time>2021-08-01T08:26:20.000Z</time>
      </trkpt>
      <trkpt lat="47.01452" lon="-1.77914">
        <ele>67</ele>
        <time>2021-08-01T08:26:22.000Z</time>
      </trkpt>
      <trkpt lat="47.01448" lon="-1.77899">
        <ele>67</ele>
        <time>2021-08-01T08:26:24.000Z</time>
      </trkpt>
      <trkpt lat="47.01451" lon="-1.77881">
        <ele>67</ele>
        <time>2021-08-01T08:26:26.000Z</time>
      </trkpt>
      <trkpt lat="47.01454" lon="-1.77863">
        <ele>66</ele>
        <time>2021-08-01T08:26:28.000Z</time>
      </trkpt>
      <trkpt lat="47.01455" lon="-1.77844">
        <ele>66</ele>
        <time>2021-08-01T08:26:30.000Z</time>
      </trkpt>
      <trkpt lat="47.01455" lon="-1.77825">
        <ele>66</ele>
        <time>2021-08-01T08:26:32.000Z</time>
      </trkpt>
      <trkpt lat="47.01454" lon="-1.77806">
        <ele>65</ele>
        <time>2021-08-01T08:26:34.000Z</time>
      </trkpt>
      <trkpt lat="47.01454" lon="-1.77788">
        <ele>65</ele>
        <time>2021-08-01T08:26:36.000Z</time>
      </trkpt>
      <trkpt lat="47.01454" lon="-1.77769">
        <ele>65</ele>
        <time>2021-08-01T08:26:38.000Z</time>
      </trkpt>
      <trkpt lat="47.01452" lon="-1.77749">
        <ele>65</ele>
        <time>2021-08-01T08:26:40.000Z</time>
      </trkpt>
      <trkpt lat="47.0145" lon="-1.77731">
        <ele>65</ele>
        <time>2021-08-01T08:26:42.000Z</time>
      </trkpt>
      <trkpt lat="47.01447" lon="-1.77712">
        <ele>65</ele>
        <time>2021-08-01T08:26:44.000Z</time>
      </trkpt>
      <trkpt lat="47.01445" lon="-1.77694">
        <ele>65</ele>
        <time>2021-08-01T08:26:46.000Z</time>
      </trkpt>
      <trkpt lat="47.01446" lon="-1.77675">
        <ele>65</ele>
        <time>2021-08-01T08:26:48.000Z</time>
      </trkpt>
      <trkpt lat="47.01448" lon="-1.77657">
        <ele>65</ele>
        <time>2021-08-01T08:26:50.000Z</time>
      </trkpt>
      <trkpt lat="47.01451" lon="-1.77638">
        <ele>65</ele>
        <time>2021-08-01T08:26:52.000Z</time>
      </trkpt>
      <trkpt lat="47.01455" lon="-1.77621">
        <ele>65</ele>
        <time>2021-08-01T08:26:54.000Z</time>
      </trkpt>
      <trkpt lat="47.01461" lon="-1.77604">
        <ele>64</ele>
        <time>2021-08-01T08:26:56.000Z</time>
      </trkpt>
      <trkpt lat="47.01465" lon="-1.77587">
        <ele>64</ele>
        <time>2021-08-01T08:26:58.000Z</time>
      </trkpt>
      <trkpt lat="47.0147" lon="-1.77569">
        <ele>64</ele>
        <time>2021-08-01T08:27:00.000Z</time>
      </trkpt>
      <trkpt lat="47.01476" lon="-1.77552">
        <ele>65</ele>
        <time>2021-08-01T08:27:02.000Z</time>
      </trkpt>
      <trkpt lat="47.01482" lon="-1.77536">
        <ele>65</ele>
        <time>2021-08-01T08:27:04.000Z</time>
      </trkpt>
      <trkpt lat="47.01491" lon="-1.77521">
        <ele>65</ele>
        <time>2021-08-01T08:27:06.000Z</time>
      </trkpt>
      <trkpt lat="47.015" lon="-1.77508">
        <ele>64</ele>
        <time>2021-08-01T08:27:08.000Z</time>
      </trkpt>
      <trkpt lat="47.0151" lon="-1.77496">
        <ele>64</ele>
        <time>2021-08-01T08:27:10.000Z</time>
      </trkpt>
      <trkpt lat="47.0152" lon="-1.77484">
        <ele>65</ele>
        <time>2021-08-01T08:27:12.000Z</time>
      </trkpt>
      <trkpt lat="47.0153" lon="-1.77471">
        <ele>65</ele>
        <time>2021-08-01T08:27:14.000Z</time>
      </trkpt>
      <trkpt lat="47.0154" lon="-1.77457">
        <ele>64</ele>
        <time>2021-08-01T08:27:16.000Z</time>
      </trkpt>
      <trkpt lat="47.01548" lon="-1.77442">
        <ele>64</ele>
        <time>2021-08-01T08:27:18.000Z</time>
      </trkpt>
      <trkpt lat="47.01555" lon="-1.77426">
        <ele>65</ele>
        <time>2021-08-01T08:27:20.000Z</time>
      </trkpt>
      <trkpt lat="47.01561" lon="-1.77408">
        <ele>64</ele>
        <time>2021-08-01T08:27:22.000Z</time>
      </trkpt>
      <trkpt lat="47.01567" lon="-1.77391">
        <ele>64</ele>
        <time>2021-08-01T08:27:24.000Z</time>
      </trkpt>
      <trkpt lat="47.01571" lon="-1.77372">
        <ele>64</ele>
        <time>2021-08-01T08:27:26.000Z</time>
      </trkpt>
      <trkpt lat="47.01573" lon="-1.77354">
        <ele>65</ele>
        <time>2021-08-01T08:27:28.000Z</time>
      </trkpt>
      <trkpt lat="47.01576" lon="-1.77335">
        <ele>65</ele>
        <time>2021-08-01T08:27:30.000Z</time>
      </trkpt>
      <trkpt lat="47.01579" lon="-1.77316">
        <ele>65</ele>
        <time>2021-08-01T08:27:32.000Z</time>
      </trkpt>
      <trkpt lat="47.01581" lon="-1.77298">
        <ele>65</ele>
        <time>2021-08-01T08:27:34.000Z</time>
      </trkpt>
      <trkpt lat="47.01584" lon="-1.7728">
        <ele>65</ele>
        <time>2021-08-01T08:27:36.000Z</time>
      </trkpt>
      <trkpt lat="47.01587" lon="-1.77261">
        <ele>65</ele>
        <time>2021-08-01T08:27:38.000Z</time>
      </trkpt>
      <trkpt lat="47.0159" lon="-1.77244">
        <ele>65</ele>
        <time>2021-08-01T08:27:40.000Z</time>
      </trkpt>
      <trkpt lat="47.01594" lon="-1.77226">
        <ele>65</ele>
        <time>2021-08-01T08:27:42.000Z</time>
      </trkpt>
      <trkpt lat="47.01599" lon="-1.77209">
        <ele>65</ele>
        <time>2021-08-01T08:27:44.000Z</time>
      </trkpt>
      <trkpt lat="47.01604" lon="-1.77191">
        <ele>65</ele>
        <time>2021-08-01T08:27:46.000Z</time>
      </trkpt>
      <trkpt lat="47.0161" lon="-1.77174">
        <ele>65</ele>
        <time>2021-08-01T08:27:48.000Z</time>
      </trkpt>
      <trkpt lat="47.01615" lon="-1.77157">
        <ele>65</ele>
        <time>2021-08-01T08:27:50.000Z</time>
      </trkpt>
      <trkpt lat="47.0162" lon="-1.7714">
        <ele>65</ele>
        <time>2021-08-01T08:27:52.000Z</time>
      </trkpt>
      <trkpt lat="47.01626" lon="-1.77122">
        <ele>64</ele>
        <time>2021-08-01T08:27:54.000Z</time>
      </trkpt>
      <trkpt lat="47.01631" lon="-1.77104">
        <ele>65</ele>
        <time>2021-08-01T08:27:56.000Z</time>
      </trkpt>
      <trkpt lat="47.01635" lon="-1.77086">
        <ele>65</ele>
        <time>2021-08-01T08:27:58.000Z</time>
      </trkpt>
      <trkpt lat="47.01637" lon="-1.77068">
        <ele>65</ele>
        <time>2021-08-01T08:28:00.000Z</time>
      </trkpt>
      <trkpt lat="47.01639" lon="-1.77049">
        <ele>65</ele>
        <time>2021-08-01T08:28:02.000Z</time>
      </trkpt>
      <trkpt lat="47.01641" lon="-1.7703">
        <ele>65</ele>
        <time>2021-08-01T08:28:04.000Z</time>
      </trkpt>
      <trkpt lat="47.01641" lon="-1.77012">
        <ele>65</ele>
        <time>2021-08-01T08:28:06.000Z</time>
      </trkpt>
      <trkpt lat="47.0164" lon="-1.76994">
        <ele>65</ele>
        <time>2021-08-01T08:28:08.000Z</time>
      </trkpt>
      <trkpt lat="47.01639" lon="-1.76976">
        <ele>66</ele>
        <time>2021-08-01T08:28:10.000Z</time>
      </trkpt>
      <trkpt lat="47.01638" lon="-1.76958">
        <ele>66</ele>
        <time>2021-08-01T08:28:12.000Z</time>
      </trkpt>
      <trkpt lat="47.01637" lon="-1.7694">
        <ele>66</ele>
        <time>2021-08-01T08:28:14.000Z</time>
      </trkpt>
      <trkpt lat="47.01636" lon="-1.76922">
        <ele>66</ele>
        <time>2021-08-01T08:28:16.000Z</time>
      </trkpt>
      <trkpt lat="47.01635" lon="-1.76903">
        <ele>66</ele>
        <time>2021-08-01T08:28:18.000Z</time>
      </trkpt>
      <trkpt lat="47.01634" lon="-1.76886">
        <ele>66</ele>
        <time>2021-08-01T08:28:20.000Z</time>
      </trkpt>
      <trkpt lat="47.01633" lon="-1.76868">
        <ele>66</ele>
        <time>2021-08-01T08:28:22.000Z</time>
      </trkpt>
      <trkpt lat="47.01632" lon="-1.7685">
        <ele>66</ele>
        <time>2021-08-01T08:28:24.000Z</time>
      </trkpt>
      <trkpt lat="47.01631" lon="-1.76832">
        <ele>67</ele>
        <time>2021-08-01T08:28:26.000Z</time>
      </trkpt>
      <trkpt lat="47.0163" lon="-1.76815">
        <ele>67</ele>
        <time>2021-08-01T08:28:28.000Z</time>
      </trkpt>
      <trkpt lat="47.0163" lon="-1.76796">
        <ele>67</ele>
        <time>2021-08-01T08:28:30.000Z</time>
      </trkpt>
      <trkpt lat="47.01628" lon="-1.76778">
        <ele>67</ele>
        <time>2021-08-01T08:28:32.000Z</time>
      </trkpt>
      <trkpt lat="47.01627" lon="-1.76761">
        <ele>67</ele>
        <time>2021-08-01T08:28:34.000Z</time>
      </trkpt>
      <trkpt lat="47.01625" lon="-1.76743">
        <ele>68</ele>
        <time>2021-08-01T08:28:36.000Z</time>
      </trkpt>
      <trkpt lat="47.01623" lon="-1.76727">
        <ele>68</ele>
        <time>2021-08-01T08:28:38.000Z</time>
      </trkpt>
      <trkpt lat="47.01621" lon="-1.76709">
        <ele>68</ele>
        <time>2021-08-01T08:28:40.000Z</time>
      </trkpt>
      <trkpt lat="47.01618" lon="-1.7669">
        <ele>68</ele>
        <time>2021-08-01T08:28:42.000Z</time>
      </trkpt>
      <trkpt lat="47.01616" lon="-1.76672">
        <ele>68</ele>
        <time>2021-08-01T08:28:44.000Z</time>
      </trkpt>
      <trkpt lat="47.01613" lon="-1.76654">
        <ele>68</ele>
        <time>2021-08-01T08:28:46.000Z</time>
      </trkpt>
      <trkpt lat="47.01609" lon="-1.76637">
        <ele>68</ele>
        <time>2021-08-01T08:28:48.000Z</time>
      </trkpt>
      <trkpt lat="47.01605" lon="-1.7662">
        <ele>69</ele>
        <time>2021-08-01T08:28:50.000Z</time>
      </trkpt>
      <trkpt lat="47.016" lon="-1.76604">
        <ele>70</ele>
        <time>2021-08-01T08:28:52.000Z</time>
      </trkpt>
      <trkpt lat="47.01593" lon="-1.76589">
        <ele>70</ele>
        <time>2021-08-01T08:28:54.000Z</time>
      </trkpt>
      <trkpt lat="47.01587" lon="-1.76573">
        <ele>71</ele>
        <time>2021-08-01T08:28:56.000Z</time>
      </trkpt>
      <trkpt lat="47.0158" lon="-1.76558">
        <ele>71</ele>
        <time>2021-08-01T08:28:58.000Z</time>
      </trkpt>
      <trkpt lat="47.01574" lon="-1.76542">
        <ele>71</ele>
        <time>2021-08-01T08:29:00.000Z</time>
      </trkpt>
      <trkpt lat="47.01567" lon="-1.76525">
        <ele>71</ele>
        <time>2021-08-01T08:29:02.000Z</time>
      </trkpt>
      <trkpt lat="47.01561" lon="-1.76511">
        <ele>70</ele>
        <time>2021-08-01T08:29:04.000Z</time>
      </trkpt>
      <trkpt lat="47.01555" lon="-1.76495">
        <ele>70</ele>
        <time>2021-08-01T08:29:06.000Z</time>
      </trkpt>
      <trkpt lat="47.0155" lon="-1.76479">
        <ele>71</ele>
        <time>2021-08-01T08:29:08.000Z</time>
      </trkpt>
      <trkpt lat="47.01544" lon="-1.76463">
        <ele>72</ele>
        <time>2021-08-01T08:29:10.000Z</time>
      </trkpt>
      <trkpt lat="47.01539" lon="-1.76448">
        <ele>72</ele>
        <time>2021-08-01T08:29:12.000Z</time>
      </trkpt>
      <trkpt lat="47.01533" lon="-1.76434">
        <ele>72</ele>
        <time>2021-08-01T08:29:14.000Z</time>
      </trkpt>
      <trkpt lat="47.01527" lon="-1.76418">
        <ele>72</ele>
        <time>2021-08-01T08:29:16.000Z</time>
      </trkpt>
      <trkpt lat="47.01522" lon="-1.764">
        <ele>72</ele>
        <time>2021-08-01T08:29:18.000Z</time>
      </trkpt>
      <trkpt lat="47.01515" lon="-1.76382">
        <ele>72</ele>
        <time>2021-08-01T08:29:20.000Z</time>
      </trkpt>
      <trkpt lat="47.01508" lon="-1.76363">
        <ele>71</ele>
        <time>2021-08-01T08:29:22.000Z</time>
      </trkpt>
      <trkpt lat="47.015" lon="-1.76344">
        <ele>70</ele>
        <time>2021-08-01T08:29:24.000Z</time>
      </trkpt>
      <trkpt lat="47.0149" lon="-1.76325">
        <ele>69</ele>
        <time>2021-08-01T08:29:26.000Z</time>
      </trkpt>
      <trkpt lat="47.01482" lon="-1.76306">
        <ele>68</ele>
        <time>2021-08-01T08:29:28.000Z</time>
      </trkpt>
      <trkpt lat="47.01474" lon="-1.76287">
        <ele>68</ele>
        <time>2021-08-01T08:29:30.000Z</time>
      </trkpt>
      <trkpt lat="47.01467" lon="-1.76268">
        <ele>67</ele>
        <time>2021-08-01T08:29:32.000Z</time>
      </trkpt>
      <trkpt lat="47.01459" lon="-1.76249">
        <ele>67</ele>
        <time>2021-08-01T08:29:34.000Z</time>
      </trkpt>
      <trkpt lat="47.01452" lon="-1.7623">
        <ele>67</ele>
        <time>2021-08-01T08:29:36.000Z</time>
      </trkpt>
      <trkpt lat="47.01445" lon="-1.76211">
        <ele>66</ele>
        <time>2021-08-01T08:29:38.000Z</time>
      </trkpt>
      <trkpt lat="47.01438" lon="-1.76193">
        <ele>66</ele>
        <time>2021-08-01T08:29:40.000Z</time>
      </trkpt>
      <trkpt lat="47.01431" lon="-1.76175">
        <ele>66</ele>
        <time>2021-08-01T08:29:42.000Z</time>
      </trkpt>
      <trkpt lat="47.01425" lon="-1.76157">
        <ele>66</ele>
        <time>2021-08-01T08:29:44.000Z</time>
      </trkpt>
      <trkpt lat="47.01417" lon="-1.76138">
        <ele>66</ele>
        <time>2021-08-01T08:29:46.000Z</time>
      </trkpt>
      <trkpt lat="47.0141" lon="-1.76121">
        <ele>66</ele>
        <time>2021-08-01T08:29:48.000Z</time>
      </trkpt>
      <trkpt lat="47.01402" lon="-1.76103">
        <ele>66</ele>
        <time>2021-08-01T08:29:50.000Z</time>
      </trkpt>
      <trkpt lat="47.01395" lon="-1.76084">
        <ele>66</ele>
        <time>2021-08-01T08:29:52.000Z</time>
      </trkpt>
      <trkpt lat="47.01387" lon="-1.76067">
        <ele>65</ele>
        <time>2021-08-01T08:29:54.000Z</time>
      </trkpt>
      <trkpt lat="47.0138" lon="-1.76049">
        <ele>66</ele>
        <time>2021-08-01T08:29:56.000Z</time>
      </trkpt>
      <trkpt lat="47.01373" lon="-1.76031">
        <ele>66</ele>
        <time>2021-08-01T08:29:58.000Z</time>
      </trkpt>
      <trkpt lat="47.01366" lon="-1.76013">
        <ele>66</ele>
        <time>2021-08-01T08:30:00.000Z</time>
      </trkpt>
      <trkpt lat="47.01359" lon="-1.75996">
        <ele>66</ele>
        <time>2021-08-01T08:30:02.000Z</time>
      </trkpt>
      <trkpt lat="47.01352" lon="-1.75978">
        <ele>65</ele>
        <time>2021-08-01T08:30:04.000Z</time>
      </trkpt>
      <trkpt lat="47.01345" lon="-1.7596">
        <ele>65</ele>
        <time>2021-08-01T08:30:06.000Z</time>
      </trkpt>
      <trkpt lat="47.01339" lon="-1.75942">
        <ele>64</ele>
        <time>2021-08-01T08:30:08.000Z</time>
      </trkpt>
      <trkpt lat="47.01332" lon="-1.75925">
        <ele>64</ele>
        <time>2021-08-01T08:30:10.000Z</time>
      </trkpt>
      <trkpt lat="47.01324" lon="-1.75906">
        <ele>63</ele>
        <time>2021-08-01T08:30:12.000Z</time>
      </trkpt>
      <trkpt lat="47.01317" lon="-1.75888">
        <ele>63</ele>
        <time>2021-08-01T08:30:14.000Z</time>
      </trkpt>
      <trkpt lat="47.0131" lon="-1.7587">
        <ele>63</ele>
        <time>2021-08-01T08:30:16.000Z</time>
      </trkpt>
      <trkpt lat="47.01302" lon="-1.75852">
        <ele>62</ele>
        <time>2021-08-01T08:30:18.000Z</time>
      </trkpt>
      <trkpt lat="47.01295" lon="-1.75833">
        <ele>62</ele>
        <time>2021-08-01T08:30:20.000Z</time>
      </trkpt>
      <trkpt lat="47.01288" lon="-1.75816">
        <ele>62</ele>
        <time>2021-08-01T08:30:22.000Z</time>
      </trkpt>
      <trkpt lat="47.01281" lon="-1.75798">
        <ele>61</ele>
        <time>2021-08-01T08:30:24.000Z</time>
      </trkpt>
      <trkpt lat="47.01273" lon="-1.7578">
        <ele>61</ele>
        <time>2021-08-01T08:30:26.000Z</time>
      </trkpt>
      <trkpt lat="47.01266" lon="-1.75761">
        <ele>61</ele>
        <time>2021-08-01T08:30:28.000Z</time>
      </trkpt>
      <trkpt lat="47.01259" lon="-1.75743">
        <ele>62</ele>
        <time>2021-08-01T08:30:30.000Z</time>
      </trkpt>
      <trkpt lat="47.01252" lon="-1.75725">
        <ele>62</ele>
        <time>2021-08-01T08:30:32.000Z</time>
      </trkpt>
      <trkpt lat="47.01245" lon="-1.75709">
        <ele>62</ele>
        <time>2021-08-01T08:30:34.000Z</time>
      </trkpt>
      <trkpt lat="47.01239" lon="-1.75695">
        <ele>63</ele>
        <time>2021-08-01T08:30:36.000Z</time>
      </trkpt>
      <trkpt lat="47.01233" lon="-1.7568">
        <ele>63</ele>
        <time>2021-08-01T08:30:38.000Z</time>
      </trkpt>
      <trkpt lat="47.01227" lon="-1.75665">
        <ele>64</ele>
        <time>2021-08-01T08:30:40.000Z</time>
      </trkpt>
      <trkpt lat="47.01221" lon="-1.75649">
        <ele>64</ele>
        <time>2021-08-01T08:30:42.000Z</time>
      </trkpt>
      <trkpt lat="47.01216" lon="-1.75634">
        <ele>65</ele>
        <time>2021-08-01T08:30:44.000Z</time>
      </trkpt>
      <trkpt lat="47.01209" lon="-1.75617">
        <ele>65</ele>
        <time>2021-08-01T08:30:46.000Z</time>
      </trkpt>
      <trkpt lat="47.01202" lon="-1.75603">
        <ele>66</ele>
        <time>2021-08-01T08:30:48.000Z</time>
      </trkpt>
      <trkpt lat="47.01196" lon="-1.75588">
        <ele>66</ele>
        <time>2021-08-01T08:30:50.000Z</time>
      </trkpt>
      <trkpt lat="47.0119" lon="-1.75574">
        <ele>66</ele>
        <time>2021-08-01T08:30:52.000Z</time>
      </trkpt>
      <trkpt lat="47.01184" lon="-1.75558">
        <ele>66</ele>
        <time>2021-08-01T08:30:54.000Z</time>
      </trkpt>
      <trkpt lat="47.0118" lon="-1.75542">
        <ele>67</ele>
        <time>2021-08-01T08:30:56.000Z</time>
      </trkpt>
      <trkpt lat="47.01173" lon="-1.75525">
        <ele>66</ele>
        <time>2021-08-01T08:30:58.000Z</time>
      </trkpt>
      <trkpt lat="47.01166" lon="-1.75509">
        <ele>66</ele>
        <time>2021-08-01T08:31:00.000Z</time>
      </trkpt>
      <trkpt lat="47.0116" lon="-1.75492">
        <ele>66</ele>
        <time>2021-08-01T08:31:02.000Z</time>
      </trkpt>
      <trkpt lat="47.01154" lon="-1.75475">
        <ele>66</ele>
        <time>2021-08-01T08:31:04.000Z</time>
      </trkpt>
      <trkpt lat="47.01147" lon="-1.75459">
        <ele>66</ele>
        <time>2021-08-01T08:31:06.000Z</time>
      </trkpt>
      <trkpt lat="47.01141" lon="-1.75441">
        <ele>66</ele>
        <time>2021-08-01T08:31:08.000Z</time>
      </trkpt>
      <trkpt lat="47.01135" lon="-1.75426">
        <ele>66</ele>
        <time>2021-08-01T08:31:10.000Z</time>
      </trkpt>
      <trkpt lat="47.01128" lon="-1.7541">
        <ele>66</ele>
        <time>2021-08-01T08:31:12.000Z</time>
      </trkpt>
      <trkpt lat="47.01122" lon="-1.75394">
        <ele>66</ele>
        <time>2021-08-01T08:31:14.000Z</time>
      </trkpt>
      <trkpt lat="47.01116" lon="-1.75377">
        <ele>66</ele>
        <time>2021-08-01T08:31:16.000Z</time>
      </trkpt>
      <trkpt lat="47.01109" lon="-1.75361">
        <ele>66</ele>
        <time>2021-08-01T08:31:18.000Z</time>
      </trkpt>
      <trkpt lat="47.01102" lon="-1.75345">
        <ele>66</ele>
        <time>2021-08-01T08:31:20.000Z</time>
      </trkpt>
      <trkpt lat="47.01095" lon="-1.75328">
        <ele>66</ele>
        <time>2021-08-01T08:31:22.000Z</time>
      </trkpt>
      <trkpt lat="47.01089" lon="-1.75313">
        <ele>66</ele>
        <time>2021-08-01T08:31:24.000Z</time>
      </trkpt>
      <trkpt lat="47.01082" lon="-1.75298">
        <ele>66</ele>
        <time>2021-08-01T08:31:26.000Z</time>
      </trkpt>
      <trkpt lat="47.01076" lon="-1.75282">
        <ele>66</ele>
        <time>2021-08-01T08:31:28.000Z</time>
      </trkpt>
      <trkpt lat="47.0107" lon="-1.75266">
        <ele>66</ele>
        <time>2021-08-01T08:31:30.000Z</time>
      </trkpt>
      <trkpt lat="47.01064" lon="-1.75249">
        <ele>65</ele>
        <time>2021-08-01T08:31:32.000Z</time>
      </trkpt>
      <trkpt lat="47.01057" lon="-1.75233">
        <ele>65</ele>
        <time>2021-08-01T08:31:34.000Z</time>
      </trkpt>
      <trkpt lat="47.01052" lon="-1.75216">
        <ele>65</ele>
        <time>2021-08-01T08:31:36.000Z</time>
      </trkpt>
      <trkpt lat="47.01048" lon="-1.75198">
        <ele>65</ele>
        <time>2021-08-01T08:31:38.000Z</time>
      </trkpt>
      <trkpt lat="47.01046" lon="-1.7518">
        <ele>65</ele>
        <time>2021-08-01T08:31:40.000Z</time>
      </trkpt>
      <trkpt lat="47.01044" lon="-1.75162">
        <ele>65</ele>
        <time>2021-08-01T08:31:42.000Z</time>
      </trkpt>
      <trkpt lat="47.01044" lon="-1.75144">
        <ele>65</ele>
        <time>2021-08-01T08:31:44.000Z</time>
      </trkpt>
      <trkpt lat="47.01043" lon="-1.75126">
        <ele>65</ele>
        <time>2021-08-01T08:31:46.000Z</time>
      </trkpt>
      <trkpt lat="47.01044" lon="-1.75108">
        <ele>65</ele>
        <time>2021-08-01T08:31:48.000Z</time>
      </trkpt>
      <trkpt lat="47.01044" lon="-1.7509">
        <ele>65</ele>
        <time>2021-08-01T08:31:50.000Z</time>
      </trkpt>
      <trkpt lat="47.01044" lon="-1.75072">
        <ele>65</ele>
        <time>2021-08-01T08:31:52.000Z</time>
      </trkpt>
      <trkpt lat="47.01043" lon="-1.75053">
        <ele>65</ele>
        <time>2021-08-01T08:31:54.000Z</time>
      </trkpt>
      <trkpt lat="47.01043" lon="-1.75034">
        <ele>65</ele>
        <time>2021-08-01T08:31:56.000Z</time>
      </trkpt>
      <trkpt lat="47.01043" lon="-1.75017">
        <ele>65</ele>
        <time>2021-08-01T08:31:58.000Z</time>
      </trkpt>
      <trkpt lat="47.01043" lon="-1.74999">
        <ele>65</ele>
        <time>2021-08-01T08:32:00.000Z</time>
      </trkpt>
      <trkpt lat="47.01042" lon="-1.7498">
        <ele>65</ele>
        <time>2021-08-01T08:32:02.000Z</time>
      </trkpt>
      <trkpt lat="47.01042" lon="-1.74962">
        <ele>65</ele>
        <time>2021-08-01T08:32:04.000Z</time>
      </trkpt>
      <trkpt lat="47.01042" lon="-1.74945">
        <ele>65</ele>
        <time>2021-08-01T08:32:06.000Z</time>
      </trkpt>
      <trkpt lat="47.01041" lon="-1.74926">
        <ele>66</ele>
        <time>2021-08-01T08:32:08.000Z</time>
      </trkpt>
      <trkpt lat="47.01041" lon="-1.74908">
        <ele>66</ele>
        <time>2021-08-01T08:32:10.000Z</time>
      </trkpt>
      <trkpt lat="47.01041" lon="-1.7489">
        <ele>66</ele>
        <time>2021-08-01T08:32:12.000Z</time>
      </trkpt>
      <trkpt lat="47.0104" lon="-1.74872">
        <ele>67</ele>
        <time>2021-08-01T08:32:14.000Z</time>
      </trkpt>
      <trkpt lat="47.0104" lon="-1.74853">
        <ele>66</ele>
        <time>2021-08-01T08:32:16.000Z</time>
      </trkpt>
      <trkpt lat="47.0104" lon="-1.74835">
        <ele>66</ele>
        <time>2021-08-01T08:32:18.000Z</time>
      </trkpt>
      <trkpt lat="47.0104" lon="-1.74817">
        <ele>66</ele>
        <time>2021-08-01T08:32:20.000Z</time>
      </trkpt>
      <trkpt lat="47.0104" lon="-1.74798">
        <ele>67</ele>
        <time>2021-08-01T08:32:22.000Z</time>
      </trkpt>
      <trkpt lat="47.01039" lon="-1.7478">
        <ele>67</ele>
        <time>2021-08-01T08:32:24.000Z</time>
      </trkpt>
      <trkpt lat="47.01039" lon="-1.74761">
        <ele>67</ele>
        <time>2021-08-01T08:32:26.000Z</time>
      </trkpt>
      <trkpt lat="47.01039" lon="-1.74743">
        <ele>67</ele>
        <time>2021-08-01T08:32:28.000Z</time>
      </trkpt>
      <trkpt lat="47.01038" lon="-1.74724">
        <ele>68</ele>
        <time>2021-08-01T08:32:30.000Z</time>
      </trkpt>
      <trkpt lat="47.01038" lon="-1.74706">
        <ele>67</ele>
        <time>2021-08-01T08:32:32.000Z</time>
      </trkpt>
      <trkpt lat="47.01037" lon="-1.74687">
        <ele>67</ele>
        <time>2021-08-01T08:32:34.000Z</time>
      </trkpt>
      <trkpt lat="47.01037" lon="-1.74668">
        <ele>67</ele>
        <time>2021-08-01T08:32:36.000Z</time>
      </trkpt>
      <trkpt lat="47.01037" lon="-1.74649">
        <ele>67</ele>
        <time>2021-08-01T08:32:38.000Z</time>
      </trkpt>
      <trkpt lat="47.01037" lon="-1.7463">
        <ele>67</ele>
        <time>2021-08-01T08:32:40.000Z</time>
      </trkpt>
      <trkpt lat="47.01036" lon="-1.74612">
        <ele>67</ele>
        <time>2021-08-01T08:32:42.000Z</time>
      </trkpt>
      <trkpt lat="47.01036" lon="-1.74593">
        <ele>67</ele>
        <time>2021-08-01T08:32:44.000Z</time>
      </trkpt>
      <trkpt lat="47.01037" lon="-1.74565">
        <ele>67</ele>
        <time>2021-08-01T08:32:47.000Z</time>
      </trkpt>
      <trkpt lat="47.0104" lon="-1.74546">
        <ele>67</ele>
        <time>2021-08-01T08:32:49.000Z</time>
      </trkpt>
      <trkpt lat="47.01045" lon="-1.74527">
        <ele>66</ele>
        <time>2021-08-01T08:32:51.000Z</time>
      </trkpt>
      <trkpt lat="47.01051" lon="-1.7451">
        <ele>65</ele>
        <time>2021-08-01T08:32:53.000Z</time>
      </trkpt>
      <trkpt lat="47.01057" lon="-1.74493">
        <ele>65</ele>
        <time>2021-08-01T08:32:55.000Z</time>
      </trkpt>
      <trkpt lat="47.01064" lon="-1.74475">
        <ele>65</ele>
        <time>2021-08-01T08:32:57.000Z</time>
      </trkpt>
      <trkpt lat="47.0107" lon="-1.74458">
        <ele>65</ele>
        <time>2021-08-01T08:32:59.000Z</time>
      </trkpt>
      <trkpt lat="47.01076" lon="-1.74441">
        <ele>66</ele>
        <time>2021-08-01T08:33:01.000Z</time>
      </trkpt>
      <trkpt lat="47.01081" lon="-1.74421">
        <ele>66</ele>
        <time>2021-08-01T08:33:03.000Z</time>
      </trkpt>
      <trkpt lat="47.01086" lon="-1.74402">
        <ele>67</ele>
        <time>2021-08-01T08:33:05.000Z</time>
      </trkpt>
      <trkpt lat="47.01091" lon="-1.74383">
        <ele>66</ele>
        <time>2021-08-01T08:33:07.000Z</time>
      </trkpt>
      <trkpt lat="47.01095" lon="-1.74364">
        <ele>66</ele>
        <time>2021-08-01T08:33:09.000Z</time>
      </trkpt>
      <trkpt lat="47.011" lon="-1.74346">
        <ele>67</ele>
        <time>2021-08-01T08:33:11.000Z</time>
      </trkpt>
      <trkpt lat="47.01104" lon="-1.74328">
        <ele>66</ele>
        <time>2021-08-01T08:33:13.000Z</time>
      </trkpt>
      <trkpt lat="47.01109" lon="-1.74311">
        <ele>66</ele>
        <time>2021-08-01T08:33:15.000Z</time>
      </trkpt>
      <trkpt lat="47.01113" lon="-1.74293">
        <ele>67</ele>
        <time>2021-08-01T08:33:17.000Z</time>
      </trkpt>
      <trkpt lat="47.01117" lon="-1.74274">
        <ele>66</ele>
        <time>2021-08-01T08:33:19.000Z</time>
      </trkpt>
      <trkpt lat="47.01122" lon="-1.74256">
        <ele>66</ele>
        <time>2021-08-01T08:33:21.000Z</time>
      </trkpt>
      <trkpt lat="47.01127" lon="-1.74238">
        <ele>66</ele>
        <time>2021-08-01T08:33:23.000Z</time>
      </trkpt>
      <trkpt lat="47.01132" lon="-1.74221">
        <ele>66</ele>
        <time>2021-08-01T08:33:25.000Z</time>
      </trkpt>
      <trkpt lat="47.01136" lon="-1.74203">
        <ele>66</ele>
        <time>2021-08-01T08:33:27.000Z</time>
      </trkpt>
      <trkpt lat="47.01141" lon="-1.74185">
        <ele>66</ele>
        <time>2021-08-01T08:33:29.000Z</time>
      </trkpt>
      <trkpt lat="47.01145" lon="-1.74167">
        <ele>67</ele>
        <time>2021-08-01T08:33:31.000Z</time>
      </trkpt>
      <trkpt lat="47.0115" lon="-1.7415">
        <ele>67</ele>
        <time>2021-08-01T08:33:33.000Z</time>
      </trkpt>
      <trkpt lat="47.01154" lon="-1.74132">
        <ele>67</ele>
        <time>2021-08-01T08:33:35.000Z</time>
      </trkpt>
      <trkpt lat="47.01158" lon="-1.74114">
        <ele>67</ele>
        <time>2021-08-01T08:33:37.000Z</time>
      </trkpt>
      <trkpt lat="47.01163" lon="-1.74096">
        <ele>67</ele>
        <time>2021-08-01T08:33:39.000Z</time>
      </trkpt>
      <trkpt lat="47.01167" lon="-1.7408">
        <ele>68</ele>
        <time>2021-08-01T08:33:41.000Z</time>
      </trkpt>
      <trkpt lat="47.01172" lon="-1.74063">
        <ele>68</ele>
        <time>2021-08-01T08:33:43.000Z</time>
      </trkpt>
      <trkpt lat="47.01177" lon="-1.74046">
        <ele>68</ele>
        <time>2021-08-01T08:33:45.000Z</time>
      </trkpt>
      <trkpt lat="47.0118" lon="-1.7403">
        <ele>70</ele>
        <time>2021-08-01T08:33:47.000Z</time>
      </trkpt>
      <trkpt lat="47.01185" lon="-1.74014">
        <ele>70</ele>
        <time>2021-08-01T08:33:49.000Z</time>
      </trkpt>
      <trkpt lat="47.0119" lon="-1.73998">
        <ele>70</ele>
        <time>2021-08-01T08:33:51.000Z</time>
      </trkpt>
      <trkpt lat="47.01194" lon="-1.73981">
        <ele>71</ele>
        <time>2021-08-01T08:33:53.000Z</time>
      </trkpt>
      <trkpt lat="47.01198" lon="-1.73964">
        <ele>71</ele>
        <time>2021-08-01T08:33:55.000Z</time>
      </trkpt>
      <trkpt lat="47.01202" lon="-1.73945">
        <ele>72</ele>
        <time>2021-08-01T08:33:57.000Z</time>
      </trkpt>
      <trkpt lat="47.01205" lon="-1.73926">
        <ele>73</ele>
        <time>2021-08-01T08:33:59.000Z</time>
      </trkpt>
      <trkpt lat="47.01207" lon="-1.73905">
        <ele>72</ele>
        <time>2021-08-01T08:34:01.000Z</time>
      </trkpt>
      <trkpt lat="47.01207" lon="-1.73884">
        <ele>71</ele>
        <time>2021-08-01T08:34:03.000Z</time>
      </trkpt>
      <trkpt lat="47.01208" lon="-1.73864">
        <ele>71</ele>
        <time>2021-08-01T08:34:05.000Z</time>
      </trkpt>
      <trkpt lat="47.01209" lon="-1.73845">
        <ele>71</ele>
        <time>2021-08-01T08:34:07.000Z</time>
      </trkpt>
      <trkpt lat="47.01209" lon="-1.73825">
        <ele>70</ele>
        <time>2021-08-01T08:34:09.000Z</time>
      </trkpt>
      <trkpt lat="47.0121" lon="-1.73806">
        <ele>70</ele>
        <time>2021-08-01T08:34:11.000Z</time>
      </trkpt>
      <trkpt lat="47.01211" lon="-1.73787">
        <ele>70</ele>
        <time>2021-08-01T08:34:13.000Z</time>
      </trkpt>
      <trkpt lat="47.01212" lon="-1.73768">
        <ele>70</ele>
        <time>2021-08-01T08:34:15.000Z</time>
      </trkpt>
      <trkpt lat="47.01213" lon="-1.73749">
        <ele>70</ele>
        <time>2021-08-01T08:34:17.000Z</time>
      </trkpt>
      <trkpt lat="47.01214" lon="-1.73729">
        <ele>70</ele>
        <time>2021-08-01T08:34:19.000Z</time>
      </trkpt>
      <trkpt lat="47.01214" lon="-1.7371">
        <ele>70</ele>
        <time>2021-08-01T08:34:21.000Z</time>
      </trkpt>
      <trkpt lat="47.01215" lon="-1.73691">
        <ele>70</ele>
        <time>2021-08-01T08:34:23.000Z</time>
      </trkpt>
      <trkpt lat="47.01216" lon="-1.73673">
        <ele>70</ele>
        <time>2021-08-01T08:34:25.000Z</time>
      </trkpt>
      <trkpt lat="47.01217" lon="-1.73656">
        <ele>70</ele>
        <time>2021-08-01T08:34:27.000Z</time>
      </trkpt>
      <trkpt lat="47.01218" lon="-1.73639">
        <ele>71</ele>
        <time>2021-08-01T08:34:29.000Z</time>
      </trkpt>
      <trkpt lat="47.01219" lon="-1.7362">
        <ele>70</ele>
        <time>2021-08-01T08:34:31.000Z</time>
      </trkpt>
      <trkpt lat="47.01219" lon="-1.73602">
        <ele>70</ele>
        <time>2021-08-01T08:34:33.000Z</time>
      </trkpt>
      <trkpt lat="47.0122" lon="-1.73583">
        <ele>70</ele>
        <time>2021-08-01T08:34:35.000Z</time>
      </trkpt>
      <trkpt lat="47.0122" lon="-1.73565">
        <ele>70</ele>
        <time>2021-08-01T08:34:37.000Z</time>
      </trkpt>
      <trkpt lat="47.01221" lon="-1.73546">
        <ele>70</ele>
        <time>2021-08-01T08:34:39.000Z</time>
      </trkpt>
      <trkpt lat="47.01222" lon="-1.73528">
        <ele>70</ele>
        <time>2021-08-01T08:34:41.000Z</time>
      </trkpt>
      <trkpt lat="47.01223" lon="-1.73512">
        <ele>70</ele>
        <time>2021-08-01T08:34:43.000Z</time>
      </trkpt>
      <trkpt lat="47.01223" lon="-1.73496">
        <ele>70</ele>
        <time>2021-08-01T08:34:45.000Z</time>
      </trkpt>
      <trkpt lat="47.01217" lon="-1.73486">
        <ele>70</ele>
        <time>2021-08-01T08:34:47.000Z</time>
      </trkpt>
      <trkpt lat="47.01205" lon="-1.73483">
        <ele>70</ele>
        <time>2021-08-01T08:34:49.000Z</time>
      </trkpt>
      <trkpt lat="47.01193" lon="-1.7348">
        <ele>69</ele>
        <time>2021-08-01T08:34:51.000Z</time>
      </trkpt>
      <trkpt lat="47.01181" lon="-1.73476">
        <ele>68</ele>
        <time>2021-08-01T08:34:53.000Z</time>
      </trkpt>
      <trkpt lat="47.01168" lon="-1.73472">
        <ele>68</ele>
        <time>2021-08-01T08:34:55.000Z</time>
      </trkpt>
      <trkpt lat="47.01154" lon="-1.73469">
        <ele>68</ele>
        <time>2021-08-01T08:34:57.000Z</time>
      </trkpt>
      <trkpt lat="47.01141" lon="-1.73466">
        <ele>68</ele>
        <time>2021-08-01T08:34:59.000Z</time>
      </trkpt>
      <trkpt lat="47.01128" lon="-1.73461">
        <ele>68</ele>
        <time>2021-08-01T08:35:01.000Z</time>
      </trkpt>
      <trkpt lat="47.01116" lon="-1.73457">
        <ele>67</ele>
        <time>2021-08-01T08:35:03.000Z</time>
      </trkpt>
      <trkpt lat="47.01103" lon="-1.73453">
        <ele>67</ele>
        <time>2021-08-01T08:35:05.000Z</time>
      </trkpt>
      <trkpt lat="47.01098" lon="-1.73437">
        <ele>68</ele>
        <time>2021-08-01T08:35:07.000Z</time>
      </trkpt>
      <trkpt lat="47.01106" lon="-1.73419">
        <ele>69</ele>
        <time>2021-08-01T08:35:09.000Z</time>
      </trkpt>
      <trkpt lat="47.01113" lon="-1.73404">
        <ele>69</ele>
        <time>2021-08-01T08:35:11.000Z</time>
      </trkpt>
      <trkpt lat="47.01121" lon="-1.73389">
        <ele>69</ele>
        <time>2021-08-01T08:35:13.000Z</time>
      </trkpt>
      <trkpt lat="47.01128" lon="-1.73374">
        <ele>70</ele>
        <time>2021-08-01T08:35:15.000Z</time>
      </trkpt>
      <trkpt lat="47.01135" lon="-1.73359">
        <ele>71</ele>
        <time>2021-08-01T08:35:17.000Z</time>
      </trkpt>
      <trkpt lat="47.01141" lon="-1.73343">
        <ele>71</ele>
        <time>2021-08-01T08:35:19.000Z</time>
      </trkpt>
      <trkpt lat="47.01149" lon="-1.73326">
        <ele>70</ele>
        <time>2021-08-01T08:35:21.000Z</time>
      </trkpt>
      <trkpt lat="47.01156" lon="-1.73311">
        <ele>71</ele>
        <time>2021-08-01T08:35:23.000Z</time>
      </trkpt>
      <trkpt lat="47.01163" lon="-1.73294">
        <ele>71</ele>
        <time>2021-08-01T08:35:25.000Z</time>
      </trkpt>
      <trkpt lat="47.0117" lon="-1.73278">
        <ele>71</ele>
        <time>2021-08-01T08:35:27.000Z</time>
      </trkpt>
      <trkpt lat="47.01176" lon="-1.73262">
        <ele>72</ele>
        <time>2021-08-01T08:35:29.000Z</time>
      </trkpt>
      <trkpt lat="47.01183" lon="-1.73246">
        <ele>72</ele>
        <time>2021-08-01T08:35:31.000Z</time>
      </trkpt>
      <trkpt lat="47.0119" lon="-1.7323">
        <ele>71</ele>
        <time>2021-08-01T08:35:33.000Z</time>
      </trkpt>
      <trkpt lat="47.01197" lon="-1.73215">
        <ele>71</ele>
        <time>2021-08-01T08:35:35.000Z</time>
      </trkpt>
      <trkpt lat="47.01204" lon="-1.73199">
        <ele>71</ele>
        <time>2021-08-01T08:35:37.000Z</time>
      </trkpt>
      <trkpt lat="47.01211" lon="-1.73182">
        <ele>71</ele>
        <time>2021-08-01T08:35:39.000Z</time>
      </trkpt>
      <trkpt lat="47.01218" lon="-1.73166">
        <ele>71</ele>
        <time>2021-08-01T08:35:41.000Z</time>
      </trkpt>
      <trkpt lat="47.01225" lon="-1.7315">
        <ele>71</ele>
        <time>2021-08-01T08:35:43.000Z</time>
      </trkpt>
      <trkpt lat="47.01231" lon="-1.73134">
        <ele>70</ele>
        <time>2021-08-01T08:35:45.000Z</time>
      </trkpt>
      <trkpt lat="47.01238" lon="-1.73118">
        <ele>71</ele>
        <time>2021-08-01T08:35:47.000Z</time>
      </trkpt>
      <trkpt lat="47.01245" lon="-1.73103">
        <ele>70</ele>
        <time>2021-08-01T08:35:49.000Z</time>
      </trkpt>
      <trkpt lat="47.01252" lon="-1.73087">
        <ele>70</ele>
        <time>2021-08-01T08:35:51.000Z</time>
      </trkpt>
      <trkpt lat="47.01259" lon="-1.73072">
        <ele>70</ele>
        <time>2021-08-01T08:35:53.000Z</time>
      </trkpt>
      <trkpt lat="47.01266" lon="-1.73056">
        <ele>71</ele>
        <time>2021-08-01T08:35:55.000Z</time>
      </trkpt>
      <trkpt lat="47.01273" lon="-1.73041">
        <ele>70</ele>
        <time>2021-08-01T08:35:57.000Z</time>
      </trkpt>
      <trkpt lat="47.0128" lon="-1.73025">
        <ele>70</ele>
        <time>2021-08-01T08:35:59.000Z</time>
      </trkpt>
      <trkpt lat="47.01287" lon="-1.73009">
        <ele>70</ele>
        <time>2021-08-01T08:36:01.000Z</time>
      </trkpt>
      <trkpt lat="47.01293" lon="-1.72994">
        <ele>70</ele>
        <time>2021-08-01T08:36:03.000Z</time>
      </trkpt>
      <trkpt lat="47.013" lon="-1.72978">
        <ele>70</ele>
        <time>2021-08-01T08:36:05.000Z</time>
      </trkpt>
      <trkpt lat="47.01307" lon="-1.72962">
        <ele>70</ele>
        <time>2021-08-01T08:36:07.000Z</time>
      </trkpt>
      <trkpt lat="47.01313" lon="-1.72947">
        <ele>71</ele>
        <time>2021-08-01T08:36:09.000Z</time>
      </trkpt>
      <trkpt lat="47.0132" lon="-1.72931">
        <ele>70</ele>
        <time>2021-08-01T08:36:11.000Z</time>
      </trkpt>
      <trkpt lat="47.01327" lon="-1.72916">
        <ele>71</ele>
        <time>2021-08-01T08:36:13.000Z</time>
      </trkpt>
      <trkpt lat="47.01333" lon="-1.72901">
        <ele>71</ele>
        <time>2021-08-01T08:36:15.000Z</time>
      </trkpt>
      <trkpt lat="47.0134" lon="-1.72886">
        <ele>71</ele>
        <time>2021-08-01T08:36:17.000Z</time>
      </trkpt>
      <trkpt lat="47.01347" lon="-1.72871">
        <ele>71</ele>
        <time>2021-08-01T08:36:19.000Z</time>
      </trkpt>
      <trkpt lat="47.01354" lon="-1.72856">
        <ele>71</ele>
        <time>2021-08-01T08:36:21.000Z</time>
      </trkpt>
      <trkpt lat="47.01361" lon="-1.72841">
        <ele>71</ele>
        <time>2021-08-01T08:36:23.000Z</time>
      </trkpt>
      <trkpt lat="47.01367" lon="-1.72826">
        <ele>72</ele>
        <time>2021-08-01T08:36:25.000Z</time>
      </trkpt>
      <trkpt lat="47.01374" lon="-1.7281">
        <ele>72</ele>
        <time>2021-08-01T08:36:27.000Z</time>
      </trkpt>
      <trkpt lat="47.01381" lon="-1.72796">
        <ele>72</ele>
        <time>2021-08-01T08:36:29.000Z</time>
      </trkpt>
      <trkpt lat="47.01387" lon="-1.72781">
        <ele>72</ele>
        <time>2021-08-01T08:36:31.000Z</time>
      </trkpt>
      <trkpt lat="47.01393" lon="-1.72767">
        <ele>72</ele>
        <time>2021-08-01T08:36:33.000Z</time>
      </trkpt>
      <trkpt lat="47.014" lon="-1.72752">
        <ele>72</ele>
        <time>2021-08-01T08:36:35.000Z</time>
      </trkpt>
      <trkpt lat="47.01406" lon="-1.72737">
        <ele>72</ele>
        <time>2021-08-01T08:36:37.000Z</time>
      </trkpt>
      <trkpt lat="47.01412" lon="-1.72722">
        <ele>73</ele>
        <time>2021-08-01T08:36:39.000Z</time>
      </trkpt>
      <trkpt lat="47.01419" lon="-1.72707">
        <ele>73</ele>
        <time>2021-08-01T08:36:41.000Z</time>
      </trkpt>
      <trkpt lat="47.01425" lon="-1.72692">
        <ele>73</ele>
        <time>2021-08-01T08:36:43.000Z</time>
      </trkpt>
      <trkpt lat="47.01431" lon="-1.72677">
        <ele>73</ele>
        <time>2021-08-01T08:36:45.000Z</time>
      </trkpt>
      <trkpt lat="47.01438" lon="-1.72662">
        <ele>73</ele>
        <time>2021-08-01T08:36:47.000Z</time>
      </trkpt>
      <trkpt lat="47.01444" lon="-1.72647">
        <ele>73</ele>
        <time>2021-08-01T08:36:49.000Z</time>
      </trkpt>
      <trkpt lat="47.01451" lon="-1.72632">
        <ele>74</ele>
        <time>2021-08-01T08:36:51.000Z</time>
      </trkpt>
      <trkpt lat="47.01459" lon="-1.72618">
        <ele>75</ele>
        <time>2021-08-01T08:36:53.000Z</time>
      </trkpt>
      <trkpt lat="47.01465" lon="-1.72603">
        <ele>75</ele>
        <time>2021-08-01T08:36:55.000Z</time>
      </trkpt>
      <trkpt lat="47.01472" lon="-1.72588">
        <ele>76</ele>
        <time>2021-08-01T08:36:57.000Z</time>
      </trkpt>
      <trkpt lat="47.01479" lon="-1.72573">
        <ele>76</ele>
        <time>2021-08-01T08:36:59.000Z</time>
      </trkpt>
      <trkpt lat="47.01486" lon="-1.72559">
        <ele>76</ele>
        <time>2021-08-01T08:37:01.000Z</time>
      </trkpt>
      <trkpt lat="47.01493" lon="-1.72543">
        <ele>77</ele>
        <time>2021-08-01T08:37:03.000Z</time>
      </trkpt>
      <trkpt lat="47.01499" lon="-1.72527">
        <ele>77</ele>
        <time>2021-08-01T08:37:05.000Z</time>
      </trkpt>
      <trkpt lat="47.01505" lon="-1.72512">
        <ele>77</ele>
        <time>2021-08-01T08:37:07.000Z</time>
      </trkpt>
      <trkpt lat="47.01511" lon="-1.72498">
        <ele>77</ele>
        <time>2021-08-01T08:37:09.000Z</time>
      </trkpt>
      <trkpt lat="47.01518" lon="-1.72483">
        <ele>77</ele>
        <time>2021-08-01T08:37:11.000Z</time>
      </trkpt>
      <trkpt lat="47.01524" lon="-1.72468">
        <ele>77</ele>
        <time>2021-08-01T08:37:13.000Z</time>
      </trkpt>
      <trkpt lat="47.01531" lon="-1.72454">
        <ele>77</ele>
        <time>2021-08-01T08:37:15.000Z</time>
      </trkpt>
      <trkpt lat="47.01538" lon="-1.72439">
        <ele>77</ele>
        <time>2021-08-01T08:37:17.000Z</time>
      </trkpt>
      <trkpt lat="47.01544" lon="-1.72423">
        <ele>77</ele>
        <time>2021-08-01T08:37:19.000Z</time>
      </trkpt>
      <trkpt lat="47.01551" lon="-1.72408">
        <ele>77</ele>
        <time>2021-08-01T08:37:21.000Z</time>
      </trkpt>
      <trkpt lat="47.01557" lon="-1.72394">
        <ele>77</ele>
        <time>2021-08-01T08:37:23.000Z</time>
      </trkpt>
      <trkpt lat="47.01563" lon="-1.7238">
        <ele>78</ele>
        <time>2021-08-01T08:37:25.000Z</time>
      </trkpt>
      <trkpt lat="47.0157" lon="-1.72365">
        <ele>78</ele>
        <time>2021-08-01T08:37:27.000Z</time>
      </trkpt>
      <trkpt lat="47.01576" lon="-1.7235">
        <ele>78</ele>
        <time>2021-08-01T08:37:29.000Z</time>
      </trkpt>
      <trkpt lat="47.01583" lon="-1.72335">
        <ele>78</ele>
        <time>2021-08-01T08:37:31.000Z</time>
      </trkpt>
      <trkpt lat="47.01588" lon="-1.7232">
        <ele>78</ele>
        <time>2021-08-01T08:37:33.000Z</time>
      </trkpt>
      <trkpt lat="47.01595" lon="-1.72305">
        <ele>78</ele>
        <time>2021-08-01T08:37:35.000Z</time>
      </trkpt>
      <trkpt lat="47.01601" lon="-1.7229">
        <ele>78</ele>
        <time>2021-08-01T08:37:37.000Z</time>
      </trkpt>
      <trkpt lat="47.01607" lon="-1.72275">
        <ele>78</ele>
        <time>2021-08-01T08:37:39.000Z</time>
      </trkpt>
      <trkpt lat="47.01613" lon="-1.7226">
        <ele>79</ele>
        <time>2021-08-01T08:37:41.000Z</time>
      </trkpt>
      <trkpt lat="47.01618" lon="-1.72243">
        <ele>79</ele>
        <time>2021-08-01T08:37:43.000Z</time>
      </trkpt>
      <trkpt lat="47.01623" lon="-1.72228">
        <ele>80</ele>
        <time>2021-08-01T08:37:45.000Z</time>
      </trkpt>
      <trkpt lat="47.01628" lon="-1.72212">
        <ele>80</ele>
        <time>2021-08-01T08:37:47.000Z</time>
      </trkpt>
      <trkpt lat="47.01634" lon="-1.72197">
        <ele>80</ele>
        <time>2021-08-01T08:37:49.000Z</time>
      </trkpt>
      <trkpt lat="47.0164" lon="-1.72182">
        <ele>80</ele>
        <time>2021-08-01T08:37:51.000Z</time>
      </trkpt>
      <trkpt lat="47.01645" lon="-1.72166">
        <ele>80</ele>
        <time>2021-08-01T08:37:53.000Z</time>
      </trkpt>
      <trkpt lat="47.0165" lon="-1.72149">
        <ele>80</ele>
        <time>2021-08-01T08:37:55.000Z</time>
      </trkpt>
      <trkpt lat="47.01656" lon="-1.72133">
        <ele>79</ele>
        <time>2021-08-01T08:37:57.000Z</time>
      </trkpt>
      <trkpt lat="47.01661" lon="-1.72117">
        <ele>79</ele>
        <time>2021-08-01T08:37:59.000Z</time>
      </trkpt>
      <trkpt lat="47.01667" lon="-1.721">
        <ele>79</ele>
        <time>2021-08-01T08:38:01.000Z</time>
      </trkpt>
      <trkpt lat="47.01672" lon="-1.72085">
        <ele>79</ele>
        <time>2021-08-01T08:38:03.000Z</time>
      </trkpt>
      <trkpt lat="47.01678" lon="-1.7207">
        <ele>79</ele>
        <time>2021-08-01T08:38:05.000Z</time>
      </trkpt>
      <trkpt lat="47.01683" lon="-1.72054">
        <ele>79</ele>
        <time>2021-08-01T08:38:07.000Z</time>
      </trkpt>
      <trkpt lat="47.01689" lon="-1.72038">
        <ele>79</ele>
        <time>2021-08-01T08:38:09.000Z</time>
      </trkpt>
      <trkpt lat="47.01694" lon="-1.72021">
        <ele>79</ele>
        <time>2021-08-01T08:38:11.000Z</time>
      </trkpt>
      <trkpt lat="47.017" lon="-1.72005">
        <ele>79</ele>
        <time>2021-08-01T08:38:13.000Z</time>
      </trkpt>
      <trkpt lat="47.01705" lon="-1.71989">
        <ele>79</ele>
        <time>2021-08-01T08:38:15.000Z</time>
      </trkpt>
      <trkpt lat="47.01711" lon="-1.71973">
        <ele>79</ele>
        <time>2021-08-01T08:38:17.000Z</time>
      </trkpt>
      <trkpt lat="47.01715" lon="-1.71957">
        <ele>79</ele>
        <time>2021-08-01T08:38:19.000Z</time>
      </trkpt>
      <trkpt lat="47.0172" lon="-1.71942">
        <ele>79</ele>
        <time>2021-08-01T08:38:21.000Z</time>
      </trkpt>
      <trkpt lat="47.01725" lon="-1.71926">
        <ele>79</ele>
        <time>2021-08-01T08:38:23.000Z</time>
      </trkpt>
      <trkpt lat="47.01731" lon="-1.7191">
        <ele>79</ele>
        <time>2021-08-01T08:38:25.000Z</time>
      </trkpt>
      <trkpt lat="47.01736" lon="-1.71894">
        <ele>79</ele>
        <time>2021-08-01T08:38:27.000Z</time>
      </trkpt>
      <trkpt lat="47.01742" lon="-1.71878">
        <ele>79</ele>
        <time>2021-08-01T08:38:29.000Z</time>
      </trkpt>
      <trkpt lat="47.01747" lon="-1.71862">
        <ele>80</ele>
        <time>2021-08-01T08:38:31.000Z</time>
      </trkpt>
      <trkpt lat="47.01753" lon="-1.71846">
        <ele>80</ele>
        <time>2021-08-01T08:38:33.000Z</time>
      </trkpt>
      <trkpt lat="47.01758" lon="-1.71831">
        <ele>80</ele>
        <time>2021-08-01T08:38:35.000Z</time>
      </trkpt>
      <trkpt lat="47.01764" lon="-1.71815">
        <ele>80</ele>
        <time>2021-08-01T08:38:37.000Z</time>
      </trkpt>
      <trkpt lat="47.0177" lon="-1.71798">
        <ele>79</ele>
        <time>2021-08-01T08:38:39.000Z</time>
      </trkpt>
      <trkpt lat="47.01775" lon="-1.71782">
        <ele>80</ele>
        <time>2021-08-01T08:38:41.000Z</time>
      </trkpt>
      <trkpt lat="47.0178" lon="-1.71766">
        <ele>80</ele>
        <time>2021-08-01T08:38:43.000Z</time>
      </trkpt>
      <trkpt lat="47.01785" lon="-1.71751">
        <ele>80</ele>
        <time>2021-08-01T08:38:45.000Z</time>
      </trkpt>
      <trkpt lat="47.01791" lon="-1.71735">
        <ele>80</ele>
        <time>2021-08-01T08:38:47.000Z</time>
      </trkpt>
      <trkpt lat="47.01797" lon="-1.7172">
        <ele>80</ele>
        <time>2021-08-01T08:38:49.000Z</time>
      </trkpt>
      <trkpt lat="47.01802" lon="-1.71705">
        <ele>81</ele>
        <time>2021-08-01T08:38:51.000Z</time>
      </trkpt>
      <trkpt lat="47.01807" lon="-1.71689">
        <ele>81</ele>
        <time>2021-08-01T08:38:53.000Z</time>
      </trkpt>
      <trkpt lat="47.01813" lon="-1.71672">
        <ele>81</ele>
        <time>2021-08-01T08:38:55.000Z</time>
      </trkpt>
      <trkpt lat="47.01818" lon="-1.71654">
        <ele>80</ele>
        <time>2021-08-01T08:38:57.000Z</time>
      </trkpt>
      <trkpt lat="47.01823" lon="-1.71636">
        <ele>79</ele>
        <time>2021-08-01T08:38:59.000Z</time>
      </trkpt>
      <trkpt lat="47.0183" lon="-1.7162">
        <ele>80</ele>
        <time>2021-08-01T08:39:01.000Z</time>
      </trkpt>
      <trkpt lat="47.01838" lon="-1.71603">
        <ele>80</ele>
        <time>2021-08-01T08:39:03.000Z</time>
      </trkpt>
      <trkpt lat="47.01845" lon="-1.71589">
        <ele>80</ele>
        <time>2021-08-01T08:39:05.000Z</time>
      </trkpt>
      <trkpt lat="47.01855" lon="-1.71575">
        <ele>79</ele>
        <time>2021-08-01T08:39:07.000Z</time>
      </trkpt>
      <trkpt lat="47.01864" lon="-1.71561">
        <ele>79</ele>
        <time>2021-08-01T08:39:09.000Z</time>
      </trkpt>
      <trkpt lat="47.01873" lon="-1.71547">
        <ele>79</ele>
        <time>2021-08-01T08:39:11.000Z</time>
      </trkpt>
      <trkpt lat="47.01882" lon="-1.71532">
        <ele>79</ele>
        <time>2021-08-01T08:39:13.000Z</time>
      </trkpt>
      <trkpt lat="47.01892" lon="-1.71518">
        <ele>80</ele>
        <time>2021-08-01T08:39:15.000Z</time>
      </trkpt>
      <trkpt lat="47.01901" lon="-1.71504">
        <ele>79</ele>
        <time>2021-08-01T08:39:17.000Z</time>
      </trkpt>
      <trkpt lat="47.0191" lon="-1.71489">
        <ele>79</ele>
        <time>2021-08-01T08:39:19.000Z</time>
      </trkpt>
      <trkpt lat="47.01919" lon="-1.71475">
        <ele>79</ele>
        <time>2021-08-01T08:39:21.000Z</time>
      </trkpt>
      <trkpt lat="47.01929" lon="-1.7146">
        <ele>79</ele>
        <time>2021-08-01T08:39:23.000Z</time>
      </trkpt>
      <trkpt lat="47.01938" lon="-1.71446">
        <ele>80</ele>
        <time>2021-08-01T08:39:25.000Z</time>
      </trkpt>
      <trkpt lat="47.01947" lon="-1.71431">
        <ele>80</ele>
        <time>2021-08-01T08:39:27.000Z</time>
      </trkpt>
      <trkpt lat="47.01956" lon="-1.71418">
        <ele>80</ele>
        <time>2021-08-01T08:39:29.000Z</time>
      </trkpt>
      <trkpt lat="47.01965" lon="-1.71403">
        <ele>79</ele>
        <time>2021-08-01T08:39:31.000Z</time>
      </trkpt>
      <trkpt lat="47.01975" lon="-1.71389">
        <ele>79</ele>
        <time>2021-08-01T08:39:33.000Z</time>
      </trkpt>
      <trkpt lat="47.01985" lon="-1.71375">
        <ele>78</ele>
        <time>2021-08-01T08:39:35.000Z</time>
      </trkpt>
      <trkpt lat="47.01995" lon="-1.71363">
        <ele>79</ele>
        <time>2021-08-01T08:39:37.000Z</time>
      </trkpt>
      <trkpt lat="47.02006" lon="-1.71351">
        <ele>79</ele>
        <time>2021-08-01T08:39:39.000Z</time>
      </trkpt>
      <trkpt lat="47.02018" lon="-1.7134">
        <ele>79</ele>
        <time>2021-08-01T08:39:41.000Z</time>
      </trkpt>
      <trkpt lat="47.02029" lon="-1.71327">
        <ele>78</ele>
        <time>2021-08-01T08:39:43.000Z</time>
      </trkpt>
      <trkpt lat="47.0204" lon="-1.71313">
        <ele>78</ele>
        <time>2021-08-01T08:39:45.000Z</time>
      </trkpt>
      <trkpt lat="47.02049" lon="-1.71298">
        <ele>78</ele>
        <time>2021-08-01T08:39:47.000Z</time>
      </trkpt>
      <trkpt lat="47.02057" lon="-1.71282">
        <ele>78</ele>
        <time>2021-08-01T08:39:49.000Z</time>
      </trkpt>
      <trkpt lat="47.02065" lon="-1.71266">
        <ele>78</ele>
        <time>2021-08-01T08:39:51.000Z</time>
      </trkpt>
      <trkpt lat="47.02073" lon="-1.71249">
        <ele>78</ele>
        <time>2021-08-01T08:39:53.000Z</time>
      </trkpt>
      <trkpt lat="47.0208" lon="-1.71233">
        <ele>78</ele>
        <time>2021-08-01T08:39:55.000Z</time>
      </trkpt>
      <trkpt lat="47.02088" lon="-1.71217">
        <ele>78</ele>
        <time>2021-08-01T08:39:57.000Z</time>
      </trkpt>
      <trkpt lat="47.02095" lon="-1.71199">
        <ele>78</ele>
        <time>2021-08-01T08:39:59.000Z</time>
      </trkpt>
      <trkpt lat="47.02102" lon="-1.71181">
        <ele>78</ele>
        <time>2021-08-01T08:40:01.000Z</time>
      </trkpt>
      <trkpt lat="47.02107" lon="-1.71164">
        <ele>78</ele>
        <time>2021-08-01T08:40:03.000Z</time>
      </trkpt>
      <trkpt lat="47.02114" lon="-1.71147">
        <ele>78</ele>
        <time>2021-08-01T08:40:05.000Z</time>
      </trkpt>
      <trkpt lat="47.0212" lon="-1.7113">
        <ele>79</ele>
        <time>2021-08-01T08:40:07.000Z</time>
      </trkpt>
      <trkpt lat="47.02126" lon="-1.71112">
        <ele>79</ele>
        <time>2021-08-01T08:40:09.000Z</time>
      </trkpt>
      <trkpt lat="47.02133" lon="-1.71096">
        <ele>79</ele>
        <time>2021-08-01T08:40:11.000Z</time>
      </trkpt>
      <trkpt lat="47.02141" lon="-1.7108">
        <ele>79</ele>
        <time>2021-08-01T08:40:13.000Z</time>
      </trkpt>
      <trkpt lat="47.02148" lon="-1.71064">
        <ele>79</ele>
        <time>2021-08-01T08:40:15.000Z</time>
      </trkpt>
      <trkpt lat="47.02156" lon="-1.71048">
        <ele>79</ele>
        <time>2021-08-01T08:40:17.000Z</time>
      </trkpt>
      <trkpt lat="47.02164" lon="-1.71032">
        <ele>78</ele>
        <time>2021-08-01T08:40:19.000Z</time>
      </trkpt>
      <trkpt lat="47.02171" lon="-1.71017">
        <ele>78</ele>
        <time>2021-08-01T08:40:21.000Z</time>
      </trkpt>
      <trkpt lat="47.02179" lon="-1.71002">
        <ele>78</ele>
        <time>2021-08-01T08:40:23.000Z</time>
      </trkpt>
      <trkpt lat="47.02187" lon="-1.70987">
        <ele>78</ele>
        <time>2021-08-01T08:40:25.000Z</time>
      </trkpt>
      <trkpt lat="47.02195" lon="-1.70972">
        <ele>79</ele>
        <time>2021-08-01T08:40:27.000Z</time>
      </trkpt>
      <trkpt lat="47.02203" lon="-1.70957">
        <ele>79</ele>
        <time>2021-08-01T08:40:29.000Z</time>
      </trkpt>
      <trkpt lat="47.02212" lon="-1.70943">
        <ele>80</ele>
        <time>2021-08-01T08:40:31.000Z</time>
      </trkpt>
      <trkpt lat="47.02221" lon="-1.70929">
        <ele>80</ele>
        <time>2021-08-01T08:40:33.000Z</time>
      </trkpt>
      <trkpt lat="47.02229" lon="-1.70914">
        <ele>79</ele>
        <time>2021-08-01T08:40:35.000Z</time>
      </trkpt>
      <trkpt lat="47.02239" lon="-1.709">
        <ele>79</ele>
        <time>2021-08-01T08:40:37.000Z</time>
      </trkpt>
      <trkpt lat="47.02248" lon="-1.70885">
        <ele>79</ele>
        <time>2021-08-01T08:40:39.000Z</time>
      </trkpt>
      <trkpt lat="47.02257" lon="-1.7087">
        <ele>79</ele>
        <time>2021-08-01T08:40:41.000Z</time>
      </trkpt>
      <trkpt lat="47.02267" lon="-1.70855">
        <ele>79</ele>
        <time>2021-08-01T08:40:43.000Z</time>
      </trkpt>
      <trkpt lat="47.02277" lon="-1.70841">
        <ele>79</ele>
        <time>2021-08-01T08:40:45.000Z</time>
      </trkpt>
      <trkpt lat="47.02286" lon="-1.70826">
        <ele>79</ele>
        <time>2021-08-01T08:40:47.000Z</time>
      </trkpt>
      <trkpt lat="47.02296" lon="-1.70811">
        <ele>79</ele>
        <time>2021-08-01T08:40:49.000Z</time>
      </trkpt>
      <trkpt lat="47.02306" lon="-1.70797">
        <ele>79</ele>
        <time>2021-08-01T08:40:51.000Z</time>
      </trkpt>
      <trkpt lat="47.02315" lon="-1.70782">
        <ele>79</ele>
        <time>2021-08-01T08:40:53.000Z</time>
      </trkpt>
      <trkpt lat="47.02325" lon="-1.70768">
        <ele>79</ele>
        <time>2021-08-01T08:40:55.000Z</time>
      </trkpt>
      <trkpt lat="47.02334" lon="-1.70754">
        <ele>78</ele>
        <time>2021-08-01T08:40:57.000Z</time>
      </trkpt>
      <trkpt lat="47.02343" lon="-1.70739">
        <ele>78</ele>
        <time>2021-08-01T08:40:59.000Z</time>
      </trkpt>
      <trkpt lat="47.02352" lon="-1.70725">
        <ele>78</ele>
        <time>2021-08-01T08:41:01.000Z</time>
      </trkpt>
      <trkpt lat="47.02361" lon="-1.70711">
        <ele>77</ele>
        <time>2021-08-01T08:41:03.000Z</time>
      </trkpt>
      <trkpt lat="47.02371" lon="-1.70697">
        <ele>77</ele>
        <time>2021-08-01T08:41:05.000Z</time>
      </trkpt>
      <trkpt lat="47.02379" lon="-1.70683">
        <ele>77</ele>
        <time>2021-08-01T08:41:07.000Z</time>
      </trkpt>
      <trkpt lat="47.02389" lon="-1.70669">
        <ele>77</ele>
        <time>2021-08-01T08:41:09.000Z</time>
      </trkpt>
      <trkpt lat="47.02398" lon="-1.70655">
        <ele>77</ele>
        <time>2021-08-01T08:41:11.000Z</time>
      </trkpt>
      <trkpt lat="47.02407" lon="-1.70642">
        <ele>76</ele>
        <time>2021-08-01T08:41:13.000Z</time>
      </trkpt>
      <trkpt lat="47.02416" lon="-1.70629">
        <ele>77</ele>
        <time>2021-08-01T08:41:15.000Z</time>
      </trkpt>
      <trkpt lat="47.02425" lon="-1.70616">
        <ele>77</ele>
        <time>2021-08-01T08:41:17.000Z</time>
      </trkpt>
      <trkpt lat="47.02434" lon="-1.70601">
        <ele>77</ele>
        <time>2021-08-01T08:41:19.000Z</time>
      </trkpt>
      <trkpt lat="47.02443" lon="-1.70587">
        <ele>77</ele>
        <time>2021-08-01T08:41:21.000Z</time>
      </trkpt>
      <trkpt lat="47.02453" lon="-1.70573">
        <ele>77</ele>
        <time>2021-08-01T08:41:23.000Z</time>
      </trkpt>
      <trkpt lat="47.02464" lon="-1.7056">
        <ele>77</ele>
        <time>2021-08-01T08:41:25.000Z</time>
      </trkpt>
      <trkpt lat="47.02475" lon="-1.70548">
        <ele>76</ele>
        <time>2021-08-01T08:41:27.000Z</time>
      </trkpt>
      <trkpt lat="47.02487" lon="-1.70537">
        <ele>76</ele>
        <time>2021-08-01T08:41:29.000Z</time>
      </trkpt>
      <trkpt lat="47.02498" lon="-1.70525">
        <ele>77</ele>
        <time>2021-08-01T08:41:31.000Z</time>
      </trkpt>
      <trkpt lat="47.0251" lon="-1.70515">
        <ele>77</ele>
        <time>2021-08-01T08:41:33.000Z</time>
      </trkpt>
      <trkpt lat="47.02521" lon="-1.70504">
        <ele>77</ele>
        <time>2021-08-01T08:41:35.000Z</time>
      </trkpt>
      <trkpt lat="47.02534" lon="-1.70493">
        <ele>78</ele>
        <time>2021-08-01T08:41:37.000Z</time>
      </trkpt>
      <trkpt lat="47.02546" lon="-1.70483">
        <ele>78</ele>
        <time>2021-08-01T08:41:39.000Z</time>
      </trkpt>
      <trkpt lat="47.02557" lon="-1.70472">
        <ele>77</ele>
        <time>2021-08-01T08:41:41.000Z</time>
      </trkpt>
      <trkpt lat="47.02568" lon="-1.70462">
        <ele>77</ele>
        <time>2021-08-01T08:41:43.000Z</time>
      </trkpt>
      <trkpt lat="47.0258" lon="-1.70452">
        <ele>77</ele>
        <time>2021-08-01T08:41:45.000Z</time>
      </trkpt>
      <trkpt lat="47.02591" lon="-1.70441">
        <ele>77</ele>
        <time>2021-08-01T08:41:47.000Z</time>
      </trkpt>
      <trkpt lat="47.02602" lon="-1.70429">
        <ele>77</ele>
        <time>2021-08-01T08:41:49.000Z</time>
      </trkpt>
      <trkpt lat="47.02613" lon="-1.70419">
        <ele>77</ele>
        <time>2021-08-01T08:41:51.000Z</time>
      </trkpt>
      <trkpt lat="47.02624" lon="-1.70408">
        <ele>77</ele>
        <time>2021-08-01T08:41:53.000Z</time>
      </trkpt>
      <trkpt lat="47.02633" lon="-1.70397">
        <ele>76</ele>
        <time>2021-08-01T08:41:55.000Z</time>
      </trkpt>
      <trkpt lat="47.02643" lon="-1.70386">
        <ele>77</ele>
        <time>2021-08-01T08:41:57.000Z</time>
      </trkpt>
      <trkpt lat="47.02652" lon="-1.70373">
        <ele>77</ele>
        <time>2021-08-01T08:41:59.000Z</time>
      </trkpt>
      <trkpt lat="47.02661" lon="-1.70361">
        <ele>78</ele>
        <time>2021-08-01T08:42:01.000Z</time>
      </trkpt>
      <trkpt lat="47.02667" lon="-1.70348">
        <ele>78</ele>
        <time>2021-08-01T08:42:03.000Z</time>
      </trkpt>
      <trkpt lat="47.02663" lon="-1.70335">
        <ele>77</ele>
        <time>2021-08-01T08:42:05.000Z</time>
      </trkpt>
      <trkpt lat="47.02652" lon="-1.70327">
        <ele>77</ele>
        <time>2021-08-01T08:42:07.000Z</time>
      </trkpt>
      <trkpt lat="47.02641" lon="-1.70319">
        <ele>77</ele>
        <time>2021-08-01T08:42:09.000Z</time>
      </trkpt>
      <trkpt lat="47.02629" lon="-1.7031">
        <ele>76</ele>
        <time>2021-08-01T08:42:11.000Z</time>
      </trkpt>
      <trkpt lat="47.02617" lon="-1.70303">
        <ele>77</ele>
        <time>2021-08-01T08:42:13.000Z</time>
      </trkpt>
      <trkpt lat="47.02605" lon="-1.70297">
        <ele>77</ele>
        <time>2021-08-01T08:42:15.000Z</time>
      </trkpt>
      <trkpt lat="47.02593" lon="-1.70291">
        <ele>77</ele>
        <time>2021-08-01T08:42:17.000Z</time>
      </trkpt>
      <trkpt lat="47.0258" lon="-1.70287">
        <ele>77</ele>
        <time>2021-08-01T08:42:19.000Z</time>
      </trkpt>
      <trkpt lat="47.02566" lon="-1.70283">
        <ele>77</ele>
        <time>2021-08-01T08:42:21.000Z</time>
      </trkpt>
      <trkpt lat="47.02552" lon="-1.7028">
        <ele>77</ele>
        <time>2021-08-01T08:42:23.000Z</time>
      </trkpt>
      <trkpt lat="47.02539" lon="-1.70277">
        <ele>77</ele>
        <time>2021-08-01T08:42:25.000Z</time>
      </trkpt>
      <trkpt lat="47.02526" lon="-1.70272">
        <ele>77</ele>
        <time>2021-08-01T08:42:27.000Z</time>
      </trkpt>
      <trkpt lat="47.02515" lon="-1.70263">
        <ele>76</ele>
        <time>2021-08-01T08:42:29.000Z</time>
      </trkpt>
      <trkpt lat="47.02505" lon="-1.7025">
        <ele>76</ele>
        <time>2021-08-01T08:42:31.000Z</time>
      </trkpt>
      <trkpt lat="47.02496" lon="-1.70236">
        <ele>75</ele>
        <time>2021-08-01T08:42:33.000Z</time>
      </trkpt>
      <trkpt lat="47.02488" lon="-1.7022">
        <ele>75</ele>
        <time>2021-08-01T08:42:35.000Z</time>
      </trkpt>
      <trkpt lat="47.0248" lon="-1.70204">
        <ele>75</ele>
        <time>2021-08-01T08:42:37.000Z</time>
      </trkpt>
      <trkpt lat="47.02473" lon="-1.70188">
        <ele>75</ele>
        <time>2021-08-01T08:42:39.000Z</time>
      </trkpt>
      <trkpt lat="47.02465" lon="-1.70172">
        <ele>75</ele>
        <time>2021-08-01T08:42:41.000Z</time>
      </trkpt>
      <trkpt lat="47.02457" lon="-1.70156">
        <ele>75</ele>
        <time>2021-08-01T08:42:43.000Z</time>
      </trkpt>
      <trkpt lat="47.0245" lon="-1.70141">
        <ele>75</ele>
        <time>2021-08-01T08:42:45.000Z</time>
      </trkpt>
      <trkpt lat="47.02443" lon="-1.70124">
        <ele>75</ele>
        <time>2021-08-01T08:42:47.000Z</time>
      </trkpt>
      <trkpt lat="47.02439" lon="-1.70107">
        <ele>75</ele>
        <time>2021-08-01T08:42:49.000Z</time>
      </trkpt>
      <trkpt lat="47.02436" lon="-1.70087">
        <ele>76</ele>
        <time>2021-08-01T08:42:51.000Z</time>
      </trkpt>
      <trkpt lat="47.02433" lon="-1.70068">
        <ele>75</ele>
        <time>2021-08-01T08:42:53.000Z</time>
      </trkpt>
      <trkpt lat="47.02432" lon="-1.7005">
        <ele>76</ele>
        <time>2021-08-01T08:42:55.000Z</time>
      </trkpt>
      <trkpt lat="47.02431" lon="-1.70031">
        <ele>76</ele>
        <time>2021-08-01T08:42:57.000Z</time>
      </trkpt>
      <trkpt lat="47.02429" lon="-1.70012">
        <ele>77</ele>
        <time>2021-08-01T08:42:59.000Z</time>
      </trkpt>
      <trkpt lat="47.02427" lon="-1.69993">
        <ele>78</ele>
        <time>2021-08-01T08:43:01.000Z</time>
      </trkpt>
      <trkpt lat="47.02426" lon="-1.69974">
        <ele>78</ele>
        <time>2021-08-01T08:43:03.000Z</time>
      </trkpt>
      <trkpt lat="47.02423" lon="-1.69956">
        <ele>78</ele>
        <time>2021-08-01T08:43:05.000Z</time>
      </trkpt>
      <trkpt lat="47.02421" lon="-1.69937">
        <ele>78</ele>
        <time>2021-08-01T08:43:07.000Z</time>
      </trkpt>
      <trkpt lat="47.0242" lon="-1.69919">
        <ele>79</ele>
        <time>2021-08-01T08:43:09.000Z</time>
      </trkpt>
      <trkpt lat="47.02417" lon="-1.69901">
        <ele>79</ele>
        <time>2021-08-01T08:43:11.000Z</time>
      </trkpt>
      <trkpt lat="47.02414" lon="-1.69883">
        <ele>79</ele>
        <time>2021-08-01T08:43:13.000Z</time>
      </trkpt>
      <trkpt lat="47.0241" lon="-1.69866">
        <ele>80</ele>
        <time>2021-08-01T08:43:15.000Z</time>
      </trkpt>
      <trkpt lat="47.02405" lon="-1.69848">
        <ele>79</ele>
        <time>2021-08-01T08:43:17.000Z</time>
      </trkpt>
      <trkpt lat="47.02398" lon="-1.69832">
        <ele>79</ele>
        <time>2021-08-01T08:43:19.000Z</time>
      </trkpt>
      <trkpt lat="47.02391" lon="-1.69816">
        <ele>79</ele>
        <time>2021-08-01T08:43:21.000Z</time>
      </trkpt>
      <trkpt lat="47.02382" lon="-1.69803">
        <ele>79</ele>
        <time>2021-08-01T08:43:23.000Z</time>
      </trkpt>
      <trkpt lat="47.02375" lon="-1.69789">
        <ele>79</ele>
        <time>2021-08-01T08:43:25.000Z</time>
      </trkpt>
      <trkpt lat="47.02366" lon="-1.69774">
        <ele>80</ele>
        <time>2021-08-01T08:43:27.000Z</time>
      </trkpt>
      <trkpt lat="47.02358" lon="-1.6976">
        <ele>79</ele>
        <time>2021-08-01T08:43:29.000Z</time>
      </trkpt>
      <trkpt lat="47.0235" lon="-1.69746">
        <ele>79</ele>
        <time>2021-08-01T08:43:31.000Z</time>
      </trkpt>
      <trkpt lat="47.02342" lon="-1.69731">
        <ele>79</ele>
        <time>2021-08-01T08:43:33.000Z</time>
      </trkpt>
      <trkpt lat="47.02334" lon="-1.69717">
        <ele>79</ele>
        <time>2021-08-01T08:43:35.000Z</time>
      </trkpt>
      <trkpt lat="47.02326" lon="-1.69703">
        <ele>79</ele>
        <time>2021-08-01T08:43:37.000Z</time>
      </trkpt>
      <trkpt lat="47.02318" lon="-1.69689">
        <ele>79</ele>
        <time>2021-08-01T08:43:39.000Z</time>
      </trkpt>
      <trkpt lat="47.0231" lon="-1.69675">
        <ele>79</ele>
        <time>2021-08-01T08:43:41.000Z</time>
      </trkpt>
      <trkpt lat="47.02302" lon="-1.6966">
        <ele>79</ele>
        <time>2021-08-01T08:43:43.000Z</time>
      </trkpt>
      <trkpt lat="47.02294" lon="-1.69646">
        <ele>79</ele>
        <time>2021-08-01T08:43:45.000Z</time>
      </trkpt>
      <trkpt lat="47.02286" lon="-1.69632">
        <ele>79</ele>
        <time>2021-08-01T08:43:47.000Z</time>
      </trkpt>
      <trkpt lat="47.02278" lon="-1.69619">
        <ele>79</ele>
        <time>2021-08-01T08:43:49.000Z</time>
      </trkpt>
      <trkpt lat="47.0227" lon="-1.69605">
        <ele>79</ele>
        <time>2021-08-01T08:43:51.000Z</time>
      </trkpt>
      <trkpt lat="47.02264" lon="-1.6959">
        <ele>79</ele>
        <time>2021-08-01T08:43:53.000Z</time>
      </trkpt>
      <trkpt lat="47.02257" lon="-1.69574">
        <ele>79</ele>
        <time>2021-08-01T08:43:55.000Z</time>
      </trkpt>
      <trkpt lat="47.02251" lon="-1.69559">
        <ele>79</ele>
        <time>2021-08-01T08:43:57.000Z</time>
      </trkpt>
      <trkpt lat="47.02246" lon="-1.69542">
        <ele>79</ele>
        <time>2021-08-01T08:43:59.000Z</time>
      </trkpt>
      <trkpt lat="47.02241" lon="-1.69526">
        <ele>80</ele>
        <time>2021-08-01T08:44:01.000Z</time>
      </trkpt>
      <trkpt lat="47.02237" lon="-1.69509">
        <ele>80</ele>
        <time>2021-08-01T08:44:03.000Z</time>
      </trkpt>
      <trkpt lat="47.02233" lon="-1.69492">
        <ele>80</ele>
        <time>2021-08-01T08:44:05.000Z</time>
      </trkpt>
      <trkpt lat="47.0223" lon="-1.69474">
        <ele>80</ele>
        <time>2021-08-01T08:44:07.000Z</time>
      </trkpt>
      <trkpt lat="47.02226" lon="-1.69457">
        <ele>80</ele>
        <time>2021-08-01T08:44:09.000Z</time>
      </trkpt>
      <trkpt lat="47.02223" lon="-1.6944">
        <ele>80</ele>
        <time>2021-08-01T08:44:11.000Z</time>
      </trkpt>
      <trkpt lat="47.0222" lon="-1.69423">
        <ele>80</ele>
        <time>2021-08-01T08:44:13.000Z</time>
      </trkpt>
      <trkpt lat="47.02218" lon="-1.69405">
        <ele>79</ele>
        <time>2021-08-01T08:44:15.000Z</time>
      </trkpt>
      <trkpt lat="47.02216" lon="-1.69386">
        <ele>79</ele>
        <time>2021-08-01T08:44:17.000Z</time>
      </trkpt>
      <trkpt lat="47.02214" lon="-1.69368">
        <ele>79</ele>
        <time>2021-08-01T08:44:19.000Z</time>
      </trkpt>
      <trkpt lat="47.02213" lon="-1.6935">
        <ele>79</ele>
        <time>2021-08-01T08:44:21.000Z</time>
      </trkpt>
      <trkpt lat="47.02216" lon="-1.69331">
        <ele>79</ele>
        <time>2021-08-01T08:44:23.000Z</time>
      </trkpt>
      <trkpt lat="47.02219" lon="-1.69313">
        <ele>79</ele>
        <time>2021-08-01T08:44:25.000Z</time>
      </trkpt>
      <trkpt lat="47.02222" lon="-1.69295">
        <ele>79</ele>
        <time>2021-08-01T08:44:27.000Z</time>
      </trkpt>
      <trkpt lat="47.02225" lon="-1.69276">
        <ele>79</ele>
        <time>2021-08-01T08:44:29.000Z</time>
      </trkpt>
      <trkpt lat="47.02227" lon="-1.69258">
        <ele>79</ele>
        <time>2021-08-01T08:44:31.000Z</time>
      </trkpt>
      <trkpt lat="47.02227" lon="-1.69239">
        <ele>79</ele>
        <time>2021-08-01T08:44:33.000Z</time>
      </trkpt>
      <trkpt lat="47.02226" lon="-1.69221">
        <ele>79</ele>
        <time>2021-08-01T08:44:35.000Z</time>
      </trkpt>
      <trkpt lat="47.02223" lon="-1.69202">
        <ele>79</ele>
        <time>2021-08-01T08:44:37.000Z</time>
      </trkpt>
      <trkpt lat="47.02219" lon="-1.69185">
        <ele>79</ele>
        <time>2021-08-01T08:44:39.000Z</time>
      </trkpt>
      <trkpt lat="47.02216" lon="-1.69166">
        <ele>79</ele>
        <time>2021-08-01T08:44:41.000Z</time>
      </trkpt>
      <trkpt lat="47.02212" lon="-1.69148">
        <ele>80</ele>
        <time>2021-08-01T08:44:43.000Z</time>
      </trkpt>
      <trkpt lat="47.02208" lon="-1.69131">
        <ele>80</ele>
        <time>2021-08-01T08:44:45.000Z</time>
      </trkpt>
      <trkpt lat="47.02203" lon="-1.69115">
        <ele>80</ele>
        <time>2021-08-01T08:44:47.000Z</time>
      </trkpt>
      <trkpt lat="47.02198" lon="-1.69098">
        <ele>80</ele>
        <time>2021-08-01T08:44:49.000Z</time>
      </trkpt>
      <trkpt lat="47.02194" lon="-1.69081">
        <ele>81</ele>
        <time>2021-08-01T08:44:51.000Z</time>
      </trkpt>
      <trkpt lat="47.0219" lon="-1.69062">
        <ele>81</ele>
        <time>2021-08-01T08:44:53.000Z</time>
      </trkpt>
      <trkpt lat="47.02188" lon="-1.69044">
        <ele>80</ele>
        <time>2021-08-01T08:44:55.000Z</time>
      </trkpt>
      <trkpt lat="47.02187" lon="-1.69025">
        <ele>80</ele>
        <time>2021-08-01T08:44:57.000Z</time>
      </trkpt>
      <trkpt lat="47.02187" lon="-1.69007">
        <ele>80</ele>
        <time>2021-08-01T08:44:59.000Z</time>
      </trkpt>
      <trkpt lat="47.02188" lon="-1.68988">
        <ele>80</ele>
        <time>2021-08-01T08:45:01.000Z</time>
      </trkpt>
      <trkpt lat="47.02188" lon="-1.68968">
        <ele>80</ele>
        <time>2021-08-01T08:45:03.000Z</time>
      </trkpt>
      <trkpt lat="47.02189" lon="-1.68949">
        <ele>80</ele>
        <time>2021-08-01T08:45:05.000Z</time>
      </trkpt>
      <trkpt lat="47.02189" lon="-1.68931">
        <ele>81</ele>
        <time>2021-08-01T08:45:07.000Z</time>
      </trkpt>
      <trkpt lat="47.0219" lon="-1.68911">
        <ele>81</ele>
        <time>2021-08-01T08:45:09.000Z</time>
      </trkpt>
      <trkpt lat="47.02191" lon="-1.68893">
        <ele>81</ele>
        <time>2021-08-01T08:45:11.000Z</time>
      </trkpt>
      <trkpt lat="47.02193" lon="-1.68874">
        <ele>81</ele>
        <time>2021-08-01T08:45:13.000Z</time>
      </trkpt>
      <trkpt lat="47.02194" lon="-1.68857">
        <ele>82</ele>
        <time>2021-08-01T08:45:15.000Z</time>
      </trkpt>
      <trkpt lat="47.02195" lon="-1.6884">
        <ele>82</ele>
        <time>2021-08-01T08:45:17.000Z</time>
      </trkpt>
      <trkpt lat="47.02197" lon="-1.68824">
        <ele>83</ele>
        <time>2021-08-01T08:45:19.000Z</time>
      </trkpt>
      <trkpt lat="47.02196" lon="-1.68807">
        <ele>84</ele>
        <time>2021-08-01T08:45:22.000Z</time>
      </trkpt>
      <trkpt lat="47.02196" lon="-1.68791">
        <ele>85</ele>
        <time>2021-08-01T08:45:25.000Z</time>
      </trkpt>
      <trkpt lat="47.02201" lon="-1.68778">
        <ele>85</ele>
        <time>2021-08-01T08:45:27.000Z</time>
      </trkpt>
      <trkpt lat="47.02209" lon="-1.68764">
        <ele>86</ele>
        <time>2021-08-01T08:45:29.000Z</time>
      </trkpt>
      <trkpt lat="47.02216" lon="-1.68751">
        <ele>86</ele>
        <time>2021-08-01T08:45:31.000Z</time>
      </trkpt>
      <trkpt lat="47.02223" lon="-1.68739">
        <ele>87</ele>
        <time>2021-08-01T08:45:33.000Z</time>
      </trkpt>
      <trkpt lat="47.0223" lon="-1.68726">
        <ele>87</ele>
        <time>2021-08-01T08:45:35.000Z</time>
      </trkpt>
      <trkpt lat="47.02237" lon="-1.68714">
        <ele>88</ele>
        <time>2021-08-01T08:45:37.000Z</time>
      </trkpt>
      <trkpt lat="47.02244" lon="-1.68702">
        <ele>88</ele>
        <time>2021-08-01T08:45:39.000Z</time>
      </trkpt>
      <trkpt lat="47.02251" lon="-1.68689">
        <ele>88</ele>
        <time>2021-08-01T08:45:41.000Z</time>
      </trkpt>
      <trkpt lat="47.02257" lon="-1.68676">
        <ele>89</ele>
        <time>2021-08-01T08:45:43.000Z</time>
      </trkpt>
      <trkpt lat="47.02265" lon="-1.68663">
        <ele>89</ele>
        <time>2021-08-01T08:45:45.000Z</time>
      </trkpt>
      <trkpt lat="47.02272" lon="-1.68651">
        <ele>89</ele>
        <time>2021-08-01T08:45:47.000Z</time>
      </trkpt>
      <trkpt lat="47.02278" lon="-1.68639">
        <ele>89</ele>
        <time>2021-08-01T08:45:49.000Z</time>
      </trkpt>
      <trkpt lat="47.02284" lon="-1.68627">
        <ele>90</ele>
        <time>2021-08-01T08:45:51.000Z</time>
      </trkpt>
      <trkpt lat="47.02292" lon="-1.68615">
        <ele>90</ele>
        <time>2021-08-01T08:45:53.000Z</time>
      </trkpt>
      <trkpt lat="47.02298" lon="-1.68602">
        <ele>91</ele>
        <time>2021-08-01T08:45:55.000Z</time>
      </trkpt>
      <trkpt lat="47.02305" lon="-1.6859">
        <ele>91</ele>
        <time>2021-08-01T08:45:57.000Z</time>
      </trkpt>
      <trkpt lat="47.02312" lon="-1.68579">
        <ele>92</ele>
        <time>2021-08-01T08:45:59.000Z</time>
      </trkpt>
      <trkpt lat="47.02318" lon="-1.68567">
        <ele>92</ele>
        <time>2021-08-01T08:46:01.000Z</time>
      </trkpt>
      <trkpt lat="47.02325" lon="-1.68556">
        <ele>92</ele>
        <time>2021-08-01T08:46:03.000Z</time>
      </trkpt>
      <trkpt lat="47.02331" lon="-1.68544">
        <ele>93</ele>
        <time>2021-08-01T08:46:05.000Z</time>
      </trkpt>
      <trkpt lat="47.02337" lon="-1.68533">
        <ele>94</ele>
        <time>2021-08-01T08:46:07.000Z</time>
      </trkpt>
      <trkpt lat="47.02343" lon="-1.68521">
        <ele>94</ele>
        <time>2021-08-01T08:46:09.000Z</time>
      </trkpt>
      <trkpt lat="47.02352" lon="-1.68503">
        <ele>95</ele>
        <time>2021-08-01T08:46:12.000Z</time>
      </trkpt>
      <trkpt lat="47.02358" lon="-1.68491">
        <ele>95</ele>
        <time>2021-08-01T08:46:14.000Z</time>
      </trkpt>
      <trkpt lat="47.02364" lon="-1.68478">
        <ele>95</ele>
        <time>2021-08-01T08:46:16.000Z</time>
      </trkpt>
      <trkpt lat="47.0237" lon="-1.68466">
        <ele>95</ele>
        <time>2021-08-01T08:46:18.000Z</time>
      </trkpt>
      <trkpt lat="47.02375" lon="-1.68454">
        <ele>95</ele>
        <time>2021-08-01T08:46:20.000Z</time>
      </trkpt>
      <trkpt lat="47.02379" lon="-1.68442">
        <ele>95</ele>
        <time>2021-08-01T08:46:22.000Z</time>
      </trkpt>
      <trkpt lat="47.02384" lon="-1.68429">
        <ele>95</ele>
        <time>2021-08-01T08:46:24.000Z</time>
      </trkpt>
      <trkpt lat="47.02389" lon="-1.68416">
        <ele>96</ele>
        <time>2021-08-01T08:46:26.000Z</time>
      </trkpt>
      <trkpt lat="47.02394" lon="-1.68402">
        <ele>96</ele>
        <time>2021-08-01T08:46:28.000Z</time>
      </trkpt>
      <trkpt lat="47.02399" lon="-1.68388">
        <ele>96</ele>
        <time>2021-08-01T08:46:30.000Z</time>
      </trkpt>
      <trkpt lat="47.02408" lon="-1.68365">
        <ele>96</ele>
        <time>2021-08-01T08:46:33.000Z</time>
      </trkpt>
      <trkpt lat="47.02416" lon="-1.68341">
        <ele>96</ele>
        <time>2021-08-01T08:46:36.000Z</time>
      </trkpt>
      <trkpt lat="47.02422" lon="-1.68325">
        <ele>96</ele>
        <time>2021-08-01T08:46:38.000Z</time>
      </trkpt>
      <trkpt lat="47.02431" lon="-1.683">
        <ele>96</ele>
        <time>2021-08-01T08:46:41.000Z</time>
      </trkpt>
      <trkpt lat="47.02438" lon="-1.68283">
        <ele>95</ele>
        <time>2021-08-01T08:46:43.000Z</time>
      </trkpt>
      <trkpt lat="47.02447" lon="-1.68257">
        <ele>95</ele>
        <time>2021-08-01T08:46:46.000Z</time>
      </trkpt>
      <trkpt lat="47.02454" lon="-1.6824">
        <ele>94</ele>
        <time>2021-08-01T08:46:48.000Z</time>
      </trkpt>
      <trkpt lat="47.02464" lon="-1.68212">
        <ele>94</ele>
        <time>2021-08-01T08:46:51.000Z</time>
      </trkpt>
      <trkpt lat="47.0247" lon="-1.68193">
        <ele>94</ele>
        <time>2021-08-01T08:46:53.000Z</time>
      </trkpt>
      <trkpt lat="47.02481" lon="-1.68166">
        <ele>94</ele>
        <time>2021-08-01T08:46:56.000Z</time>
      </trkpt>
      <trkpt lat="47.02488" lon="-1.68147">
        <ele>93</ele>
        <time>2021-08-01T08:46:58.000Z</time>
      </trkpt>
      <trkpt lat="47.02495" lon="-1.68128">
        <ele>93</ele>
        <time>2021-08-01T08:47:00.000Z</time>
      </trkpt>
      <trkpt lat="47.02502" lon="-1.68109">
        <ele>93</ele>
        <time>2021-08-01T08:47:02.000Z</time>
      </trkpt>
      <trkpt lat="47.02509" lon="-1.68091">
        <ele>93</ele>
        <time>2021-08-01T08:47:04.000Z</time>
      </trkpt>
      <trkpt lat="47.02516" lon="-1.68072">
        <ele>93</ele>
        <time>2021-08-01T08:47:06.000Z</time>
      </trkpt>
      <trkpt lat="47.02526" lon="-1.68044">
        <ele>93</ele>
        <time>2021-08-01T08:47:09.000Z</time>
      </trkpt>
      <trkpt lat="47.02533" lon="-1.68026">
        <ele>93</ele>
        <time>2021-08-01T08:47:11.000Z</time>
      </trkpt>
      <trkpt lat="47.0254" lon="-1.68007">
        <ele>94</ele>
        <time>2021-08-01T08:47:13.000Z</time>
      </trkpt>
      <trkpt lat="47.02547" lon="-1.67989">
        <ele>94</ele>
        <time>2021-08-01T08:47:15.000Z</time>
      </trkpt>
      <trkpt lat="47.02553" lon="-1.6797">
        <ele>93</ele>
        <time>2021-08-01T08:47:17.000Z</time>
      </trkpt>
      <trkpt lat="47.0256" lon="-1.67951">
        <ele>93</ele>
        <time>2021-08-01T08:47:19.000Z</time>
      </trkpt>
      <trkpt lat="47.02567" lon="-1.67933">
        <ele>93</ele>
        <time>2021-08-01T08:47:21.000Z</time>
      </trkpt>
      <trkpt lat="47.02573" lon="-1.67915">
        <ele>94</ele>
        <time>2021-08-01T08:47:23.000Z</time>
      </trkpt>
      <trkpt lat="47.0258" lon="-1.67897">
        <ele>93</ele>
        <time>2021-08-01T08:47:25.000Z</time>
      </trkpt>
      <trkpt lat="47.02587" lon="-1.67878">
        <ele>93</ele>
        <time>2021-08-01T08:47:27.000Z</time>
      </trkpt>
      <trkpt lat="47.02594" lon="-1.6786">
        <ele>94</ele>
        <time>2021-08-01T08:47:29.000Z</time>
      </trkpt>
      <trkpt lat="47.02601" lon="-1.67842">
        <ele>94</ele>
        <time>2021-08-01T08:47:31.000Z</time>
      </trkpt>
      <trkpt lat="47.02608" lon="-1.67823">
        <ele>93</ele>
        <time>2021-08-01T08:47:33.000Z</time>
      </trkpt>
      <trkpt lat="47.02615" lon="-1.67805">
        <ele>93</ele>
        <time>2021-08-01T08:47:35.000Z</time>
      </trkpt>
      <trkpt lat="47.02621" lon="-1.67787">
        <ele>93</ele>
        <time>2021-08-01T08:47:37.000Z</time>
      </trkpt>
      <trkpt lat="47.02628" lon="-1.67769">
        <ele>93</ele>
        <time>2021-08-01T08:47:39.000Z</time>
      </trkpt>
      <trkpt lat="47.02634" lon="-1.67751">
        <ele>93</ele>
        <time>2021-08-01T08:47:41.000Z</time>
      </trkpt>
      <trkpt lat="47.02641" lon="-1.67733">
        <ele>93</ele>
        <time>2021-08-01T08:47:43.000Z</time>
      </trkpt>
      <trkpt lat="47.02647" lon="-1.67715">
        <ele>93</ele>
        <time>2021-08-01T08:47:45.000Z</time>
      </trkpt>
      <trkpt lat="47.02654" lon="-1.67697">
        <ele>93</ele>
        <time>2021-08-01T08:47:47.000Z</time>
      </trkpt>
      <trkpt lat="47.02661" lon="-1.67679">
        <ele>93</ele>
        <time>2021-08-01T08:47:49.000Z</time>
      </trkpt>
      <trkpt lat="47.02668" lon="-1.67662">
        <ele>93</ele>
        <time>2021-08-01T08:47:51.000Z</time>
      </trkpt>
      <trkpt lat="47.02674" lon="-1.67645">
        <ele>93</ele>
        <time>2021-08-01T08:47:53.000Z</time>
      </trkpt>
      <trkpt lat="47.02681" lon="-1.67627">
        <ele>93</ele>
        <time>2021-08-01T08:47:55.000Z</time>
      </trkpt>
      <trkpt lat="47.02687" lon="-1.67609">
        <ele>93</ele>
        <time>2021-08-01T08:47:57.000Z</time>
      </trkpt>
      <trkpt lat="47.02694" lon="-1.67592">
        <ele>93</ele>
        <time>2021-08-01T08:47:59.000Z</time>
      </trkpt>
      <trkpt lat="47.027" lon="-1.67574">
        <ele>93</ele>
        <time>2021-08-01T08:48:01.000Z</time>
      </trkpt>
      <trkpt lat="47.02707" lon="-1.67556">
        <ele>93</ele>
        <time>2021-08-01T08:48:03.000Z</time>
      </trkpt>
      <trkpt lat="47.02713" lon="-1.67538">
        <ele>92</ele>
        <time>2021-08-01T08:48:05.000Z</time>
      </trkpt>
      <trkpt lat="47.0272" lon="-1.6752">
        <ele>92</ele>
        <time>2021-08-01T08:48:07.000Z</time>
      </trkpt>
      <trkpt lat="47.02727" lon="-1.67503">
        <ele>92</ele>
        <time>2021-08-01T08:48:09.000Z</time>
      </trkpt>
      <trkpt lat="47.02734" lon="-1.67484">
        <ele>92</ele>
        <time>2021-08-01T08:48:11.000Z</time>
      </trkpt>
      <trkpt lat="47.02741" lon="-1.67466">
        <ele>92</ele>
        <time>2021-08-01T08:48:13.000Z</time>
      </trkpt>
      <trkpt lat="47.02748" lon="-1.67447">
        <ele>92</ele>
        <time>2021-08-01T08:48:15.000Z</time>
      </trkpt>
      <trkpt lat="47.02754" lon="-1.67428">
        <ele>92</ele>
        <time>2021-08-01T08:48:17.000Z</time>
      </trkpt>
      <trkpt lat="47.02761" lon="-1.67409">
        <ele>92</ele>
        <time>2021-08-01T08:48:19.000Z</time>
      </trkpt>
      <trkpt lat="47.02768" lon="-1.6739">
        <ele>91</ele>
        <time>2021-08-01T08:48:21.000Z</time>
      </trkpt>
      <trkpt lat="47.02775" lon="-1.67371">
        <ele>91</ele>
        <time>2021-08-01T08:48:23.000Z</time>
      </trkpt>
      <trkpt lat="47.02782" lon="-1.67352">
        <ele>91</ele>
        <time>2021-08-01T08:48:25.000Z</time>
      </trkpt>
      <trkpt lat="47.02789" lon="-1.67334">
        <ele>91</ele>
        <time>2021-08-01T08:48:27.000Z</time>
      </trkpt>
      <trkpt lat="47.02796" lon="-1.67315">
        <ele>90</ele>
        <time>2021-08-01T08:48:29.000Z</time>
      </trkpt>
      <trkpt lat="47.02802" lon="-1.67296">
        <ele>90</ele>
        <time>2021-08-01T08:48:31.000Z</time>
      </trkpt>
      <trkpt lat="47.0281" lon="-1.67277">
        <ele>89</ele>
        <time>2021-08-01T08:48:33.000Z</time>
      </trkpt>
      <trkpt lat="47.02818" lon="-1.67257">
        <ele>89</ele>
        <time>2021-08-01T08:48:35.000Z</time>
      </trkpt>
      <trkpt lat="47.02825" lon="-1.67236">
        <ele>89</ele>
        <time>2021-08-01T08:48:37.000Z</time>
      </trkpt>
      <trkpt lat="47.02833" lon="-1.67215">
        <ele>89</ele>
        <time>2021-08-01T08:48:39.000Z</time>
      </trkpt>
      <trkpt lat="47.02841" lon="-1.67193">
        <ele>88</ele>
        <time>2021-08-01T08:48:41.000Z</time>
      </trkpt>
      <trkpt lat="47.02849" lon="-1.67172">
        <ele>88</ele>
        <time>2021-08-01T08:48:43.000Z</time>
      </trkpt>
      <trkpt lat="47.02857" lon="-1.67151">
        <ele>88</ele>
        <time>2021-08-01T08:48:45.000Z</time>
      </trkpt>
      <trkpt lat="47.02865" lon="-1.6713">
        <ele>88</ele>
        <time>2021-08-01T08:48:47.000Z</time>
      </trkpt>
      <trkpt lat="47.02873" lon="-1.6711">
        <ele>88</ele>
        <time>2021-08-01T08:48:49.000Z</time>
      </trkpt>
      <trkpt lat="47.0288" lon="-1.67089">
        <ele>88</ele>
        <time>2021-08-01T08:48:51.000Z</time>
      </trkpt>
      <trkpt lat="47.02888" lon="-1.67068">
        <ele>88</ele>
        <time>2021-08-01T08:48:53.000Z</time>
      </trkpt>
      <trkpt lat="47.02896" lon="-1.67047">
        <ele>88</ele>
        <time>2021-08-01T08:48:55.000Z</time>
      </trkpt>
      <trkpt lat="47.02903" lon="-1.67027">
        <ele>88</ele>
        <time>2021-08-01T08:48:57.000Z</time>
      </trkpt>
      <trkpt lat="47.0291" lon="-1.67007">
        <ele>88</ele>
        <time>2021-08-01T08:48:59.000Z</time>
      </trkpt>
      <trkpt lat="47.02917" lon="-1.66987">
        <ele>88</ele>
        <time>2021-08-01T08:49:01.000Z</time>
      </trkpt>
      <trkpt lat="47.02924" lon="-1.66968">
        <ele>88</ele>
        <time>2021-08-01T08:49:03.000Z</time>
      </trkpt>
      <trkpt lat="47.02931" lon="-1.66948">
        <ele>88</ele>
        <time>2021-08-01T08:49:05.000Z</time>
      </trkpt>
      <trkpt lat="47.02939" lon="-1.66928">
        <ele>88</ele>
        <time>2021-08-01T08:49:07.000Z</time>
      </trkpt>
      <trkpt lat="47.02946" lon="-1.66907">
        <ele>88</ele>
        <time>2021-08-01T08:49:09.000Z</time>
      </trkpt>
      <trkpt lat="47.02954" lon="-1.66887">
        <ele>88</ele>
        <time>2021-08-01T08:49:11.000Z</time>
      </trkpt>
      <trkpt lat="47.02962" lon="-1.66865">
        <ele>88</ele>
        <time>2021-08-01T08:49:13.000Z</time>
      </trkpt>
      <trkpt lat="47.0297" lon="-1.66844">
        <ele>88</ele>
        <time>2021-08-01T08:49:15.000Z</time>
      </trkpt>
      <trkpt lat="47.02978" lon="-1.66823">
        <ele>88</ele>
        <time>2021-08-01T08:49:17.000Z</time>
      </trkpt>
      <trkpt lat="47.02985" lon="-1.66802">
        <ele>88</ele>
        <time>2021-08-01T08:49:19.000Z</time>
      </trkpt>
      <trkpt lat="47.02993" lon="-1.66781">
        <ele>89</ele>
        <time>2021-08-01T08:49:21.000Z</time>
      </trkpt>
      <trkpt lat="47.03" lon="-1.66761">
        <ele>89</ele>
        <time>2021-08-01T08:49:23.000Z</time>
      </trkpt>
      <trkpt lat="47.03008" lon="-1.66741">
        <ele>89</ele>
        <time>2021-08-01T08:49:25.000Z</time>
      </trkpt>
      <trkpt lat="47.03015" lon="-1.66721">
        <ele>88</ele>
        <time>2021-08-01T08:49:27.000Z</time>
      </trkpt>
      <trkpt lat="47.03023" lon="-1.66701">
        <ele>88</ele>
        <time>2021-08-01T08:49:29.000Z</time>
      </trkpt>
      <trkpt lat="47.0303" lon="-1.6668">
        <ele>88</ele>
        <time>2021-08-01T08:49:31.000Z</time>
      </trkpt>
      <trkpt lat="47.03038" lon="-1.66658">
        <ele>87</ele>
        <time>2021-08-01T08:49:33.000Z</time>
      </trkpt>
      <trkpt lat="47.03046" lon="-1.66636">
        <ele>86</ele>
        <time>2021-08-01T08:49:35.000Z</time>
      </trkpt>
      <trkpt lat="47.03054" lon="-1.66614">
        <ele>85</ele>
        <time>2021-08-01T08:49:37.000Z</time>
      </trkpt>
      <trkpt lat="47.03059" lon="-1.66602">
        <ele>84</ele>
        <time>2021-08-01T08:49:38.000Z</time>
      </trkpt>
      <trkpt lat="47.03063" lon="-1.6659">
        <ele>84</ele>
        <time>2021-08-01T08:49:39.000Z</time>
      </trkpt>
      <trkpt lat="47.03067" lon="-1.66578">
        <ele>84</ele>
        <time>2021-08-01T08:49:40.000Z</time>
      </trkpt>
      <trkpt lat="47.03072" lon="-1.66566">
        <ele>83</ele>
        <time>2021-08-01T08:49:41.000Z</time>
      </trkpt>
      <trkpt lat="47.03076" lon="-1.66553">
        <ele>83</ele>
        <time>2021-08-01T08:49:42.000Z</time>
      </trkpt>
      <trkpt lat="47.03081" lon="-1.66541">
        <ele>82</ele>
        <time>2021-08-01T08:49:43.000Z</time>
      </trkpt>
      <trkpt lat="47.03086" lon="-1.66528">
        <ele>82</ele>
        <time>2021-08-01T08:49:44.000Z</time>
      </trkpt>
      <trkpt lat="47.0309" lon="-1.66515">
        <ele>82</ele>
        <time>2021-08-01T08:49:45.000Z</time>
      </trkpt>
      <trkpt lat="47.03095" lon="-1.66503">
        <ele>82</ele>
        <time>2021-08-01T08:49:46.000Z</time>
      </trkpt>
      <trkpt lat="47.03101" lon="-1.66491">
        <ele>81</ele>
        <time>2021-08-01T08:49:47.000Z</time>
      </trkpt>
      <trkpt lat="47.03107" lon="-1.66479">
        <ele>81</ele>
        <time>2021-08-01T08:49:48.000Z</time>
      </trkpt>
      <trkpt lat="47.03114" lon="-1.66467">
        <ele>80</ele>
        <time>2021-08-01T08:49:49.000Z</time>
      </trkpt>
      <trkpt lat="47.03121" lon="-1.66457">
        <ele>80</ele>
        <time>2021-08-01T08:49:50.000Z</time>
      </trkpt>
      <trkpt lat="47.03128" lon="-1.66447">
        <ele>79</ele>
        <time>2021-08-01T08:49:51.000Z</time>
      </trkpt>
      <trkpt lat="47.03136" lon="-1.66436">
        <ele>79</ele>
        <time>2021-08-01T08:49:52.000Z</time>
      </trkpt>
      <trkpt lat="47.03143" lon="-1.66426">
        <ele>79</ele>
        <time>2021-08-01T08:49:53.000Z</time>
      </trkpt>
      <trkpt lat="47.0315" lon="-1.66416">
        <ele>78</ele>
        <time>2021-08-01T08:49:54.000Z</time>
      </trkpt>
      <trkpt lat="47.03158" lon="-1.66404">
        <ele>78</ele>
        <time>2021-08-01T08:49:55.000Z</time>
      </trkpt>
      <trkpt lat="47.03164" lon="-1.66393">
        <ele>78</ele>
        <time>2021-08-01T08:49:56.000Z</time>
      </trkpt>
      <trkpt lat="47.03171" lon="-1.66382">
        <ele>78</ele>
        <time>2021-08-01T08:49:57.000Z</time>
      </trkpt>
      <trkpt lat="47.03178" lon="-1.66371">
        <ele>78</ele>
        <time>2021-08-01T08:49:58.000Z</time>
      </trkpt>
      <trkpt lat="47.03185" lon="-1.66358">
        <ele>77</ele>
        <time>2021-08-01T08:49:59.000Z</time>
      </trkpt>
      <trkpt lat="47.03191" lon="-1.66346">
        <ele>77</ele>
        <time>2021-08-01T08:50:00.000Z</time>
      </trkpt>
      <trkpt lat="47.03197" lon="-1.66333">
        <ele>76</ele>
        <time>2021-08-01T08:50:01.000Z</time>
      </trkpt>
      <trkpt lat="47.03203" lon="-1.6632">
        <ele>76</ele>
        <time>2021-08-01T08:50:02.000Z</time>
      </trkpt>
      <trkpt lat="47.03209" lon="-1.66306">
        <ele>75</ele>
        <time>2021-08-01T08:50:03.000Z</time>
      </trkpt>
      <trkpt lat="47.03214" lon="-1.66292">
        <ele>75</ele>
        <time>2021-08-01T08:50:04.000Z</time>
      </trkpt>
      <trkpt lat="47.0322" lon="-1.66278">
        <ele>75</ele>
        <time>2021-08-01T08:50:05.000Z</time>
      </trkpt>
      <trkpt lat="47.03225" lon="-1.66265">
        <ele>74</ele>
        <time>2021-08-01T08:50:06.000Z</time>
      </trkpt>
      <trkpt lat="47.03231" lon="-1.66251">
        <ele>74</ele>
        <time>2021-08-01T08:50:07.000Z</time>
      </trkpt>
      <trkpt lat="47.03236" lon="-1.66237">
        <ele>73</ele>
        <time>2021-08-01T08:50:08.000Z</time>
      </trkpt>
      <trkpt lat="47.03242" lon="-1.66224">
        <ele>73</ele>
        <time>2021-08-01T08:50:09.000Z</time>
      </trkpt>
      <trkpt lat="47.03247" lon="-1.66211">
        <ele>73</ele>
        <time>2021-08-01T08:50:10.000Z</time>
      </trkpt>
      <trkpt lat="47.03253" lon="-1.66197">
        <ele>73</ele>
        <time>2021-08-01T08:50:11.000Z</time>
      </trkpt>
      <trkpt lat="47.03258" lon="-1.66184">
        <ele>72</ele>
        <time>2021-08-01T08:50:12.000Z</time>
      </trkpt>
      <trkpt lat="47.03263" lon="-1.66171">
        <ele>72</ele>
        <time>2021-08-01T08:50:13.000Z</time>
      </trkpt>
      <trkpt lat="47.03269" lon="-1.66158">
        <ele>71</ele>
        <time>2021-08-01T08:50:14.000Z</time>
      </trkpt>
      <trkpt lat="47.03274" lon="-1.66145">
        <ele>71</ele>
        <time>2021-08-01T08:50:15.000Z</time>
      </trkpt>
      <trkpt lat="47.03279" lon="-1.66133">
        <ele>71</ele>
        <time>2021-08-01T08:50:16.000Z</time>
      </trkpt>
      <trkpt lat="47.03287" lon="-1.66124">
        <ele>71</ele>
        <time>2021-08-01T08:50:17.000Z</time>
      </trkpt>
      <trkpt lat="47.03295" lon="-1.66115">
        <ele>71</ele>
        <time>2021-08-01T08:50:18.000Z</time>
      </trkpt>
      <trkpt lat="47.03304" lon="-1.66109">
        <ele>71</ele>
        <time>2021-08-01T08:50:19.000Z</time>
      </trkpt>
      <trkpt lat="47.03313" lon="-1.66105">
        <ele>70</ele>
        <time>2021-08-01T08:50:20.000Z</time>
      </trkpt>
      <trkpt lat="47.03331" lon="-1.66105">
        <ele>70</ele>
        <time>2021-08-01T08:50:22.000Z</time>
      </trkpt>
      <trkpt lat="47.0334" lon="-1.66108">
        <ele>70</ele>
        <time>2021-08-01T08:50:23.000Z</time>
      </trkpt>
      <trkpt lat="47.03348" lon="-1.66114">
        <ele>70</ele>
        <time>2021-08-01T08:50:24.000Z</time>
      </trkpt>
      <trkpt lat="47.03356" lon="-1.6612">
        <ele>69</ele>
        <time>2021-08-01T08:50:25.000Z</time>
      </trkpt>
      <trkpt lat="47.03373" lon="-1.66123">
        <ele>69</ele>
        <time>2021-08-01T08:50:27.000Z</time>
      </trkpt>
      <trkpt lat="47.03385" lon="-1.66109">
        <ele>68</ele>
        <time>2021-08-01T08:50:29.000Z</time>
      </trkpt>
      <trkpt lat="47.03386" lon="-1.66087">
        <ele>69</ele>
        <time>2021-08-01T08:50:31.000Z</time>
      </trkpt>
      <trkpt lat="47.03383" lon="-1.66064">
        <ele>69</ele>
        <time>2021-08-01T08:50:33.000Z</time>
      </trkpt>
      <trkpt lat="47.03387" lon="-1.66043">
        <ele>69</ele>
        <time>2021-08-01T08:50:35.000Z</time>
      </trkpt>
      <trkpt lat="47.03395" lon="-1.66024">
        <ele>69</ele>
        <time>2021-08-01T08:50:37.000Z</time>
      </trkpt>
      <trkpt lat="47.03399" lon="-1.66003">
        <ele>70</ele>
        <time>2021-08-01T08:50:39.000Z</time>
      </trkpt>
      <trkpt lat="47.03399" lon="-1.65981">
        <ele>71</ele>
        <time>2021-08-01T08:50:41.000Z</time>
      </trkpt>
      <trkpt lat="47.03398" lon="-1.6596">
        <ele>71</ele>
        <time>2021-08-01T08:50:43.000Z</time>
      </trkpt>
      <trkpt lat="47.03397" lon="-1.65939">
        <ele>72</ele>
        <time>2021-08-01T08:50:45.000Z</time>
      </trkpt>
      <trkpt lat="47.03395" lon="-1.65918">
        <ele>72</ele>
        <time>2021-08-01T08:50:47.000Z</time>
      </trkpt>
      <trkpt lat="47.03391" lon="-1.65899">
        <ele>73</ele>
        <time>2021-08-01T08:50:49.000Z</time>
      </trkpt>
      <trkpt lat="47.03385" lon="-1.6588">
        <ele>73</ele>
        <time>2021-08-01T08:50:51.000Z</time>
      </trkpt>
      <trkpt lat="47.03378" lon="-1.65863">
        <ele>73</ele>
        <time>2021-08-01T08:50:53.000Z</time>
      </trkpt>
      <trkpt lat="47.0337" lon="-1.65846">
        <ele>73</ele>
        <time>2021-08-01T08:50:55.000Z</time>
      </trkpt>
      <trkpt lat="47.03363" lon="-1.65829">
        <ele>74</ele>
        <time>2021-08-01T08:50:57.000Z</time>
      </trkpt>
      <trkpt lat="47.03355" lon="-1.65814">
        <ele>73</ele>
        <time>2021-08-01T08:50:59.000Z</time>
      </trkpt>
      <trkpt lat="47.03347" lon="-1.65798">
        <ele>73</ele>
        <time>2021-08-01T08:51:01.000Z</time>
      </trkpt>
      <trkpt lat="47.0334" lon="-1.65782">
        <ele>73</ele>
        <time>2021-08-01T08:51:03.000Z</time>
      </trkpt>
      <trkpt lat="47.03332" lon="-1.65765">
        <ele>73</ele>
        <time>2021-08-01T08:51:05.000Z</time>
      </trkpt>
      <trkpt lat="47.03325" lon="-1.65747">
        <ele>72</ele>
        <time>2021-08-01T08:51:07.000Z</time>
      </trkpt>
      <trkpt lat="47.03319" lon="-1.65728">
        <ele>72</ele>
        <time>2021-08-01T08:51:09.000Z</time>
      </trkpt>
      <trkpt lat="47.03314" lon="-1.65708">
        <ele>72</ele>
        <time>2021-08-01T08:51:11.000Z</time>
      </trkpt>
      <trkpt lat="47.03311" lon="-1.65686">
        <ele>72</ele>
        <time>2021-08-01T08:51:13.000Z</time>
      </trkpt>
      <trkpt lat="47.0331" lon="-1.65664">
        <ele>71</ele>
        <time>2021-08-01T08:51:15.000Z</time>
      </trkpt>
      <trkpt lat="47.03311" lon="-1.65641">
        <ele>71</ele>
        <time>2021-08-01T08:51:17.000Z</time>
      </trkpt>
      <trkpt lat="47.03312" lon="-1.65618">
        <ele>70</ele>
        <time>2021-08-01T08:51:19.000Z</time>
      </trkpt>
      <trkpt lat="47.03306" lon="-1.65596">
        <ele>70</ele>
        <time>2021-08-01T08:51:21.000Z</time>
      </trkpt>
      <trkpt lat="47.03305" lon="-1.65573">
        <ele>70</ele>
        <time>2021-08-01T08:51:23.000Z</time>
      </trkpt>
      <trkpt lat="47.03308" lon="-1.65552">
        <ele>70</ele>
        <time>2021-08-01T08:51:25.000Z</time>
      </trkpt>
      <trkpt lat="47.03308" lon="-1.65529">
        <ele>70</ele>
        <time>2021-08-01T08:51:27.000Z</time>
      </trkpt>
      <trkpt lat="47.03303" lon="-1.65508">
        <ele>69</ele>
        <time>2021-08-01T08:51:29.000Z</time>
      </trkpt>
      <trkpt lat="47.03298" lon="-1.65486">
        <ele>68</ele>
        <time>2021-08-01T08:51:31.000Z</time>
      </trkpt>
      <trkpt lat="47.03293" lon="-1.65464">
        <ele>68</ele>
        <time>2021-08-01T08:51:33.000Z</time>
      </trkpt>
      <trkpt lat="47.03288" lon="-1.65442">
        <ele>67</ele>
        <time>2021-08-01T08:51:35.000Z</time>
      </trkpt>
      <trkpt lat="47.03283" lon="-1.65418">
        <ele>66</ele>
        <time>2021-08-01T08:51:37.000Z</time>
      </trkpt>
      <trkpt lat="47.03277" lon="-1.65395">
        <ele>66</ele>
        <time>2021-08-01T08:51:39.000Z</time>
      </trkpt>
      <trkpt lat="47.03272" lon="-1.65372">
        <ele>65</ele>
        <time>2021-08-01T08:51:41.000Z</time>
      </trkpt>
      <trkpt lat="47.03267" lon="-1.65349">
        <ele>65</ele>
        <time>2021-08-01T08:51:43.000Z</time>
      </trkpt>
      <trkpt lat="47.03261" lon="-1.65326">
        <ele>64</ele>
        <time>2021-08-01T08:51:45.000Z</time>
      </trkpt>
      <trkpt lat="47.03255" lon="-1.65302">
        <ele>64</ele>
        <time>2021-08-01T08:51:47.000Z</time>
      </trkpt>
      <trkpt lat="47.0325" lon="-1.65279">
        <ele>64</ele>
        <time>2021-08-01T08:51:49.000Z</time>
      </trkpt>
      <trkpt lat="47.03244" lon="-1.65255">
        <ele>63</ele>
        <time>2021-08-01T08:51:51.000Z</time>
      </trkpt>
      <trkpt lat="47.03238" lon="-1.65234">
        <ele>63</ele>
        <time>2021-08-01T08:51:53.000Z</time>
      </trkpt>
      <trkpt lat="47.03231" lon="-1.65213">
        <ele>64</ele>
        <time>2021-08-01T08:51:55.000Z</time>
      </trkpt>
      <trkpt lat="47.03224" lon="-1.65193">
        <ele>64</ele>
        <time>2021-08-01T08:51:57.000Z</time>
      </trkpt>
      <trkpt lat="47.03216" lon="-1.65172">
        <ele>64</ele>
        <time>2021-08-01T08:51:59.000Z</time>
      </trkpt>
      <trkpt lat="47.03208" lon="-1.65151">
        <ele>64</ele>
        <time>2021-08-01T08:52:01.000Z</time>
      </trkpt>
      <trkpt lat="47.032" lon="-1.65131">
        <ele>64</ele>
        <time>2021-08-01T08:52:03.000Z</time>
      </trkpt>
      <trkpt lat="47.03192" lon="-1.65112">
        <ele>65</ele>
        <time>2021-08-01T08:52:05.000Z</time>
      </trkpt>
      <trkpt lat="47.03184" lon="-1.65094">
        <ele>65</ele>
        <time>2021-08-01T08:52:07.000Z</time>
      </trkpt>
      <trkpt lat="47.03175" lon="-1.65077">
        <ele>65</ele>
        <time>2021-08-01T08:52:09.000Z</time>
      </trkpt>
      <trkpt lat="47.03167" lon="-1.6506">
        <ele>65</ele>
        <time>2021-08-01T08:52:11.000Z</time>
      </trkpt>
      <trkpt lat="47.03157" lon="-1.65043">
        <ele>66</ele>
        <time>2021-08-01T08:52:13.000Z</time>
      </trkpt>
      <trkpt lat="47.03148" lon="-1.65025">
        <ele>66</ele>
        <time>2021-08-01T08:52:15.000Z</time>
      </trkpt>
      <trkpt lat="47.03138" lon="-1.65009">
        <ele>66</ele>
        <time>2021-08-01T08:52:17.000Z</time>
      </trkpt>
      <trkpt lat="47.03128" lon="-1.64992">
        <ele>65</ele>
        <time>2021-08-01T08:52:19.000Z</time>
      </trkpt>
      <trkpt lat="47.03118" lon="-1.64975">
        <ele>65</ele>
        <time>2021-08-01T08:52:21.000Z</time>
      </trkpt>
      <trkpt lat="47.03108" lon="-1.64959">
        <ele>65</ele>
        <time>2021-08-01T08:52:23.000Z</time>
      </trkpt>
      <trkpt lat="47.03099" lon="-1.64943">
        <ele>65</ele>
        <time>2021-08-01T08:52:25.000Z</time>
      </trkpt>
      <trkpt lat="47.03089" lon="-1.64928">
        <ele>65</ele>
        <time>2021-08-01T08:52:27.000Z</time>
      </trkpt>
      <trkpt lat="47.03079" lon="-1.64912">
        <ele>65</ele>
        <time>2021-08-01T08:52:29.000Z</time>
      </trkpt>
      <trkpt lat="47.0307" lon="-1.64897">
        <ele>66</ele>
        <time>2021-08-01T08:52:31.000Z</time>
      </trkpt>
      <trkpt lat="47.03061" lon="-1.64883">
        <ele>66</ele>
        <time>2021-08-01T08:52:33.000Z</time>
      </trkpt>
      <trkpt lat="47.03052" lon="-1.64868">
        <ele>65</ele>
        <time>2021-08-01T08:52:35.000Z</time>
      </trkpt>
      <trkpt lat="47.03043" lon="-1.64853">
        <ele>66</ele>
        <time>2021-08-01T08:52:37.000Z</time>
      </trkpt>
      <trkpt lat="47.03035" lon="-1.64838">
        <ele>66</ele>
        <time>2021-08-01T08:52:39.000Z</time>
      </trkpt>
      <trkpt lat="47.03026" lon="-1.64824">
        <ele>66</ele>
        <time>2021-08-01T08:52:41.000Z</time>
      </trkpt>
      <trkpt lat="47.03016" lon="-1.64811">
        <ele>66</ele>
        <time>2021-08-01T08:52:43.000Z</time>
      </trkpt>
      <trkpt lat="47.03005" lon="-1.64801">
        <ele>67</ele>
        <time>2021-08-01T08:52:45.000Z</time>
      </trkpt>
      <trkpt lat="47.02994" lon="-1.64793">
        <ele>67</ele>
        <time>2021-08-01T08:52:47.000Z</time>
      </trkpt>
      <trkpt lat="47.02987" lon="-1.64779">
        <ele>66</ele>
        <time>2021-08-01T08:52:49.000Z</time>
      </trkpt>
      <trkpt lat="47.02982" lon="-1.6476">
        <ele>66</ele>
        <time>2021-08-01T08:52:51.000Z</time>
      </trkpt>
      <trkpt lat="47.02975" lon="-1.64742">
        <ele>66</ele>
        <time>2021-08-01T08:52:53.000Z</time>
      </trkpt>
      <trkpt lat="47.02966" lon="-1.64727">
        <ele>66</ele>
        <time>2021-08-01T08:52:55.000Z</time>
      </trkpt>
      <trkpt lat="47.02957" lon="-1.64712">
        <ele>67</ele>
        <time>2021-08-01T08:52:57.000Z</time>
      </trkpt>
      <trkpt lat="47.02947" lon="-1.64698">
        <ele>67</ele>
        <time>2021-08-01T08:52:59.000Z</time>
      </trkpt>
      <trkpt lat="47.02938" lon="-1.64685">
        <ele>68</ele>
        <time>2021-08-01T08:53:01.000Z</time>
      </trkpt>
      <trkpt lat="47.02929" lon="-1.64671">
        <ele>68</ele>
        <time>2021-08-01T08:53:03.000Z</time>
      </trkpt>
      <trkpt lat="47.0292" lon="-1.64657">
        <ele>69</ele>
        <time>2021-08-01T08:53:05.000Z</time>
      </trkpt>
      <trkpt lat="47.02912" lon="-1.64644">
        <ele>69</ele>
        <time>2021-08-01T08:53:07.000Z</time>
      </trkpt>
      <trkpt lat="47.02903" lon="-1.64631">
        <ele>69</ele>
        <time>2021-08-01T08:53:09.000Z</time>
      </trkpt>
      <trkpt lat="47.02893" lon="-1.64617">
        <ele>70</ele>
        <time>2021-08-01T08:53:11.000Z</time>
      </trkpt>
      <trkpt lat="47.02884" lon="-1.64603">
        <ele>70</ele>
        <time>2021-08-01T08:53:13.000Z</time>
      </trkpt>
      <trkpt lat="47.02875" lon="-1.64589">
        <ele>71</ele>
        <time>2021-08-01T08:53:15.000Z</time>
      </trkpt>
      <trkpt lat="47.02867" lon="-1.64576">
        <ele>71</ele>
        <time>2021-08-01T08:53:17.000Z</time>
      </trkpt>
      <trkpt lat="47.02858" lon="-1.64561">
        <ele>72</ele>
        <time>2021-08-01T08:53:19.000Z</time>
      </trkpt>
      <trkpt lat="47.02849" lon="-1.64547">
        <ele>72</ele>
        <time>2021-08-01T08:53:21.000Z</time>
      </trkpt>
      <trkpt lat="47.0284" lon="-1.64533">
        <ele>72</ele>
        <time>2021-08-01T08:53:23.000Z</time>
      </trkpt>
      <trkpt lat="47.02832" lon="-1.64519">
        <ele>72</ele>
        <time>2021-08-01T08:53:25.000Z</time>
      </trkpt>
      <trkpt lat="47.02824" lon="-1.64505">
        <ele>72</ele>
        <time>2021-08-01T08:53:27.000Z</time>
      </trkpt>
      <trkpt lat="47.02817" lon="-1.6449">
        <ele>72</ele>
        <time>2021-08-01T08:53:29.000Z</time>
      </trkpt>
      <trkpt lat="47.02809" lon="-1.64476">
        <ele>72</ele>
        <time>2021-08-01T08:53:31.000Z</time>
      </trkpt>
      <trkpt lat="47.02801" lon="-1.64461">
        <ele>72</ele>
        <time>2021-08-01T08:53:33.000Z</time>
      </trkpt>
      <trkpt lat="47.02794" lon="-1.64447">
        <ele>72</ele>
        <time>2021-08-01T08:53:35.000Z</time>
      </trkpt>
      <trkpt lat="47.02787" lon="-1.64431">
        <ele>72</ele>
        <time>2021-08-01T08:53:37.000Z</time>
      </trkpt>
      <trkpt lat="47.02778" lon="-1.64416">
        <ele>71</ele>
        <time>2021-08-01T08:53:39.000Z</time>
      </trkpt>
      <trkpt lat="47.02767" lon="-1.64404">
        <ele>71</ele>
        <time>2021-08-01T08:53:41.000Z</time>
      </trkpt>
      <trkpt lat="47.02757" lon="-1.64392">
        <ele>71</ele>
        <time>2021-08-01T08:53:43.000Z</time>
      </trkpt>
      <trkpt lat="47.02754" lon="-1.64374">
        <ele>70</ele>
        <time>2021-08-01T08:53:45.000Z</time>
      </trkpt>
      <trkpt lat="47.02763" lon="-1.64359">
        <ele>70</ele>
        <time>2021-08-01T08:53:47.000Z</time>
      </trkpt>
      <trkpt lat="47.02776" lon="-1.64356">
        <ele>71</ele>
        <time>2021-08-01T08:53:49.000Z</time>
      </trkpt>
      <trkpt lat="47.02788" lon="-1.64358">
        <ele>71</ele>
        <time>2021-08-01T08:53:51.000Z</time>
      </trkpt>
      <trkpt lat="47.028" lon="-1.64351">
        <ele>71</ele>
        <time>2021-08-01T08:53:53.000Z</time>
      </trkpt>
      <trkpt lat="47.02813" lon="-1.64344">
        <ele>71</ele>
        <time>2021-08-01T08:53:55.000Z</time>
      </trkpt>
      <trkpt lat="47.02825" lon="-1.64338">
        <ele>71</ele>
        <time>2021-08-01T08:53:57.000Z</time>
      </trkpt>
      <trkpt lat="47.02838" lon="-1.64335">
        <ele>71</ele>
        <time>2021-08-01T08:53:59.000Z</time>
      </trkpt>
      <trkpt lat="47.02851" lon="-1.64334">
        <ele>71</ele>
        <time>2021-08-01T08:54:01.000Z</time>
      </trkpt>
      <trkpt lat="47.02864" lon="-1.64334">
        <ele>72</ele>
        <time>2021-08-01T08:54:03.000Z</time>
      </trkpt>
      <trkpt lat="47.02877" lon="-1.64335">
        <ele>72</ele>
        <time>2021-08-01T08:54:05.000Z</time>
      </trkpt>
      <trkpt lat="47.0289" lon="-1.6433">
        <ele>72</ele>
        <time>2021-08-01T08:54:07.000Z</time>
      </trkpt>
      <trkpt lat="47.02903" lon="-1.64321">
        <ele>72</ele>
        <time>2021-08-01T08:54:09.000Z</time>
      </trkpt>
      <trkpt lat="47.02916" lon="-1.64312">
        <ele>72</ele>
        <time>2021-08-01T08:54:11.000Z</time>
      </trkpt>
      <trkpt lat="47.02929" lon="-1.64303">
        <ele>71</ele>
        <time>2021-08-01T08:54:13.000Z</time>
      </trkpt>
      <trkpt lat="47.02943" lon="-1.64294">
        <ele>71</ele>
        <time>2021-08-01T08:54:15.000Z</time>
      </trkpt>
      <trkpt lat="47.02957" lon="-1.64284">
        <ele>71</ele>
        <time>2021-08-01T08:54:17.000Z</time>
      </trkpt>
      <trkpt lat="47.02972" lon="-1.64274">
        <ele>70</ele>
        <time>2021-08-01T08:54:19.000Z</time>
      </trkpt>
      <trkpt lat="47.02987" lon="-1.64264">
        <ele>69</ele>
        <time>2021-08-01T08:54:21.000Z</time>
      </trkpt>
      <trkpt lat="47.03002" lon="-1.64253">
        <ele>68</ele>
        <time>2021-08-01T08:54:23.000Z</time>
      </trkpt>
      <trkpt lat="47.03017" lon="-1.64242">
        <ele>68</ele>
        <time>2021-08-01T08:54:25.000Z</time>
      </trkpt>
      <trkpt lat="47.03032" lon="-1.64232">
        <ele>67</ele>
        <time>2021-08-01T08:54:27.000Z</time>
      </trkpt>
      <trkpt lat="47.03047" lon="-1.64224">
        <ele>66</ele>
        <time>2021-08-01T08:54:29.000Z</time>
      </trkpt>
      <trkpt lat="47.03062" lon="-1.64216">
        <ele>67</ele>
        <time>2021-08-01T08:54:31.000Z</time>
      </trkpt>
      <trkpt lat="47.03079" lon="-1.64213">
        <ele>66</ele>
        <time>2021-08-01T08:54:33.000Z</time>
      </trkpt>
      <trkpt lat="47.03096" lon="-1.64214">
        <ele>66</ele>
        <time>2021-08-01T08:54:35.000Z</time>
      </trkpt>
      <trkpt lat="47.03112" lon="-1.64219">
        <ele>65</ele>
        <time>2021-08-01T08:54:37.000Z</time>
      </trkpt>
      <trkpt lat="47.03129" lon="-1.64223">
        <ele>65</ele>
        <time>2021-08-01T08:54:39.000Z</time>
      </trkpt>
      <trkpt lat="47.03145" lon="-1.64228">
        <ele>64</ele>
        <time>2021-08-01T08:54:41.000Z</time>
      </trkpt>
      <trkpt lat="47.03162" lon="-1.64233">
        <ele>64</ele>
        <time>2021-08-01T08:54:43.000Z</time>
      </trkpt>
      <trkpt lat="47.03178" lon="-1.64237">
        <ele>64</ele>
        <time>2021-08-01T08:54:45.000Z</time>
      </trkpt>
      <trkpt lat="47.03196" lon="-1.64238">
        <ele>63</ele>
        <time>2021-08-01T08:54:47.000Z</time>
      </trkpt>
      <trkpt lat="47.03213" lon="-1.64239">
        <ele>62</ele>
        <time>2021-08-01T08:54:49.000Z</time>
      </trkpt>
      <trkpt lat="47.0323" lon="-1.64239">
        <ele>62</ele>
        <time>2021-08-01T08:54:51.000Z</time>
      </trkpt>
      <trkpt lat="47.03246" lon="-1.64238">
        <ele>63</ele>
        <time>2021-08-01T08:54:53.000Z</time>
      </trkpt>
      <trkpt lat="47.03263" lon="-1.64238">
        <ele>62</ele>
        <time>2021-08-01T08:54:55.000Z</time>
      </trkpt>
      <trkpt lat="47.03279" lon="-1.64238">
        <ele>62</ele>
        <time>2021-08-01T08:54:57.000Z</time>
      </trkpt>
      <trkpt lat="47.03296" lon="-1.64238">
        <ele>62</ele>
        <time>2021-08-01T08:54:59.000Z</time>
      </trkpt>
      <trkpt lat="47.03312" lon="-1.64236">
        <ele>61</ele>
        <time>2021-08-01T08:55:01.000Z</time>
      </trkpt>
      <trkpt lat="47.03328" lon="-1.64237">
        <ele>60</ele>
        <time>2021-08-01T08:55:03.000Z</time>
      </trkpt>
      <trkpt lat="47.03344" lon="-1.64238">
        <ele>60</ele>
        <time>2021-08-01T08:55:05.000Z</time>
      </trkpt>
      <trkpt lat="47.0336" lon="-1.64241">
        <ele>60</ele>
        <time>2021-08-01T08:55:07.000Z</time>
      </trkpt>
      <trkpt lat="47.03375" lon="-1.64243">
        <ele>60</ele>
        <time>2021-08-01T08:55:09.000Z</time>
      </trkpt>
      <trkpt lat="47.0339" lon="-1.64248">
        <ele>60</ele>
        <time>2021-08-01T08:55:11.000Z</time>
      </trkpt>
      <trkpt lat="47.03405" lon="-1.64254">
        <ele>60</ele>
        <time>2021-08-01T08:55:13.000Z</time>
      </trkpt>
      <trkpt lat="47.03419" lon="-1.64259">
        <ele>60</ele>
        <time>2021-08-01T08:55:15.000Z</time>
      </trkpt>
      <trkpt lat="47.03434" lon="-1.64265">
        <ele>59</ele>
        <time>2021-08-01T08:55:17.000Z</time>
      </trkpt>
      <trkpt lat="47.03448" lon="-1.6427">
        <ele>60</ele>
        <time>2021-08-01T08:55:19.000Z</time>
      </trkpt>
      <trkpt lat="47.03463" lon="-1.64275">
        <ele>60</ele>
        <time>2021-08-01T08:55:21.000Z</time>
      </trkpt>
      <trkpt lat="47.03477" lon="-1.6428">
        <ele>60</ele>
        <time>2021-08-01T08:55:23.000Z</time>
      </trkpt>
      <trkpt lat="47.03491" lon="-1.64287">
        <ele>60</ele>
        <time>2021-08-01T08:55:25.000Z</time>
      </trkpt>
      <trkpt lat="47.03506" lon="-1.64292">
        <ele>60</ele>
        <time>2021-08-01T08:55:27.000Z</time>
      </trkpt>
      <trkpt lat="47.03519" lon="-1.64298">
        <ele>60</ele>
        <time>2021-08-01T08:55:29.000Z</time>
      </trkpt>
      <trkpt lat="47.03532" lon="-1.64302">
        <ele>60</ele>
        <time>2021-08-01T08:55:31.000Z</time>
      </trkpt>
      <trkpt lat="47.03546" lon="-1.64304">
        <ele>60</ele>
        <time>2021-08-01T08:55:33.000Z</time>
      </trkpt>
      <trkpt lat="47.03559" lon="-1.64304">
        <ele>60</ele>
        <time>2021-08-01T08:55:35.000Z</time>
      </trkpt>
      <trkpt lat="47.0357" lon="-1.64298">
        <ele>60</ele>
        <time>2021-08-01T08:55:37.000Z</time>
      </trkpt>
      <trkpt lat="47.0357" lon="-1.64282">
        <ele>60</ele>
        <time>2021-08-01T08:55:39.000Z</time>
      </trkpt>
      <trkpt lat="47.03565" lon="-1.64265">
        <ele>59</ele>
        <time>2021-08-01T08:55:41.000Z</time>
      </trkpt>
      <trkpt lat="47.0356" lon="-1.64245">
        <ele>58</ele>
        <time>2021-08-01T08:55:43.000Z</time>
      </trkpt>
      <trkpt lat="47.03557" lon="-1.64226">
        <ele>58</ele>
        <time>2021-08-01T08:55:45.000Z</time>
      </trkpt>
      <trkpt lat="47.03555" lon="-1.64208">
        <ele>58</ele>
        <time>2021-08-01T08:55:47.000Z</time>
      </trkpt>
      <trkpt lat="47.03559" lon="-1.64193">
        <ele>58</ele>
        <time>2021-08-01T08:55:49.000Z</time>
      </trkpt>
      <trkpt lat="47.03572" lon="-1.64184">
        <ele>59</ele>
        <time>2021-08-01T08:55:51.000Z</time>
      </trkpt>
      <trkpt lat="47.03584" lon="-1.64176">
        <ele>60</ele>
        <time>2021-08-01T08:55:53.000Z</time>
      </trkpt>
      <trkpt lat="47.03596" lon="-1.6417">
        <ele>59</ele>
        <time>2021-08-01T08:55:55.000Z</time>
      </trkpt>
      <trkpt lat="47.03605" lon="-1.64163">
        <ele>60</ele>
        <time>2021-08-01T08:55:57.000Z</time>
      </trkpt>
      <trkpt lat="47.03614" lon="-1.64153">
        <ele>59</ele>
        <time>2021-08-01T08:56:00.000Z</time>
      </trkpt>
      <trkpt lat="47.03624" lon="-1.64146">
        <ele>58</ele>
        <time>2021-08-01T08:56:03.000Z</time>
      </trkpt>
      <trkpt lat="47.03636" lon="-1.64144">
        <ele>58</ele>
        <time>2021-08-01T08:56:06.000Z</time>
      </trkpt>
      <trkpt lat="47.03646" lon="-1.64132">
        <ele>58</ele>
        <time>2021-08-01T08:56:09.000Z</time>
      </trkpt>
      <trkpt lat="47.03658" lon="-1.64132">
        <ele>58</ele>
        <time>2021-08-01T08:56:11.000Z</time>
      </trkpt>
      <trkpt lat="47.03671" lon="-1.64128">
        <ele>58</ele>
        <time>2021-08-01T08:56:13.000Z</time>
      </trkpt>
      <trkpt lat="47.03684" lon="-1.64124">
        <ele>58</ele>
        <time>2021-08-01T08:56:15.000Z</time>
      </trkpt>
      <trkpt lat="47.03697" lon="-1.64119">
        <ele>58</ele>
        <time>2021-08-01T08:56:17.000Z</time>
      </trkpt>
      <trkpt lat="47.0371" lon="-1.64115">
        <ele>59</ele>
        <time>2021-08-01T08:56:19.000Z</time>
      </trkpt>
      <trkpt lat="47.03724" lon="-1.64111">
        <ele>58</ele>
        <time>2021-08-01T08:56:21.000Z</time>
      </trkpt>
      <trkpt lat="47.03737" lon="-1.64107">
        <ele>58</ele>
        <time>2021-08-01T08:56:23.000Z</time>
      </trkpt>
      <trkpt lat="47.03752" lon="-1.64104">
        <ele>57</ele>
        <time>2021-08-01T08:56:25.000Z</time>
      </trkpt>
      <trkpt lat="47.03767" lon="-1.64101">
        <ele>57</ele>
        <time>2021-08-01T08:56:27.000Z</time>
      </trkpt>
      <trkpt lat="47.03782" lon="-1.64098">
        <ele>58</ele>
        <time>2021-08-01T08:56:29.000Z</time>
      </trkpt>
      <trkpt lat="47.03797" lon="-1.64094">
        <ele>58</ele>
        <time>2021-08-01T08:56:31.000Z</time>
      </trkpt>
      <trkpt lat="47.03812" lon="-1.64091">
        <ele>58</ele>
        <time>2021-08-01T08:56:33.000Z</time>
      </trkpt>
      <trkpt lat="47.03827" lon="-1.64088">
        <ele>59</ele>
        <time>2021-08-01T08:56:35.000Z</time>
      </trkpt>
      <trkpt lat="47.0384" lon="-1.64085">
        <ele>59</ele>
        <time>2021-08-01T08:56:37.000Z</time>
      </trkpt>
      <trkpt lat="47.03853" lon="-1.64085">
        <ele>59</ele>
        <time>2021-08-01T08:56:39.000Z</time>
      </trkpt>
      <trkpt lat="47.03865" lon="-1.64091">
        <ele>60</ele>
        <time>2021-08-01T08:56:41.000Z</time>
      </trkpt>
      <trkpt lat="47.03879" lon="-1.64099">
        <ele>60</ele>
        <time>2021-08-01T08:56:43.000Z</time>
      </trkpt>
      <trkpt lat="47.03894" lon="-1.64106">
        <ele>59</ele>
        <time>2021-08-01T08:56:45.000Z</time>
      </trkpt>
      <trkpt lat="47.03909" lon="-1.64116">
        <ele>59</ele>
        <time>2021-08-01T08:56:47.000Z</time>
      </trkpt>
      <trkpt lat="47.03923" lon="-1.64124">
        <ele>58</ele>
        <time>2021-08-01T08:56:49.000Z</time>
      </trkpt>
      <trkpt lat="47.03938" lon="-1.64132">
        <ele>57</ele>
        <time>2021-08-01T08:56:51.000Z</time>
      </trkpt>
      <trkpt lat="47.03953" lon="-1.64139">
        <ele>56</ele>
        <time>2021-08-01T08:56:53.000Z</time>
      </trkpt>
      <trkpt lat="47.03967" lon="-1.64142">
        <ele>57</ele>
        <time>2021-08-01T08:56:55.000Z</time>
      </trkpt>
      <trkpt lat="47.03981" lon="-1.6414">
        <ele>57</ele>
        <time>2021-08-01T08:56:57.000Z</time>
      </trkpt>
      <trkpt lat="47.03995" lon="-1.64132">
        <ele>57</ele>
        <time>2021-08-01T08:56:59.000Z</time>
      </trkpt>
      <trkpt lat="47.04009" lon="-1.64126">
        <ele>56</ele>
        <time>2021-08-01T08:57:01.000Z</time>
      </trkpt>
      <trkpt lat="47.04023" lon="-1.6412">
        <ele>56</ele>
        <time>2021-08-01T08:57:03.000Z</time>
      </trkpt>
      <trkpt lat="47.04036" lon="-1.64114">
        <ele>56</ele>
        <time>2021-08-01T08:57:05.000Z</time>
      </trkpt>
      <trkpt lat="47.04051" lon="-1.64108">
        <ele>56</ele>
        <time>2021-08-01T08:57:07.000Z</time>
      </trkpt>
      <trkpt lat="47.04067" lon="-1.64101">
        <ele>56</ele>
        <time>2021-08-01T08:57:09.000Z</time>
      </trkpt>
      <trkpt lat="47.04082" lon="-1.64094">
        <ele>56</ele>
        <time>2021-08-01T08:57:11.000Z</time>
      </trkpt>
      <trkpt lat="47.04098" lon="-1.64087">
        <ele>57</ele>
        <time>2021-08-01T08:57:13.000Z</time>
      </trkpt>
      <trkpt lat="47.04114" lon="-1.6408">
        <ele>56</ele>
        <time>2021-08-01T08:57:15.000Z</time>
      </trkpt>
      <trkpt lat="47.04129" lon="-1.64073">
        <ele>56</ele>
        <time>2021-08-01T08:57:17.000Z</time>
      </trkpt>
      <trkpt lat="47.04143" lon="-1.64066">
        <ele>55</ele>
        <time>2021-08-01T08:57:19.000Z</time>
      </trkpt>
      <trkpt lat="47.04157" lon="-1.64059">
        <ele>56</ele>
        <time>2021-08-01T08:57:21.000Z</time>
      </trkpt>
      <trkpt lat="47.04171" lon="-1.64052">
        <ele>56</ele>
        <time>2021-08-01T08:57:23.000Z</time>
      </trkpt>
      <trkpt lat="47.04185" lon="-1.64046">
        <ele>57</ele>
        <time>2021-08-01T08:57:25.000Z</time>
      </trkpt>
      <trkpt lat="47.04198" lon="-1.6404">
        <ele>56</ele>
        <time>2021-08-01T08:57:27.000Z</time>
      </trkpt>
      <trkpt lat="47.04212" lon="-1.64034">
        <ele>55</ele>
        <time>2021-08-01T08:57:29.000Z</time>
      </trkpt>
      <trkpt lat="47.04226" lon="-1.64028">
        <ele>55</ele>
        <time>2021-08-01T08:57:31.000Z</time>
      </trkpt>
      <trkpt lat="47.0424" lon="-1.64022">
        <ele>55</ele>
        <time>2021-08-01T08:57:33.000Z</time>
      </trkpt>
      <trkpt lat="47.04253" lon="-1.64016">
        <ele>55</ele>
        <time>2021-08-01T08:57:35.000Z</time>
      </trkpt>
      <trkpt lat="47.04267" lon="-1.6401">
        <ele>55</ele>
        <time>2021-08-01T08:57:37.000Z</time>
      </trkpt>
      <trkpt lat="47.0428" lon="-1.64005">
        <ele>55</ele>
        <time>2021-08-01T08:57:39.000Z</time>
      </trkpt>
      <trkpt lat="47.04293" lon="-1.63999">
        <ele>55</ele>
        <time>2021-08-01T08:57:41.000Z</time>
      </trkpt>
      <trkpt lat="47.04306" lon="-1.63993">
        <ele>55</ele>
        <time>2021-08-01T08:57:43.000Z</time>
      </trkpt>
      <trkpt lat="47.0432" lon="-1.63988">
        <ele>55</ele>
        <time>2021-08-01T08:57:45.000Z</time>
      </trkpt>
      <trkpt lat="47.04333" lon="-1.63981">
        <ele>54</ele>
        <time>2021-08-01T08:57:47.000Z</time>
      </trkpt>
      <trkpt lat="47.04346" lon="-1.63975">
        <ele>54</ele>
        <time>2021-08-01T08:57:49.000Z</time>
      </trkpt>
      <trkpt lat="47.04359" lon="-1.6397">
        <ele>54</ele>
        <time>2021-08-01T08:57:51.000Z</time>
      </trkpt>
      <trkpt lat="47.04373" lon="-1.63965">
        <ele>53</ele>
        <time>2021-08-01T08:57:53.000Z</time>
      </trkpt>
      <trkpt lat="47.04387" lon="-1.63958">
        <ele>54</ele>
        <time>2021-08-01T08:57:55.000Z</time>
      </trkpt>
      <trkpt lat="47.044" lon="-1.63953">
        <ele>54</ele>
        <time>2021-08-01T08:57:57.000Z</time>
      </trkpt>
      <trkpt lat="47.04414" lon="-1.63946">
        <ele>54</ele>
        <time>2021-08-01T08:57:59.000Z</time>
      </trkpt>
      <trkpt lat="47.04427" lon="-1.6394">
        <ele>54</ele>
        <time>2021-08-01T08:58:01.000Z</time>
      </trkpt>
      <trkpt lat="47.0444" lon="-1.63934">
        <ele>54</ele>
        <time>2021-08-01T08:58:03.000Z</time>
      </trkpt>
      <trkpt lat="47.04453" lon="-1.63928">
        <ele>54</ele>
        <time>2021-08-01T08:58:05.000Z</time>
      </trkpt>
      <trkpt lat="47.04465" lon="-1.63919">
        <ele>54</ele>
        <time>2021-08-01T08:58:07.000Z</time>
      </trkpt>
      <trkpt lat="47.04477" lon="-1.63912">
        <ele>54</ele>
        <time>2021-08-01T08:58:09.000Z</time>
      </trkpt>
      <trkpt lat="47.04491" lon="-1.63907">
        <ele>54</ele>
        <time>2021-08-01T08:58:11.000Z</time>
      </trkpt>
      <trkpt lat="47.04504" lon="-1.639">
        <ele>54</ele>
        <time>2021-08-01T08:58:13.000Z</time>
      </trkpt>
      <trkpt lat="47.04517" lon="-1.63891">
        <ele>54</ele>
        <time>2021-08-01T08:58:15.000Z</time>
      </trkpt>
      <trkpt lat="47.04529" lon="-1.63883">
        <ele>54</ele>
        <time>2021-08-01T08:58:17.000Z</time>
      </trkpt>
      <trkpt lat="47.04542" lon="-1.63874">
        <ele>54</ele>
        <time>2021-08-01T08:58:19.000Z</time>
      </trkpt>
      <trkpt lat="47.04555" lon="-1.63866">
        <ele>54</ele>
        <time>2021-08-01T08:58:21.000Z</time>
      </trkpt>
      <trkpt lat="47.04568" lon="-1.63858">
        <ele>54</ele>
        <time>2021-08-01T08:58:23.000Z</time>
      </trkpt>
      <trkpt lat="47.04581" lon="-1.6385">
        <ele>54</ele>
        <time>2021-08-01T08:58:25.000Z</time>
      </trkpt>
      <trkpt lat="47.04594" lon="-1.63845">
        <ele>56</ele>
        <time>2021-08-01T08:58:27.000Z</time>
      </trkpt>
      <trkpt lat="47.04607" lon="-1.63842">
        <ele>56</ele>
        <time>2021-08-01T08:58:29.000Z</time>
      </trkpt>
      <trkpt lat="47.0462" lon="-1.63841">
        <ele>57</ele>
        <time>2021-08-01T08:58:31.000Z</time>
      </trkpt>
      <trkpt lat="47.04633" lon="-1.6384">
        <ele>57</ele>
        <time>2021-08-01T08:58:33.000Z</time>
      </trkpt>
      <trkpt lat="47.04645" lon="-1.63837">
        <ele>57</ele>
        <time>2021-08-01T08:58:35.000Z</time>
      </trkpt>
      <trkpt lat="47.04656" lon="-1.63831">
        <ele>58</ele>
        <time>2021-08-01T08:58:37.000Z</time>
      </trkpt>
      <trkpt lat="47.04666" lon="-1.63824">
        <ele>58</ele>
        <time>2021-08-01T08:58:39.000Z</time>
      </trkpt>
      <trkpt lat="47.04677" lon="-1.63817">
        <ele>59</ele>
        <time>2021-08-01T08:58:41.000Z</time>
      </trkpt>
      <trkpt lat="47.04688" lon="-1.63812">
        <ele>59</ele>
        <time>2021-08-01T08:58:43.000Z</time>
      </trkpt>
      <trkpt lat="47.04699" lon="-1.63808">
        <ele>59</ele>
        <time>2021-08-01T08:58:45.000Z</time>
      </trkpt>
      <trkpt lat="47.0471" lon="-1.63802">
        <ele>60</ele>
        <time>2021-08-01T08:58:47.000Z</time>
      </trkpt>
      <trkpt lat="47.04721" lon="-1.63798">
        <ele>60</ele>
        <time>2021-08-01T08:58:49.000Z</time>
      </trkpt>
      <trkpt lat="47.04733" lon="-1.63798">
        <ele>60</ele>
        <time>2021-08-01T08:58:51.000Z</time>
      </trkpt>
      <trkpt lat="47.04745" lon="-1.63798">
        <ele>61</ele>
        <time>2021-08-01T08:58:53.000Z</time>
      </trkpt>
      <trkpt lat="47.04758" lon="-1.63793">
        <ele>60</ele>
        <time>2021-08-01T08:58:55.000Z</time>
      </trkpt>
      <trkpt lat="47.0477" lon="-1.63789">
        <ele>60</ele>
        <time>2021-08-01T08:58:57.000Z</time>
      </trkpt>
      <trkpt lat="47.04781" lon="-1.63785">
        <ele>61</ele>
        <time>2021-08-01T08:58:59.000Z</time>
      </trkpt>
      <trkpt lat="47.04793" lon="-1.63782">
        <ele>61</ele>
        <time>2021-08-01T08:59:01.000Z</time>
      </trkpt>
      <trkpt lat="47.04804" lon="-1.63779">
        <ele>61</ele>
        <time>2021-08-01T08:59:03.000Z</time>
      </trkpt>
      <trkpt lat="47.04815" lon="-1.63777">
        <ele>61</ele>
        <time>2021-08-01T08:59:05.000Z</time>
      </trkpt>
      <trkpt lat="47.04827" lon="-1.63774">
        <ele>61</ele>
        <time>2021-08-01T08:59:07.000Z</time>
      </trkpt>
      <trkpt lat="47.04838" lon="-1.63772">
        <ele>60</ele>
        <time>2021-08-01T08:59:09.000Z</time>
      </trkpt>
      <trkpt lat="47.0485" lon="-1.6377">
        <ele>60</ele>
        <time>2021-08-01T08:59:11.000Z</time>
      </trkpt>
      <trkpt lat="47.04862" lon="-1.63768">
        <ele>60</ele>
        <time>2021-08-01T08:59:13.000Z</time>
      </trkpt>
      <trkpt lat="47.04873" lon="-1.63766">
        <ele>60</ele>
        <time>2021-08-01T08:59:15.000Z</time>
      </trkpt>
      <trkpt lat="47.04886" lon="-1.63763">
        <ele>60</ele>
        <time>2021-08-01T08:59:17.000Z</time>
      </trkpt>
      <trkpt lat="47.049" lon="-1.63761">
        <ele>59</ele>
        <time>2021-08-01T08:59:19.000Z</time>
      </trkpt>
      <trkpt lat="47.04913" lon="-1.63757">
        <ele>59</ele>
        <time>2021-08-01T08:59:21.000Z</time>
      </trkpt>
      <trkpt lat="47.04926" lon="-1.63752">
        <ele>60</ele>
        <time>2021-08-01T08:59:23.000Z</time>
      </trkpt>
      <trkpt lat="47.04938" lon="-1.63738">
        <ele>59</ele>
        <time>2021-08-01T08:59:25.000Z</time>
      </trkpt>
      <trkpt lat="47.04945" lon="-1.6372">
        <ele>59</ele>
        <time>2021-08-01T08:59:27.000Z</time>
      </trkpt>
      <trkpt lat="47.04947" lon="-1.63699">
        <ele>59</ele>
        <time>2021-08-01T08:59:29.000Z</time>
      </trkpt>
      <trkpt lat="47.04946" lon="-1.63678">
        <ele>58</ele>
        <time>2021-08-01T08:59:31.000Z</time>
      </trkpt>
      <trkpt lat="47.04946" lon="-1.63655">
        <ele>58</ele>
        <time>2021-08-01T08:59:33.000Z</time>
      </trkpt>
      <trkpt lat="47.04947" lon="-1.63633">
        <ele>58</ele>
        <time>2021-08-01T08:59:35.000Z</time>
      </trkpt>
      <trkpt lat="47.04953" lon="-1.63611">
        <ele>57</ele>
        <time>2021-08-01T08:59:37.000Z</time>
      </trkpt>
      <trkpt lat="47.04962" lon="-1.63591">
        <ele>56</ele>
        <time>2021-08-01T08:59:39.000Z</time>
      </trkpt>
      <trkpt lat="47.04974" lon="-1.63574">
        <ele>55</ele>
        <time>2021-08-01T08:59:41.000Z</time>
      </trkpt>
      <trkpt lat="47.04989" lon="-1.63562">
        <ele>55</ele>
        <time>2021-08-01T08:59:43.000Z</time>
      </trkpt>
      <trkpt lat="47.05004" lon="-1.63551">
        <ele>55</ele>
        <time>2021-08-01T08:59:45.000Z</time>
      </trkpt>
      <trkpt lat="47.05019" lon="-1.63544">
        <ele>55</ele>
        <time>2021-08-01T08:59:47.000Z</time>
      </trkpt>
      <trkpt lat="47.05035" lon="-1.63538">
        <ele>54</ele>
        <time>2021-08-01T08:59:49.000Z</time>
      </trkpt>
      <trkpt lat="47.0505" lon="-1.63532">
        <ele>54</ele>
        <time>2021-08-01T08:59:51.000Z</time>
      </trkpt>
      <trkpt lat="47.05064" lon="-1.63527">
        <ele>54</ele>
        <time>2021-08-01T08:59:53.000Z</time>
      </trkpt>
      <trkpt lat="47.05079" lon="-1.63521">
        <ele>55</ele>
        <time>2021-08-01T08:59:55.000Z</time>
      </trkpt>
      <trkpt lat="47.05094" lon="-1.63516">
        <ele>55</ele>
        <time>2021-08-01T08:59:57.000Z</time>
      </trkpt>
      <trkpt lat="47.05108" lon="-1.6351">
        <ele>55</ele>
        <time>2021-08-01T08:59:59.000Z</time>
      </trkpt>
      <trkpt lat="47.05121" lon="-1.63505">
        <ele>55</ele>
        <time>2021-08-01T09:00:01.000Z</time>
      </trkpt>
      <trkpt lat="47.05135" lon="-1.63499">
        <ele>55</ele>
        <time>2021-08-01T09:00:03.000Z</time>
      </trkpt>
      <trkpt lat="47.05149" lon="-1.63494">
        <ele>55</ele>
        <time>2021-08-01T09:00:05.000Z</time>
      </trkpt>
      <trkpt lat="47.05163" lon="-1.63489">
        <ele>55</ele>
        <time>2021-08-01T09:00:07.000Z</time>
      </trkpt>
      <trkpt lat="47.05176" lon="-1.63483">
        <ele>55</ele>
        <time>2021-08-01T09:00:09.000Z</time>
      </trkpt>
      <trkpt lat="47.0519" lon="-1.63478">
        <ele>55</ele>
        <time>2021-08-01T09:00:11.000Z</time>
      </trkpt>
      <trkpt lat="47.05204" lon="-1.63473">
        <ele>55</ele>
        <time>2021-08-01T09:00:13.000Z</time>
      </trkpt>
      <trkpt lat="47.05218" lon="-1.63468">
        <ele>55</ele>
        <time>2021-08-01T09:00:15.000Z</time>
      </trkpt>
      <trkpt lat="47.05239" lon="-1.63461">
        <ele>55</ele>
        <time>2021-08-01T09:00:18.000Z</time>
      </trkpt>
      <trkpt lat="47.0526" lon="-1.63455">
        <ele>55</ele>
        <time>2021-08-01T09:00:21.000Z</time>
      </trkpt>
      <trkpt lat="47.05275" lon="-1.63452">
        <ele>55</ele>
        <time>2021-08-01T09:00:23.000Z</time>
      </trkpt>
      <trkpt lat="47.05288" lon="-1.6345">
        <ele>55</ele>
        <time>2021-08-01T09:00:25.000Z</time>
      </trkpt>
      <trkpt lat="47.05302" lon="-1.63447">
        <ele>55</ele>
        <time>2021-08-01T09:00:27.000Z</time>
      </trkpt>
      <trkpt lat="47.05316" lon="-1.63446">
        <ele>55</ele>
        <time>2021-08-01T09:00:29.000Z</time>
      </trkpt>
      <trkpt lat="47.0533" lon="-1.63445">
        <ele>55</ele>
        <time>2021-08-01T09:00:31.000Z</time>
      </trkpt>
      <trkpt lat="47.05344" lon="-1.63444">
        <ele>55</ele>
        <time>2021-08-01T09:00:33.000Z</time>
      </trkpt>
      <trkpt lat="47.05363" lon="-1.63435">
        <ele>55</ele>
        <time>2021-08-01T09:00:36.000Z</time>
      </trkpt>
      <trkpt lat="47.05376" lon="-1.63428">
        <ele>55</ele>
        <time>2021-08-01T09:00:38.000Z</time>
      </trkpt>
      <trkpt lat="47.0539" lon="-1.63431">
        <ele>56</ele>
        <time>2021-08-01T09:00:40.000Z</time>
      </trkpt>
      <trkpt lat="47.05404" lon="-1.63434">
        <ele>55</ele>
        <time>2021-08-01T09:00:42.000Z</time>
      </trkpt>
      <trkpt lat="47.05418" lon="-1.63431">
        <ele>54</ele>
        <time>2021-08-01T09:00:44.000Z</time>
      </trkpt>
      <trkpt lat="47.05439" lon="-1.63426">
        <ele>54</ele>
        <time>2021-08-01T09:00:47.000Z</time>
      </trkpt>
      <trkpt lat="47.05454" lon="-1.63424">
        <ele>54</ele>
        <time>2021-08-01T09:00:49.000Z</time>
      </trkpt>
      <trkpt lat="47.05468" lon="-1.63422">
        <ele>54</ele>
        <time>2021-08-01T09:00:51.000Z</time>
      </trkpt>
      <trkpt lat="47.05482" lon="-1.6342">
        <ele>54</ele>
        <time>2021-08-01T09:00:53.000Z</time>
      </trkpt>
      <trkpt lat="47.05497" lon="-1.63417">
        <ele>54</ele>
        <time>2021-08-01T09:00:55.000Z</time>
      </trkpt>
      <trkpt lat="47.05511" lon="-1.63414">
        <ele>53</ele>
        <time>2021-08-01T09:00:57.000Z</time>
      </trkpt>
      <trkpt lat="47.05526" lon="-1.63411">
        <ele>54</ele>
        <time>2021-08-01T09:00:59.000Z</time>
      </trkpt>
      <trkpt lat="47.0554" lon="-1.63406">
        <ele>54</ele>
        <time>2021-08-01T09:01:01.000Z</time>
      </trkpt>
      <trkpt lat="47.05554" lon="-1.63401">
        <ele>54</ele>
        <time>2021-08-01T09:01:03.000Z</time>
      </trkpt>
      <trkpt lat="47.05567" lon="-1.63396">
        <ele>54</ele>
        <time>2021-08-01T09:01:05.000Z</time>
      </trkpt>
      <trkpt lat="47.0558" lon="-1.6339">
        <ele>54</ele>
        <time>2021-08-01T09:01:07.000Z</time>
      </trkpt>
      <trkpt lat="47.05594" lon="-1.63385">
        <ele>53</ele>
        <time>2021-08-01T09:01:09.000Z</time>
      </trkpt>
      <trkpt lat="47.05607" lon="-1.63379">
        <ele>53</ele>
        <time>2021-08-01T09:01:11.000Z</time>
      </trkpt>
      <trkpt lat="47.0562" lon="-1.63372">
        <ele>53</ele>
        <time>2021-08-01T09:01:13.000Z</time>
      </trkpt>
      <trkpt lat="47.05633" lon="-1.63366">
        <ele>53</ele>
        <time>2021-08-01T09:01:15.000Z</time>
      </trkpt>
      <trkpt lat="47.05646" lon="-1.63361">
        <ele>53</ele>
        <time>2021-08-01T09:01:17.000Z</time>
      </trkpt>
      <trkpt lat="47.05659" lon="-1.63354">
        <ele>53</ele>
        <time>2021-08-01T09:01:19.000Z</time>
      </trkpt>
      <trkpt lat="47.05672" lon="-1.63348">
        <ele>53</ele>
        <time>2021-08-01T09:01:21.000Z</time>
      </trkpt>
      <trkpt lat="47.05686" lon="-1.63342">
        <ele>53</ele>
        <time>2021-08-01T09:01:23.000Z</time>
      </trkpt>
      <trkpt lat="47.05699" lon="-1.63336">
        <ele>53</ele>
        <time>2021-08-01T09:01:25.000Z</time>
      </trkpt>
      <trkpt lat="47.05712" lon="-1.6333">
        <ele>53</ele>
        <time>2021-08-01T09:01:27.000Z</time>
      </trkpt>
      <trkpt lat="47.05726" lon="-1.63324">
        <ele>53</ele>
        <time>2021-08-01T09:01:29.000Z</time>
      </trkpt>
      <trkpt lat="47.05739" lon="-1.63318">
        <ele>53</ele>
        <time>2021-08-01T09:01:31.000Z</time>
      </trkpt>
      <trkpt lat="47.05752" lon="-1.63313">
        <ele>53</ele>
        <time>2021-08-01T09:01:33.000Z</time>
      </trkpt>
      <trkpt lat="47.05765" lon="-1.63306">
        <ele>54</ele>
        <time>2021-08-01T09:01:35.000Z</time>
      </trkpt>
      <trkpt lat="47.05779" lon="-1.633">
        <ele>54</ele>
        <time>2021-08-01T09:01:37.000Z</time>
      </trkpt>
      <trkpt lat="47.05792" lon="-1.63293">
        <ele>54</ele>
        <time>2021-08-01T09:01:39.000Z</time>
      </trkpt>
      <trkpt lat="47.05805" lon="-1.63286">
        <ele>53</ele>
        <time>2021-08-01T09:01:41.000Z</time>
      </trkpt>
      <trkpt lat="47.05818" lon="-1.6328">
        <ele>53</ele>
        <time>2021-08-01T09:01:43.000Z</time>
      </trkpt>
      <trkpt lat="47.05832" lon="-1.63274">
        <ele>53</ele>
        <time>2021-08-01T09:01:45.000Z</time>
      </trkpt>
      <trkpt lat="47.05845" lon="-1.63268">
        <ele>53</ele>
        <time>2021-08-01T09:01:47.000Z</time>
      </trkpt>
      <trkpt lat="47.05858" lon="-1.63263">
        <ele>53</ele>
        <time>2021-08-01T09:01:49.000Z</time>
      </trkpt>
      <trkpt lat="47.05871" lon="-1.63256">
        <ele>53</ele>
        <time>2021-08-01T09:01:51.000Z</time>
      </trkpt>
      <trkpt lat="47.05885" lon="-1.63249">
        <ele>53</ele>
        <time>2021-08-01T09:01:53.000Z</time>
      </trkpt>
      <trkpt lat="47.05897" lon="-1.63242">
        <ele>53</ele>
        <time>2021-08-01T09:01:55.000Z</time>
      </trkpt>
      <trkpt lat="47.05911" lon="-1.63236">
        <ele>53</ele>
        <time>2021-08-01T09:01:57.000Z</time>
      </trkpt>
      <trkpt lat="47.05924" lon="-1.63231">
        <ele>53</ele>
        <time>2021-08-01T09:01:59.000Z</time>
      </trkpt>
      <trkpt lat="47.05937" lon="-1.63225">
        <ele>53</ele>
        <time>2021-08-01T09:02:01.000Z</time>
      </trkpt>
      <trkpt lat="47.0595" lon="-1.63219">
        <ele>53</ele>
        <time>2021-08-01T09:02:03.000Z</time>
      </trkpt>
      <trkpt lat="47.05963" lon="-1.63213">
        <ele>53</ele>
        <time>2021-08-01T09:02:05.000Z</time>
      </trkpt>
      <trkpt lat="47.05976" lon="-1.63207">
        <ele>53</ele>
        <time>2021-08-01T09:02:07.000Z</time>
      </trkpt>
      <trkpt lat="47.05989" lon="-1.63201">
        <ele>52</ele>
        <time>2021-08-01T09:02:09.000Z</time>
      </trkpt>
      <trkpt lat="47.06003" lon="-1.63194">
        <ele>52</ele>
        <time>2021-08-01T09:02:11.000Z</time>
      </trkpt>
      <trkpt lat="47.06016" lon="-1.63187">
        <ele>52</ele>
        <time>2021-08-01T09:02:13.000Z</time>
      </trkpt>
      <trkpt lat="47.06029" lon="-1.6318">
        <ele>53</ele>
        <time>2021-08-01T09:02:15.000Z</time>
      </trkpt>
      <trkpt lat="47.06042" lon="-1.63174">
        <ele>53</ele>
        <time>2021-08-01T09:02:17.000Z</time>
      </trkpt>
      <trkpt lat="47.06055" lon="-1.63168">
        <ele>53</ele>
        <time>2021-08-01T09:02:19.000Z</time>
      </trkpt>
      <trkpt lat="47.06068" lon="-1.63162">
        <ele>53</ele>
        <time>2021-08-01T09:02:21.000Z</time>
      </trkpt>
      <trkpt lat="47.06081" lon="-1.63156">
        <ele>53</ele>
        <time>2021-08-01T09:02:23.000Z</time>
      </trkpt>
      <trkpt lat="47.06095" lon="-1.6315">
        <ele>53</ele>
        <time>2021-08-01T09:02:25.000Z</time>
      </trkpt>
      <trkpt lat="47.06108" lon="-1.63144">
        <ele>53</ele>
        <time>2021-08-01T09:02:27.000Z</time>
      </trkpt>
      <trkpt lat="47.06121" lon="-1.63138">
        <ele>53</ele>
        <time>2021-08-01T09:02:29.000Z</time>
      </trkpt>
      <trkpt lat="47.06134" lon="-1.63131">
        <ele>53</ele>
        <time>2021-08-01T09:02:31.000Z</time>
      </trkpt>
      <trkpt lat="47.06148" lon="-1.63125">
        <ele>53</ele>
        <time>2021-08-01T09:02:33.000Z</time>
      </trkpt>
      <trkpt lat="47.06161" lon="-1.63119">
        <ele>52</ele>
        <time>2021-08-01T09:02:35.000Z</time>
      </trkpt>
      <trkpt lat="47.06174" lon="-1.63112">
        <ele>53</ele>
        <time>2021-08-01T09:02:37.000Z</time>
      </trkpt>
      <trkpt lat="47.06187" lon="-1.63106">
        <ele>52</ele>
        <time>2021-08-01T09:02:39.000Z</time>
      </trkpt>
      <trkpt lat="47.062" lon="-1.631">
        <ele>53</ele>
        <time>2021-08-01T09:02:41.000Z</time>
      </trkpt>
      <trkpt lat="47.06213" lon="-1.63094">
        <ele>53</ele>
        <time>2021-08-01T09:02:43.000Z</time>
      </trkpt>
      <trkpt lat="47.06227" lon="-1.63087">
        <ele>53</ele>
        <time>2021-08-01T09:02:45.000Z</time>
      </trkpt>
      <trkpt lat="47.0624" lon="-1.63081">
        <ele>53</ele>
        <time>2021-08-01T09:02:47.000Z</time>
      </trkpt>
      <trkpt lat="47.06253" lon="-1.63074">
        <ele>53</ele>
        <time>2021-08-01T09:02:49.000Z</time>
      </trkpt>
      <trkpt lat="47.06266" lon="-1.63067">
        <ele>54</ele>
        <time>2021-08-01T09:02:51.000Z</time>
      </trkpt>
      <trkpt lat="47.0628" lon="-1.63061">
        <ele>54</ele>
        <time>2021-08-01T09:02:53.000Z</time>
      </trkpt>
      <trkpt lat="47.06293" lon="-1.63055">
        <ele>54</ele>
        <time>2021-08-01T09:02:55.000Z</time>
      </trkpt>
      <trkpt lat="47.06306" lon="-1.63048">
        <ele>54</ele>
        <time>2021-08-01T09:02:57.000Z</time>
      </trkpt>
      <trkpt lat="47.06319" lon="-1.63042">
        <ele>55</ele>
        <time>2021-08-01T09:02:59.000Z</time>
      </trkpt>
      <trkpt lat="47.06331" lon="-1.63036">
        <ele>56</ele>
        <time>2021-08-01T09:03:01.000Z</time>
      </trkpt>
      <trkpt lat="47.06344" lon="-1.63031">
        <ele>56</ele>
        <time>2021-08-01T09:03:03.000Z</time>
      </trkpt>
      <trkpt lat="47.06356" lon="-1.63025">
        <ele>56</ele>
        <time>2021-08-01T09:03:05.000Z</time>
      </trkpt>
      <trkpt lat="47.06368" lon="-1.63019">
        <ele>56</ele>
        <time>2021-08-01T09:03:07.000Z</time>
      </trkpt>
      <trkpt lat="47.06381" lon="-1.63013">
        <ele>57</ele>
        <time>2021-08-01T09:03:09.000Z</time>
      </trkpt>
      <trkpt lat="47.06394" lon="-1.63008">
        <ele>57</ele>
        <time>2021-08-01T09:03:11.000Z</time>
      </trkpt>
      <trkpt lat="47.06406" lon="-1.63002">
        <ele>57</ele>
        <time>2021-08-01T09:03:13.000Z</time>
      </trkpt>
      <trkpt lat="47.06419" lon="-1.62996">
        <ele>56</ele>
        <time>2021-08-01T09:03:15.000Z</time>
      </trkpt>
      <trkpt lat="47.06431" lon="-1.6299">
        <ele>57</ele>
        <time>2021-08-01T09:03:17.000Z</time>
      </trkpt>
      <trkpt lat="47.06444" lon="-1.62984">
        <ele>57</ele>
        <time>2021-08-01T09:03:19.000Z</time>
      </trkpt>
      <trkpt lat="47.06456" lon="-1.62978">
        <ele>57</ele>
        <time>2021-08-01T09:03:21.000Z</time>
      </trkpt>
      <trkpt lat="47.06469" lon="-1.62972">
        <ele>57</ele>
        <time>2021-08-01T09:03:23.000Z</time>
      </trkpt>
      <trkpt lat="47.06481" lon="-1.62965">
        <ele>58</ele>
        <time>2021-08-01T09:03:25.000Z</time>
      </trkpt>
      <trkpt lat="47.06493" lon="-1.62957">
        <ele>58</ele>
        <time>2021-08-01T09:03:27.000Z</time>
      </trkpt>
      <trkpt lat="47.06504" lon="-1.62947">
        <ele>58</ele>
        <time>2021-08-01T09:03:29.000Z</time>
      </trkpt>
      <trkpt lat="47.06516" lon="-1.62936">
        <ele>58</ele>
        <time>2021-08-01T09:03:31.000Z</time>
      </trkpt>
      <trkpt lat="47.06526" lon="-1.62923">
        <ele>58</ele>
        <time>2021-08-01T09:03:33.000Z</time>
      </trkpt>
      <trkpt lat="47.06536" lon="-1.6291">
        <ele>58</ele>
        <time>2021-08-01T09:03:35.000Z</time>
      </trkpt>
      <trkpt lat="47.06545" lon="-1.62896">
        <ele>58</ele>
        <time>2021-08-01T09:03:37.000Z</time>
      </trkpt>
      <trkpt lat="47.06555" lon="-1.62881">
        <ele>59</ele>
        <time>2021-08-01T09:03:39.000Z</time>
      </trkpt>
      <trkpt lat="47.06565" lon="-1.62867">
        <ele>59</ele>
        <time>2021-08-01T09:03:41.000Z</time>
      </trkpt>
      <trkpt lat="47.06574" lon="-1.62852">
        <ele>59</ele>
        <time>2021-08-01T09:03:43.000Z</time>
      </trkpt>
      <trkpt lat="47.06584" lon="-1.62838">
        <ele>59</ele>
        <time>2021-08-01T09:03:45.000Z</time>
      </trkpt>
      <trkpt lat="47.06593" lon="-1.62824">
        <ele>59</ele>
        <time>2021-08-01T09:03:47.000Z</time>
      </trkpt>
      <trkpt lat="47.06602" lon="-1.62809">
        <ele>59</ele>
        <time>2021-08-01T09:03:49.000Z</time>
      </trkpt>
      <trkpt lat="47.06612" lon="-1.62795">
        <ele>59</ele>
        <time>2021-08-01T09:03:51.000Z</time>
      </trkpt>
      <trkpt lat="47.06621" lon="-1.62781">
        <ele>59</ele>
        <time>2021-08-01T09:03:53.000Z</time>
      </trkpt>
      <trkpt lat="47.0663" lon="-1.62767">
        <ele>58</ele>
        <time>2021-08-01T09:03:55.000Z</time>
      </trkpt>
      <trkpt lat="47.0664" lon="-1.62752">
        <ele>58</ele>
        <time>2021-08-01T09:03:57.000Z</time>
      </trkpt>
      <trkpt lat="47.06649" lon="-1.62738">
        <ele>58</ele>
        <time>2021-08-01T09:03:59.000Z</time>
      </trkpt>
      <trkpt lat="47.06659" lon="-1.62724">
        <ele>58</ele>
        <time>2021-08-01T09:04:01.000Z</time>
      </trkpt>
      <trkpt lat="47.06668" lon="-1.62708">
        <ele>59</ele>
        <time>2021-08-01T09:04:03.000Z</time>
      </trkpt>
      <trkpt lat="47.06677" lon="-1.62694">
        <ele>59</ele>
        <time>2021-08-01T09:04:05.000Z</time>
      </trkpt>
      <trkpt lat="47.06687" lon="-1.6268">
        <ele>58</ele>
        <time>2021-08-01T09:04:07.000Z</time>
      </trkpt>
      <trkpt lat="47.06697" lon="-1.62665">
        <ele>59</ele>
        <time>2021-08-01T09:04:09.000Z</time>
      </trkpt>
      <trkpt lat="47.06707" lon="-1.62652">
        <ele>59</ele>
        <time>2021-08-01T09:04:11.000Z</time>
      </trkpt>
      <trkpt lat="47.06717" lon="-1.62639">
        <ele>59</ele>
        <time>2021-08-01T09:04:13.000Z</time>
      </trkpt>
      <trkpt lat="47.06728" lon="-1.62627">
        <ele>59</ele>
        <time>2021-08-01T09:04:15.000Z</time>
      </trkpt>
      <trkpt lat="47.0674" lon="-1.62614">
        <ele>58</ele>
        <time>2021-08-01T09:04:17.000Z</time>
      </trkpt>
      <trkpt lat="47.06753" lon="-1.62602">
        <ele>58</ele>
        <time>2021-08-01T09:04:19.000Z</time>
      </trkpt>
      <trkpt lat="47.06765" lon="-1.62591">
        <ele>58</ele>
        <time>2021-08-01T09:04:21.000Z</time>
      </trkpt>
      <trkpt lat="47.06777" lon="-1.62579">
        <ele>58</ele>
        <time>2021-08-01T09:04:23.000Z</time>
      </trkpt>
      <trkpt lat="47.0679" lon="-1.62568">
        <ele>58</ele>
        <time>2021-08-01T09:04:25.000Z</time>
      </trkpt>
      <trkpt lat="47.06803" lon="-1.62558">
        <ele>58</ele>
        <time>2021-08-01T09:04:27.000Z</time>
      </trkpt>
      <trkpt lat="47.06815" lon="-1.62547">
        <ele>59</ele>
        <time>2021-08-01T09:04:29.000Z</time>
      </trkpt>
      <trkpt lat="47.06828" lon="-1.62536">
        <ele>59</ele>
        <time>2021-08-01T09:04:31.000Z</time>
      </trkpt>
      <trkpt lat="47.06841" lon="-1.62526">
        <ele>59</ele>
        <time>2021-08-01T09:04:33.000Z</time>
      </trkpt>
      <trkpt lat="47.06854" lon="-1.62516">
        <ele>59</ele>
        <time>2021-08-01T09:04:35.000Z</time>
      </trkpt>
      <trkpt lat="47.06867" lon="-1.62507">
        <ele>59</ele>
        <time>2021-08-01T09:04:37.000Z</time>
      </trkpt>
      <trkpt lat="47.06882" lon="-1.625">
        <ele>59</ele>
        <time>2021-08-01T09:04:39.000Z</time>
      </trkpt>
      <trkpt lat="47.06896" lon="-1.62492">
        <ele>58</ele>
        <time>2021-08-01T09:04:41.000Z</time>
      </trkpt>
      <trkpt lat="47.06911" lon="-1.62486">
        <ele>58</ele>
        <time>2021-08-01T09:04:43.000Z</time>
      </trkpt>
      <trkpt lat="47.06925" lon="-1.62479">
        <ele>58</ele>
        <time>2021-08-01T09:04:45.000Z</time>
      </trkpt>
      <trkpt lat="47.0694" lon="-1.62473">
        <ele>58</ele>
        <time>2021-08-01T09:04:47.000Z</time>
      </trkpt>
      <trkpt lat="47.06954" lon="-1.62466">
        <ele>58</ele>
        <time>2021-08-01T09:04:49.000Z</time>
      </trkpt>
      <trkpt lat="47.0697" lon="-1.62461">
        <ele>58</ele>
        <time>2021-08-01T09:04:51.000Z</time>
      </trkpt>
      <trkpt lat="47.06984" lon="-1.62454">
        <ele>59</ele>
        <time>2021-08-01T09:04:53.000Z</time>
      </trkpt>
      <trkpt lat="47.06998" lon="-1.62448">
        <ele>59</ele>
        <time>2021-08-01T09:04:55.000Z</time>
      </trkpt>
      <trkpt lat="47.07011" lon="-1.62442">
        <ele>60</ele>
        <time>2021-08-01T09:04:57.000Z</time>
      </trkpt>
      <trkpt lat="47.07024" lon="-1.62436">
        <ele>60</ele>
        <time>2021-08-01T09:04:59.000Z</time>
      </trkpt>
      <trkpt lat="47.07038" lon="-1.62429">
        <ele>60</ele>
        <time>2021-08-01T09:05:01.000Z</time>
      </trkpt>
      <trkpt lat="47.07051" lon="-1.62422">
        <ele>60</ele>
        <time>2021-08-01T09:05:03.000Z</time>
      </trkpt>
      <trkpt lat="47.07064" lon="-1.62414">
        <ele>60</ele>
        <time>2021-08-01T09:05:05.000Z</time>
      </trkpt>
      <trkpt lat="47.07077" lon="-1.62405">
        <ele>60</ele>
        <time>2021-08-01T09:05:07.000Z</time>
      </trkpt>
      <trkpt lat="47.07089" lon="-1.62395">
        <ele>60</ele>
        <time>2021-08-01T09:05:09.000Z</time>
      </trkpt>
      <trkpt lat="47.07102" lon="-1.62387">
        <ele>60</ele>
        <time>2021-08-01T09:05:11.000Z</time>
      </trkpt>
      <trkpt lat="47.07115" lon="-1.62378">
        <ele>59</ele>
        <time>2021-08-01T09:05:13.000Z</time>
      </trkpt>
      <trkpt lat="47.07128" lon="-1.62369">
        <ele>59</ele>
        <time>2021-08-01T09:05:15.000Z</time>
      </trkpt>
      <trkpt lat="47.07141" lon="-1.62359">
        <ele>59</ele>
        <time>2021-08-01T09:05:17.000Z</time>
      </trkpt>
      <trkpt lat="47.07155" lon="-1.62349">
        <ele>58</ele>
        <time>2021-08-01T09:05:19.000Z</time>
      </trkpt>
      <trkpt lat="47.07168" lon="-1.6234">
        <ele>57</ele>
        <time>2021-08-01T09:05:21.000Z</time>
      </trkpt>
      <trkpt lat="47.07181" lon="-1.62331">
        <ele>57</ele>
        <time>2021-08-01T09:05:23.000Z</time>
      </trkpt>
      <trkpt lat="47.07195" lon="-1.62322">
        <ele>58</ele>
        <time>2021-08-01T09:05:25.000Z</time>
      </trkpt>
      <trkpt lat="47.07208" lon="-1.62313">
        <ele>58</ele>
        <time>2021-08-01T09:05:27.000Z</time>
      </trkpt>
      <trkpt lat="47.07221" lon="-1.62304">
        <ele>58</ele>
        <time>2021-08-01T09:05:29.000Z</time>
      </trkpt>
      <trkpt lat="47.07235" lon="-1.62295">
        <ele>58</ele>
        <time>2021-08-01T09:05:31.000Z</time>
      </trkpt>
      <trkpt lat="47.07249" lon="-1.62285">
        <ele>58</ele>
        <time>2021-08-01T09:05:33.000Z</time>
      </trkpt>
      <trkpt lat="47.07262" lon="-1.62275">
        <ele>58</ele>
        <time>2021-08-01T09:05:35.000Z</time>
      </trkpt>
      <trkpt lat="47.07274" lon="-1.62263">
        <ele>58</ele>
        <time>2021-08-01T09:05:37.000Z</time>
      </trkpt>
      <trkpt lat="47.07286" lon="-1.62251">
        <ele>58</ele>
        <time>2021-08-01T09:05:39.000Z</time>
      </trkpt>
      <trkpt lat="47.07297" lon="-1.62238">
        <ele>58</ele>
        <time>2021-08-01T09:05:41.000Z</time>
      </trkpt>
      <trkpt lat="47.07307" lon="-1.62224">
        <ele>58</ele>
        <time>2021-08-01T09:05:43.000Z</time>
      </trkpt>
      <trkpt lat="47.07317" lon="-1.6221">
        <ele>58</ele>
        <time>2021-08-01T09:05:45.000Z</time>
      </trkpt>
      <trkpt lat="47.07327" lon="-1.62196">
        <ele>58</ele>
        <time>2021-08-01T09:05:47.000Z</time>
      </trkpt>
      <trkpt lat="47.07336" lon="-1.62182">
        <ele>58</ele>
        <time>2021-08-01T09:05:49.000Z</time>
      </trkpt>
      <trkpt lat="47.07345" lon="-1.62167">
        <ele>58</ele>
        <time>2021-08-01T09:05:51.000Z</time>
      </trkpt>
      <trkpt lat="47.07354" lon="-1.62152">
        <ele>58</ele>
        <time>2021-08-01T09:05:53.000Z</time>
      </trkpt>
      <trkpt lat="47.07364" lon="-1.62137">
        <ele>58</ele>
        <time>2021-08-01T09:05:55.000Z</time>
      </trkpt>
      <trkpt lat="47.07373" lon="-1.62122">
        <ele>58</ele>
        <time>2021-08-01T09:05:57.000Z</time>
      </trkpt>
      <trkpt lat="47.07382" lon="-1.62107">
        <ele>58</ele>
        <time>2021-08-01T09:05:59.000Z</time>
      </trkpt>
      <trkpt lat="47.07391" lon="-1.62092">
        <ele>58</ele>
        <time>2021-08-01T09:06:01.000Z</time>
      </trkpt>
      <trkpt lat="47.074" lon="-1.62077">
        <ele>58</ele>
        <time>2021-08-01T09:06:03.000Z</time>
      </trkpt>
      <trkpt lat="47.07409" lon="-1.62062">
        <ele>58</ele>
        <time>2021-08-01T09:06:05.000Z</time>
      </trkpt>
      <trkpt lat="47.07418" lon="-1.62048">
        <ele>59</ele>
        <time>2021-08-01T09:06:07.000Z</time>
      </trkpt>
      <trkpt lat="47.07427" lon="-1.62033">
        <ele>59</ele>
        <time>2021-08-01T09:06:09.000Z</time>
      </trkpt>
      <trkpt lat="47.07436" lon="-1.62019">
        <ele>59</ele>
        <time>2021-08-01T09:06:11.000Z</time>
      </trkpt>
      <trkpt lat="47.07446" lon="-1.62005">
        <ele>59</ele>
        <time>2021-08-01T09:06:13.000Z</time>
      </trkpt>
      <trkpt lat="47.07456" lon="-1.61992">
        <ele>59</ele>
        <time>2021-08-01T09:06:15.000Z</time>
      </trkpt>
      <trkpt lat="47.07466" lon="-1.6198">
        <ele>60</ele>
        <time>2021-08-01T09:06:17.000Z</time>
      </trkpt>
      <trkpt lat="47.07476" lon="-1.61968">
        <ele>59</ele>
        <time>2021-08-01T09:06:19.000Z</time>
      </trkpt>
      <trkpt lat="47.07486" lon="-1.61956">
        <ele>60</ele>
        <time>2021-08-01T09:06:21.000Z</time>
      </trkpt>
      <trkpt lat="47.07496" lon="-1.61944">
        <ele>59</ele>
        <time>2021-08-01T09:06:23.000Z</time>
      </trkpt>
      <trkpt lat="47.07507" lon="-1.61932">
        <ele>60</ele>
        <time>2021-08-01T09:06:25.000Z</time>
      </trkpt>
      <trkpt lat="47.07518" lon="-1.6192">
        <ele>60</ele>
        <time>2021-08-01T09:06:27.000Z</time>
      </trkpt>
      <trkpt lat="47.07528" lon="-1.61908">
        <ele>60</ele>
        <time>2021-08-01T09:06:29.000Z</time>
      </trkpt>
      <trkpt lat="47.07538" lon="-1.61896">
        <ele>60</ele>
        <time>2021-08-01T09:06:31.000Z</time>
      </trkpt>
      <trkpt lat="47.07549" lon="-1.61883">
        <ele>60</ele>
        <time>2021-08-01T09:06:33.000Z</time>
      </trkpt>
      <trkpt lat="47.0756" lon="-1.6187">
        <ele>60</ele>
        <time>2021-08-01T09:06:35.000Z</time>
      </trkpt>
      <trkpt lat="47.07571" lon="-1.61857">
        <ele>60</ele>
        <time>2021-08-01T09:06:37.000Z</time>
      </trkpt>
      <trkpt lat="47.07582" lon="-1.61845">
        <ele>60</ele>
        <time>2021-08-01T09:06:39.000Z</time>
      </trkpt>
      <trkpt lat="47.07593" lon="-1.61833">
        <ele>60</ele>
        <time>2021-08-01T09:06:41.000Z</time>
      </trkpt>
      <trkpt lat="47.07605" lon="-1.6182">
        <ele>60</ele>
        <time>2021-08-01T09:06:43.000Z</time>
      </trkpt>
      <trkpt lat="47.07615" lon="-1.61807">
        <ele>60</ele>
        <time>2021-08-01T09:06:45.000Z</time>
      </trkpt>
      <trkpt lat="47.07627" lon="-1.61794">
        <ele>59</ele>
        <time>2021-08-01T09:06:47.000Z</time>
      </trkpt>
      <trkpt lat="47.07639" lon="-1.61782">
        <ele>59</ele>
        <time>2021-08-01T09:06:49.000Z</time>
      </trkpt>
      <trkpt lat="47.0765" lon="-1.61768">
        <ele>58</ele>
        <time>2021-08-01T09:06:51.000Z</time>
      </trkpt>
      <trkpt lat="47.07662" lon="-1.61755">
        <ele>58</ele>
        <time>2021-08-01T09:06:53.000Z</time>
      </trkpt>
      <trkpt lat="47.07674" lon="-1.6174">
        <ele>57</ele>
        <time>2021-08-01T09:06:55.000Z</time>
      </trkpt>
      <trkpt lat="47.07686" lon="-1.61726">
        <ele>57</ele>
        <time>2021-08-01T09:06:57.000Z</time>
      </trkpt>
      <trkpt lat="47.07698" lon="-1.61711">
        <ele>56</ele>
        <time>2021-08-01T09:06:59.000Z</time>
      </trkpt>
      <trkpt lat="47.07711" lon="-1.61696">
        <ele>56</ele>
        <time>2021-08-01T09:07:01.000Z</time>
      </trkpt>
      <trkpt lat="47.07723" lon="-1.61682">
        <ele>56</ele>
        <time>2021-08-01T09:07:03.000Z</time>
      </trkpt>
      <trkpt lat="47.07735" lon="-1.61669">
        <ele>56</ele>
        <time>2021-08-01T09:07:05.000Z</time>
      </trkpt>
      <trkpt lat="47.07747" lon="-1.61656">
        <ele>56</ele>
        <time>2021-08-01T09:07:07.000Z</time>
      </trkpt>
      <trkpt lat="47.0776" lon="-1.61642">
        <ele>56</ele>
        <time>2021-08-01T09:07:09.000Z</time>
      </trkpt>
      <trkpt lat="47.07772" lon="-1.61628">
        <ele>56</ele>
        <time>2021-08-01T09:07:11.000Z</time>
      </trkpt>
      <trkpt lat="47.07785" lon="-1.61615">
        <ele>55</ele>
        <time>2021-08-01T09:07:13.000Z</time>
      </trkpt>
      <trkpt lat="47.07798" lon="-1.61602">
        <ele>55</ele>
        <time>2021-08-01T09:07:15.000Z</time>
      </trkpt>
      <trkpt lat="47.07811" lon="-1.6159">
        <ele>55</ele>
        <time>2021-08-01T09:07:17.000Z</time>
      </trkpt>
      <trkpt lat="47.07825" lon="-1.61581">
        <ele>55</ele>
        <time>2021-08-01T09:07:19.000Z</time>
      </trkpt>
      <trkpt lat="47.0784" lon="-1.61573">
        <ele>55</ele>
        <time>2021-08-01T09:07:21.000Z</time>
      </trkpt>
      <trkpt lat="47.07854" lon="-1.61565">
        <ele>55</ele>
        <time>2021-08-01T09:07:23.000Z</time>
      </trkpt>
      <trkpt lat="47.07868" lon="-1.61558">
        <ele>56</ele>
        <time>2021-08-01T09:07:25.000Z</time>
      </trkpt>
      <trkpt lat="47.07882" lon="-1.61552">
        <ele>56</ele>
        <time>2021-08-01T09:07:27.000Z</time>
      </trkpt>
      <trkpt lat="47.07896" lon="-1.61546">
        <ele>56</ele>
        <time>2021-08-01T09:07:29.000Z</time>
      </trkpt>
      <trkpt lat="47.07911" lon="-1.61539">
        <ele>56</ele>
        <time>2021-08-01T09:07:31.000Z</time>
      </trkpt>
      <trkpt lat="47.07926" lon="-1.61532">
        <ele>56</ele>
        <time>2021-08-01T09:07:33.000Z</time>
      </trkpt>
      <trkpt lat="47.07941" lon="-1.61526">
        <ele>56</ele>
        <time>2021-08-01T09:07:35.000Z</time>
      </trkpt>
      <trkpt lat="47.07957" lon="-1.61519">
        <ele>56</ele>
        <time>2021-08-01T09:07:37.000Z</time>
      </trkpt>
      <trkpt lat="47.07972" lon="-1.61512">
        <ele>56</ele>
        <time>2021-08-01T09:07:39.000Z</time>
      </trkpt>
      <trkpt lat="47.07987" lon="-1.61506">
        <ele>56</ele>
        <time>2021-08-01T09:07:41.000Z</time>
      </trkpt>
      <trkpt lat="47.08002" lon="-1.615">
        <ele>56</ele>
        <time>2021-08-01T09:07:43.000Z</time>
      </trkpt>
      <trkpt lat="47.08016" lon="-1.61494">
        <ele>56</ele>
        <time>2021-08-01T09:07:45.000Z</time>
      </trkpt>
      <trkpt lat="47.08031" lon="-1.61488">
        <ele>56</ele>
        <time>2021-08-01T09:07:47.000Z</time>
      </trkpt>
      <trkpt lat="47.08045" lon="-1.61482">
        <ele>56</ele>
        <time>2021-08-01T09:07:49.000Z</time>
      </trkpt>
      <trkpt lat="47.0806" lon="-1.61475">
        <ele>56</ele>
        <time>2021-08-01T09:07:51.000Z</time>
      </trkpt>
      <trkpt lat="47.08074" lon="-1.61469">
        <ele>56</ele>
        <time>2021-08-01T09:07:53.000Z</time>
      </trkpt>
      <trkpt lat="47.08088" lon="-1.61463">
        <ele>56</ele>
        <time>2021-08-01T09:07:55.000Z</time>
      </trkpt>
      <trkpt lat="47.08103" lon="-1.61456">
        <ele>56</ele>
        <time>2021-08-01T09:07:57.000Z</time>
      </trkpt>
      <trkpt lat="47.08117" lon="-1.6145">
        <ele>55</ele>
        <time>2021-08-01T09:07:59.000Z</time>
      </trkpt>
      <trkpt lat="47.08131" lon="-1.61444">
        <ele>56</ele>
        <time>2021-08-01T09:08:01.000Z</time>
      </trkpt>
      <trkpt lat="47.08145" lon="-1.61438">
        <ele>55</ele>
        <time>2021-08-01T09:08:03.000Z</time>
      </trkpt>
      <trkpt lat="47.0816" lon="-1.61432">
        <ele>55</ele>
        <time>2021-08-01T09:08:05.000Z</time>
      </trkpt>
      <trkpt lat="47.08174" lon="-1.61426">
        <ele>55</ele>
        <time>2021-08-01T09:08:07.000Z</time>
      </trkpt>
      <trkpt lat="47.08188" lon="-1.61419">
        <ele>55</ele>
        <time>2021-08-01T09:08:09.000Z</time>
      </trkpt>
      <trkpt lat="47.08203" lon="-1.61413">
        <ele>55</ele>
        <time>2021-08-01T09:08:11.000Z</time>
      </trkpt>
      <trkpt lat="47.08217" lon="-1.61407">
        <ele>55</ele>
        <time>2021-08-01T09:08:13.000Z</time>
      </trkpt>
      <trkpt lat="47.08231" lon="-1.61401">
        <ele>55</ele>
        <time>2021-08-01T09:08:15.000Z</time>
      </trkpt>
      <trkpt lat="47.08245" lon="-1.61395">
        <ele>55</ele>
        <time>2021-08-01T09:08:17.000Z</time>
      </trkpt>
      <trkpt lat="47.08259" lon="-1.6139">
        <ele>55</ele>
        <time>2021-08-01T09:08:19.000Z</time>
      </trkpt>
      <trkpt lat="47.08273" lon="-1.61384">
        <ele>55</ele>
        <time>2021-08-01T09:08:21.000Z</time>
      </trkpt>
      <trkpt lat="47.08287" lon="-1.61377">
        <ele>55</ele>
        <time>2021-08-01T09:08:23.000Z</time>
      </trkpt>
      <trkpt lat="47.083" lon="-1.61371">
        <ele>55</ele>
        <time>2021-08-01T09:08:25.000Z</time>
      </trkpt>
      <trkpt lat="47.08314" lon="-1.61365">
        <ele>55</ele>
        <time>2021-08-01T09:08:27.000Z</time>
      </trkpt>
      <trkpt lat="47.08328" lon="-1.61359">
        <ele>55</ele>
        <time>2021-08-01T09:08:29.000Z</time>
      </trkpt>
      <trkpt lat="47.08343" lon="-1.61353">
        <ele>54</ele>
        <time>2021-08-01T09:08:31.000Z</time>
      </trkpt>
      <trkpt lat="47.08357" lon="-1.61346">
        <ele>55</ele>
        <time>2021-08-01T09:08:33.000Z</time>
      </trkpt>
      <trkpt lat="47.0837" lon="-1.61341">
        <ele>55</ele>
        <time>2021-08-01T09:08:35.000Z</time>
      </trkpt>
      <trkpt lat="47.08384" lon="-1.61335">
        <ele>55</ele>
        <time>2021-08-01T09:08:37.000Z</time>
      </trkpt>
      <trkpt lat="47.08397" lon="-1.61329">
        <ele>55</ele>
        <time>2021-08-01T09:08:39.000Z</time>
      </trkpt>
      <trkpt lat="47.0841" lon="-1.61323">
        <ele>55</ele>
        <time>2021-08-01T09:08:41.000Z</time>
      </trkpt>
      <trkpt lat="47.08424" lon="-1.61318">
        <ele>55</ele>
        <time>2021-08-01T09:08:43.000Z</time>
      </trkpt>
      <trkpt lat="47.08436" lon="-1.61313">
        <ele>55</ele>
        <time>2021-08-01T09:08:45.000Z</time>
      </trkpt>
      <trkpt lat="47.0845" lon="-1.61307">
        <ele>55</ele>
        <time>2021-08-01T09:08:47.000Z</time>
      </trkpt>
      <trkpt lat="47.08463" lon="-1.61301">
        <ele>55</ele>
        <time>2021-08-01T09:08:49.000Z</time>
      </trkpt>
      <trkpt lat="47.08476" lon="-1.61296">
        <ele>55</ele>
        <time>2021-08-01T09:08:51.000Z</time>
      </trkpt>
      <trkpt lat="47.08488" lon="-1.6129">
        <ele>55</ele>
        <time>2021-08-01T09:08:53.000Z</time>
      </trkpt>
      <trkpt lat="47.085" lon="-1.61283">
        <ele>55</ele>
        <time>2021-08-01T09:08:55.000Z</time>
      </trkpt>
      <trkpt lat="47.08513" lon="-1.61279">
        <ele>55</ele>
        <time>2021-08-01T09:08:57.000Z</time>
      </trkpt>
      <trkpt lat="47.08526" lon="-1.61274">
        <ele>55</ele>
        <time>2021-08-01T09:08:59.000Z</time>
      </trkpt>
      <trkpt lat="47.08539" lon="-1.61269">
        <ele>55</ele>
        <time>2021-08-01T09:09:01.000Z</time>
      </trkpt>
      <trkpt lat="47.08552" lon="-1.61263">
        <ele>55</ele>
        <time>2021-08-01T09:09:03.000Z</time>
      </trkpt>
      <trkpt lat="47.08565" lon="-1.61258">
        <ele>55</ele>
        <time>2021-08-01T09:09:05.000Z</time>
      </trkpt>
      <trkpt lat="47.08578" lon="-1.61252">
        <ele>55</ele>
        <time>2021-08-01T09:09:07.000Z</time>
      </trkpt>
      <trkpt lat="47.08591" lon="-1.61247">
        <ele>55</ele>
        <time>2021-08-01T09:09:09.000Z</time>
      </trkpt>
      <trkpt lat="47.08604" lon="-1.61242">
        <ele>55</ele>
        <time>2021-08-01T09:09:11.000Z</time>
      </trkpt>
      <trkpt lat="47.08618" lon="-1.61236">
        <ele>55</ele>
        <time>2021-08-01T09:09:13.000Z</time>
      </trkpt>
      <trkpt lat="47.0863" lon="-1.61231">
        <ele>56</ele>
        <time>2021-08-01T09:09:15.000Z</time>
      </trkpt>
      <trkpt lat="47.08642" lon="-1.61225">
        <ele>56</ele>
        <time>2021-08-01T09:09:17.000Z</time>
      </trkpt>
      <trkpt lat="47.08654" lon="-1.61219">
        <ele>56</ele>
        <time>2021-08-01T09:09:19.000Z</time>
      </trkpt>
      <trkpt lat="47.08666" lon="-1.61214">
        <ele>56</ele>
        <time>2021-08-01T09:09:21.000Z</time>
      </trkpt>
      <trkpt lat="47.08678" lon="-1.61209">
        <ele>57</ele>
        <time>2021-08-01T09:09:23.000Z</time>
      </trkpt>
      <trkpt lat="47.0869" lon="-1.61204">
        <ele>57</ele>
        <time>2021-08-01T09:09:25.000Z</time>
      </trkpt>
      <trkpt lat="47.08702" lon="-1.61199">
        <ele>57</ele>
        <time>2021-08-01T09:09:27.000Z</time>
      </trkpt>
      <trkpt lat="47.08714" lon="-1.61194">
        <ele>57</ele>
        <time>2021-08-01T09:09:29.000Z</time>
      </trkpt>
      <trkpt lat="47.08726" lon="-1.61189">
        <ele>57</ele>
        <time>2021-08-01T09:09:31.000Z</time>
      </trkpt>
      <trkpt lat="47.08738" lon="-1.61183">
        <ele>57</ele>
        <time>2021-08-01T09:09:33.000Z</time>
      </trkpt>
      <trkpt lat="47.0875" lon="-1.61178">
        <ele>57</ele>
        <time>2021-08-01T09:09:35.000Z</time>
      </trkpt>
      <trkpt lat="47.08762" lon="-1.61173">
        <ele>57</ele>
        <time>2021-08-01T09:09:37.000Z</time>
      </trkpt>
      <trkpt lat="47.08774" lon="-1.61167">
        <ele>57</ele>
        <time>2021-08-01T09:09:39.000Z</time>
      </trkpt>
      <trkpt lat="47.08786" lon="-1.61162">
        <ele>57</ele>
        <time>2021-08-01T09:09:41.000Z</time>
      </trkpt>
      <trkpt lat="47.08797" lon="-1.61158">
        <ele>58</ele>
        <time>2021-08-01T09:09:43.000Z</time>
      </trkpt>
      <trkpt lat="47.08809" lon="-1.61152">
        <ele>58</ele>
        <time>2021-08-01T09:09:45.000Z</time>
      </trkpt>
      <trkpt lat="47.08821" lon="-1.61148">
        <ele>58</ele>
        <time>2021-08-01T09:09:47.000Z</time>
      </trkpt>
      <trkpt lat="47.08832" lon="-1.61143">
        <ele>58</ele>
        <time>2021-08-01T09:09:49.000Z</time>
      </trkpt>
      <trkpt lat="47.08844" lon="-1.61137">
        <ele>58</ele>
        <time>2021-08-01T09:09:51.000Z</time>
      </trkpt>
      <trkpt lat="47.08857" lon="-1.61133">
        <ele>58</ele>
        <time>2021-08-01T09:09:53.000Z</time>
      </trkpt>
      <trkpt lat="47.08869" lon="-1.61127">
        <ele>58</ele>
        <time>2021-08-01T09:09:55.000Z</time>
      </trkpt>
      <trkpt lat="47.08881" lon="-1.61122">
        <ele>58</ele>
        <time>2021-08-01T09:09:57.000Z</time>
      </trkpt>
      <trkpt lat="47.08893" lon="-1.61117">
        <ele>58</ele>
        <time>2021-08-01T09:09:59.000Z</time>
      </trkpt>
      <trkpt lat="47.08904" lon="-1.61112">
        <ele>59</ele>
        <time>2021-08-01T09:10:01.000Z</time>
      </trkpt>
      <trkpt lat="47.08915" lon="-1.61107">
        <ele>58</ele>
        <time>2021-08-01T09:10:03.000Z</time>
      </trkpt>
      <trkpt lat="47.08927" lon="-1.61102">
        <ele>59</ele>
        <time>2021-08-01T09:10:05.000Z</time>
      </trkpt>
      <trkpt lat="47.08939" lon="-1.61097">
        <ele>58</ele>
        <time>2021-08-01T09:10:07.000Z</time>
      </trkpt>
      <trkpt lat="47.0895" lon="-1.61092">
        <ele>58</ele>
        <time>2021-08-01T09:10:09.000Z</time>
      </trkpt>
      <trkpt lat="47.08962" lon="-1.61087">
        <ele>59</ele>
        <time>2021-08-01T09:10:11.000Z</time>
      </trkpt>
      <trkpt lat="47.08975" lon="-1.61084">
        <ele>58</ele>
        <time>2021-08-01T09:10:13.000Z</time>
      </trkpt>
      <trkpt lat="47.08988" lon="-1.61083">
        <ele>59</ele>
        <time>2021-08-01T09:10:15.000Z</time>
      </trkpt>
      <trkpt lat="47.09001" lon="-1.61084">
        <ele>59</ele>
        <time>2021-08-01T09:10:17.000Z</time>
      </trkpt>
      <trkpt lat="47.09013" lon="-1.61088">
        <ele>59</ele>
        <time>2021-08-01T09:10:19.000Z</time>
      </trkpt>
      <trkpt lat="47.09025" lon="-1.61091">
        <ele>59</ele>
        <time>2021-08-01T09:10:21.000Z</time>
      </trkpt>
      <trkpt lat="47.09037" lon="-1.61095">
        <ele>59</ele>
        <time>2021-08-01T09:10:23.000Z</time>
      </trkpt>
      <trkpt lat="47.09048" lon="-1.61099">
        <ele>59</ele>
        <time>2021-08-01T09:10:25.000Z</time>
      </trkpt>
      <trkpt lat="47.0906" lon="-1.61103">
        <ele>59</ele>
        <time>2021-08-01T09:10:27.000Z</time>
      </trkpt>
      <trkpt lat="47.09072" lon="-1.61106">
        <ele>59</ele>
        <time>2021-08-01T09:10:29.000Z</time>
      </trkpt>
      <trkpt lat="47.09083" lon="-1.6111">
        <ele>59</ele>
        <time>2021-08-01T09:10:31.000Z</time>
      </trkpt>
      <trkpt lat="47.09095" lon="-1.61114">
        <ele>59</ele>
        <time>2021-08-01T09:10:33.000Z</time>
      </trkpt>
      <trkpt lat="47.09107" lon="-1.61117">
        <ele>60</ele>
        <time>2021-08-01T09:10:35.000Z</time>
      </trkpt>
      <trkpt lat="47.09119" lon="-1.61121">
        <ele>60</ele>
        <time>2021-08-01T09:10:37.000Z</time>
      </trkpt>
      <trkpt lat="47.0913" lon="-1.61125">
        <ele>60</ele>
        <time>2021-08-01T09:10:39.000Z</time>
      </trkpt>
      <trkpt lat="47.09141" lon="-1.61128">
        <ele>60</ele>
        <time>2021-08-01T09:10:41.000Z</time>
      </trkpt>
      <trkpt lat="47.0915" lon="-1.61132">
        <ele>60</ele>
        <time>2021-08-01T09:10:43.000Z</time>
      </trkpt>
      <trkpt lat="47.0916" lon="-1.61135">
        <ele>60</ele>
        <time>2021-08-01T09:10:45.000Z</time>
      </trkpt>
      <trkpt lat="47.0917" lon="-1.61138">
        <ele>60</ele>
        <time>2021-08-01T09:10:47.000Z</time>
      </trkpt>
      <trkpt lat="47.09182" lon="-1.61141">
        <ele>60</ele>
        <time>2021-08-01T09:10:49.000Z</time>
      </trkpt>
      <trkpt lat="47.09193" lon="-1.61145">
        <ele>60</ele>
        <time>2021-08-01T09:10:51.000Z</time>
      </trkpt>
      <trkpt lat="47.09203" lon="-1.61147">
        <ele>61</ele>
        <time>2021-08-01T09:10:53.000Z</time>
      </trkpt>
      <trkpt lat="47.09214" lon="-1.61152">
        <ele>61</ele>
        <time>2021-08-01T09:10:55.000Z</time>
      </trkpt>
      <trkpt lat="47.09224" lon="-1.6116">
        <ele>61</ele>
        <time>2021-08-01T09:10:57.000Z</time>
      </trkpt>
      <trkpt lat="47.09235" lon="-1.6117">
        <ele>60</ele>
        <time>2021-08-01T09:10:59.000Z</time>
      </trkpt>
      <trkpt lat="47.09246" lon="-1.61177">
        <ele>60</ele>
        <time>2021-08-01T09:11:01.000Z</time>
      </trkpt>
      <trkpt lat="47.09258" lon="-1.6118">
        <ele>61</ele>
        <time>2021-08-01T09:11:03.000Z</time>
      </trkpt>
      <trkpt lat="47.09271" lon="-1.61184">
        <ele>60</ele>
        <time>2021-08-01T09:11:05.000Z</time>
      </trkpt>
      <trkpt lat="47.09283" lon="-1.61189">
        <ele>60</ele>
        <time>2021-08-01T09:11:07.000Z</time>
      </trkpt>
      <trkpt lat="47.09296" lon="-1.61193">
        <ele>60</ele>
        <time>2021-08-01T09:11:09.000Z</time>
      </trkpt>
      <trkpt lat="47.09307" lon="-1.61197">
        <ele>60</ele>
        <time>2021-08-01T09:11:11.000Z</time>
      </trkpt>
      <trkpt lat="47.09318" lon="-1.612">
        <ele>60</ele>
        <time>2021-08-01T09:11:13.000Z</time>
      </trkpt>
      <trkpt lat="47.0933" lon="-1.61203">
        <ele>61</ele>
        <time>2021-08-01T09:11:15.000Z</time>
      </trkpt>
      <trkpt lat="47.09341" lon="-1.61207">
        <ele>61</ele>
        <time>2021-08-01T09:11:17.000Z</time>
      </trkpt>
      <trkpt lat="47.09353" lon="-1.6121">
        <ele>61</ele>
        <time>2021-08-01T09:11:19.000Z</time>
      </trkpt>
      <trkpt lat="47.09365" lon="-1.61213">
        <ele>61</ele>
        <time>2021-08-01T09:11:21.000Z</time>
      </trkpt>
      <trkpt lat="47.09376" lon="-1.61218">
        <ele>60</ele>
        <time>2021-08-01T09:11:23.000Z</time>
      </trkpt>
      <trkpt lat="47.09386" lon="-1.61222">
        <ele>60</ele>
        <time>2021-08-01T09:11:27.000Z</time>
      </trkpt>
      <trkpt lat="47.094" lon="-1.61229">
        <ele>61</ele>
        <time>2021-08-01T09:11:30.000Z</time>
      </trkpt>
      <trkpt lat="47.09412" lon="-1.61233">
        <ele>60</ele>
        <time>2021-08-01T09:11:32.000Z</time>
      </trkpt>
      <trkpt lat="47.09424" lon="-1.61227">
        <ele>60</ele>
        <time>2021-08-01T09:11:34.000Z</time>
      </trkpt>
      <trkpt lat="47.09435" lon="-1.61214">
        <ele>60</ele>
        <time>2021-08-01T09:11:36.000Z</time>
      </trkpt>
      <trkpt lat="47.09446" lon="-1.61202">
        <ele>59</ele>
        <time>2021-08-01T09:11:38.000Z</time>
      </trkpt>
      <trkpt lat="47.09457" lon="-1.61189">
        <ele>58</ele>
        <time>2021-08-01T09:11:40.000Z</time>
      </trkpt>
      <trkpt lat="47.09468" lon="-1.61177">
        <ele>58</ele>
        <time>2021-08-01T09:11:42.000Z</time>
      </trkpt>
      <trkpt lat="47.0948" lon="-1.61165">
        <ele>58</ele>
        <time>2021-08-01T09:11:44.000Z</time>
      </trkpt>
      <trkpt lat="47.09492" lon="-1.61155">
        <ele>57</ele>
        <time>2021-08-01T09:11:46.000Z</time>
      </trkpt>
      <trkpt lat="47.09505" lon="-1.61147">
        <ele>57</ele>
        <time>2021-08-01T09:11:48.000Z</time>
      </trkpt>
      <trkpt lat="47.09517" lon="-1.61141">
        <ele>57</ele>
        <time>2021-08-01T09:11:50.000Z</time>
      </trkpt>
      <trkpt lat="47.09531" lon="-1.61138">
        <ele>57</ele>
        <time>2021-08-01T09:11:52.000Z</time>
      </trkpt>
      <trkpt lat="47.09545" lon="-1.61135">
        <ele>56</ele>
        <time>2021-08-01T09:11:54.000Z</time>
      </trkpt>
      <trkpt lat="47.09559" lon="-1.61133">
        <ele>56</ele>
        <time>2021-08-01T09:11:56.000Z</time>
      </trkpt>
      <trkpt lat="47.09574" lon="-1.61131">
        <ele>55</ele>
        <time>2021-08-01T09:11:58.000Z</time>
      </trkpt>
      <trkpt lat="47.09589" lon="-1.61129">
        <ele>54</ele>
        <time>2021-08-01T09:12:00.000Z</time>
      </trkpt>
      <trkpt lat="47.09603" lon="-1.61127">
        <ele>54</ele>
        <time>2021-08-01T09:12:02.000Z</time>
      </trkpt>
      <trkpt lat="47.09618" lon="-1.61126">
        <ele>54</ele>
        <time>2021-08-01T09:12:04.000Z</time>
      </trkpt>
      <trkpt lat="47.09632" lon="-1.61124">
        <ele>54</ele>
        <time>2021-08-01T09:12:06.000Z</time>
      </trkpt>
      <trkpt lat="47.09646" lon="-1.61122">
        <ele>54</ele>
        <time>2021-08-01T09:12:08.000Z</time>
      </trkpt>
      <trkpt lat="47.0966" lon="-1.61121">
        <ele>54</ele>
        <time>2021-08-01T09:12:10.000Z</time>
      </trkpt>
      <trkpt lat="47.09674" lon="-1.61119">
        <ele>53</ele>
        <time>2021-08-01T09:12:12.000Z</time>
      </trkpt>
      <trkpt lat="47.09688" lon="-1.61118">
        <ele>53</ele>
        <time>2021-08-01T09:12:14.000Z</time>
      </trkpt>
      <trkpt lat="47.09703" lon="-1.61116">
        <ele>53</ele>
        <time>2021-08-01T09:12:16.000Z</time>
      </trkpt>
      <trkpt lat="47.09717" lon="-1.61113">
        <ele>53</ele>
        <time>2021-08-01T09:12:18.000Z</time>
      </trkpt>
      <trkpt lat="47.0973" lon="-1.61112">
        <ele>54</ele>
        <time>2021-08-01T09:12:20.000Z</time>
      </trkpt>
      <trkpt lat="47.09743" lon="-1.6111">
        <ele>54</ele>
        <time>2021-08-01T09:12:22.000Z</time>
      </trkpt>
      <trkpt lat="47.09757" lon="-1.61109">
        <ele>54</ele>
        <time>2021-08-01T09:12:24.000Z</time>
      </trkpt>
      <trkpt lat="47.0977" lon="-1.61108">
        <ele>54</ele>
        <time>2021-08-01T09:12:26.000Z</time>
      </trkpt>
      <trkpt lat="47.09783" lon="-1.61106">
        <ele>55</ele>
        <time>2021-08-01T09:12:28.000Z</time>
      </trkpt>
      <trkpt lat="47.09796" lon="-1.61102">
        <ele>55</ele>
        <time>2021-08-01T09:12:30.000Z</time>
      </trkpt>
      <trkpt lat="47.0981" lon="-1.61093">
        <ele>54</ele>
        <time>2021-08-01T09:12:32.000Z</time>
      </trkpt>
      <trkpt lat="47.09823" lon="-1.61085">
        <ele>54</ele>
        <time>2021-08-01T09:12:34.000Z</time>
      </trkpt>
      <trkpt lat="47.09834" lon="-1.61075">
        <ele>54</ele>
        <time>2021-08-01T09:12:36.000Z</time>
      </trkpt>
      <trkpt lat="47.09845" lon="-1.61063">
        <ele>54</ele>
        <time>2021-08-01T09:12:38.000Z</time>
      </trkpt>
      <trkpt lat="47.09854" lon="-1.6105">
        <ele>55</ele>
        <time>2021-08-01T09:12:40.000Z</time>
      </trkpt>
      <trkpt lat="47.09862" lon="-1.61036">
        <ele>55</ele>
        <time>2021-08-01T09:12:42.000Z</time>
      </trkpt>
      <trkpt lat="47.0987" lon="-1.61021">
        <ele>55</ele>
        <time>2021-08-01T09:12:44.000Z</time>
      </trkpt>
      <trkpt lat="47.09877" lon="-1.61005">
        <ele>56</ele>
        <time>2021-08-01T09:12:46.000Z</time>
      </trkpt>
      <trkpt lat="47.09884" lon="-1.60989">
        <ele>56</ele>
        <time>2021-08-01T09:12:48.000Z</time>
      </trkpt>
      <trkpt lat="47.0989" lon="-1.60972">
        <ele>56</ele>
        <time>2021-08-01T09:12:50.000Z</time>
      </trkpt>
      <trkpt lat="47.09897" lon="-1.60955">
        <ele>57</ele>
        <time>2021-08-01T09:12:52.000Z</time>
      </trkpt>
      <trkpt lat="47.09903" lon="-1.60938">
        <ele>57</ele>
        <time>2021-08-01T09:12:54.000Z</time>
      </trkpt>
      <trkpt lat="47.0991" lon="-1.60923">
        <ele>57</ele>
        <time>2021-08-01T09:12:56.000Z</time>
      </trkpt>
      <trkpt lat="47.09917" lon="-1.60907">
        <ele>57</ele>
        <time>2021-08-01T09:12:58.000Z</time>
      </trkpt>
      <trkpt lat="47.09923" lon="-1.6089">
        <ele>57</ele>
        <time>2021-08-01T09:13:00.000Z</time>
      </trkpt>
      <trkpt lat="47.0993" lon="-1.60873">
        <ele>57</ele>
        <time>2021-08-01T09:13:02.000Z</time>
      </trkpt>
      <trkpt lat="47.09936" lon="-1.60857">
        <ele>57</ele>
        <time>2021-08-01T09:13:04.000Z</time>
      </trkpt>
      <trkpt lat="47.09942" lon="-1.60841">
        <ele>57</ele>
        <time>2021-08-01T09:13:06.000Z</time>
      </trkpt>
      <trkpt lat="47.09948" lon="-1.60823">
        <ele>57</ele>
        <time>2021-08-01T09:13:08.000Z</time>
      </trkpt>
      <trkpt lat="47.09953" lon="-1.60806">
        <ele>58</ele>
        <time>2021-08-01T09:13:10.000Z</time>
      </trkpt>
      <trkpt lat="47.09958" lon="-1.60788">
        <ele>58</ele>
        <time>2021-08-01T09:13:12.000Z</time>
      </trkpt>
      <trkpt lat="47.09963" lon="-1.60771">
        <ele>58</ele>
        <time>2021-08-01T09:13:14.000Z</time>
      </trkpt>
      <trkpt lat="47.09969" lon="-1.60754">
        <ele>58</ele>
        <time>2021-08-01T09:13:16.000Z</time>
      </trkpt>
      <trkpt lat="47.09974" lon="-1.60737">
        <ele>59</ele>
        <time>2021-08-01T09:13:18.000Z</time>
      </trkpt>
      <trkpt lat="47.09979" lon="-1.60719">
        <ele>59</ele>
        <time>2021-08-01T09:13:20.000Z</time>
      </trkpt>
      <trkpt lat="47.09985" lon="-1.60702">
        <ele>59</ele>
        <time>2021-08-01T09:13:22.000Z</time>
      </trkpt>
      <trkpt lat="47.0999" lon="-1.60685">
        <ele>58</ele>
        <time>2021-08-01T09:13:24.000Z</time>
      </trkpt>
      <trkpt lat="47.09995" lon="-1.60668">
        <ele>59</ele>
        <time>2021-08-01T09:13:26.000Z</time>
      </trkpt>
      <trkpt lat="47.1" lon="-1.60651">
        <ele>59</ele>
        <time>2021-08-01T09:13:28.000Z</time>
      </trkpt>
      <trkpt lat="47.10006" lon="-1.60633">
        <ele>59</ele>
        <time>2021-08-01T09:13:30.000Z</time>
      </trkpt>
      <trkpt lat="47.10011" lon="-1.60615">
        <ele>59</ele>
        <time>2021-08-01T09:13:32.000Z</time>
      </trkpt>
      <trkpt lat="47.10016" lon="-1.60596">
        <ele>59</ele>
        <time>2021-08-01T09:13:34.000Z</time>
      </trkpt>
      <trkpt lat="47.10021" lon="-1.60578">
        <ele>59</ele>
        <time>2021-08-01T09:13:36.000Z</time>
      </trkpt>
      <trkpt lat="47.10027" lon="-1.6056">
        <ele>59</ele>
        <time>2021-08-01T09:13:38.000Z</time>
      </trkpt>
      <trkpt lat="47.10032" lon="-1.60541">
        <ele>58</ele>
        <time>2021-08-01T09:13:40.000Z</time>
      </trkpt>
      <trkpt lat="47.10037" lon="-1.60524">
        <ele>58</ele>
        <time>2021-08-01T09:13:42.000Z</time>
      </trkpt>
      <trkpt lat="47.10042" lon="-1.60505">
        <ele>58</ele>
        <time>2021-08-01T09:13:44.000Z</time>
      </trkpt>
      <trkpt lat="47.10047" lon="-1.60486">
        <ele>58</ele>
        <time>2021-08-01T09:13:46.000Z</time>
      </trkpt>
      <trkpt lat="47.10052" lon="-1.60467">
        <ele>58</ele>
        <time>2021-08-01T09:13:48.000Z</time>
      </trkpt>
      <trkpt lat="47.10055" lon="-1.60448">
        <ele>58</ele>
        <time>2021-08-01T09:13:50.000Z</time>
      </trkpt>
      <trkpt lat="47.10058" lon="-1.60428">
        <ele>57</ele>
        <time>2021-08-01T09:13:52.000Z</time>
      </trkpt>
      <trkpt lat="47.10061" lon="-1.6041">
        <ele>58</ele>
        <time>2021-08-01T09:13:54.000Z</time>
      </trkpt>
      <trkpt lat="47.10063" lon="-1.6039">
        <ele>58</ele>
        <time>2021-08-01T09:13:56.000Z</time>
      </trkpt>
      <trkpt lat="47.10065" lon="-1.60371">
        <ele>57</ele>
        <time>2021-08-01T09:13:58.000Z</time>
      </trkpt>
      <trkpt lat="47.10067" lon="-1.60351">
        <ele>57</ele>
        <time>2021-08-01T09:14:00.000Z</time>
      </trkpt>
      <trkpt lat="47.10068" lon="-1.60331">
        <ele>58</ele>
        <time>2021-08-01T09:14:02.000Z</time>
      </trkpt>
      <trkpt lat="47.1007" lon="-1.60312">
        <ele>58</ele>
        <time>2021-08-01T09:14:04.000Z</time>
      </trkpt>
      <trkpt lat="47.10072" lon="-1.60293">
        <ele>58</ele>
        <time>2021-08-01T09:14:06.000Z</time>
      </trkpt>
      <trkpt lat="47.10074" lon="-1.60273">
        <ele>58</ele>
        <time>2021-08-01T09:14:08.000Z</time>
      </trkpt>
      <trkpt lat="47.10076" lon="-1.60254">
        <ele>57</ele>
        <time>2021-08-01T09:14:10.000Z</time>
      </trkpt>
      <trkpt lat="47.10077" lon="-1.60235">
        <ele>57</ele>
        <time>2021-08-01T09:14:12.000Z</time>
      </trkpt>
      <trkpt lat="47.10078" lon="-1.60215">
        <ele>57</ele>
        <time>2021-08-01T09:14:14.000Z</time>
      </trkpt>
      <trkpt lat="47.1008" lon="-1.60195">
        <ele>57</ele>
        <time>2021-08-01T09:14:16.000Z</time>
      </trkpt>
      <trkpt lat="47.1008" lon="-1.60175">
        <ele>57</ele>
        <time>2021-08-01T09:14:18.000Z</time>
      </trkpt>
      <trkpt lat="47.10075" lon="-1.60157">
        <ele>57</ele>
        <time>2021-08-01T09:14:20.000Z</time>
      </trkpt>
      <trkpt lat="47.10067" lon="-1.6013">
        <ele>57</ele>
        <time>2021-08-01T09:14:23.000Z</time>
      </trkpt>
      <trkpt lat="47.10073" lon="-1.60111">
        <ele>56</ele>
        <time>2021-08-01T09:14:25.000Z</time>
      </trkpt>
      <trkpt lat="47.10085" lon="-1.60101">
        <ele>57</ele>
        <time>2021-08-01T09:14:27.000Z</time>
      </trkpt>
      <trkpt lat="47.10098" lon="-1.60098">
        <ele>58</ele>
        <time>2021-08-01T09:14:29.000Z</time>
      </trkpt>
      <trkpt lat="47.10108" lon="-1.60084">
        <ele>58</ele>
        <time>2021-08-01T09:14:31.000Z</time>
      </trkpt>
      <trkpt lat="47.10116" lon="-1.6007">
        <ele>59</ele>
        <time>2021-08-01T09:14:33.000Z</time>
      </trkpt>
      <trkpt lat="47.10127" lon="-1.60047">
        <ele>60</ele>
        <time>2021-08-01T09:14:36.000Z</time>
      </trkpt>
      <trkpt lat="47.10136" lon="-1.60032">
        <ele>60</ele>
        <time>2021-08-01T09:14:38.000Z</time>
      </trkpt>
      <trkpt lat="47.10146" lon="-1.60016">
        <ele>59</ele>
        <time>2021-08-01T09:14:40.000Z</time>
      </trkpt>
      <trkpt lat="47.10156" lon="-1.6">
        <ele>59</ele>
        <time>2021-08-01T09:14:42.000Z</time>
      </trkpt>
      <trkpt lat="47.10165" lon="-1.59984">
        <ele>59</ele>
        <time>2021-08-01T09:14:44.000Z</time>
      </trkpt>
      <trkpt lat="47.10176" lon="-1.59968">
        <ele>59</ele>
        <time>2021-08-01T09:14:46.000Z</time>
      </trkpt>
      <trkpt lat="47.10185" lon="-1.59953">
        <ele>59</ele>
        <time>2021-08-01T09:14:48.000Z</time>
      </trkpt>
      <trkpt lat="47.10194" lon="-1.59937">
        <ele>59</ele>
        <time>2021-08-01T09:14:50.000Z</time>
      </trkpt>
      <trkpt lat="47.10203" lon="-1.59923">
        <ele>59</ele>
        <time>2021-08-01T09:14:52.000Z</time>
      </trkpt>
      <trkpt lat="47.10213" lon="-1.59908">
        <ele>59</ele>
        <time>2021-08-01T09:14:54.000Z</time>
      </trkpt>
      <trkpt lat="47.10222" lon="-1.59892">
        <ele>59</ele>
        <time>2021-08-01T09:14:56.000Z</time>
      </trkpt>
      <trkpt lat="47.10231" lon="-1.59877">
        <ele>59</ele>
        <time>2021-08-01T09:14:58.000Z</time>
      </trkpt>
      <trkpt lat="47.1024" lon="-1.59862">
        <ele>59</ele>
        <time>2021-08-01T09:15:00.000Z</time>
      </trkpt>
      <trkpt lat="47.10249" lon="-1.59847">
        <ele>59</ele>
        <time>2021-08-01T09:15:02.000Z</time>
      </trkpt>
      <trkpt lat="47.10258" lon="-1.59832">
        <ele>59</ele>
        <time>2021-08-01T09:15:04.000Z</time>
      </trkpt>
      <trkpt lat="47.10267" lon="-1.59818">
        <ele>59</ele>
        <time>2021-08-01T09:15:06.000Z</time>
      </trkpt>
      <trkpt lat="47.10277" lon="-1.59802">
        <ele>59</ele>
        <time>2021-08-01T09:15:08.000Z</time>
      </trkpt>
      <trkpt lat="47.10286" lon="-1.59788">
        <ele>59</ele>
        <time>2021-08-01T09:15:10.000Z</time>
      </trkpt>
      <trkpt lat="47.10294" lon="-1.59772">
        <ele>59</ele>
        <time>2021-08-01T09:15:12.000Z</time>
      </trkpt>
      <trkpt lat="47.10303" lon="-1.59756">
        <ele>59</ele>
        <time>2021-08-01T09:15:14.000Z</time>
      </trkpt>
      <trkpt lat="47.10311" lon="-1.59741">
        <ele>60</ele>
        <time>2021-08-01T09:15:16.000Z</time>
      </trkpt>
      <trkpt lat="47.1032" lon="-1.59725">
        <ele>60</ele>
        <time>2021-08-01T09:15:18.000Z</time>
      </trkpt>
      <trkpt lat="47.10329" lon="-1.5971">
        <ele>61</ele>
        <time>2021-08-01T09:15:20.000Z</time>
      </trkpt>
      <trkpt lat="47.10338" lon="-1.59695">
        <ele>62</ele>
        <time>2021-08-01T09:15:22.000Z</time>
      </trkpt>
      <trkpt lat="47.10347" lon="-1.59681">
        <ele>61</ele>
        <time>2021-08-01T09:15:24.000Z</time>
      </trkpt>
      <trkpt lat="47.10356" lon="-1.59666">
        <ele>61</ele>
        <time>2021-08-01T09:15:26.000Z</time>
      </trkpt>
      <trkpt lat="47.10365" lon="-1.59651">
        <ele>61</ele>
        <time>2021-08-01T09:15:28.000Z</time>
      </trkpt>
      <trkpt lat="47.10374" lon="-1.59636">
        <ele>61</ele>
        <time>2021-08-01T09:15:30.000Z</time>
      </trkpt>
      <trkpt lat="47.10383" lon="-1.59621">
        <ele>61</ele>
        <time>2021-08-01T09:15:32.000Z</time>
      </trkpt>
      <trkpt lat="47.10392" lon="-1.59606">
        <ele>61</ele>
        <time>2021-08-01T09:15:34.000Z</time>
      </trkpt>
      <trkpt lat="47.10401" lon="-1.59592">
        <ele>61</ele>
        <time>2021-08-01T09:15:36.000Z</time>
      </trkpt>
      <trkpt lat="47.1041" lon="-1.59578">
        <ele>62</ele>
        <time>2021-08-01T09:15:38.000Z</time>
      </trkpt>
      <trkpt lat="47.10419" lon="-1.59563">
        <ele>62</ele>
        <time>2021-08-01T09:15:40.000Z</time>
      </trkpt>
      <trkpt lat="47.10428" lon="-1.59549">
        <ele>62</ele>
        <time>2021-08-01T09:15:42.000Z</time>
      </trkpt>
      <trkpt lat="47.10437" lon="-1.59534">
        <ele>62</ele>
        <time>2021-08-01T09:15:44.000Z</time>
      </trkpt>
      <trkpt lat="47.10446" lon="-1.5952">
        <ele>62</ele>
        <time>2021-08-01T09:15:46.000Z</time>
      </trkpt>
      <trkpt lat="47.10455" lon="-1.59504">
        <ele>61</ele>
        <time>2021-08-01T09:15:48.000Z</time>
      </trkpt>
      <trkpt lat="47.10464" lon="-1.59489">
        <ele>61</ele>
        <time>2021-08-01T09:15:50.000Z</time>
      </trkpt>
      <trkpt lat="47.10473" lon="-1.59473">
        <ele>61</ele>
        <time>2021-08-01T09:15:52.000Z</time>
      </trkpt>
      <trkpt lat="47.10481" lon="-1.59457">
        <ele>61</ele>
        <time>2021-08-01T09:15:54.000Z</time>
      </trkpt>
      <trkpt lat="47.1049" lon="-1.59442">
        <ele>61</ele>
        <time>2021-08-01T09:15:56.000Z</time>
      </trkpt>
      <trkpt lat="47.10499" lon="-1.59428">
        <ele>61</ele>
        <time>2021-08-01T09:15:58.000Z</time>
      </trkpt>
      <trkpt lat="47.10508" lon="-1.59412">
        <ele>61</ele>
        <time>2021-08-01T09:16:00.000Z</time>
      </trkpt>
      <trkpt lat="47.10517" lon="-1.59396">
        <ele>61</ele>
        <time>2021-08-01T09:16:02.000Z</time>
      </trkpt>
      <trkpt lat="47.10526" lon="-1.59382">
        <ele>61</ele>
        <time>2021-08-01T09:16:04.000Z</time>
      </trkpt>
      <trkpt lat="47.10535" lon="-1.59366">
        <ele>61</ele>
        <time>2021-08-01T09:16:06.000Z</time>
      </trkpt>
      <trkpt lat="47.10544" lon="-1.59352">
        <ele>61</ele>
        <time>2021-08-01T09:16:08.000Z</time>
      </trkpt>
      <trkpt lat="47.10552" lon="-1.59337">
        <ele>62</ele>
        <time>2021-08-01T09:16:10.000Z</time>
      </trkpt>
      <trkpt lat="47.1056" lon="-1.59322">
        <ele>62</ele>
        <time>2021-08-01T09:16:12.000Z</time>
      </trkpt>
      <trkpt lat="47.10568" lon="-1.59307">
        <ele>62</ele>
        <time>2021-08-01T09:16:14.000Z</time>
      </trkpt>
      <trkpt lat="47.10576" lon="-1.59292">
        <ele>62</ele>
        <time>2021-08-01T09:16:16.000Z</time>
      </trkpt>
      <trkpt lat="47.10584" lon="-1.59278">
        <ele>63</ele>
        <time>2021-08-01T09:16:18.000Z</time>
      </trkpt>
      <trkpt lat="47.10592" lon="-1.59265">
        <ele>63</ele>
        <time>2021-08-01T09:16:20.000Z</time>
      </trkpt>
      <trkpt lat="47.10601" lon="-1.59251">
        <ele>63</ele>
        <time>2021-08-01T09:16:22.000Z</time>
      </trkpt>
      <trkpt lat="47.1061" lon="-1.59238">
        <ele>64</ele>
        <time>2021-08-01T09:16:24.000Z</time>
      </trkpt>
      <trkpt lat="47.10619" lon="-1.59223">
        <ele>64</ele>
        <time>2021-08-01T09:16:26.000Z</time>
      </trkpt>
      <trkpt lat="47.10627" lon="-1.59209">
        <ele>64</ele>
        <time>2021-08-01T09:16:28.000Z</time>
      </trkpt>
      <trkpt lat="47.10635" lon="-1.59194">
        <ele>64</ele>
        <time>2021-08-01T09:16:30.000Z</time>
      </trkpt>
      <trkpt lat="47.10643" lon="-1.59178">
        <ele>64</ele>
        <time>2021-08-01T09:16:32.000Z</time>
      </trkpt>
      <trkpt lat="47.10651" lon="-1.59163">
        <ele>64</ele>
        <time>2021-08-01T09:16:34.000Z</time>
      </trkpt>
      <trkpt lat="47.10657" lon="-1.59147">
        <ele>65</ele>
        <time>2021-08-01T09:16:36.000Z</time>
      </trkpt>
      <trkpt lat="47.10664" lon="-1.5913">
        <ele>65</ele>
        <time>2021-08-01T09:16:38.000Z</time>
      </trkpt>
      <trkpt lat="47.1067" lon="-1.59113">
        <ele>65</ele>
        <time>2021-08-01T09:16:40.000Z</time>
      </trkpt>
      <trkpt lat="47.10676" lon="-1.59095">
        <ele>65</ele>
        <time>2021-08-01T09:16:42.000Z</time>
      </trkpt>
      <trkpt lat="47.10681" lon="-1.59078">
        <ele>65</ele>
        <time>2021-08-01T09:16:44.000Z</time>
      </trkpt>
      <trkpt lat="47.10689" lon="-1.59064">
        <ele>66</ele>
        <time>2021-08-01T09:16:46.000Z</time>
      </trkpt>
      <trkpt lat="47.10696" lon="-1.59046">
        <ele>66</ele>
        <time>2021-08-01T09:16:48.000Z</time>
      </trkpt>
      <trkpt lat="47.10702" lon="-1.59028">
        <ele>66</ele>
        <time>2021-08-01T09:16:50.000Z</time>
      </trkpt>
      <trkpt lat="47.10709" lon="-1.59011">
        <ele>66</ele>
        <time>2021-08-01T09:16:52.000Z</time>
      </trkpt>
      <trkpt lat="47.10717" lon="-1.58993">
        <ele>66</ele>
        <time>2021-08-01T09:16:54.000Z</time>
      </trkpt>
      <trkpt lat="47.10724" lon="-1.58975">
        <ele>67</ele>
        <time>2021-08-01T09:16:56.000Z</time>
      </trkpt>
      <trkpt lat="47.10731" lon="-1.58957">
        <ele>67</ele>
        <time>2021-08-01T09:16:58.000Z</time>
      </trkpt>
      <trkpt lat="47.10737" lon="-1.58939">
        <ele>66</ele>
        <time>2021-08-01T09:17:00.000Z</time>
      </trkpt>
      <trkpt lat="47.10745" lon="-1.58922">
        <ele>67</ele>
        <time>2021-08-01T09:17:02.000Z</time>
      </trkpt>
      <trkpt lat="47.10753" lon="-1.58905">
        <ele>67</ele>
        <time>2021-08-01T09:17:04.000Z</time>
      </trkpt>
      <trkpt lat="47.10763" lon="-1.58889">
        <ele>66</ele>
        <time>2021-08-01T09:17:06.000Z</time>
      </trkpt>
      <trkpt lat="47.10774" lon="-1.58875">
        <ele>66</ele>
        <time>2021-08-01T09:17:08.000Z</time>
      </trkpt>
      <trkpt lat="47.10784" lon="-1.58858">
        <ele>66</ele>
        <time>2021-08-01T09:17:10.000Z</time>
      </trkpt>
      <trkpt lat="47.10794" lon="-1.58841">
        <ele>65</ele>
        <time>2021-08-01T09:17:12.000Z</time>
      </trkpt>
      <trkpt lat="47.10804" lon="-1.58825">
        <ele>65</ele>
        <time>2021-08-01T09:17:14.000Z</time>
      </trkpt>
      <trkpt lat="47.10814" lon="-1.58809">
        <ele>65</ele>
        <time>2021-08-01T09:17:16.000Z</time>
      </trkpt>
      <trkpt lat="47.10825" lon="-1.58793">
        <ele>64</ele>
        <time>2021-08-01T09:17:18.000Z</time>
      </trkpt>
      <trkpt lat="47.10836" lon="-1.58776">
        <ele>64</ele>
        <time>2021-08-01T09:17:20.000Z</time>
      </trkpt>
      <trkpt lat="47.10847" lon="-1.58759">
        <ele>64</ele>
        <time>2021-08-01T09:17:22.000Z</time>
      </trkpt>
      <trkpt lat="47.10858" lon="-1.58742">
        <ele>63</ele>
        <time>2021-08-01T09:17:24.000Z</time>
      </trkpt>
      <trkpt lat="47.1087" lon="-1.58725">
        <ele>63</ele>
        <time>2021-08-01T09:17:26.000Z</time>
      </trkpt>
      <trkpt lat="47.10881" lon="-1.58708">
        <ele>63</ele>
        <time>2021-08-01T09:17:28.000Z</time>
      </trkpt>
      <trkpt lat="47.10892" lon="-1.5869">
        <ele>63</ele>
        <time>2021-08-01T09:17:30.000Z</time>
      </trkpt>
      <trkpt lat="47.10904" lon="-1.58672">
        <ele>62</ele>
        <time>2021-08-01T09:17:32.000Z</time>
      </trkpt>
      <trkpt lat="47.10917" lon="-1.58655">
        <ele>62</ele>
        <time>2021-08-01T09:17:34.000Z</time>
      </trkpt>
      <trkpt lat="47.10928" lon="-1.58637">
        <ele>62</ele>
        <time>2021-08-01T09:17:36.000Z</time>
      </trkpt>
      <trkpt lat="47.1094" lon="-1.58618">
        <ele>62</ele>
        <time>2021-08-01T09:17:38.000Z</time>
      </trkpt>
      <trkpt lat="47.10953" lon="-1.586">
        <ele>62</ele>
        <time>2021-08-01T09:17:40.000Z</time>
      </trkpt>
      <trkpt lat="47.10965" lon="-1.58582">
        <ele>62</ele>
        <time>2021-08-01T09:17:42.000Z</time>
      </trkpt>
      <trkpt lat="47.10977" lon="-1.58564">
        <ele>62</ele>
        <time>2021-08-01T09:17:44.000Z</time>
      </trkpt>
      <trkpt lat="47.10989" lon="-1.58546">
        <ele>62</ele>
        <time>2021-08-01T09:17:46.000Z</time>
      </trkpt>
      <trkpt lat="47.11" lon="-1.58529">
        <ele>61</ele>
        <time>2021-08-01T09:17:48.000Z</time>
      </trkpt>
      <trkpt lat="47.11012" lon="-1.58512">
        <ele>61</ele>
        <time>2021-08-01T09:17:50.000Z</time>
      </trkpt>
      <trkpt lat="47.11023" lon="-1.58495">
        <ele>61</ele>
        <time>2021-08-01T09:17:52.000Z</time>
      </trkpt>
      <trkpt lat="47.11034" lon="-1.58477">
        <ele>60</ele>
        <time>2021-08-01T09:17:54.000Z</time>
      </trkpt>
      <trkpt lat="47.11045" lon="-1.5846">
        <ele>60</ele>
        <time>2021-08-01T09:17:56.000Z</time>
      </trkpt>
      <trkpt lat="47.11057" lon="-1.58443">
        <ele>59</ele>
        <time>2021-08-01T09:17:58.000Z</time>
      </trkpt>
      <trkpt lat="47.11069" lon="-1.58426">
        <ele>59</ele>
        <time>2021-08-01T09:18:00.000Z</time>
      </trkpt>
      <trkpt lat="47.1108" lon="-1.58408">
        <ele>59</ele>
        <time>2021-08-01T09:18:02.000Z</time>
      </trkpt>
      <trkpt lat="47.11091" lon="-1.58392">
        <ele>58</ele>
        <time>2021-08-01T09:18:04.000Z</time>
      </trkpt>
      <trkpt lat="47.11102" lon="-1.58375">
        <ele>58</ele>
        <time>2021-08-01T09:18:06.000Z</time>
      </trkpt>
      <trkpt lat="47.11113" lon="-1.58359">
        <ele>58</ele>
        <time>2021-08-01T09:18:08.000Z</time>
      </trkpt>
      <trkpt lat="47.11124" lon="-1.58343">
        <ele>58</ele>
        <time>2021-08-01T09:18:10.000Z</time>
      </trkpt>
      <trkpt lat="47.11134" lon="-1.58326">
        <ele>58</ele>
        <time>2021-08-01T09:18:12.000Z</time>
      </trkpt>
      <trkpt lat="47.11144" lon="-1.5831">
        <ele>57</ele>
        <time>2021-08-01T09:18:14.000Z</time>
      </trkpt>
      <trkpt lat="47.11155" lon="-1.58294">
        <ele>57</ele>
        <time>2021-08-01T09:18:16.000Z</time>
      </trkpt>
      <trkpt lat="47.11166" lon="-1.58278">
        <ele>57</ele>
        <time>2021-08-01T09:18:18.000Z</time>
      </trkpt>
      <trkpt lat="47.11176" lon="-1.58262">
        <ele>57</ele>
        <time>2021-08-01T09:18:20.000Z</time>
      </trkpt>
      <trkpt lat="47.11187" lon="-1.58247">
        <ele>57</ele>
        <time>2021-08-01T09:18:22.000Z</time>
      </trkpt>
      <trkpt lat="47.11198" lon="-1.58231">
        <ele>57</ele>
        <time>2021-08-01T09:18:24.000Z</time>
      </trkpt>
      <trkpt lat="47.11208" lon="-1.58216">
        <ele>57</ele>
        <time>2021-08-01T09:18:26.000Z</time>
      </trkpt>
      <trkpt lat="47.1122" lon="-1.58201">
        <ele>57</ele>
        <time>2021-08-01T09:18:28.000Z</time>
      </trkpt>
      <trkpt lat="47.11231" lon="-1.58187">
        <ele>57</ele>
        <time>2021-08-01T09:18:30.000Z</time>
      </trkpt>
      <trkpt lat="47.11244" lon="-1.58174">
        <ele>57</ele>
        <time>2021-08-01T09:18:32.000Z</time>
      </trkpt>
      <trkpt lat="47.11256" lon="-1.58161">
        <ele>57</ele>
        <time>2021-08-01T09:18:34.000Z</time>
      </trkpt>
      <trkpt lat="47.11268" lon="-1.58149">
        <ele>57</ele>
        <time>2021-08-01T09:18:36.000Z</time>
      </trkpt>
      <trkpt lat="47.11281" lon="-1.58138">
        <ele>57</ele>
        <time>2021-08-01T09:18:38.000Z</time>
      </trkpt>
      <trkpt lat="47.11294" lon="-1.58128">
        <ele>57</ele>
        <time>2021-08-01T09:18:40.000Z</time>
      </trkpt>
      <trkpt lat="47.11308" lon="-1.58118">
        <ele>57</ele>
        <time>2021-08-01T09:18:42.000Z</time>
      </trkpt>
      <trkpt lat="47.11321" lon="-1.58109">
        <ele>56</ele>
        <time>2021-08-01T09:18:44.000Z</time>
      </trkpt>
      <trkpt lat="47.11335" lon="-1.58101">
        <ele>56</ele>
        <time>2021-08-01T09:18:46.000Z</time>
      </trkpt>
      <trkpt lat="47.11349" lon="-1.58092">
        <ele>56</ele>
        <time>2021-08-01T09:18:48.000Z</time>
      </trkpt>
      <trkpt lat="47.11363" lon="-1.58083">
        <ele>56</ele>
        <time>2021-08-01T09:18:50.000Z</time>
      </trkpt>
      <trkpt lat="47.11377" lon="-1.58074">
        <ele>56</ele>
        <time>2021-08-01T09:18:52.000Z</time>
      </trkpt>
      <trkpt lat="47.11391" lon="-1.58065">
        <ele>56</ele>
        <time>2021-08-01T09:18:54.000Z</time>
      </trkpt>
      <trkpt lat="47.11405" lon="-1.58057">
        <ele>56</ele>
        <time>2021-08-01T09:18:56.000Z</time>
      </trkpt>
      <trkpt lat="47.11419" lon="-1.58049">
        <ele>57</ele>
        <time>2021-08-01T09:18:58.000Z</time>
      </trkpt>
      <trkpt lat="47.11432" lon="-1.58041">
        <ele>57</ele>
        <time>2021-08-01T09:19:00.000Z</time>
      </trkpt>
      <trkpt lat="47.11446" lon="-1.58035">
        <ele>57</ele>
        <time>2021-08-01T09:19:02.000Z</time>
      </trkpt>
      <trkpt lat="47.11459" lon="-1.58029">
        <ele>58</ele>
        <time>2021-08-01T09:19:04.000Z</time>
      </trkpt>
      <trkpt lat="47.11474" lon="-1.58025">
        <ele>58</ele>
        <time>2021-08-01T09:19:06.000Z</time>
      </trkpt>
      <trkpt lat="47.11488" lon="-1.58022">
        <ele>58</ele>
        <time>2021-08-01T09:19:08.000Z</time>
      </trkpt>
      <trkpt lat="47.11501" lon="-1.5802">
        <ele>58</ele>
        <time>2021-08-01T09:19:10.000Z</time>
      </trkpt>
      <trkpt lat="47.11515" lon="-1.58019">
        <ele>58</ele>
        <time>2021-08-01T09:19:12.000Z</time>
      </trkpt>
      <trkpt lat="47.11529" lon="-1.5802">
        <ele>59</ele>
        <time>2021-08-01T09:19:14.000Z</time>
      </trkpt>
      <trkpt lat="47.11542" lon="-1.5802">
        <ele>59</ele>
        <time>2021-08-01T09:19:16.000Z</time>
      </trkpt>
      <trkpt lat="47.11556" lon="-1.5802">
        <ele>59</ele>
        <time>2021-08-01T09:19:18.000Z</time>
      </trkpt>
      <trkpt lat="47.11569" lon="-1.58021">
        <ele>58</ele>
        <time>2021-08-01T09:19:20.000Z</time>
      </trkpt>
      <trkpt lat="47.11582" lon="-1.58022">
        <ele>58</ele>
        <time>2021-08-01T09:19:22.000Z</time>
      </trkpt>
      <trkpt lat="47.11596" lon="-1.58023">
        <ele>57</ele>
        <time>2021-08-01T09:19:24.000Z</time>
      </trkpt>
      <trkpt lat="47.11609" lon="-1.58025">
        <ele>57</ele>
        <time>2021-08-01T09:19:26.000Z</time>
      </trkpt>
      <trkpt lat="47.11621" lon="-1.58028">
        <ele>57</ele>
        <time>2021-08-01T09:19:28.000Z</time>
      </trkpt>
      <trkpt lat="47.11633" lon="-1.58026">
        <ele>57</ele>
        <time>2021-08-01T09:19:30.000Z</time>
      </trkpt>
      <trkpt lat="47.11646" lon="-1.58025">
        <ele>57</ele>
        <time>2021-08-01T09:19:32.000Z</time>
      </trkpt>
      <trkpt lat="47.11659" lon="-1.58027">
        <ele>57</ele>
        <time>2021-08-01T09:19:34.000Z</time>
      </trkpt>
      <trkpt lat="47.11672" lon="-1.58028">
        <ele>57</ele>
        <time>2021-08-01T09:19:36.000Z</time>
      </trkpt>
      <trkpt lat="47.11685" lon="-1.58029">
        <ele>57</ele>
        <time>2021-08-01T09:19:38.000Z</time>
      </trkpt>
      <trkpt lat="47.11698" lon="-1.5803">
        <ele>57</ele>
        <time>2021-08-01T09:19:40.000Z</time>
      </trkpt>
      <trkpt lat="47.11711" lon="-1.58031">
        <ele>57</ele>
        <time>2021-08-01T09:19:42.000Z</time>
      </trkpt>
      <trkpt lat="47.11724" lon="-1.58032">
        <ele>57</ele>
        <time>2021-08-01T09:19:44.000Z</time>
      </trkpt>
      <trkpt lat="47.11737" lon="-1.58034">
        <ele>58</ele>
        <time>2021-08-01T09:19:46.000Z</time>
      </trkpt>
      <trkpt lat="47.1175" lon="-1.58036">
        <ele>58</ele>
        <time>2021-08-01T09:19:48.000Z</time>
      </trkpt>
      <trkpt lat="47.11763" lon="-1.58038">
        <ele>58</ele>
        <time>2021-08-01T09:19:50.000Z</time>
      </trkpt>
      <trkpt lat="47.11775" lon="-1.58041">
        <ele>57</ele>
        <time>2021-08-01T09:19:52.000Z</time>
      </trkpt>
      <trkpt lat="47.11788" lon="-1.58044">
        <ele>57</ele>
        <time>2021-08-01T09:19:54.000Z</time>
      </trkpt>
      <trkpt lat="47.11801" lon="-1.58047">
        <ele>57</ele>
        <time>2021-08-01T09:19:56.000Z</time>
      </trkpt>
      <trkpt lat="47.11814" lon="-1.5805">
        <ele>57</ele>
        <time>2021-08-01T09:19:58.000Z</time>
      </trkpt>
      <trkpt lat="47.11826" lon="-1.58053">
        <ele>58</ele>
        <time>2021-08-01T09:20:00.000Z</time>
      </trkpt>
      <trkpt lat="47.11838" lon="-1.58056">
        <ele>58</ele>
        <time>2021-08-01T09:20:02.000Z</time>
      </trkpt>
      <trkpt lat="47.1185" lon="-1.58059">
        <ele>58</ele>
        <time>2021-08-01T09:20:04.000Z</time>
      </trkpt>
      <trkpt lat="47.11863" lon="-1.58062">
        <ele>59</ele>
        <time>2021-08-01T09:20:06.000Z</time>
      </trkpt>
      <trkpt lat="47.11875" lon="-1.58065">
        <ele>59</ele>
        <time>2021-08-01T09:20:08.000Z</time>
      </trkpt>
      <trkpt lat="47.11888" lon="-1.58067">
        <ele>60</ele>
        <time>2021-08-01T09:20:10.000Z</time>
      </trkpt>
      <trkpt lat="47.119" lon="-1.5807">
        <ele>60</ele>
        <time>2021-08-01T09:20:12.000Z</time>
      </trkpt>
      <trkpt lat="47.11912" lon="-1.58074">
        <ele>60</ele>
        <time>2021-08-01T09:20:14.000Z</time>
      </trkpt>
      <trkpt lat="47.11924" lon="-1.58077">
        <ele>60</ele>
        <time>2021-08-01T09:20:16.000Z</time>
      </trkpt>
      <trkpt lat="47.11937" lon="-1.5808">
        <ele>60</ele>
        <time>2021-08-01T09:20:18.000Z</time>
      </trkpt>
      <trkpt lat="47.11949" lon="-1.58083">
        <ele>60</ele>
        <time>2021-08-01T09:20:20.000Z</time>
      </trkpt>
      <trkpt lat="47.11961" lon="-1.58086">
        <ele>60</ele>
        <time>2021-08-01T09:20:22.000Z</time>
      </trkpt>
      <trkpt lat="47.11973" lon="-1.58089">
        <ele>61</ele>
        <time>2021-08-01T09:20:24.000Z</time>
      </trkpt>
      <trkpt lat="47.11985" lon="-1.58093">
        <ele>61</ele>
        <time>2021-08-01T09:20:26.000Z</time>
      </trkpt>
      <trkpt lat="47.11996" lon="-1.58097">
        <ele>62</ele>
        <time>2021-08-01T09:20:28.000Z</time>
      </trkpt>
      <trkpt lat="47.12007" lon="-1.58098">
        <ele>62</ele>
        <time>2021-08-01T09:20:30.000Z</time>
      </trkpt>
      <trkpt lat="47.12018" lon="-1.58097">
        <ele>62</ele>
        <time>2021-08-01T09:20:32.000Z</time>
      </trkpt>
      <trkpt lat="47.12028" lon="-1.58106">
        <ele>62</ele>
        <time>2021-08-01T09:20:34.000Z</time>
      </trkpt>
      <trkpt lat="47.12036" lon="-1.58116">
        <ele>62</ele>
        <time>2021-08-01T09:20:36.000Z</time>
      </trkpt>
      <trkpt lat="47.12047" lon="-1.58123">
        <ele>61</ele>
        <time>2021-08-01T09:20:38.000Z</time>
      </trkpt>
      <trkpt lat="47.12059" lon="-1.5813">
        <ele>61</ele>
        <time>2021-08-01T09:20:40.000Z</time>
      </trkpt>
      <trkpt lat="47.12071" lon="-1.58137">
        <ele>60</ele>
        <time>2021-08-01T09:20:42.000Z</time>
      </trkpt>
      <trkpt lat="47.12083" lon="-1.58143">
        <ele>60</ele>
        <time>2021-08-01T09:20:44.000Z</time>
      </trkpt>
      <trkpt lat="47.12095" lon="-1.58151">
        <ele>60</ele>
        <time>2021-08-01T09:20:46.000Z</time>
      </trkpt>
      <trkpt lat="47.12107" lon="-1.5816">
        <ele>60</ele>
        <time>2021-08-01T09:20:48.000Z</time>
      </trkpt>
      <trkpt lat="47.12119" lon="-1.58169">
        <ele>60</ele>
        <time>2021-08-01T09:20:50.000Z</time>
      </trkpt>
      <trkpt lat="47.1213" lon="-1.58181">
        <ele>59</ele>
        <time>2021-08-01T09:20:52.000Z</time>
      </trkpt>
      <trkpt lat="47.12142" lon="-1.58193">
        <ele>59</ele>
        <time>2021-08-01T09:20:54.000Z</time>
      </trkpt>
      <trkpt lat="47.12155" lon="-1.58205">
        <ele>58</ele>
        <time>2021-08-01T09:20:56.000Z</time>
      </trkpt>
      <trkpt lat="47.12168" lon="-1.58218">
        <ele>58</ele>
        <time>2021-08-01T09:20:58.000Z</time>
      </trkpt>
      <trkpt lat="47.1218" lon="-1.5823">
        <ele>57</ele>
        <time>2021-08-01T09:21:00.000Z</time>
      </trkpt>
      <trkpt lat="47.12192" lon="-1.58242">
        <ele>57</ele>
        <time>2021-08-01T09:21:02.000Z</time>
      </trkpt>
      <trkpt lat="47.12203" lon="-1.58252">
        <ele>56</ele>
        <time>2021-08-01T09:21:04.000Z</time>
      </trkpt>
      <trkpt lat="47.12214" lon="-1.58263">
        <ele>56</ele>
        <time>2021-08-01T09:21:06.000Z</time>
      </trkpt>
      <trkpt lat="47.12225" lon="-1.58273">
        <ele>56</ele>
        <time>2021-08-01T09:21:08.000Z</time>
      </trkpt>
      <trkpt lat="47.12236" lon="-1.58283">
        <ele>56</ele>
        <time>2021-08-01T09:21:10.000Z</time>
      </trkpt>
      <trkpt lat="47.12247" lon="-1.58294">
        <ele>55</ele>
        <time>2021-08-01T09:21:12.000Z</time>
      </trkpt>
      <trkpt lat="47.12259" lon="-1.58305">
        <ele>55</ele>
        <time>2021-08-01T09:21:14.000Z</time>
      </trkpt>
      <trkpt lat="47.1227" lon="-1.58316">
        <ele>55</ele>
        <time>2021-08-01T09:21:16.000Z</time>
      </trkpt>
      <trkpt lat="47.12281" lon="-1.58326">
        <ele>55</ele>
        <time>2021-08-01T09:21:18.000Z</time>
      </trkpt>
      <trkpt lat="47.1229" lon="-1.58337">
        <ele>56</ele>
        <time>2021-08-01T09:21:20.000Z</time>
      </trkpt>
      <trkpt lat="47.12298" lon="-1.58348">
        <ele>56</ele>
        <time>2021-08-01T09:21:22.000Z</time>
      </trkpt>
      <trkpt lat="47.123" lon="-1.58364">
        <ele>56</ele>
        <time>2021-08-01T09:21:24.000Z</time>
      </trkpt>
      <trkpt lat="47.123" lon="-1.5838">
        <ele>57</ele>
        <time>2021-08-01T09:21:26.000Z</time>
      </trkpt>
      <trkpt lat="47.12302" lon="-1.58396">
        <ele>58</ele>
        <time>2021-08-01T09:21:28.000Z</time>
      </trkpt>
      <trkpt lat="47.12308" lon="-1.5841">
        <ele>59</ele>
        <time>2021-08-01T09:21:30.000Z</time>
      </trkpt>
      <trkpt lat="47.12315" lon="-1.58422">
        <ele>58</ele>
        <time>2021-08-01T09:21:32.000Z</time>
      </trkpt>
      <trkpt lat="47.12324" lon="-1.58433">
        <ele>59</ele>
        <time>2021-08-01T09:21:34.000Z</time>
      </trkpt>
      <trkpt lat="47.12331" lon="-1.58446">
        <ele>59</ele>
        <time>2021-08-01T09:21:36.000Z</time>
      </trkpt>
      <trkpt lat="47.12336" lon="-1.58464">
        <ele>59</ele>
        <time>2021-08-01T09:21:38.000Z</time>
      </trkpt>
      <trkpt lat="47.1234" lon="-1.58481">
        <ele>59</ele>
        <time>2021-08-01T09:21:40.000Z</time>
      </trkpt>
      <trkpt lat="47.12344" lon="-1.585">
        <ele>59</ele>
        <time>2021-08-01T09:21:42.000Z</time>
      </trkpt>
      <trkpt lat="47.12347" lon="-1.58517">
        <ele>59</ele>
        <time>2021-08-01T09:21:44.000Z</time>
      </trkpt>
      <trkpt lat="47.12351" lon="-1.58535">
        <ele>59</ele>
        <time>2021-08-01T09:21:46.000Z</time>
      </trkpt>
      <trkpt lat="47.12355" lon="-1.58551">
        <ele>59</ele>
        <time>2021-08-01T09:21:48.000Z</time>
      </trkpt>
      <trkpt lat="47.12359" lon="-1.58566">
        <ele>59</ele>
        <time>2021-08-01T09:21:50.000Z</time>
      </trkpt>
      <trkpt lat="47.12362" lon="-1.58582">
        <ele>59</ele>
        <time>2021-08-01T09:21:52.000Z</time>
      </trkpt>
      <trkpt lat="47.12367" lon="-1.58601">
        <ele>59</ele>
        <time>2021-08-01T09:21:54.000Z</time>
      </trkpt>
      <trkpt lat="47.12371" lon="-1.5862">
        <ele>59</ele>
        <time>2021-08-01T09:21:56.000Z</time>
      </trkpt>
      <trkpt lat="47.12374" lon="-1.58637">
        <ele>59</ele>
        <time>2021-08-01T09:21:58.000Z</time>
      </trkpt>
      <trkpt lat="47.12378" lon="-1.58654">
        <ele>59</ele>
        <time>2021-08-01T09:22:00.000Z</time>
      </trkpt>
      <trkpt lat="47.12382" lon="-1.58671">
        <ele>60</ele>
        <time>2021-08-01T09:22:02.000Z</time>
      </trkpt>
      <trkpt lat="47.12386" lon="-1.58688">
        <ele>61</ele>
        <time>2021-08-01T09:22:04.000Z</time>
      </trkpt>
      <trkpt lat="47.12389" lon="-1.58705">
        <ele>61</ele>
        <time>2021-08-01T09:22:06.000Z</time>
      </trkpt>
      <trkpt lat="47.12393" lon="-1.58723">
        <ele>61</ele>
        <time>2021-08-01T09:22:08.000Z</time>
      </trkpt>
      <trkpt lat="47.12397" lon="-1.58739">
        <ele>61</ele>
        <time>2021-08-01T09:22:10.000Z</time>
      </trkpt>
      <trkpt lat="47.124" lon="-1.58756">
        <ele>61</ele>
        <time>2021-08-01T09:22:12.000Z</time>
      </trkpt>
      <trkpt lat="47.12403" lon="-1.58772">
        <ele>61</ele>
        <time>2021-08-01T09:22:14.000Z</time>
      </trkpt>
      <trkpt lat="47.12406" lon="-1.5879">
        <ele>61</ele>
        <time>2021-08-01T09:22:16.000Z</time>
      </trkpt>
      <trkpt lat="47.12409" lon="-1.58807">
        <ele>61</ele>
        <time>2021-08-01T09:22:18.000Z</time>
      </trkpt>
      <trkpt lat="47.12411" lon="-1.58825">
        <ele>61</ele>
        <time>2021-08-01T09:22:20.000Z</time>
      </trkpt>
      <trkpt lat="47.12413" lon="-1.58842">
        <ele>61</ele>
        <time>2021-08-01T09:22:22.000Z</time>
      </trkpt>
      <trkpt lat="47.12415" lon="-1.58859">
        <ele>61</ele>
        <time>2021-08-01T09:22:24.000Z</time>
      </trkpt>
      <trkpt lat="47.12417" lon="-1.58875">
        <ele>61</ele>
        <time>2021-08-01T09:22:26.000Z</time>
      </trkpt>
      <trkpt lat="47.12419" lon="-1.58893">
        <ele>61</ele>
        <time>2021-08-01T09:22:28.000Z</time>
      </trkpt>
      <trkpt lat="47.12421" lon="-1.58912">
        <ele>60</ele>
        <time>2021-08-01T09:22:30.000Z</time>
      </trkpt>
      <trkpt lat="47.12422" lon="-1.58931">
        <ele>60</ele>
        <time>2021-08-01T09:22:32.000Z</time>
      </trkpt>
      <trkpt lat="47.12423" lon="-1.58951">
        <ele>59</ele>
        <time>2021-08-01T09:22:34.000Z</time>
      </trkpt>
      <trkpt lat="47.12424" lon="-1.58972">
        <ele>59</ele>
        <time>2021-08-01T09:22:36.000Z</time>
      </trkpt>
      <trkpt lat="47.12425" lon="-1.58993">
        <ele>59</ele>
        <time>2021-08-01T09:22:38.000Z</time>
      </trkpt>
      <trkpt lat="47.12426" lon="-1.59014">
        <ele>59</ele>
        <time>2021-08-01T09:22:40.000Z</time>
      </trkpt>
      <trkpt lat="47.12427" lon="-1.59035">
        <ele>59</ele>
        <time>2021-08-01T09:22:42.000Z</time>
      </trkpt>
      <trkpt lat="47.12428" lon="-1.59056">
        <ele>58</ele>
        <time>2021-08-01T09:22:44.000Z</time>
      </trkpt>
      <trkpt lat="47.1243" lon="-1.59077">
        <ele>57</ele>
        <time>2021-08-01T09:22:46.000Z</time>
      </trkpt>
      <trkpt lat="47.12431" lon="-1.59097">
        <ele>57</ele>
        <time>2021-08-01T09:22:48.000Z</time>
      </trkpt>
      <trkpt lat="47.12432" lon="-1.59117">
        <ele>57</ele>
        <time>2021-08-01T09:22:50.000Z</time>
      </trkpt>
      <trkpt lat="47.12432" lon="-1.59136">
        <ele>57</ele>
        <time>2021-08-01T09:22:52.000Z</time>
      </trkpt>
      <trkpt lat="47.12432" lon="-1.59155">
        <ele>57</ele>
        <time>2021-08-01T09:22:54.000Z</time>
      </trkpt>
      <trkpt lat="47.12435" lon="-1.59172">
        <ele>58</ele>
        <time>2021-08-01T09:22:56.000Z</time>
      </trkpt>
      <trkpt lat="47.12439" lon="-1.59189">
        <ele>57</ele>
        <time>2021-08-01T09:22:58.000Z</time>
      </trkpt>
      <trkpt lat="47.1244" lon="-1.59208">
        <ele>57</ele>
        <time>2021-08-01T09:23:00.000Z</time>
      </trkpt>
      <trkpt lat="47.12438" lon="-1.59228">
        <ele>56</ele>
        <time>2021-08-01T09:23:02.000Z</time>
      </trkpt>
      <trkpt lat="47.12438" lon="-1.59247">
        <ele>57</ele>
        <time>2021-08-01T09:23:04.000Z</time>
      </trkpt>
      <trkpt lat="47.12439" lon="-1.59267">
        <ele>57</ele>
        <time>2021-08-01T09:23:06.000Z</time>
      </trkpt>
      <trkpt lat="47.12439" lon="-1.59286">
        <ele>57</ele>
        <time>2021-08-01T09:23:08.000Z</time>
      </trkpt>
      <trkpt lat="47.1244" lon="-1.59305">
        <ele>57</ele>
        <time>2021-08-01T09:23:10.000Z</time>
      </trkpt>
      <trkpt lat="47.12441" lon="-1.59324">
        <ele>57</ele>
        <time>2021-08-01T09:23:12.000Z</time>
      </trkpt>
      <trkpt lat="47.12442" lon="-1.59344">
        <ele>57</ele>
        <time>2021-08-01T09:23:14.000Z</time>
      </trkpt>
      <trkpt lat="47.12444" lon="-1.59364">
        <ele>57</ele>
        <time>2021-08-01T09:23:16.000Z</time>
      </trkpt>
      <trkpt lat="47.12444" lon="-1.59384">
        <ele>57</ele>
        <time>2021-08-01T09:23:18.000Z</time>
      </trkpt>
      <trkpt lat="47.12445" lon="-1.59402">
        <ele>57</ele>
        <time>2021-08-01T09:23:20.000Z</time>
      </trkpt>
      <trkpt lat="47.12446" lon="-1.59421">
        <ele>57</ele>
        <time>2021-08-01T09:23:22.000Z</time>
      </trkpt>
      <trkpt lat="47.12447" lon="-1.5944">
        <ele>57</ele>
        <time>2021-08-01T09:23:24.000Z</time>
      </trkpt>
      <trkpt lat="47.12448" lon="-1.59459">
        <ele>58</ele>
        <time>2021-08-01T09:23:26.000Z</time>
      </trkpt>
      <trkpt lat="47.12448" lon="-1.59479">
        <ele>58</ele>
        <time>2021-08-01T09:23:28.000Z</time>
      </trkpt>
      <trkpt lat="47.1245" lon="-1.59498">
        <ele>58</ele>
        <time>2021-08-01T09:23:30.000Z</time>
      </trkpt>
      <trkpt lat="47.12451" lon="-1.59517">
        <ele>58</ele>
        <time>2021-08-01T09:23:32.000Z</time>
      </trkpt>
      <trkpt lat="47.12452" lon="-1.59535">
        <ele>58</ele>
        <time>2021-08-01T09:23:34.000Z</time>
      </trkpt>
      <trkpt lat="47.12453" lon="-1.59553">
        <ele>58</ele>
        <time>2021-08-01T09:23:36.000Z</time>
      </trkpt>
      <trkpt lat="47.12454" lon="-1.59571">
        <ele>59</ele>
        <time>2021-08-01T09:23:38.000Z</time>
      </trkpt>
      <trkpt lat="47.12454" lon="-1.59589">
        <ele>59</ele>
        <time>2021-08-01T09:23:40.000Z</time>
      </trkpt>
      <trkpt lat="47.12456" lon="-1.59608">
        <ele>59</ele>
        <time>2021-08-01T09:23:42.000Z</time>
      </trkpt>
      <trkpt lat="47.12457" lon="-1.59626">
        <ele>59</ele>
        <time>2021-08-01T09:23:44.000Z</time>
      </trkpt>
      <trkpt lat="47.12458" lon="-1.59644">
        <ele>59</ele>
        <time>2021-08-01T09:23:46.000Z</time>
      </trkpt>
      <trkpt lat="47.12459" lon="-1.59662">
        <ele>58</ele>
        <time>2021-08-01T09:23:48.000Z</time>
      </trkpt>
      <trkpt lat="47.12459" lon="-1.5968">
        <ele>58</ele>
        <time>2021-08-01T09:23:50.000Z</time>
      </trkpt>
      <trkpt lat="47.1246" lon="-1.59698">
        <ele>58</ele>
        <time>2021-08-01T09:23:52.000Z</time>
      </trkpt>
      <trkpt lat="47.12461" lon="-1.59717">
        <ele>58</ele>
        <time>2021-08-01T09:23:54.000Z</time>
      </trkpt>
      <trkpt lat="47.12462" lon="-1.59735">
        <ele>58</ele>
        <time>2021-08-01T09:23:56.000Z</time>
      </trkpt>
      <trkpt lat="47.12463" lon="-1.59754">
        <ele>58</ele>
        <time>2021-08-01T09:23:58.000Z</time>
      </trkpt>
      <trkpt lat="47.12464" lon="-1.59772">
        <ele>58</ele>
        <time>2021-08-01T09:24:00.000Z</time>
      </trkpt>
      <trkpt lat="47.12465" lon="-1.59791">
        <ele>59</ele>
        <time>2021-08-01T09:24:02.000Z</time>
      </trkpt>
      <trkpt lat="47.12466" lon="-1.5981">
        <ele>59</ele>
        <time>2021-08-01T09:24:04.000Z</time>
      </trkpt>
      <trkpt lat="47.12467" lon="-1.59828">
        <ele>59</ele>
        <time>2021-08-01T09:24:06.000Z</time>
      </trkpt>
      <trkpt lat="47.12467" lon="-1.59848">
        <ele>58</ele>
        <time>2021-08-01T09:24:08.000Z</time>
      </trkpt>
      <trkpt lat="47.12468" lon="-1.59867">
        <ele>58</ele>
        <time>2021-08-01T09:24:10.000Z</time>
      </trkpt>
      <trkpt lat="47.12468" lon="-1.59885">
        <ele>58</ele>
        <time>2021-08-01T09:24:12.000Z</time>
      </trkpt>
      <trkpt lat="47.12469" lon="-1.59904">
        <ele>59</ele>
        <time>2021-08-01T09:24:14.000Z</time>
      </trkpt>
      <trkpt lat="47.12469" lon="-1.59922">
        <ele>59</ele>
        <time>2021-08-01T09:24:16.000Z</time>
      </trkpt>
      <trkpt lat="47.12471" lon="-1.59942">
        <ele>59</ele>
        <time>2021-08-01T09:24:18.000Z</time>
      </trkpt>
      <trkpt lat="47.12471" lon="-1.59963">
        <ele>59</ele>
        <time>2021-08-01T09:24:20.000Z</time>
      </trkpt>
      <trkpt lat="47.12473" lon="-1.59983">
        <ele>59</ele>
        <time>2021-08-01T09:24:22.000Z</time>
      </trkpt>
      <trkpt lat="47.12474" lon="-1.60003">
        <ele>58</ele>
        <time>2021-08-01T09:24:24.000Z</time>
      </trkpt>
      <trkpt lat="47.12475" lon="-1.60022">
        <ele>58</ele>
        <time>2021-08-01T09:24:26.000Z</time>
      </trkpt>
      <trkpt lat="47.12476" lon="-1.60042">
        <ele>58</ele>
        <time>2021-08-01T09:24:28.000Z</time>
      </trkpt>
      <trkpt lat="47.12476" lon="-1.60062">
        <ele>58</ele>
        <time>2021-08-01T09:24:30.000Z</time>
      </trkpt>
      <trkpt lat="47.12478" lon="-1.60081">
        <ele>58</ele>
        <time>2021-08-01T09:24:32.000Z</time>
      </trkpt>
      <trkpt lat="47.12478" lon="-1.60102">
        <ele>58</ele>
        <time>2021-08-01T09:24:34.000Z</time>
      </trkpt>
      <trkpt lat="47.12479" lon="-1.60122">
        <ele>58</ele>
        <time>2021-08-01T09:24:36.000Z</time>
      </trkpt>
      <trkpt lat="47.1248" lon="-1.60142">
        <ele>58</ele>
        <time>2021-08-01T09:24:38.000Z</time>
      </trkpt>
      <trkpt lat="47.12481" lon="-1.60163">
        <ele>58</ele>
        <time>2021-08-01T09:24:40.000Z</time>
      </trkpt>
      <trkpt lat="47.12482" lon="-1.60183">
        <ele>58</ele>
        <time>2021-08-01T09:24:42.000Z</time>
      </trkpt>
      <trkpt lat="47.12485" lon="-1.60204">
        <ele>57</ele>
        <time>2021-08-01T09:24:44.000Z</time>
      </trkpt>
      <trkpt lat="47.12489" lon="-1.60225">
        <ele>57</ele>
        <time>2021-08-01T09:24:46.000Z</time>
      </trkpt>
      <trkpt lat="47.12493" lon="-1.60245">
        <ele>56</ele>
        <time>2021-08-01T09:24:48.000Z</time>
      </trkpt>
      <trkpt lat="47.12497" lon="-1.60265">
        <ele>56</ele>
        <time>2021-08-01T09:24:50.000Z</time>
      </trkpt>
      <trkpt lat="47.12501" lon="-1.60283">
        <ele>55</ele>
        <time>2021-08-01T09:24:52.000Z</time>
      </trkpt>
      <trkpt lat="47.12504" lon="-1.60302">
        <ele>56</ele>
        <time>2021-08-01T09:24:54.000Z</time>
      </trkpt>
      <trkpt lat="47.12508" lon="-1.6032">
        <ele>56</ele>
        <time>2021-08-01T09:24:56.000Z</time>
      </trkpt>
      <trkpt lat="47.12512" lon="-1.60338">
        <ele>56</ele>
        <time>2021-08-01T09:24:58.000Z</time>
      </trkpt>
      <trkpt lat="47.12515" lon="-1.60357">
        <ele>55</ele>
        <time>2021-08-01T09:25:00.000Z</time>
      </trkpt>
      <trkpt lat="47.12518" lon="-1.60376">
        <ele>56</ele>
        <time>2021-08-01T09:25:02.000Z</time>
      </trkpt>
      <trkpt lat="47.12522" lon="-1.60394">
        <ele>56</ele>
        <time>2021-08-01T09:25:04.000Z</time>
      </trkpt>
      <trkpt lat="47.12526" lon="-1.60413">
        <ele>57</ele>
        <time>2021-08-01T09:25:06.000Z</time>
      </trkpt>
      <trkpt lat="47.12529" lon="-1.60431">
        <ele>56</ele>
        <time>2021-08-01T09:25:08.000Z</time>
      </trkpt>
      <trkpt lat="47.12533" lon="-1.60451">
        <ele>56</ele>
        <time>2021-08-01T09:25:10.000Z</time>
      </trkpt>
      <trkpt lat="47.12536" lon="-1.6047">
        <ele>56</ele>
        <time>2021-08-01T09:25:12.000Z</time>
      </trkpt>
      <trkpt lat="47.12538" lon="-1.60488">
        <ele>56</ele>
        <time>2021-08-01T09:25:14.000Z</time>
      </trkpt>
      <trkpt lat="47.1254" lon="-1.60507">
        <ele>57</ele>
        <time>2021-08-01T09:25:16.000Z</time>
      </trkpt>
      <trkpt lat="47.12542" lon="-1.60526">
        <ele>57</ele>
        <time>2021-08-01T09:25:18.000Z</time>
      </trkpt>
      <trkpt lat="47.12543" lon="-1.60545">
        <ele>57</ele>
        <time>2021-08-01T09:25:20.000Z</time>
      </trkpt>
      <trkpt lat="47.12544" lon="-1.60565">
        <ele>57</ele>
        <time>2021-08-01T09:25:22.000Z</time>
      </trkpt>
      <trkpt lat="47.12544" lon="-1.60584">
        <ele>57</ele>
        <time>2021-08-01T09:25:24.000Z</time>
      </trkpt>
      <trkpt lat="47.12545" lon="-1.60603">
        <ele>57</ele>
        <time>2021-08-01T09:25:26.000Z</time>
      </trkpt>
      <trkpt lat="47.12545" lon="-1.60621">
        <ele>58</ele>
        <time>2021-08-01T09:25:28.000Z</time>
      </trkpt>
      <trkpt lat="47.12545" lon="-1.6064">
        <ele>58</ele>
        <time>2021-08-01T09:25:30.000Z</time>
      </trkpt>
      <trkpt lat="47.12545" lon="-1.60659">
        <ele>58</ele>
        <time>2021-08-01T09:25:32.000Z</time>
      </trkpt>
      <trkpt lat="47.12546" lon="-1.60678">
        <ele>58</ele>
        <time>2021-08-01T09:25:34.000Z</time>
      </trkpt>
      <trkpt lat="47.12546" lon="-1.60697">
        <ele>58</ele>
        <time>2021-08-01T09:25:36.000Z</time>
      </trkpt>
      <trkpt lat="47.12546" lon="-1.60716">
        <ele>58</ele>
        <time>2021-08-01T09:25:38.000Z</time>
      </trkpt>
      <trkpt lat="47.12545" lon="-1.60735">
        <ele>59</ele>
        <time>2021-08-01T09:25:40.000Z</time>
      </trkpt>
      <trkpt lat="47.12545" lon="-1.60754">
        <ele>59</ele>
        <time>2021-08-01T09:25:42.000Z</time>
      </trkpt>
      <trkpt lat="47.12544" lon="-1.60772">
        <ele>59</ele>
        <time>2021-08-01T09:25:44.000Z</time>
      </trkpt>
      <trkpt lat="47.12542" lon="-1.6079">
        <ele>59</ele>
        <time>2021-08-01T09:25:46.000Z</time>
      </trkpt>
      <trkpt lat="47.1254" lon="-1.60808">
        <ele>59</ele>
        <time>2021-08-01T09:25:48.000Z</time>
      </trkpt>
      <trkpt lat="47.12539" lon="-1.60824">
        <ele>59</ele>
        <time>2021-08-01T09:25:50.000Z</time>
      </trkpt>
      <trkpt lat="47.12538" lon="-1.6084">
        <ele>59</ele>
        <time>2021-08-01T09:25:52.000Z</time>
      </trkpt>
      <trkpt lat="47.1255" lon="-1.60845">
        <ele>60</ele>
        <time>2021-08-01T09:25:55.000Z</time>
      </trkpt>
      <trkpt lat="47.12561" lon="-1.60841">
        <ele>61</ele>
        <time>2021-08-01T09:25:57.000Z</time>
      </trkpt>
      <trkpt lat="47.12573" lon="-1.60837">
        <ele>61</ele>
        <time>2021-08-01T09:25:59.000Z</time>
      </trkpt>
      <trkpt lat="47.12585" lon="-1.60833">
        <ele>61</ele>
        <time>2021-08-01T09:26:01.000Z</time>
      </trkpt>
      <trkpt lat="47.12596" lon="-1.60829">
        <ele>61</ele>
        <time>2021-08-01T09:26:03.000Z</time>
      </trkpt>
      <trkpt lat="47.12608" lon="-1.60825">
        <ele>61</ele>
        <time>2021-08-01T09:26:05.000Z</time>
      </trkpt>
      <trkpt lat="47.1262" lon="-1.60821">
        <ele>61</ele>
        <time>2021-08-01T09:26:07.000Z</time>
      </trkpt>
      <trkpt lat="47.12632" lon="-1.60817">
        <ele>61</ele>
        <time>2021-08-01T09:26:09.000Z</time>
      </trkpt>
      <trkpt lat="47.12644" lon="-1.60813">
        <ele>61</ele>
        <time>2021-08-01T09:26:11.000Z</time>
      </trkpt>
      <trkpt lat="47.12656" lon="-1.60809">
        <ele>61</ele>
        <time>2021-08-01T09:26:13.000Z</time>
      </trkpt>
      <trkpt lat="47.12668" lon="-1.60806">
        <ele>61</ele>
        <time>2021-08-01T09:26:15.000Z</time>
      </trkpt>
      <trkpt lat="47.12681" lon="-1.60801">
        <ele>61</ele>
        <time>2021-08-01T09:26:17.000Z</time>
      </trkpt>
      <trkpt lat="47.12692" lon="-1.60796">
        <ele>61</ele>
        <time>2021-08-01T09:26:19.000Z</time>
      </trkpt>
      <trkpt lat="47.12703" lon="-1.60791">
        <ele>61</ele>
        <time>2021-08-01T09:26:21.000Z</time>
      </trkpt>
      <trkpt lat="47.12714" lon="-1.60787">
        <ele>62</ele>
        <time>2021-08-01T09:26:23.000Z</time>
      </trkpt>
      <trkpt lat="47.12723" lon="-1.60794">
        <ele>62</ele>
        <time>2021-08-01T09:26:25.000Z</time>
      </trkpt>
      <trkpt lat="47.12723" lon="-1.60811">
        <ele>62</ele>
        <time>2021-08-01T09:26:27.000Z</time>
      </trkpt>
      <trkpt lat="47.12719" lon="-1.60828">
        <ele>62</ele>
        <time>2021-08-01T09:26:29.000Z</time>
      </trkpt>
      <trkpt lat="47.12713" lon="-1.60844">
        <ele>62</ele>
        <time>2021-08-01T09:26:31.000Z</time>
      </trkpt>
      <trkpt lat="47.12708" lon="-1.60861">
        <ele>62</ele>
        <time>2021-08-01T09:26:33.000Z</time>
      </trkpt>
      <trkpt lat="47.12704" lon="-1.60878">
        <ele>62</ele>
        <time>2021-08-01T09:26:35.000Z</time>
      </trkpt>
      <trkpt lat="47.12699" lon="-1.60895">
        <ele>62</ele>
        <time>2021-08-01T09:26:37.000Z</time>
      </trkpt>
      <trkpt lat="47.12696" lon="-1.60911">
        <ele>63</ele>
        <time>2021-08-01T09:26:39.000Z</time>
      </trkpt>
      <trkpt lat="47.12694" lon="-1.60929">
        <ele>63</ele>
        <time>2021-08-01T09:26:41.000Z</time>
      </trkpt>
      <trkpt lat="47.12693" lon="-1.60947">
        <ele>63</ele>
        <time>2021-08-01T09:26:43.000Z</time>
      </trkpt>
      <trkpt lat="47.12692" lon="-1.60965">
        <ele>63</ele>
        <time>2021-08-01T09:26:45.000Z</time>
      </trkpt>
      <trkpt lat="47.12692" lon="-1.60983">
        <ele>63</ele>
        <time>2021-08-01T09:26:47.000Z</time>
      </trkpt>
      <trkpt lat="47.12691" lon="-1.61001">
        <ele>63</ele>
        <time>2021-08-01T09:26:49.000Z</time>
      </trkpt>
      <trkpt lat="47.12689" lon="-1.61018">
        <ele>63</ele>
        <time>2021-08-01T09:26:51.000Z</time>
      </trkpt>
      <trkpt lat="47.12689" lon="-1.61035">
        <ele>64</ele>
        <time>2021-08-01T09:26:53.000Z</time>
      </trkpt>
      <trkpt lat="47.12688" lon="-1.61052">
        <ele>64</ele>
        <time>2021-08-01T09:26:55.000Z</time>
      </trkpt>
      <trkpt lat="47.12687" lon="-1.6107">
        <ele>64</ele>
        <time>2021-08-01T09:26:57.000Z</time>
      </trkpt>
      <trkpt lat="47.12686" lon="-1.61088">
        <ele>63</ele>
        <time>2021-08-01T09:26:59.000Z</time>
      </trkpt>
      <trkpt lat="47.12685" lon="-1.61106">
        <ele>62</ele>
        <time>2021-08-01T09:27:01.000Z</time>
      </trkpt>
      <trkpt lat="47.12683" lon="-1.61125">
        <ele>62</ele>
        <time>2021-08-01T09:27:03.000Z</time>
      </trkpt>
      <trkpt lat="47.12681" lon="-1.61144">
        <ele>62</ele>
        <time>2021-08-01T09:27:05.000Z</time>
      </trkpt>
      <trkpt lat="47.12679" lon="-1.61162">
        <ele>61</ele>
        <time>2021-08-01T09:27:07.000Z</time>
      </trkpt>
      <trkpt lat="47.12677" lon="-1.6118">
        <ele>61</ele>
        <time>2021-08-01T09:27:09.000Z</time>
      </trkpt>
      <trkpt lat="47.12673" lon="-1.61197">
        <ele>61</ele>
        <time>2021-08-01T09:27:11.000Z</time>
      </trkpt>
      <trkpt lat="47.12671" lon="-1.61215">
        <ele>61</ele>
        <time>2021-08-01T09:27:13.000Z</time>
      </trkpt>
      <trkpt lat="47.12669" lon="-1.61233">
        <ele>62</ele>
        <time>2021-08-01T09:27:15.000Z</time>
      </trkpt>
      <trkpt lat="47.12667" lon="-1.6125">
        <ele>62</ele>
        <time>2021-08-01T09:27:17.000Z</time>
      </trkpt>
      <trkpt lat="47.12669" lon="-1.61266">
        <ele>62</ele>
        <time>2021-08-01T09:27:19.000Z</time>
      </trkpt>
      <trkpt lat="47.12675" lon="-1.61282">
        <ele>62</ele>
        <time>2021-08-01T09:27:21.000Z</time>
      </trkpt>
      <trkpt lat="47.1268" lon="-1.61299">
        <ele>62</ele>
        <time>2021-08-01T09:27:23.000Z</time>
      </trkpt>
      <trkpt lat="47.12685" lon="-1.61316">
        <ele>62</ele>
        <time>2021-08-01T09:27:25.000Z</time>
      </trkpt>
      <trkpt lat="47.1269" lon="-1.61332">
        <ele>62</ele>
        <time>2021-08-01T09:27:27.000Z</time>
      </trkpt>
      <trkpt lat="47.12695" lon="-1.61349">
        <ele>62</ele>
        <time>2021-08-01T09:27:29.000Z</time>
      </trkpt>
      <trkpt lat="47.127" lon="-1.61365">
        <ele>62</ele>
        <time>2021-08-01T09:27:31.000Z</time>
      </trkpt>
      <trkpt lat="47.12709" lon="-1.61388">
        <ele>62</ele>
        <time>2021-08-01T09:27:34.000Z</time>
      </trkpt>
      <trkpt lat="47.12716" lon="-1.61403">
        <ele>63</ele>
        <time>2021-08-01T09:27:36.000Z</time>
      </trkpt>
      <trkpt lat="47.12727" lon="-1.61427">
        <ele>63</ele>
        <time>2021-08-01T09:27:39.000Z</time>
      </trkpt>
      <trkpt lat="47.12734" lon="-1.61443">
        <ele>63</ele>
        <time>2021-08-01T09:27:41.000Z</time>
      </trkpt>
      <trkpt lat="47.1274" lon="-1.61459">
        <ele>63</ele>
        <time>2021-08-01T09:27:43.000Z</time>
      </trkpt>
      <trkpt lat="47.12747" lon="-1.61475">
        <ele>63</ele>
        <time>2021-08-01T09:27:45.000Z</time>
      </trkpt>
      <trkpt lat="47.12754" lon="-1.6149">
        <ele>62</ele>
        <time>2021-08-01T09:27:47.000Z</time>
      </trkpt>
      <trkpt lat="47.12761" lon="-1.61505">
        <ele>62</ele>
        <time>2021-08-01T09:27:49.000Z</time>
      </trkpt>
      <trkpt lat="47.12766" lon="-1.6152">
        <ele>62</ele>
        <time>2021-08-01T09:27:51.000Z</time>
      </trkpt>
      <trkpt lat="47.12776" lon="-1.61543">
        <ele>62</ele>
        <time>2021-08-01T09:27:54.000Z</time>
      </trkpt>
      <trkpt lat="47.12782" lon="-1.61558">
        <ele>61</ele>
        <time>2021-08-01T09:27:56.000Z</time>
      </trkpt>
      <trkpt lat="47.12787" lon="-1.61572">
        <ele>61</ele>
        <time>2021-08-01T09:27:58.000Z</time>
      </trkpt>
      <trkpt lat="47.12795" lon="-1.61593">
        <ele>61</ele>
        <time>2021-08-01T09:28:01.000Z</time>
      </trkpt>
      <trkpt lat="47.12801" lon="-1.61607">
        <ele>61</ele>
        <time>2021-08-01T09:28:03.000Z</time>
      </trkpt>
      <trkpt lat="47.12806" lon="-1.61622">
        <ele>60</ele>
        <time>2021-08-01T09:28:05.000Z</time>
      </trkpt>
      <trkpt lat="47.1281" lon="-1.61636">
        <ele>60</ele>
        <time>2021-08-01T09:28:07.000Z</time>
      </trkpt>
      <trkpt lat="47.12816" lon="-1.61647">
        <ele>60</ele>
        <time>2021-08-01T09:28:10.000Z</time>
      </trkpt>
      <trkpt lat="47.12821" lon="-1.61658">
        <ele>60</ele>
        <time>2021-08-01T09:28:13.000Z</time>
      </trkpt>
      <trkpt lat="47.12826" lon="-1.61671">
        <ele>60</ele>
        <time>2021-08-01T09:28:15.000Z</time>
      </trkpt>
      <trkpt lat="47.12832" lon="-1.61686">
        <ele>59</ele>
        <time>2021-08-01T09:28:17.000Z</time>
      </trkpt>
      <trkpt lat="47.12839" lon="-1.61702">
        <ele>59</ele>
        <time>2021-08-01T09:28:19.000Z</time>
      </trkpt>
      <trkpt lat="47.12846" lon="-1.61718">
        <ele>59</ele>
        <time>2021-08-01T09:28:21.000Z</time>
      </trkpt>
      <trkpt lat="47.12853" lon="-1.61735">
        <ele>59</ele>
        <time>2021-08-01T09:28:23.000Z</time>
      </trkpt>
      <trkpt lat="47.12861" lon="-1.61752">
        <ele>59</ele>
        <time>2021-08-01T09:28:25.000Z</time>
      </trkpt>
      <trkpt lat="47.12868" lon="-1.61768">
        <ele>58</ele>
        <time>2021-08-01T09:28:27.000Z</time>
      </trkpt>
      <trkpt lat="47.12876" lon="-1.61785">
        <ele>58</ele>
        <time>2021-08-01T09:28:29.000Z</time>
      </trkpt>
      <trkpt lat="47.12883" lon="-1.61803">
        <ele>57</ele>
        <time>2021-08-01T09:28:31.000Z</time>
      </trkpt>
      <trkpt lat="47.12889" lon="-1.61821">
        <ele>57</ele>
        <time>2021-08-01T09:28:33.000Z</time>
      </trkpt>
      <trkpt lat="47.12896" lon="-1.6184">
        <ele>57</ele>
        <time>2021-08-01T09:28:35.000Z</time>
      </trkpt>
      <trkpt lat="47.12901" lon="-1.6186">
        <ele>57</ele>
        <time>2021-08-01T09:28:37.000Z</time>
      </trkpt>
      <trkpt lat="47.12905" lon="-1.61879">
        <ele>57</ele>
        <time>2021-08-01T09:28:39.000Z</time>
      </trkpt>
      <trkpt lat="47.12908" lon="-1.61899">
        <ele>57</ele>
        <time>2021-08-01T09:28:41.000Z</time>
      </trkpt>
      <trkpt lat="47.1291" lon="-1.61919">
        <ele>57</ele>
        <time>2021-08-01T09:28:43.000Z</time>
      </trkpt>
      <trkpt lat="47.12913" lon="-1.6194">
        <ele>58</ele>
        <time>2021-08-01T09:28:45.000Z</time>
      </trkpt>
      <trkpt lat="47.12916" lon="-1.61959">
        <ele>58</ele>
        <time>2021-08-01T09:28:47.000Z</time>
      </trkpt>
      <trkpt lat="47.12921" lon="-1.61976">
        <ele>58</ele>
        <time>2021-08-01T09:28:49.000Z</time>
      </trkpt>
      <trkpt lat="47.12925" lon="-1.61994">
        <ele>58</ele>
        <time>2021-08-01T09:28:51.000Z</time>
      </trkpt>
      <trkpt lat="47.12929" lon="-1.62012">
        <ele>58</ele>
        <time>2021-08-01T09:28:53.000Z</time>
      </trkpt>
      <trkpt lat="47.12933" lon="-1.6203">
        <ele>59</ele>
        <time>2021-08-01T09:28:55.000Z</time>
      </trkpt>
      <trkpt lat="47.1294" lon="-1.62047">
        <ele>59</ele>
        <time>2021-08-01T09:28:57.000Z</time>
      </trkpt>
      <trkpt lat="47.12947" lon="-1.62063">
        <ele>59</ele>
        <time>2021-08-01T09:28:59.000Z</time>
      </trkpt>
      <trkpt lat="47.12955" lon="-1.62079">
        <ele>58</ele>
        <time>2021-08-01T09:29:01.000Z</time>
      </trkpt>
      <trkpt lat="47.12963" lon="-1.62094">
        <ele>58</ele>
        <time>2021-08-01T09:29:03.000Z</time>
      </trkpt>
      <trkpt lat="47.1297" lon="-1.62108">
        <ele>58</ele>
        <time>2021-08-01T09:29:05.000Z</time>
      </trkpt>
      <trkpt lat="47.12978" lon="-1.62121">
        <ele>58</ele>
        <time>2021-08-01T09:29:07.000Z</time>
      </trkpt>
      <trkpt lat="47.12986" lon="-1.62134">
        <ele>58</ele>
        <time>2021-08-01T09:29:09.000Z</time>
      </trkpt>
      <trkpt lat="47.12994" lon="-1.62147">
        <ele>59</ele>
        <time>2021-08-01T09:29:11.000Z</time>
      </trkpt>
      <trkpt lat="47.13002" lon="-1.62159">
        <ele>59</ele>
        <time>2021-08-01T09:29:13.000Z</time>
      </trkpt>
      <trkpt lat="47.13011" lon="-1.62172">
        <ele>59</ele>
        <time>2021-08-01T09:29:15.000Z</time>
      </trkpt>
      <trkpt lat="47.13019" lon="-1.62183">
        <ele>59</ele>
        <time>2021-08-01T09:29:17.000Z</time>
      </trkpt>
      <trkpt lat="47.13027" lon="-1.62196">
        <ele>59</ele>
        <time>2021-08-01T09:29:19.000Z</time>
      </trkpt>
      <trkpt lat="47.13035" lon="-1.62208">
        <ele>59</ele>
        <time>2021-08-01T09:29:21.000Z</time>
      </trkpt>
      <trkpt lat="47.13044" lon="-1.6222">
        <ele>59</ele>
        <time>2021-08-01T09:29:23.000Z</time>
      </trkpt>
      <trkpt lat="47.13052" lon="-1.62232">
        <ele>60</ele>
        <time>2021-08-01T09:29:25.000Z</time>
      </trkpt>
      <trkpt lat="47.1306" lon="-1.62245">
        <ele>60</ele>
        <time>2021-08-01T09:29:27.000Z</time>
      </trkpt>
      <trkpt lat="47.13068" lon="-1.62257">
        <ele>60</ele>
        <time>2021-08-01T09:29:29.000Z</time>
      </trkpt>
      <trkpt lat="47.13076" lon="-1.62269">
        <ele>60</ele>
        <time>2021-08-01T09:29:31.000Z</time>
      </trkpt>
      <trkpt lat="47.13084" lon="-1.6228">
        <ele>60</ele>
        <time>2021-08-01T09:29:33.000Z</time>
      </trkpt>
      <trkpt lat="47.13091" lon="-1.62292">
        <ele>61</ele>
        <time>2021-08-01T09:29:35.000Z</time>
      </trkpt>
      <trkpt lat="47.13098" lon="-1.62301">
        <ele>61</ele>
        <time>2021-08-01T09:29:37.000Z</time>
      </trkpt>
      <trkpt lat="47.1311" lon="-1.62297">
        <ele>61</ele>
        <time>2021-08-01T09:29:40.000Z</time>
      </trkpt>
      <trkpt lat="47.13116" lon="-1.62282">
        <ele>61</ele>
        <time>2021-08-01T09:29:42.000Z</time>
      </trkpt>
      <trkpt lat="47.13123" lon="-1.62268">
        <ele>61</ele>
        <time>2021-08-01T09:29:44.000Z</time>
      </trkpt>
      <trkpt lat="47.13129" lon="-1.62255">
        <ele>61</ele>
        <time>2021-08-01T09:29:46.000Z</time>
      </trkpt>
      <trkpt lat="47.13136" lon="-1.62241">
        <ele>61</ele>
        <time>2021-08-01T09:29:48.000Z</time>
      </trkpt>
      <trkpt lat="47.13142" lon="-1.62227">
        <ele>62</ele>
        <time>2021-08-01T09:29:50.000Z</time>
      </trkpt>
      <trkpt lat="47.13149" lon="-1.62214">
        <ele>62</ele>
        <time>2021-08-01T09:29:52.000Z</time>
      </trkpt>
      <trkpt lat="47.13155" lon="-1.622">
        <ele>62</ele>
        <time>2021-08-01T09:29:54.000Z</time>
      </trkpt>
      <trkpt lat="47.13162" lon="-1.62186">
        <ele>62</ele>
        <time>2021-08-01T09:29:56.000Z</time>
      </trkpt>
      <trkpt lat="47.13168" lon="-1.62173">
        <ele>62</ele>
        <time>2021-08-01T09:29:58.000Z</time>
      </trkpt>
      <trkpt lat="47.13175" lon="-1.62159">
        <ele>62</ele>
        <time>2021-08-01T09:30:00.000Z</time>
      </trkpt>
      <trkpt lat="47.13182" lon="-1.62145">
        <ele>62</ele>
        <time>2021-08-01T09:30:02.000Z</time>
      </trkpt>
      <trkpt lat="47.1319" lon="-1.62133">
        <ele>63</ele>
        <time>2021-08-01T09:30:04.000Z</time>
      </trkpt>
      <trkpt lat="47.13197" lon="-1.6212">
        <ele>63</ele>
        <time>2021-08-01T09:30:06.000Z</time>
      </trkpt>
      <trkpt lat="47.13204" lon="-1.62107">
        <ele>63</ele>
        <time>2021-08-01T09:30:08.000Z</time>
      </trkpt>
      <trkpt lat="47.13211" lon="-1.62093">
        <ele>63</ele>
        <time>2021-08-01T09:30:10.000Z</time>
      </trkpt>
      <trkpt lat="47.13219" lon="-1.62081">
        <ele>64</ele>
        <time>2021-08-01T09:30:12.000Z</time>
      </trkpt>
      <trkpt lat="47.13227" lon="-1.62069">
        <ele>64</ele>
        <time>2021-08-01T09:30:14.000Z</time>
      </trkpt>
      <trkpt lat="47.13235" lon="-1.62056">
        <ele>64</ele>
        <time>2021-08-01T09:30:16.000Z</time>
      </trkpt>
      <trkpt lat="47.13244" lon="-1.62045">
        <ele>64</ele>
        <time>2021-08-01T09:30:18.000Z</time>
      </trkpt>
      <trkpt lat="47.13252" lon="-1.62033">
        <ele>64</ele>
        <time>2021-08-01T09:30:20.000Z</time>
      </trkpt>
      <trkpt lat="47.13261" lon="-1.62023">
        <ele>64</ele>
        <time>2021-08-01T09:30:22.000Z</time>
      </trkpt>
      <trkpt lat="47.1327" lon="-1.62013">
        <ele>64</ele>
        <time>2021-08-01T09:30:24.000Z</time>
      </trkpt>
      <trkpt lat="47.13281" lon="-1.62004">
        <ele>65</ele>
        <time>2021-08-01T09:30:26.000Z</time>
      </trkpt>
      <trkpt lat="47.13291" lon="-1.61996">
        <ele>65</ele>
        <time>2021-08-01T09:30:28.000Z</time>
      </trkpt>
      <trkpt lat="47.13302" lon="-1.61988">
        <ele>65</ele>
        <time>2021-08-01T09:30:30.000Z</time>
      </trkpt>
      <trkpt lat="47.13313" lon="-1.61981">
        <ele>65</ele>
        <time>2021-08-01T09:30:32.000Z</time>
      </trkpt>
      <trkpt lat="47.13323" lon="-1.61973">
        <ele>66</ele>
        <time>2021-08-01T09:30:34.000Z</time>
      </trkpt>
      <trkpt lat="47.13334" lon="-1.61965">
        <ele>67</ele>
        <time>2021-08-01T09:30:36.000Z</time>
      </trkpt>
      <trkpt lat="47.13345" lon="-1.61956">
        <ele>67</ele>
        <time>2021-08-01T09:30:38.000Z</time>
      </trkpt>
      <trkpt lat="47.13356" lon="-1.61947">
        <ele>67</ele>
        <time>2021-08-01T09:30:40.000Z</time>
      </trkpt>
      <trkpt lat="47.13367" lon="-1.61938">
        <ele>67</ele>
        <time>2021-08-01T09:30:42.000Z</time>
      </trkpt>
      <trkpt lat="47.13378" lon="-1.61929">
        <ele>67</ele>
        <time>2021-08-01T09:30:44.000Z</time>
      </trkpt>
      <trkpt lat="47.13389" lon="-1.6192">
        <ele>66</ele>
        <time>2021-08-01T09:30:46.000Z</time>
      </trkpt>
      <trkpt lat="47.134" lon="-1.61912">
        <ele>66</ele>
        <time>2021-08-01T09:30:48.000Z</time>
      </trkpt>
      <trkpt lat="47.13411" lon="-1.61905">
        <ele>65</ele>
        <time>2021-08-01T09:30:50.000Z</time>
      </trkpt>
      <trkpt lat="47.13421" lon="-1.61896">
        <ele>65</ele>
        <time>2021-08-01T09:30:52.000Z</time>
      </trkpt>
      <trkpt lat="47.13432" lon="-1.61888">
        <ele>65</ele>
        <time>2021-08-01T09:30:54.000Z</time>
      </trkpt>
      <trkpt lat="47.13443" lon="-1.6188">
        <ele>65</ele>
        <time>2021-08-01T09:30:56.000Z</time>
      </trkpt>
      <trkpt lat="47.13454" lon="-1.61871">
        <ele>65</ele>
        <time>2021-08-01T09:30:58.000Z</time>
      </trkpt>
      <trkpt lat="47.13465" lon="-1.61863">
        <ele>65</ele>
        <time>2021-08-01T09:31:00.000Z</time>
      </trkpt>
      <trkpt lat="47.13476" lon="-1.61857">
        <ele>65</ele>
        <time>2021-08-01T09:31:02.000Z</time>
      </trkpt>
      <trkpt lat="47.13488" lon="-1.61849">
        <ele>65</ele>
        <time>2021-08-01T09:31:04.000Z</time>
      </trkpt>
      <trkpt lat="47.13499" lon="-1.61843">
        <ele>64</ele>
        <time>2021-08-01T09:31:06.000Z</time>
      </trkpt>
      <trkpt lat="47.13511" lon="-1.61837">
        <ele>64</ele>
        <time>2021-08-01T09:31:08.000Z</time>
      </trkpt>
      <trkpt lat="47.13523" lon="-1.61832">
        <ele>64</ele>
        <time>2021-08-01T09:31:10.000Z</time>
      </trkpt>
      <trkpt lat="47.13535" lon="-1.61826">
        <ele>64</ele>
        <time>2021-08-01T09:31:12.000Z</time>
      </trkpt>
      <trkpt lat="47.13547" lon="-1.61821">
        <ele>64</ele>
        <time>2021-08-01T09:31:14.000Z</time>
      </trkpt>
      <trkpt lat="47.13559" lon="-1.61816">
        <ele>63</ele>
        <time>2021-08-01T09:31:16.000Z</time>
      </trkpt>
      <trkpt lat="47.1357" lon="-1.61809">
        <ele>64</ele>
        <time>2021-08-01T09:31:18.000Z</time>
      </trkpt>
      <trkpt lat="47.13581" lon="-1.61804">
        <ele>64</ele>
        <time>2021-08-01T09:31:20.000Z</time>
      </trkpt>
      <trkpt lat="47.13593" lon="-1.61802">
        <ele>64</ele>
        <time>2021-08-01T09:31:22.000Z</time>
      </trkpt>
      <trkpt lat="47.13605" lon="-1.61797">
        <ele>64</ele>
        <time>2021-08-01T09:31:24.000Z</time>
      </trkpt>
      <trkpt lat="47.13616" lon="-1.61792">
        <ele>65</ele>
        <time>2021-08-01T09:31:26.000Z</time>
      </trkpt>
      <trkpt lat="47.13628" lon="-1.61787">
        <ele>65</ele>
        <time>2021-08-01T09:31:28.000Z</time>
      </trkpt>
      <trkpt lat="47.13639" lon="-1.61782">
        <ele>65</ele>
        <time>2021-08-01T09:31:30.000Z</time>
      </trkpt>
      <trkpt lat="47.13651" lon="-1.61777">
        <ele>65</ele>
        <time>2021-08-01T09:31:32.000Z</time>
      </trkpt>
      <trkpt lat="47.13663" lon="-1.61771">
        <ele>65</ele>
        <time>2021-08-01T09:31:34.000Z</time>
      </trkpt>
      <trkpt lat="47.13674" lon="-1.61764">
        <ele>65</ele>
        <time>2021-08-01T09:31:36.000Z</time>
      </trkpt>
      <trkpt lat="47.13685" lon="-1.61758">
        <ele>65</ele>
        <time>2021-08-01T09:31:38.000Z</time>
      </trkpt>
      <trkpt lat="47.13696" lon="-1.6175">
        <ele>65</ele>
        <time>2021-08-01T09:31:40.000Z</time>
      </trkpt>
      <trkpt lat="47.13706" lon="-1.61741">
        <ele>65</ele>
        <time>2021-08-01T09:31:42.000Z</time>
      </trkpt>
      <trkpt lat="47.13716" lon="-1.61734">
        <ele>66</ele>
        <time>2021-08-01T09:31:44.000Z</time>
      </trkpt>
      <trkpt lat="47.13726" lon="-1.61727">
        <ele>67</ele>
        <time>2021-08-01T09:31:46.000Z</time>
      </trkpt>
      <trkpt lat="47.13734" lon="-1.61721">
        <ele>67</ele>
        <time>2021-08-01T09:31:48.000Z</time>
      </trkpt>
      <trkpt lat="47.13742" lon="-1.61735">
        <ele>66</ele>
        <time>2021-08-01T09:31:51.000Z</time>
      </trkpt>
      <trkpt lat="47.13739" lon="-1.6175">
        <ele>66</ele>
        <time>2021-08-01T09:31:53.000Z</time>
      </trkpt>
      <trkpt lat="47.13737" lon="-1.61766">
        <ele>66</ele>
        <time>2021-08-01T09:31:55.000Z</time>
      </trkpt>
      <trkpt lat="47.13733" lon="-1.61781">
        <ele>66</ele>
        <time>2021-08-01T09:31:57.000Z</time>
      </trkpt>
      <trkpt lat="47.1373" lon="-1.61797">
        <ele>66</ele>
        <time>2021-08-01T09:31:59.000Z</time>
      </trkpt>
      <trkpt lat="47.13727" lon="-1.61813">
        <ele>66</ele>
        <time>2021-08-01T09:32:01.000Z</time>
      </trkpt>
      <trkpt lat="47.13725" lon="-1.6183">
        <ele>66</ele>
        <time>2021-08-01T09:32:03.000Z</time>
      </trkpt>
      <trkpt lat="47.13724" lon="-1.61847">
        <ele>65</ele>
        <time>2021-08-01T09:32:05.000Z</time>
      </trkpt>
      <trkpt lat="47.13723" lon="-1.61863">
        <ele>65</ele>
        <time>2021-08-01T09:32:07.000Z</time>
      </trkpt>
      <trkpt lat="47.13722" lon="-1.6188">
        <ele>65</ele>
        <time>2021-08-01T09:32:09.000Z</time>
      </trkpt>
      <trkpt lat="47.13721" lon="-1.61896">
        <ele>66</ele>
        <time>2021-08-01T09:32:11.000Z</time>
      </trkpt>
      <trkpt lat="47.1372" lon="-1.61912">
        <ele>66</ele>
        <time>2021-08-01T09:32:13.000Z</time>
      </trkpt>
      <trkpt lat="47.1372" lon="-1.61929">
        <ele>65</ele>
        <time>2021-08-01T09:32:15.000Z</time>
      </trkpt>
      <trkpt lat="47.13722" lon="-1.61946">
        <ele>65</ele>
        <time>2021-08-01T09:32:17.000Z</time>
      </trkpt>
      <trkpt lat="47.13724" lon="-1.61963">
        <ele>65</ele>
        <time>2021-08-01T09:32:19.000Z</time>
      </trkpt>
      <trkpt lat="47.13726" lon="-1.6198">
        <ele>65</ele>
        <time>2021-08-01T09:32:21.000Z</time>
      </trkpt>
      <trkpt lat="47.13728" lon="-1.61996">
        <ele>65</ele>
        <time>2021-08-01T09:32:23.000Z</time>
      </trkpt>
      <trkpt lat="47.1373" lon="-1.62012">
        <ele>66</ele>
        <time>2021-08-01T09:32:25.000Z</time>
      </trkpt>
      <trkpt lat="47.13732" lon="-1.6203">
        <ele>66</ele>
        <time>2021-08-01T09:32:27.000Z</time>
      </trkpt>
      <trkpt lat="47.13734" lon="-1.62047">
        <ele>66</ele>
        <time>2021-08-01T09:32:29.000Z</time>
      </trkpt>
      <trkpt lat="47.13737" lon="-1.62063">
        <ele>65</ele>
        <time>2021-08-01T09:32:31.000Z</time>
      </trkpt>
      <trkpt lat="47.13739" lon="-1.62081">
        <ele>66</ele>
        <time>2021-08-01T09:32:33.000Z</time>
      </trkpt>
      <trkpt lat="47.13741" lon="-1.62098">
        <ele>65</ele>
        <time>2021-08-01T09:32:35.000Z</time>
      </trkpt>
      <trkpt lat="47.13744" lon="-1.62115">
        <ele>66</ele>
        <time>2021-08-01T09:32:37.000Z</time>
      </trkpt>
      <trkpt lat="47.13746" lon="-1.62132">
        <ele>65</ele>
        <time>2021-08-01T09:32:39.000Z</time>
      </trkpt>
      <trkpt lat="47.13748" lon="-1.6215">
        <ele>66</ele>
        <time>2021-08-01T09:32:41.000Z</time>
      </trkpt>
      <trkpt lat="47.13751" lon="-1.62167">
        <ele>66</ele>
        <time>2021-08-01T09:32:43.000Z</time>
      </trkpt>
      <trkpt lat="47.13753" lon="-1.62184">
        <ele>66</ele>
        <time>2021-08-01T09:32:45.000Z</time>
      </trkpt>
      <trkpt lat="47.13755" lon="-1.62201">
        <ele>66</ele>
        <time>2021-08-01T09:32:47.000Z</time>
      </trkpt>
      <trkpt lat="47.13756" lon="-1.62218">
        <ele>67</ele>
        <time>2021-08-01T09:32:49.000Z</time>
      </trkpt>
      <trkpt lat="47.13758" lon="-1.62236">
        <ele>67</ele>
        <time>2021-08-01T09:32:51.000Z</time>
      </trkpt>
      <trkpt lat="47.1376" lon="-1.62253">
        <ele>67</ele>
        <time>2021-08-01T09:32:53.000Z</time>
      </trkpt>
      <trkpt lat="47.13762" lon="-1.6227">
        <ele>67</ele>
        <time>2021-08-01T09:32:55.000Z</time>
      </trkpt>
      <trkpt lat="47.13764" lon="-1.62288">
        <ele>67</ele>
        <time>2021-08-01T09:32:57.000Z</time>
      </trkpt>
      <trkpt lat="47.13764" lon="-1.62304">
        <ele>67</ele>
        <time>2021-08-01T09:32:59.000Z</time>
      </trkpt>
      <trkpt lat="47.13764" lon="-1.62322">
        <ele>66</ele>
        <time>2021-08-01T09:33:01.000Z</time>
      </trkpt>
      <trkpt lat="47.13763" lon="-1.6234">
        <ele>66</ele>
        <time>2021-08-01T09:33:03.000Z</time>
      </trkpt>
      <trkpt lat="47.13761" lon="-1.62358">
        <ele>66</ele>
        <time>2021-08-01T09:33:05.000Z</time>
      </trkpt>
      <trkpt lat="47.13759" lon="-1.62377">
        <ele>66</ele>
        <time>2021-08-01T09:33:07.000Z</time>
      </trkpt>
      <trkpt lat="47.13758" lon="-1.62397">
        <ele>65</ele>
        <time>2021-08-01T09:33:09.000Z</time>
      </trkpt>
      <trkpt lat="47.13758" lon="-1.62418">
        <ele>64</ele>
        <time>2021-08-01T09:33:11.000Z</time>
      </trkpt>
      <trkpt lat="47.1376" lon="-1.62438">
        <ele>64</ele>
        <time>2021-08-01T09:33:13.000Z</time>
      </trkpt>
      <trkpt lat="47.13762" lon="-1.62459">
        <ele>64</ele>
        <time>2021-08-01T09:33:15.000Z</time>
      </trkpt>
      <trkpt lat="47.13764" lon="-1.6248">
        <ele>63</ele>
        <time>2021-08-01T09:33:17.000Z</time>
      </trkpt>
      <trkpt lat="47.13766" lon="-1.62501">
        <ele>64</ele>
        <time>2021-08-01T09:33:19.000Z</time>
      </trkpt>
      <trkpt lat="47.13768" lon="-1.62522">
        <ele>64</ele>
        <time>2021-08-01T09:33:21.000Z</time>
      </trkpt>
      <trkpt lat="47.1377" lon="-1.62542">
        <ele>64</ele>
        <time>2021-08-01T09:33:23.000Z</time>
      </trkpt>
      <trkpt lat="47.13772" lon="-1.62563">
        <ele>64</ele>
        <time>2021-08-01T09:33:25.000Z</time>
      </trkpt>
      <trkpt lat="47.13774" lon="-1.62583">
        <ele>64</ele>
        <time>2021-08-01T09:33:27.000Z</time>
      </trkpt>
      <trkpt lat="47.13776" lon="-1.62601">
        <ele>64</ele>
        <time>2021-08-01T09:33:29.000Z</time>
      </trkpt>
      <trkpt lat="47.13778" lon="-1.6262">
        <ele>65</ele>
        <time>2021-08-01T09:33:31.000Z</time>
      </trkpt>
      <trkpt lat="47.1378" lon="-1.62638">
        <ele>65</ele>
        <time>2021-08-01T09:33:33.000Z</time>
      </trkpt>
      <trkpt lat="47.1378" lon="-1.62656">
        <ele>65</ele>
        <time>2021-08-01T09:33:35.000Z</time>
      </trkpt>
      <trkpt lat="47.13781" lon="-1.62674">
        <ele>65</ele>
        <time>2021-08-01T09:33:37.000Z</time>
      </trkpt>
      <trkpt lat="47.13781" lon="-1.62691">
        <ele>65</ele>
        <time>2021-08-01T09:33:39.000Z</time>
      </trkpt>
      <trkpt lat="47.1378" lon="-1.62707">
        <ele>66</ele>
        <time>2021-08-01T09:33:41.000Z</time>
      </trkpt>
      <trkpt lat="47.13779" lon="-1.62725">
        <ele>65</ele>
        <time>2021-08-01T09:33:43.000Z</time>
      </trkpt>
      <trkpt lat="47.1378" lon="-1.62742">
        <ele>66</ele>
        <time>2021-08-01T09:33:45.000Z</time>
      </trkpt>
      <trkpt lat="47.13781" lon="-1.62759">
        <ele>66</ele>
        <time>2021-08-01T09:33:47.000Z</time>
      </trkpt>
      <trkpt lat="47.13784" lon="-1.62775">
        <ele>66</ele>
        <time>2021-08-01T09:33:49.000Z</time>
      </trkpt>
      <trkpt lat="47.13789" lon="-1.6279">
        <ele>66</ele>
        <time>2021-08-01T09:33:51.000Z</time>
      </trkpt>
      <trkpt lat="47.13794" lon="-1.62805">
        <ele>66</ele>
        <time>2021-08-01T09:33:53.000Z</time>
      </trkpt>
      <trkpt lat="47.13799" lon="-1.6282">
        <ele>66</ele>
        <time>2021-08-01T09:33:55.000Z</time>
      </trkpt>
      <trkpt lat="47.13804" lon="-1.62834">
        <ele>67</ele>
        <time>2021-08-01T09:33:57.000Z</time>
      </trkpt>
      <trkpt lat="47.1381" lon="-1.62848">
        <ele>67</ele>
        <time>2021-08-01T09:33:59.000Z</time>
      </trkpt>
      <trkpt lat="47.13815" lon="-1.62861">
        <ele>67</ele>
        <time>2021-08-01T09:34:01.000Z</time>
      </trkpt>
      <trkpt lat="47.13819" lon="-1.62876">
        <ele>67</ele>
        <time>2021-08-01T09:34:03.000Z</time>
      </trkpt>
      <trkpt lat="47.13823" lon="-1.6289">
        <ele>66</ele>
        <time>2021-08-01T09:34:05.000Z</time>
      </trkpt>
      <trkpt lat="47.13824" lon="-1.62906">
        <ele>66</ele>
        <time>2021-08-01T09:34:07.000Z</time>
      </trkpt>
      <trkpt lat="47.13823" lon="-1.62922">
        <ele>65</ele>
        <time>2021-08-01T09:34:09.000Z</time>
      </trkpt>
      <trkpt lat="47.13821" lon="-1.62939">
        <ele>65</ele>
        <time>2021-08-01T09:34:11.000Z</time>
      </trkpt>
      <trkpt lat="47.13819" lon="-1.62956">
        <ele>65</ele>
        <time>2021-08-01T09:34:13.000Z</time>
      </trkpt>
      <trkpt lat="47.13817" lon="-1.62973">
        <ele>65</ele>
        <time>2021-08-01T09:34:15.000Z</time>
      </trkpt>
      <trkpt lat="47.13816" lon="-1.62991">
        <ele>65</ele>
        <time>2021-08-01T09:34:17.000Z</time>
      </trkpt>
      <trkpt lat="47.13815" lon="-1.63009">
        <ele>65</ele>
        <time>2021-08-01T09:34:19.000Z</time>
      </trkpt>
      <trkpt lat="47.13815" lon="-1.63027">
        <ele>64</ele>
        <time>2021-08-01T09:34:21.000Z</time>
      </trkpt>
      <trkpt lat="47.13816" lon="-1.63045">
        <ele>64</ele>
        <time>2021-08-01T09:34:23.000Z</time>
      </trkpt>
      <trkpt lat="47.13824" lon="-1.63058">
        <ele>64</ele>
        <time>2021-08-01T09:34:25.000Z</time>
      </trkpt>
      <trkpt lat="47.13836" lon="-1.63058">
        <ele>64</ele>
        <time>2021-08-01T09:34:27.000Z</time>
      </trkpt>
      <trkpt lat="47.13849" lon="-1.63056">
        <ele>63</ele>
        <time>2021-08-01T09:34:29.000Z</time>
      </trkpt>
      <trkpt lat="47.1386" lon="-1.63054">
        <ele>64</ele>
        <time>2021-08-01T09:34:31.000Z</time>
      </trkpt>
      <trkpt lat="47.13872" lon="-1.63051">
        <ele>63</ele>
        <time>2021-08-01T09:34:33.000Z</time>
      </trkpt>
      <trkpt lat="47.13884" lon="-1.63049">
        <ele>63</ele>
        <time>2021-08-01T09:34:35.000Z</time>
      </trkpt>
      <trkpt lat="47.13897" lon="-1.63046">
        <ele>63</ele>
        <time>2021-08-01T09:34:37.000Z</time>
      </trkpt>
      <trkpt lat="47.13908" lon="-1.63043">
        <ele>63</ele>
        <time>2021-08-01T09:34:39.000Z</time>
      </trkpt>
      <trkpt lat="47.1392" lon="-1.63038">
        <ele>63</ele>
        <time>2021-08-01T09:34:41.000Z</time>
      </trkpt>
      <trkpt lat="47.13932" lon="-1.63033">
        <ele>63</ele>
        <time>2021-08-01T09:34:43.000Z</time>
      </trkpt>
      <trkpt lat="47.13943" lon="-1.63026">
        <ele>63</ele>
        <time>2021-08-01T09:34:45.000Z</time>
      </trkpt>
      <trkpt lat="47.13954" lon="-1.6302">
        <ele>63</ele>
        <time>2021-08-01T09:34:47.000Z</time>
      </trkpt>
      <trkpt lat="47.13966" lon="-1.63014">
        <ele>63</ele>
        <time>2021-08-01T09:34:49.000Z</time>
      </trkpt>
      <trkpt lat="47.13977" lon="-1.63008">
        <ele>63</ele>
        <time>2021-08-01T09:34:51.000Z</time>
      </trkpt>
      <trkpt lat="47.13988" lon="-1.63002">
        <ele>63</ele>
        <time>2021-08-01T09:34:53.000Z</time>
      </trkpt>
      <trkpt lat="47.13998" lon="-1.62996">
        <ele>64</ele>
        <time>2021-08-01T09:34:55.000Z</time>
      </trkpt>
      <trkpt lat="47.1401" lon="-1.62991">
        <ele>64</ele>
        <time>2021-08-01T09:34:57.000Z</time>
      </trkpt>
      <trkpt lat="47.14021" lon="-1.62986">
        <ele>64</ele>
        <time>2021-08-01T09:34:59.000Z</time>
      </trkpt>
      <trkpt lat="47.14033" lon="-1.62982">
        <ele>65</ele>
        <time>2021-08-01T09:35:01.000Z</time>
      </trkpt>
      <trkpt lat="47.14044" lon="-1.62979">
        <ele>65</ele>
        <time>2021-08-01T09:35:03.000Z</time>
      </trkpt>
      <trkpt lat="47.14056" lon="-1.62976">
        <ele>65</ele>
        <time>2021-08-01T09:35:05.000Z</time>
      </trkpt>
      <trkpt lat="47.14067" lon="-1.62974">
        <ele>66</ele>
        <time>2021-08-01T09:35:07.000Z</time>
      </trkpt>
      <trkpt lat="47.14078" lon="-1.62974">
        <ele>67</ele>
        <time>2021-08-01T09:35:09.000Z</time>
      </trkpt>
      <trkpt lat="47.14089" lon="-1.62975">
        <ele>66</ele>
        <time>2021-08-01T09:35:11.000Z</time>
      </trkpt>
      <trkpt lat="47.14101" lon="-1.62977">
        <ele>67</ele>
        <time>2021-08-01T09:35:13.000Z</time>
      </trkpt>
      <trkpt lat="47.14112" lon="-1.6298">
        <ele>67</ele>
        <time>2021-08-01T09:35:15.000Z</time>
      </trkpt>
      <trkpt lat="47.14123" lon="-1.62984">
        <ele>67</ele>
        <time>2021-08-01T09:35:17.000Z</time>
      </trkpt>
      <trkpt lat="47.14134" lon="-1.62989">
        <ele>67</ele>
        <time>2021-08-01T09:35:19.000Z</time>
      </trkpt>
      <trkpt lat="47.14145" lon="-1.62994">
        <ele>67</ele>
        <time>2021-08-01T09:35:21.000Z</time>
      </trkpt>
      <trkpt lat="47.14156" lon="-1.62999">
        <ele>67</ele>
        <time>2021-08-01T09:35:23.000Z</time>
      </trkpt>
      <trkpt lat="47.14166" lon="-1.63004">
        <ele>67</ele>
        <time>2021-08-01T09:35:25.000Z</time>
      </trkpt>
      <trkpt lat="47.14177" lon="-1.6301">
        <ele>67</ele>
        <time>2021-08-01T09:35:27.000Z</time>
      </trkpt>
      <trkpt lat="47.14188" lon="-1.63017">
        <ele>67</ele>
        <time>2021-08-01T09:35:29.000Z</time>
      </trkpt>
      <trkpt lat="47.14199" lon="-1.63022">
        <ele>67</ele>
        <time>2021-08-01T09:35:31.000Z</time>
      </trkpt>
      <trkpt lat="47.14211" lon="-1.63026">
        <ele>67</ele>
        <time>2021-08-01T09:35:33.000Z</time>
      </trkpt>
      <trkpt lat="47.14223" lon="-1.63032">
        <ele>67</ele>
        <time>2021-08-01T09:35:35.000Z</time>
      </trkpt>
      <trkpt lat="47.14234" lon="-1.63038">
        <ele>68</ele>
        <time>2021-08-01T09:35:37.000Z</time>
      </trkpt>
      <trkpt lat="47.14246" lon="-1.63045">
        <ele>68</ele>
        <time>2021-08-01T09:35:39.000Z</time>
      </trkpt>
      <trkpt lat="47.14257" lon="-1.63051">
        <ele>68</ele>
        <time>2021-08-01T09:35:41.000Z</time>
      </trkpt>
      <trkpt lat="47.14268" lon="-1.63057">
        <ele>68</ele>
        <time>2021-08-01T09:35:43.000Z</time>
      </trkpt>
      <trkpt lat="47.1428" lon="-1.63063">
        <ele>68</ele>
        <time>2021-08-01T09:35:45.000Z</time>
      </trkpt>
      <trkpt lat="47.14291" lon="-1.6307">
        <ele>68</ele>
        <time>2021-08-01T09:35:47.000Z</time>
      </trkpt>
      <trkpt lat="47.14303" lon="-1.63075">
        <ele>68</ele>
        <time>2021-08-01T09:35:49.000Z</time>
      </trkpt>
      <trkpt lat="47.14314" lon="-1.63081">
        <ele>68</ele>
        <time>2021-08-01T09:35:51.000Z</time>
      </trkpt>
      <trkpt lat="47.14325" lon="-1.63088">
        <ele>68</ele>
        <time>2021-08-01T09:35:53.000Z</time>
      </trkpt>
      <trkpt lat="47.14336" lon="-1.63095">
        <ele>69</ele>
        <time>2021-08-01T09:35:55.000Z</time>
      </trkpt>
      <trkpt lat="47.14348" lon="-1.63099">
        <ele>69</ele>
        <time>2021-08-01T09:35:57.000Z</time>
      </trkpt>
      <trkpt lat="47.1436" lon="-1.63105">
        <ele>69</ele>
        <time>2021-08-01T09:35:59.000Z</time>
      </trkpt>
      <trkpt lat="47.14372" lon="-1.6311">
        <ele>69</ele>
        <time>2021-08-01T09:36:01.000Z</time>
      </trkpt>
      <trkpt lat="47.14383" lon="-1.63116">
        <ele>68</ele>
        <time>2021-08-01T09:36:03.000Z</time>
      </trkpt>
      <trkpt lat="47.14394" lon="-1.63121">
        <ele>69</ele>
        <time>2021-08-01T09:36:05.000Z</time>
      </trkpt>
      <trkpt lat="47.14406" lon="-1.63126">
        <ele>69</ele>
        <time>2021-08-01T09:36:07.000Z</time>
      </trkpt>
      <trkpt lat="47.14417" lon="-1.63131">
        <ele>68</ele>
        <time>2021-08-01T09:36:09.000Z</time>
      </trkpt>
      <trkpt lat="47.14428" lon="-1.63137">
        <ele>68</ele>
        <time>2021-08-01T09:36:11.000Z</time>
      </trkpt>
      <trkpt lat="47.14439" lon="-1.63143">
        <ele>69</ele>
        <time>2021-08-01T09:36:13.000Z</time>
      </trkpt>
      <trkpt lat="47.14451" lon="-1.63146">
        <ele>69</ele>
        <time>2021-08-01T09:36:15.000Z</time>
      </trkpt>
      <trkpt lat="47.14463" lon="-1.63146">
        <ele>69</ele>
        <time>2021-08-01T09:36:17.000Z</time>
      </trkpt>
      <trkpt lat="47.14474" lon="-1.63146">
        <ele>69</ele>
        <time>2021-08-01T09:36:19.000Z</time>
      </trkpt>
      <trkpt lat="47.14486" lon="-1.63145">
        <ele>69</ele>
        <time>2021-08-01T09:36:21.000Z</time>
      </trkpt>
      <trkpt lat="47.14498" lon="-1.63146">
        <ele>69</ele>
        <time>2021-08-01T09:36:23.000Z</time>
      </trkpt>
      <trkpt lat="47.1451" lon="-1.63146">
        <ele>69</ele>
        <time>2021-08-01T09:36:25.000Z</time>
      </trkpt>
      <trkpt lat="47.1452" lon="-1.63146">
        <ele>69</ele>
        <time>2021-08-01T09:36:27.000Z</time>
      </trkpt>
      <trkpt lat="47.14532" lon="-1.63146">
        <ele>69</ele>
        <time>2021-08-01T09:36:29.000Z</time>
      </trkpt>
      <trkpt lat="47.14543" lon="-1.63146">
        <ele>69</ele>
        <time>2021-08-01T09:36:31.000Z</time>
      </trkpt>
      <trkpt lat="47.14555" lon="-1.63144">
        <ele>70</ele>
        <time>2021-08-01T09:36:33.000Z</time>
      </trkpt>
      <trkpt lat="47.14565" lon="-1.6314">
        <ele>69</ele>
        <time>2021-08-01T09:36:35.000Z</time>
      </trkpt>
      <trkpt lat="47.14576" lon="-1.63134">
        <ele>69</ele>
        <time>2021-08-01T09:36:37.000Z</time>
      </trkpt>
      <trkpt lat="47.14587" lon="-1.63128">
        <ele>69</ele>
        <time>2021-08-01T09:36:39.000Z</time>
      </trkpt>
      <trkpt lat="47.14598" lon="-1.63121">
        <ele>70</ele>
        <time>2021-08-01T09:36:41.000Z</time>
      </trkpt>
      <trkpt lat="47.14608" lon="-1.63114">
        <ele>70</ele>
        <time>2021-08-01T09:36:43.000Z</time>
      </trkpt>
      <trkpt lat="47.14619" lon="-1.63107">
        <ele>71</ele>
        <time>2021-08-01T09:36:45.000Z</time>
      </trkpt>
      <trkpt lat="47.1463" lon="-1.631">
        <ele>71</ele>
        <time>2021-08-01T09:36:47.000Z</time>
      </trkpt>
      <trkpt lat="47.1464" lon="-1.63093">
        <ele>71</ele>
        <time>2021-08-01T09:36:49.000Z</time>
      </trkpt>
      <trkpt lat="47.14651" lon="-1.63087">
        <ele>72</ele>
        <time>2021-08-01T09:36:51.000Z</time>
      </trkpt>
      <trkpt lat="47.14662" lon="-1.63081">
        <ele>72</ele>
        <time>2021-08-01T09:36:53.000Z</time>
      </trkpt>
      <trkpt lat="47.14673" lon="-1.63077">
        <ele>72</ele>
        <time>2021-08-01T09:36:55.000Z</time>
      </trkpt>
      <trkpt lat="47.14684" lon="-1.63074">
        <ele>73</ele>
        <time>2021-08-01T09:36:57.000Z</time>
      </trkpt>
      <trkpt lat="47.14695" lon="-1.63071">
        <ele>72</ele>
        <time>2021-08-01T09:36:59.000Z</time>
      </trkpt>
      <trkpt lat="47.14706" lon="-1.6307">
        <ele>73</ele>
        <time>2021-08-01T09:37:01.000Z</time>
      </trkpt>
      <trkpt lat="47.14718" lon="-1.63069">
        <ele>73</ele>
        <time>2021-08-01T09:37:03.000Z</time>
      </trkpt>
      <trkpt lat="47.14728" lon="-1.63069">
        <ele>73</ele>
        <time>2021-08-01T09:37:05.000Z</time>
      </trkpt>
      <trkpt lat="47.14739" lon="-1.63068">
        <ele>73</ele>
        <time>2021-08-01T09:37:07.000Z</time>
      </trkpt>
      <trkpt lat="47.1475" lon="-1.63068">
        <ele>73</ele>
        <time>2021-08-01T09:37:09.000Z</time>
      </trkpt>
      <trkpt lat="47.14762" lon="-1.63068">
        <ele>73</ele>
        <time>2021-08-01T09:37:11.000Z</time>
      </trkpt>
      <trkpt lat="47.14774" lon="-1.63066">
        <ele>73</ele>
        <time>2021-08-01T09:37:13.000Z</time>
      </trkpt>
      <trkpt lat="47.14786" lon="-1.63066">
        <ele>73</ele>
        <time>2021-08-01T09:37:15.000Z</time>
      </trkpt>
      <trkpt lat="47.14798" lon="-1.63066">
        <ele>73</ele>
        <time>2021-08-01T09:37:17.000Z</time>
      </trkpt>
      <trkpt lat="47.1481" lon="-1.63064">
        <ele>73</ele>
        <time>2021-08-01T09:37:19.000Z</time>
      </trkpt>
      <trkpt lat="47.14822" lon="-1.63064">
        <ele>73</ele>
        <time>2021-08-01T09:37:21.000Z</time>
      </trkpt>
      <trkpt lat="47.14833" lon="-1.63063">
        <ele>74</ele>
        <time>2021-08-01T09:37:23.000Z</time>
      </trkpt>
      <trkpt lat="47.14845" lon="-1.63063">
        <ele>74</ele>
        <time>2021-08-01T09:37:25.000Z</time>
      </trkpt>
      <trkpt lat="47.14856" lon="-1.63062">
        <ele>74</ele>
        <time>2021-08-01T09:37:27.000Z</time>
      </trkpt>
      <trkpt lat="47.14866" lon="-1.63061">
        <ele>75</ele>
        <time>2021-08-01T09:37:29.000Z</time>
      </trkpt>
      <trkpt lat="47.14875" lon="-1.63062">
        <ele>74</ele>
        <time>2021-08-01T09:37:31.000Z</time>
      </trkpt>
      <trkpt lat="47.14882" lon="-1.63076">
        <ele>74</ele>
        <time>2021-08-01T09:37:34.000Z</time>
      </trkpt>
      <trkpt lat="47.14882" lon="-1.63091">
        <ele>75</ele>
        <time>2021-08-01T09:37:36.000Z</time>
      </trkpt>
      <trkpt lat="47.1488" lon="-1.63106">
        <ele>75</ele>
        <time>2021-08-01T09:37:38.000Z</time>
      </trkpt>
      <trkpt lat="47.14877" lon="-1.63122">
        <ele>75</ele>
        <time>2021-08-01T09:37:40.000Z</time>
      </trkpt>
      <trkpt lat="47.14875" lon="-1.63139">
        <ele>75</ele>
        <time>2021-08-01T09:37:42.000Z</time>
      </trkpt>
      <trkpt lat="47.14873" lon="-1.63156">
        <ele>75</ele>
        <time>2021-08-01T09:37:44.000Z</time>
      </trkpt>
      <trkpt lat="47.14872" lon="-1.63173">
        <ele>75</ele>
        <time>2021-08-01T09:37:46.000Z</time>
      </trkpt>
      <trkpt lat="47.14871" lon="-1.63191">
        <ele>74</ele>
        <time>2021-08-01T09:37:48.000Z</time>
      </trkpt>
      <trkpt lat="47.14871" lon="-1.63209">
        <ele>74</ele>
        <time>2021-08-01T09:37:50.000Z</time>
      </trkpt>
      <trkpt lat="47.14871" lon="-1.63226">
        <ele>74</ele>
        <time>2021-08-01T09:37:52.000Z</time>
      </trkpt>
      <trkpt lat="47.14871" lon="-1.63244">
        <ele>74</ele>
        <time>2021-08-01T09:37:54.000Z</time>
      </trkpt>
      <trkpt lat="47.14871" lon="-1.63261">
        <ele>74</ele>
        <time>2021-08-01T09:37:56.000Z</time>
      </trkpt>
      <trkpt lat="47.14871" lon="-1.63278">
        <ele>74</ele>
        <time>2021-08-01T09:37:58.000Z</time>
      </trkpt>
      <trkpt lat="47.14872" lon="-1.63295">
        <ele>74</ele>
        <time>2021-08-01T09:38:00.000Z</time>
      </trkpt>
      <trkpt lat="47.14872" lon="-1.63312">
        <ele>74</ele>
        <time>2021-08-01T09:38:02.000Z</time>
      </trkpt>
      <trkpt lat="47.14873" lon="-1.6333">
        <ele>74</ele>
        <time>2021-08-01T09:38:04.000Z</time>
      </trkpt>
      <trkpt lat="47.14873" lon="-1.63347">
        <ele>74</ele>
        <time>2021-08-01T09:38:06.000Z</time>
      </trkpt>
      <trkpt lat="47.14873" lon="-1.63365">
        <ele>74</ele>
        <time>2021-08-01T09:38:08.000Z</time>
      </trkpt>
      <trkpt lat="47.14873" lon="-1.63382">
        <ele>74</ele>
        <time>2021-08-01T09:38:10.000Z</time>
      </trkpt>
      <trkpt lat="47.14872" lon="-1.634">
        <ele>74</ele>
        <time>2021-08-01T09:38:12.000Z</time>
      </trkpt>
      <trkpt lat="47.14873" lon="-1.63417">
        <ele>74</ele>
        <time>2021-08-01T09:38:14.000Z</time>
      </trkpt>
      <trkpt lat="47.14872" lon="-1.63435">
        <ele>74</ele>
        <time>2021-08-01T09:38:16.000Z</time>
      </trkpt>
      <trkpt lat="47.14872" lon="-1.63453">
        <ele>74</ele>
        <time>2021-08-01T09:38:18.000Z</time>
      </trkpt>
      <trkpt lat="47.14871" lon="-1.63471">
        <ele>74</ele>
        <time>2021-08-01T09:38:20.000Z</time>
      </trkpt>
      <trkpt lat="47.14871" lon="-1.63489">
        <ele>74</ele>
        <time>2021-08-01T09:38:22.000Z</time>
      </trkpt>
      <trkpt lat="47.1487" lon="-1.63507">
        <ele>74</ele>
        <time>2021-08-01T09:38:24.000Z</time>
      </trkpt>
      <trkpt lat="47.1487" lon="-1.63524">
        <ele>73</ele>
        <time>2021-08-01T09:38:26.000Z</time>
      </trkpt>
      <trkpt lat="47.1487" lon="-1.63542">
        <ele>73</ele>
        <time>2021-08-01T09:38:28.000Z</time>
      </trkpt>
      <trkpt lat="47.1487" lon="-1.63559">
        <ele>73</ele>
        <time>2021-08-01T09:38:30.000Z</time>
      </trkpt>
      <trkpt lat="47.1487" lon="-1.63576">
        <ele>74</ele>
        <time>2021-08-01T09:38:32.000Z</time>
      </trkpt>
      <trkpt lat="47.1487" lon="-1.63593">
        <ele>74</ele>
        <time>2021-08-01T09:38:34.000Z</time>
      </trkpt>
      <trkpt lat="47.1487" lon="-1.63611">
        <ele>74</ele>
        <time>2021-08-01T09:38:36.000Z</time>
      </trkpt>
      <trkpt lat="47.14869" lon="-1.63628">
        <ele>74</ele>
        <time>2021-08-01T09:38:38.000Z</time>
      </trkpt>
      <trkpt lat="47.14869" lon="-1.63645">
        <ele>74</ele>
        <time>2021-08-01T09:38:40.000Z</time>
      </trkpt>
      <trkpt lat="47.1487" lon="-1.63662">
        <ele>74</ele>
        <time>2021-08-01T09:38:42.000Z</time>
      </trkpt>
      <trkpt lat="47.1487" lon="-1.63679">
        <ele>73</ele>
        <time>2021-08-01T09:38:44.000Z</time>
      </trkpt>
      <trkpt lat="47.14869" lon="-1.63696">
        <ele>73</ele>
        <time>2021-08-01T09:38:46.000Z</time>
      </trkpt>
      <trkpt lat="47.1487" lon="-1.63713">
        <ele>73</ele>
        <time>2021-08-01T09:38:48.000Z</time>
      </trkpt>
      <trkpt lat="47.1487" lon="-1.6373">
        <ele>73</ele>
        <time>2021-08-01T09:38:50.000Z</time>
      </trkpt>
      <trkpt lat="47.1487" lon="-1.63748">
        <ele>73</ele>
        <time>2021-08-01T09:38:52.000Z</time>
      </trkpt>
      <trkpt lat="47.1487" lon="-1.63765">
        <ele>73</ele>
        <time>2021-08-01T09:38:54.000Z</time>
      </trkpt>
      <trkpt lat="47.1487" lon="-1.63781">
        <ele>73</ele>
        <time>2021-08-01T09:38:56.000Z</time>
      </trkpt>
      <trkpt lat="47.1487" lon="-1.63798">
        <ele>73</ele>
        <time>2021-08-01T09:38:58.000Z</time>
      </trkpt>
      <trkpt lat="47.1487" lon="-1.63815">
        <ele>73</ele>
        <time>2021-08-01T09:39:00.000Z</time>
      </trkpt>
      <trkpt lat="47.1487" lon="-1.63832">
        <ele>73</ele>
        <time>2021-08-01T09:39:02.000Z</time>
      </trkpt>
      <trkpt lat="47.14868" lon="-1.63849">
        <ele>73</ele>
        <time>2021-08-01T09:39:04.000Z</time>
      </trkpt>
      <trkpt lat="47.14867" lon="-1.63866">
        <ele>73</ele>
        <time>2021-08-01T09:39:06.000Z</time>
      </trkpt>
      <trkpt lat="47.14865" lon="-1.63882">
        <ele>73</ele>
        <time>2021-08-01T09:39:08.000Z</time>
      </trkpt>
      <trkpt lat="47.14863" lon="-1.63898">
        <ele>72</ele>
        <time>2021-08-01T09:39:10.000Z</time>
      </trkpt>
      <trkpt lat="47.14861" lon="-1.63914">
        <ele>72</ele>
        <time>2021-08-01T09:39:12.000Z</time>
      </trkpt>
      <trkpt lat="47.14858" lon="-1.6393">
        <ele>72</ele>
        <time>2021-08-01T09:39:14.000Z</time>
      </trkpt>
      <trkpt lat="47.14856" lon="-1.63945">
        <ele>73</ele>
        <time>2021-08-01T09:39:16.000Z</time>
      </trkpt>
      <trkpt lat="47.14855" lon="-1.63961">
        <ele>73</ele>
        <time>2021-08-01T09:39:18.000Z</time>
      </trkpt>
      <trkpt lat="47.14859" lon="-1.63977">
        <ele>73</ele>
        <time>2021-08-01T09:39:20.000Z</time>
      </trkpt>
      <trkpt lat="47.14866" lon="-1.6399">
        <ele>74</ele>
        <time>2021-08-01T09:39:22.000Z</time>
      </trkpt>
      <trkpt lat="47.14873" lon="-1.64002">
        <ele>74</ele>
        <time>2021-08-01T09:39:24.000Z</time>
      </trkpt>
      <trkpt lat="47.14881" lon="-1.64013">
        <ele>74</ele>
        <time>2021-08-01T09:39:26.000Z</time>
      </trkpt>
      <trkpt lat="47.14891" lon="-1.64019">
        <ele>74</ele>
        <time>2021-08-01T09:39:28.000Z</time>
      </trkpt>
      <trkpt lat="47.14901" lon="-1.6402">
        <ele>75</ele>
        <time>2021-08-01T09:39:30.000Z</time>
      </trkpt>
      <trkpt lat="47.14909" lon="-1.6401">
        <ele>75</ele>
        <time>2021-08-01T09:39:32.000Z</time>
      </trkpt>
      <trkpt lat="47.14915" lon="-1.63996">
        <ele>74</ele>
        <time>2021-08-01T09:39:34.000Z</time>
      </trkpt>
      <trkpt lat="47.14922" lon="-1.63982">
        <ele>75</ele>
        <time>2021-08-01T09:39:36.000Z</time>
      </trkpt>
      <trkpt lat="47.14929" lon="-1.63969">
        <ele>75</ele>
        <time>2021-08-01T09:39:38.000Z</time>
      </trkpt>
      <trkpt lat="47.14937" lon="-1.63955">
        <ele>74</ele>
        <time>2021-08-01T09:39:40.000Z</time>
      </trkpt>
      <trkpt lat="47.14945" lon="-1.63943">
        <ele>75</ele>
        <time>2021-08-01T09:39:42.000Z</time>
      </trkpt>
      <trkpt lat="47.14954" lon="-1.6393">
        <ele>74</ele>
        <time>2021-08-01T09:39:44.000Z</time>
      </trkpt>
      <trkpt lat="47.14963" lon="-1.63917">
        <ele>74</ele>
        <time>2021-08-01T09:39:46.000Z</time>
      </trkpt>
      <trkpt lat="47.14972" lon="-1.63904">
        <ele>74</ele>
        <time>2021-08-01T09:39:48.000Z</time>
      </trkpt>
      <trkpt lat="47.14981" lon="-1.63891">
        <ele>74</ele>
        <time>2021-08-01T09:39:50.000Z</time>
      </trkpt>
      <trkpt lat="47.14989" lon="-1.63879">
        <ele>74</ele>
        <time>2021-08-01T09:39:52.000Z</time>
      </trkpt>
      <trkpt lat="47.14998" lon="-1.63867">
        <ele>73</ele>
        <time>2021-08-01T09:39:54.000Z</time>
      </trkpt>
      <trkpt lat="47.15007" lon="-1.63855">
        <ele>73</ele>
        <time>2021-08-01T09:39:56.000Z</time>
      </trkpt>
      <trkpt lat="47.15016" lon="-1.63842">
        <ele>73</ele>
        <time>2021-08-01T09:39:58.000Z</time>
      </trkpt>
      <trkpt lat="47.15025" lon="-1.6383">
        <ele>73</ele>
        <time>2021-08-01T09:40:00.000Z</time>
      </trkpt>
      <trkpt lat="47.15034" lon="-1.63818">
        <ele>73</ele>
        <time>2021-08-01T09:40:02.000Z</time>
      </trkpt>
      <trkpt lat="47.15043" lon="-1.63806">
        <ele>72</ele>
        <time>2021-08-01T09:40:04.000Z</time>
      </trkpt>
      <trkpt lat="47.15052" lon="-1.63794">
        <ele>73</ele>
        <time>2021-08-01T09:40:06.000Z</time>
      </trkpt>
      <trkpt lat="47.15061" lon="-1.63783">
        <ele>73</ele>
        <time>2021-08-01T09:40:08.000Z</time>
      </trkpt>
      <trkpt lat="47.1507" lon="-1.63771">
        <ele>73</ele>
        <time>2021-08-01T09:40:10.000Z</time>
      </trkpt>
      <trkpt lat="47.15079" lon="-1.6376">
        <ele>73</ele>
        <time>2021-08-01T09:40:12.000Z</time>
      </trkpt>
      <trkpt lat="47.15089" lon="-1.63749">
        <ele>74</ele>
        <time>2021-08-01T09:40:14.000Z</time>
      </trkpt>
      <trkpt lat="47.15099" lon="-1.63738">
        <ele>74</ele>
        <time>2021-08-01T09:40:16.000Z</time>
      </trkpt>
      <trkpt lat="47.15109" lon="-1.63728">
        <ele>74</ele>
        <time>2021-08-01T09:40:18.000Z</time>
      </trkpt>
      <trkpt lat="47.15118" lon="-1.63717">
        <ele>74</ele>
        <time>2021-08-01T09:40:20.000Z</time>
      </trkpt>
      <trkpt lat="47.15128" lon="-1.63707">
        <ele>75</ele>
        <time>2021-08-01T09:40:22.000Z</time>
      </trkpt>
      <trkpt lat="47.15138" lon="-1.63698">
        <ele>75</ele>
        <time>2021-08-01T09:40:24.000Z</time>
      </trkpt>
      <trkpt lat="47.15149" lon="-1.63688">
        <ele>75</ele>
        <time>2021-08-01T09:40:26.000Z</time>
      </trkpt>
      <trkpt lat="47.15159" lon="-1.63678">
        <ele>75</ele>
        <time>2021-08-01T09:40:28.000Z</time>
      </trkpt>
      <trkpt lat="47.1517" lon="-1.63668">
        <ele>75</ele>
        <time>2021-08-01T09:40:30.000Z</time>
      </trkpt>
      <trkpt lat="47.15181" lon="-1.63657">
        <ele>74</ele>
        <time>2021-08-01T09:40:32.000Z</time>
      </trkpt>
      <trkpt lat="47.15192" lon="-1.63648">
        <ele>74</ele>
        <time>2021-08-01T09:40:34.000Z</time>
      </trkpt>
      <trkpt lat="47.15203" lon="-1.63638">
        <ele>74</ele>
        <time>2021-08-01T09:40:36.000Z</time>
      </trkpt>
      <trkpt lat="47.15213" lon="-1.63629">
        <ele>74</ele>
        <time>2021-08-01T09:40:38.000Z</time>
      </trkpt>
      <trkpt lat="47.15223" lon="-1.63619">
        <ele>74</ele>
        <time>2021-08-01T09:40:40.000Z</time>
      </trkpt>
      <trkpt lat="47.15233" lon="-1.6361">
        <ele>74</ele>
        <time>2021-08-01T09:40:42.000Z</time>
      </trkpt>
      <trkpt lat="47.15244" lon="-1.63599">
        <ele>74</ele>
        <time>2021-08-01T09:40:44.000Z</time>
      </trkpt>
      <trkpt lat="47.15255" lon="-1.6359">
        <ele>74</ele>
        <time>2021-08-01T09:40:46.000Z</time>
      </trkpt>
      <trkpt lat="47.15265" lon="-1.6358">
        <ele>74</ele>
        <time>2021-08-01T09:40:48.000Z</time>
      </trkpt>
      <trkpt lat="47.15276" lon="-1.63571">
        <ele>74</ele>
        <time>2021-08-01T09:40:50.000Z</time>
      </trkpt>
      <trkpt lat="47.15286" lon="-1.6356">
        <ele>74</ele>
        <time>2021-08-01T09:40:52.000Z</time>
      </trkpt>
      <trkpt lat="47.15296" lon="-1.63551">
        <ele>74</ele>
        <time>2021-08-01T09:40:54.000Z</time>
      </trkpt>
      <trkpt lat="47.15307" lon="-1.63542">
        <ele>74</ele>
        <time>2021-08-01T09:40:56.000Z</time>
      </trkpt>
      <trkpt lat="47.15318" lon="-1.63532">
        <ele>74</ele>
        <time>2021-08-01T09:40:58.000Z</time>
      </trkpt>
      <trkpt lat="47.15329" lon="-1.63522">
        <ele>75</ele>
        <time>2021-08-01T09:41:00.000Z</time>
      </trkpt>
      <trkpt lat="47.15339" lon="-1.63513">
        <ele>74</ele>
        <time>2021-08-01T09:41:02.000Z</time>
      </trkpt>
      <trkpt lat="47.15351" lon="-1.63504">
        <ele>74</ele>
        <time>2021-08-01T09:41:04.000Z</time>
      </trkpt>
      <trkpt lat="47.15361" lon="-1.63494">
        <ele>74</ele>
        <time>2021-08-01T09:41:06.000Z</time>
      </trkpt>
      <trkpt lat="47.15372" lon="-1.63484">
        <ele>74</ele>
        <time>2021-08-01T09:41:08.000Z</time>
      </trkpt>
      <trkpt lat="47.15383" lon="-1.63475">
        <ele>74</ele>
        <time>2021-08-01T09:41:10.000Z</time>
      </trkpt>
      <trkpt lat="47.15393" lon="-1.63465">
        <ele>74</ele>
        <time>2021-08-01T09:41:12.000Z</time>
      </trkpt>
      <trkpt lat="47.15404" lon="-1.63457">
        <ele>73</ele>
        <time>2021-08-01T09:41:14.000Z</time>
      </trkpt>
      <trkpt lat="47.15415" lon="-1.63447">
        <ele>73</ele>
        <time>2021-08-01T09:41:16.000Z</time>
      </trkpt>
      <trkpt lat="47.15426" lon="-1.63437">
        <ele>73</ele>
        <time>2021-08-01T09:41:18.000Z</time>
      </trkpt>
      <trkpt lat="47.15437" lon="-1.63426">
        <ele>73</ele>
        <time>2021-08-01T09:41:20.000Z</time>
      </trkpt>
      <trkpt lat="47.15448" lon="-1.63414">
        <ele>73</ele>
        <time>2021-08-01T09:41:22.000Z</time>
      </trkpt>
      <trkpt lat="47.1546" lon="-1.63403">
        <ele>72</ele>
        <time>2021-08-01T09:41:24.000Z</time>
      </trkpt>
      <trkpt lat="47.15473" lon="-1.63394">
        <ele>72</ele>
        <time>2021-08-01T09:41:26.000Z</time>
      </trkpt>
      <trkpt lat="47.15486" lon="-1.63385">
        <ele>72</ele>
        <time>2021-08-01T09:41:28.000Z</time>
      </trkpt>
      <trkpt lat="47.15505" lon="-1.63369">
        <ele>71</ele>
        <time>2021-08-01T09:41:31.000Z</time>
      </trkpt>
      <trkpt lat="47.15524" lon="-1.63353">
        <ele>70</ele>
        <time>2021-08-01T09:41:34.000Z</time>
      </trkpt>
      <trkpt lat="47.15537" lon="-1.63341">
        <ele>70</ele>
        <time>2021-08-01T09:41:36.000Z</time>
      </trkpt>
      <trkpt lat="47.15557" lon="-1.63324">
        <ele>69</ele>
        <time>2021-08-01T09:41:39.000Z</time>
      </trkpt>
      <trkpt lat="47.15577" lon="-1.63306">
        <ele>69</ele>
        <time>2021-08-01T09:41:42.000Z</time>
      </trkpt>
      <trkpt lat="47.15591" lon="-1.63294">
        <ele>68</ele>
        <time>2021-08-01T09:41:44.000Z</time>
      </trkpt>
      <trkpt lat="47.15604" lon="-1.63282">
        <ele>68</ele>
        <time>2021-08-01T09:41:46.000Z</time>
      </trkpt>
      <trkpt lat="47.15618" lon="-1.63271">
        <ele>67</ele>
        <time>2021-08-01T09:41:48.000Z</time>
      </trkpt>
      <trkpt lat="47.1563" lon="-1.63259">
        <ele>68</ele>
        <time>2021-08-01T09:41:50.000Z</time>
      </trkpt>
      <trkpt lat="47.15642" lon="-1.63249">
        <ele>68</ele>
        <time>2021-08-01T09:41:52.000Z</time>
      </trkpt>
      <trkpt lat="47.15654" lon="-1.63239">
        <ele>68</ele>
        <time>2021-08-01T09:41:54.000Z</time>
      </trkpt>
      <trkpt lat="47.15666" lon="-1.63228">
        <ele>68</ele>
        <time>2021-08-01T09:41:56.000Z</time>
      </trkpt>
      <trkpt lat="47.15677" lon="-1.63217">
        <ele>68</ele>
        <time>2021-08-01T09:41:58.000Z</time>
      </trkpt>
      <trkpt lat="47.15689" lon="-1.63207">
        <ele>68</ele>
        <time>2021-08-01T09:42:00.000Z</time>
      </trkpt>
      <trkpt lat="47.15701" lon="-1.63196">
        <ele>67</ele>
        <time>2021-08-01T09:42:02.000Z</time>
      </trkpt>
      <trkpt lat="47.15712" lon="-1.63186">
        <ele>68</ele>
        <time>2021-08-01T09:42:04.000Z</time>
      </trkpt>
      <trkpt lat="47.15724" lon="-1.63176">
        <ele>68</ele>
        <time>2021-08-01T09:42:06.000Z</time>
      </trkpt>
      <trkpt lat="47.15735" lon="-1.63166">
        <ele>68</ele>
        <time>2021-08-01T09:42:08.000Z</time>
      </trkpt>
      <trkpt lat="47.15744" lon="-1.63152">
        <ele>68</ele>
        <time>2021-08-01T09:42:10.000Z</time>
      </trkpt>
      <trkpt lat="47.15756" lon="-1.63145">
        <ele>68</ele>
        <time>2021-08-01T09:42:12.000Z</time>
      </trkpt>
      <trkpt lat="47.15768" lon="-1.63138">
        <ele>67</ele>
        <time>2021-08-01T09:42:14.000Z</time>
      </trkpt>
      <trkpt lat="47.1578" lon="-1.63128">
        <ele>67</ele>
        <time>2021-08-01T09:42:16.000Z</time>
      </trkpt>
      <trkpt lat="47.15792" lon="-1.63117">
        <ele>66</ele>
        <time>2021-08-01T09:42:18.000Z</time>
      </trkpt>
      <trkpt lat="47.15804" lon="-1.63107">
        <ele>66</ele>
        <time>2021-08-01T09:42:20.000Z</time>
      </trkpt>
      <trkpt lat="47.15816" lon="-1.63095">
        <ele>65</ele>
        <time>2021-08-01T09:42:22.000Z</time>
      </trkpt>
      <trkpt lat="47.1583" lon="-1.63083">
        <ele>64</ele>
        <time>2021-08-01T09:42:24.000Z</time>
      </trkpt>
      <trkpt lat="47.15843" lon="-1.63071">
        <ele>63</ele>
        <time>2021-08-01T09:42:26.000Z</time>
      </trkpt>
      <trkpt lat="47.15857" lon="-1.6306">
        <ele>63</ele>
        <time>2021-08-01T09:42:28.000Z</time>
      </trkpt>
      <trkpt lat="47.1587" lon="-1.63048">
        <ele>63</ele>
        <time>2021-08-01T09:42:30.000Z</time>
      </trkpt>
      <trkpt lat="47.15883" lon="-1.63037">
        <ele>63</ele>
        <time>2021-08-01T09:42:32.000Z</time>
      </trkpt>
      <trkpt lat="47.15896" lon="-1.63025">
        <ele>63</ele>
        <time>2021-08-01T09:42:34.000Z</time>
      </trkpt>
      <trkpt lat="47.15908" lon="-1.63014">
        <ele>63</ele>
        <time>2021-08-01T09:42:36.000Z</time>
      </trkpt>
      <trkpt lat="47.1592" lon="-1.63003">
        <ele>63</ele>
        <time>2021-08-01T09:42:38.000Z</time>
      </trkpt>
      <trkpt lat="47.15931" lon="-1.62993">
        <ele>63</ele>
        <time>2021-08-01T09:42:40.000Z</time>
      </trkpt>
      <trkpt lat="47.15942" lon="-1.62983">
        <ele>63</ele>
        <time>2021-08-01T09:42:42.000Z</time>
      </trkpt>
      <trkpt lat="47.15952" lon="-1.62973">
        <ele>63</ele>
        <time>2021-08-01T09:42:44.000Z</time>
      </trkpt>
      <trkpt lat="47.15962" lon="-1.62965">
        <ele>64</ele>
        <time>2021-08-01T09:42:46.000Z</time>
      </trkpt>
      <trkpt lat="47.15971" lon="-1.62957">
        <ele>64</ele>
        <time>2021-08-01T09:42:48.000Z</time>
      </trkpt>
      <trkpt lat="47.1598" lon="-1.62949">
        <ele>65</ele>
        <time>2021-08-01T09:42:50.000Z</time>
      </trkpt>
      <trkpt lat="47.15989" lon="-1.6294">
        <ele>65</ele>
        <time>2021-08-01T09:42:52.000Z</time>
      </trkpt>
      <trkpt lat="47.15998" lon="-1.62932">
        <ele>66</ele>
        <time>2021-08-01T09:42:54.000Z</time>
      </trkpt>
      <trkpt lat="47.16008" lon="-1.62923">
        <ele>66</ele>
        <time>2021-08-01T09:42:56.000Z</time>
      </trkpt>
      <trkpt lat="47.16017" lon="-1.62915">
        <ele>66</ele>
        <time>2021-08-01T09:42:58.000Z</time>
      </trkpt>
      <trkpt lat="47.16027" lon="-1.62907">
        <ele>66</ele>
        <time>2021-08-01T09:43:00.000Z</time>
      </trkpt>
      <trkpt lat="47.16036" lon="-1.62898">
        <ele>67</ele>
        <time>2021-08-01T09:43:02.000Z</time>
      </trkpt>
      <trkpt lat="47.16045" lon="-1.6289">
        <ele>68</ele>
        <time>2021-08-01T09:43:04.000Z</time>
      </trkpt>
      <trkpt lat="47.16055" lon="-1.62883">
        <ele>68</ele>
        <time>2021-08-01T09:43:06.000Z</time>
      </trkpt>
      <trkpt lat="47.16064" lon="-1.62875">
        <ele>69</ele>
        <time>2021-08-01T09:43:08.000Z</time>
      </trkpt>
      <trkpt lat="47.16072" lon="-1.62867">
        <ele>69</ele>
        <time>2021-08-01T09:43:10.000Z</time>
      </trkpt>
      <trkpt lat="47.16081" lon="-1.62859">
        <ele>70</ele>
        <time>2021-08-01T09:43:12.000Z</time>
      </trkpt>
      <trkpt lat="47.1609" lon="-1.62851">
        <ele>70</ele>
        <time>2021-08-01T09:43:14.000Z</time>
      </trkpt>
      <trkpt lat="47.161" lon="-1.62843">
        <ele>70</ele>
        <time>2021-08-01T09:43:16.000Z</time>
      </trkpt>
      <trkpt lat="47.16109" lon="-1.62836">
        <ele>71</ele>
        <time>2021-08-01T09:43:18.000Z</time>
      </trkpt>
      <trkpt lat="47.16118" lon="-1.62828">
        <ele>71</ele>
        <time>2021-08-01T09:43:20.000Z</time>
      </trkpt>
      <trkpt lat="47.16127" lon="-1.6282">
        <ele>72</ele>
        <time>2021-08-01T09:43:22.000Z</time>
      </trkpt>
      <trkpt lat="47.16136" lon="-1.62812">
        <ele>72</ele>
        <time>2021-08-01T09:43:24.000Z</time>
      </trkpt>
      <trkpt lat="47.16145" lon="-1.62804">
        <ele>72</ele>
        <time>2021-08-01T09:43:26.000Z</time>
      </trkpt>
      <trkpt lat="47.16154" lon="-1.62795">
        <ele>72</ele>
        <time>2021-08-01T09:43:28.000Z</time>
      </trkpt>
      <trkpt lat="47.16163" lon="-1.62787">
        <ele>72</ele>
        <time>2021-08-01T09:43:30.000Z</time>
      </trkpt>
      <trkpt lat="47.16172" lon="-1.62779">
        <ele>72</ele>
        <time>2021-08-01T09:43:32.000Z</time>
      </trkpt>
      <trkpt lat="47.16181" lon="-1.62771">
        <ele>72</ele>
        <time>2021-08-01T09:43:34.000Z</time>
      </trkpt>
      <trkpt lat="47.16189" lon="-1.62762">
        <ele>73</ele>
        <time>2021-08-01T09:43:36.000Z</time>
      </trkpt>
      <trkpt lat="47.16198" lon="-1.62754">
        <ele>73</ele>
        <time>2021-08-01T09:43:38.000Z</time>
      </trkpt>
      <trkpt lat="47.16207" lon="-1.62748">
        <ele>73</ele>
        <time>2021-08-01T09:43:40.000Z</time>
      </trkpt>
      <trkpt lat="47.16216" lon="-1.6274">
        <ele>74</ele>
        <time>2021-08-01T09:43:42.000Z</time>
      </trkpt>
      <trkpt lat="47.16224" lon="-1.62733">
        <ele>75</ele>
        <time>2021-08-01T09:43:44.000Z</time>
      </trkpt>
      <trkpt lat="47.16234" lon="-1.62726">
        <ele>75</ele>
        <time>2021-08-01T09:43:46.000Z</time>
      </trkpt>
      <trkpt lat="47.16243" lon="-1.62718">
        <ele>76</ele>
        <time>2021-08-01T09:43:48.000Z</time>
      </trkpt>
      <trkpt lat="47.16251" lon="-1.6271">
        <ele>76</ele>
        <time>2021-08-01T09:43:50.000Z</time>
      </trkpt>
      <trkpt lat="47.1626" lon="-1.62703">
        <ele>76</ele>
        <time>2021-08-01T09:43:52.000Z</time>
      </trkpt>
      <trkpt lat="47.16268" lon="-1.62696">
        <ele>76</ele>
        <time>2021-08-01T09:43:54.000Z</time>
      </trkpt>
      <trkpt lat="47.16276" lon="-1.62683">
        <ele>76</ele>
        <time>2021-08-01T09:43:57.000Z</time>
      </trkpt>
      <trkpt lat="47.16276" lon="-1.62669">
        <ele>76</ele>
        <time>2021-08-01T09:43:59.000Z</time>
      </trkpt>
      <trkpt lat="47.16276" lon="-1.62652">
        <ele>76</ele>
        <time>2021-08-01T09:44:01.000Z</time>
      </trkpt>
      <trkpt lat="47.16278" lon="-1.62637">
        <ele>76</ele>
        <time>2021-08-01T09:44:03.000Z</time>
      </trkpt>
      <trkpt lat="47.16281" lon="-1.62621">
        <ele>76</ele>
        <time>2021-08-01T09:44:05.000Z</time>
      </trkpt>
      <trkpt lat="47.16284" lon="-1.62606">
        <ele>75</ele>
        <time>2021-08-01T09:44:07.000Z</time>
      </trkpt>
      <trkpt lat="47.16289" lon="-1.62593">
        <ele>76</ele>
        <time>2021-08-01T09:44:09.000Z</time>
      </trkpt>
      <trkpt lat="47.16295" lon="-1.62581">
        <ele>76</ele>
        <time>2021-08-01T09:44:11.000Z</time>
      </trkpt>
      <trkpt lat="47.16304" lon="-1.62572">
        <ele>75</ele>
        <time>2021-08-01T09:44:13.000Z</time>
      </trkpt>
      <trkpt lat="47.16314" lon="-1.62569">
        <ele>76</ele>
        <time>2021-08-01T09:44:15.000Z</time>
      </trkpt>
      <trkpt lat="47.16325" lon="-1.6257">
        <ele>76</ele>
        <time>2021-08-01T09:44:17.000Z</time>
      </trkpt>
      <trkpt lat="47.16336" lon="-1.62574">
        <ele>76</ele>
        <time>2021-08-01T09:44:19.000Z</time>
      </trkpt>
      <trkpt lat="47.16347" lon="-1.62579">
        <ele>77</ele>
        <time>2021-08-01T09:44:21.000Z</time>
      </trkpt>
      <trkpt lat="47.16357" lon="-1.62581">
        <ele>77</ele>
        <time>2021-08-01T09:44:23.000Z</time>
      </trkpt>
      <trkpt lat="47.16367" lon="-1.62583">
        <ele>77</ele>
        <time>2021-08-01T09:44:25.000Z</time>
      </trkpt>
      <trkpt lat="47.16377" lon="-1.62583">
        <ele>77</ele>
        <time>2021-08-01T09:44:27.000Z</time>
      </trkpt>
      <trkpt lat="47.16387" lon="-1.62579">
        <ele>77</ele>
        <time>2021-08-01T09:44:29.000Z</time>
      </trkpt>
      <trkpt lat="47.16397" lon="-1.62573">
        <ele>77</ele>
        <time>2021-08-01T09:44:31.000Z</time>
      </trkpt>
      <trkpt lat="47.16406" lon="-1.62565">
        <ele>77</ele>
        <time>2021-08-01T09:44:33.000Z</time>
      </trkpt>
      <trkpt lat="47.16414" lon="-1.62557">
        <ele>78</ele>
        <time>2021-08-01T09:44:35.000Z</time>
      </trkpt>
      <trkpt lat="47.16423" lon="-1.62548">
        <ele>78</ele>
        <time>2021-08-01T09:44:37.000Z</time>
      </trkpt>
      <trkpt lat="47.16432" lon="-1.62541">
        <ele>78</ele>
        <time>2021-08-01T09:44:39.000Z</time>
      </trkpt>
      <trkpt lat="47.16443" lon="-1.62539">
        <ele>78</ele>
        <time>2021-08-01T09:44:41.000Z</time>
      </trkpt>
      <trkpt lat="47.16454" lon="-1.62542">
        <ele>78</ele>
        <time>2021-08-01T09:44:43.000Z</time>
      </trkpt>
      <trkpt lat="47.16465" lon="-1.62545">
        <ele>78</ele>
        <time>2021-08-01T09:44:45.000Z</time>
      </trkpt>
      <trkpt lat="47.16476" lon="-1.62548">
        <ele>78</ele>
        <time>2021-08-01T09:44:47.000Z</time>
      </trkpt>
      <trkpt lat="47.16487" lon="-1.62552">
        <ele>78</ele>
        <time>2021-08-01T09:44:49.000Z</time>
      </trkpt>
      <trkpt lat="47.16498" lon="-1.62555">
        <ele>77</ele>
        <time>2021-08-01T09:44:51.000Z</time>
      </trkpt>
      <trkpt lat="47.16509" lon="-1.62559">
        <ele>77</ele>
        <time>2021-08-01T09:44:53.000Z</time>
      </trkpt>
      <trkpt lat="47.16521" lon="-1.62563">
        <ele>76</ele>
        <time>2021-08-01T09:44:55.000Z</time>
      </trkpt>
      <trkpt lat="47.16532" lon="-1.62564">
        <ele>77</ele>
        <time>2021-08-01T09:44:57.000Z</time>
      </trkpt>
      <trkpt lat="47.16541" lon="-1.62557">
        <ele>78</ele>
        <time>2021-08-01T09:44:59.000Z</time>
      </trkpt>
      <trkpt lat="47.1655" lon="-1.62546">
        <ele>78</ele>
        <time>2021-08-01T09:45:01.000Z</time>
      </trkpt>
      <trkpt lat="47.16559" lon="-1.62535">
        <ele>77</ele>
        <time>2021-08-01T09:45:03.000Z</time>
      </trkpt>
      <trkpt lat="47.16567" lon="-1.62521">
        <ele>77</ele>
        <time>2021-08-01T09:45:05.000Z</time>
      </trkpt>
      <trkpt lat="47.16573" lon="-1.62505">
        <ele>77</ele>
        <time>2021-08-01T09:45:07.000Z</time>
      </trkpt>
      <trkpt lat="47.1658" lon="-1.62487">
        <ele>76</ele>
        <time>2021-08-01T09:45:09.000Z</time>
      </trkpt>
      <trkpt lat="47.16586" lon="-1.62471">
        <ele>75</ele>
        <time>2021-08-01T09:45:11.000Z</time>
      </trkpt>
      <trkpt lat="47.16592" lon="-1.62455">
        <ele>75</ele>
        <time>2021-08-01T09:45:13.000Z</time>
      </trkpt>
      <trkpt lat="47.16599" lon="-1.62439">
        <ele>74</ele>
        <time>2021-08-01T09:45:15.000Z</time>
      </trkpt>
      <trkpt lat="47.16606" lon="-1.62423">
        <ele>74</ele>
        <time>2021-08-01T09:45:17.000Z</time>
      </trkpt>
      <trkpt lat="47.16614" lon="-1.62408">
        <ele>73</ele>
        <time>2021-08-01T09:45:19.000Z</time>
      </trkpt>
      <trkpt lat="47.16623" lon="-1.62394">
        <ele>73</ele>
        <time>2021-08-01T09:45:21.000Z</time>
      </trkpt>
      <trkpt lat="47.16634" lon="-1.62381">
        <ele>73</ele>
        <time>2021-08-01T09:45:23.000Z</time>
      </trkpt>
      <trkpt lat="47.16644" lon="-1.6237">
        <ele>72</ele>
        <time>2021-08-01T09:45:25.000Z</time>
      </trkpt>
      <trkpt lat="47.16656" lon="-1.62362">
        <ele>72</ele>
        <time>2021-08-01T09:45:27.000Z</time>
      </trkpt>
      <trkpt lat="47.16669" lon="-1.62357">
        <ele>72</ele>
        <time>2021-08-01T09:45:29.000Z</time>
      </trkpt>
      <trkpt lat="47.16682" lon="-1.6236">
        <ele>71</ele>
        <time>2021-08-01T09:45:31.000Z</time>
      </trkpt>
      <trkpt lat="47.16694" lon="-1.62368">
        <ele>71</ele>
        <time>2021-08-01T09:45:33.000Z</time>
      </trkpt>
      <trkpt lat="47.16704" lon="-1.62379">
        <ele>70</ele>
        <time>2021-08-01T09:45:35.000Z</time>
      </trkpt>
      <trkpt lat="47.16713" lon="-1.62392">
        <ele>70</ele>
        <time>2021-08-01T09:45:37.000Z</time>
      </trkpt>
      <trkpt lat="47.1672" lon="-1.62405">
        <ele>70</ele>
        <time>2021-08-01T09:45:39.000Z</time>
      </trkpt>
      <trkpt lat="47.16728" lon="-1.62418">
        <ele>70</ele>
        <time>2021-08-01T09:45:42.000Z</time>
      </trkpt>
      <trkpt lat="47.16726" lon="-1.62438">
        <ele>70</ele>
        <time>2021-08-01T09:45:45.000Z</time>
      </trkpt>
      <trkpt lat="47.16722" lon="-1.62452">
        <ele>70</ele>
        <time>2021-08-01T09:45:47.000Z</time>
      </trkpt>
      <trkpt lat="47.16718" lon="-1.62469">
        <ele>70</ele>
        <time>2021-08-01T09:45:49.000Z</time>
      </trkpt>
      <trkpt lat="47.16715" lon="-1.62484">
        <ele>70</ele>
        <time>2021-08-01T09:45:51.000Z</time>
      </trkpt>
      <trkpt lat="47.16723" lon="-1.62499">
        <ele>70</ele>
        <time>2021-08-01T09:45:54.000Z</time>
      </trkpt>
      <trkpt lat="47.16734" lon="-1.62502">
        <ele>71</ele>
        <time>2021-08-01T09:45:56.000Z</time>
      </trkpt>
      <trkpt lat="47.16745" lon="-1.62506">
        <ele>71</ele>
        <time>2021-08-01T09:45:58.000Z</time>
      </trkpt>
      <trkpt lat="47.16755" lon="-1.62512">
        <ele>71</ele>
        <time>2021-08-01T09:46:00.000Z</time>
      </trkpt>
      <trkpt lat="47.16765" lon="-1.62517">
        <ele>71</ele>
        <time>2021-08-01T09:46:02.000Z</time>
      </trkpt>
      <trkpt lat="47.16776" lon="-1.62525">
        <ele>71</ele>
        <time>2021-08-01T09:46:04.000Z</time>
      </trkpt>
      <trkpt lat="47.16786" lon="-1.62533">
        <ele>72</ele>
        <time>2021-08-01T09:46:06.000Z</time>
      </trkpt>
      <trkpt lat="47.16796" lon="-1.6254">
        <ele>72</ele>
        <time>2021-08-01T09:46:08.000Z</time>
      </trkpt>
      <trkpt lat="47.16806" lon="-1.62546">
        <ele>72</ele>
        <time>2021-08-01T09:46:10.000Z</time>
      </trkpt>
      <trkpt lat="47.16814" lon="-1.62554">
        <ele>72</ele>
        <time>2021-08-01T09:46:12.000Z</time>
      </trkpt>
      <trkpt lat="47.16822" lon="-1.62563">
        <ele>73</ele>
        <time>2021-08-01T09:46:14.000Z</time>
      </trkpt>
      <trkpt lat="47.16829" lon="-1.62575">
        <ele>73</ele>
        <time>2021-08-01T09:46:16.000Z</time>
      </trkpt>
      <trkpt lat="47.16829" lon="-1.62589">
        <ele>73</ele>
        <time>2021-08-01T09:46:18.000Z</time>
      </trkpt>
      <trkpt lat="47.16822" lon="-1.62601">
        <ele>74</ele>
        <time>2021-08-01T09:46:20.000Z</time>
      </trkpt>
      <trkpt lat="47.16815" lon="-1.62612">
        <ele>72</ele>
        <time>2021-08-01T09:46:22.000Z</time>
      </trkpt>
      <trkpt lat="47.16808" lon="-1.62623">
        <ele>72</ele>
        <time>2021-08-01T09:46:24.000Z</time>
      </trkpt>
      <trkpt lat="47.16801" lon="-1.62635">
        <ele>72</ele>
        <time>2021-08-01T09:46:26.000Z</time>
      </trkpt>
      <trkpt lat="47.16795" lon="-1.62645">
        <ele>72</ele>
        <time>2021-08-01T09:46:28.000Z</time>
      </trkpt>
      <trkpt lat="47.16789" lon="-1.62656">
        <ele>72</ele>
        <time>2021-08-01T09:46:30.000Z</time>
      </trkpt>
      <trkpt lat="47.16779" lon="-1.62658">
        <ele>72</ele>
        <time>2021-08-01T09:46:33.000Z</time>
      </trkpt>
    </trkseg>
  </trk>
</gpx>